| time (UTC) | temp C | wind direction | speed KPH | gust KPH | rain 1hr cm | rain 24hr cm | rain mn cm | humidity % | barometer mb |
| 20260505083832 | 21 | 107 | 8.0 | 12.9 | 0.00 | 0.00 | 0.00 | 79 | 1016.1 |
| 20260505083827 | 20 | 98 | 6.4 | 9.7 | 0.00 | 0.00 | 0.00 | 80 | 1015.7 |
| 20260505083821 | 20 | 99 | 6.4 | 9.7 | 0.00 | 0.00 | 0.00 | 82 | 1015.7 |
| 20260505083655 | 18 | 99 | 4.8 | 8.0 | 0.00 | 0.00 | 0.00 | 83 | 1015.6 |
| 20260505083650 | 17 | 121 | 1.6 | 6.4 | 0.00 | 0.00 | 0.00 | 89 | 1015.3 |
| 20260505083645 | 21 | 106 | 9.7 | 12.9 | 0.00 | 0.00 | 0.00 | 79 | 1016.3 |
| 20260505083639 | 16 | 126 | 0.0 | 0.0 | 0.00 | 0.00 | 0.00 | 91 | 1014.7 |
| 20260505083634 | 20 | 98 | 8.0 | 11.3 | 0.00 | 0.00 | 0.00 | 80 | 1015.8 |
| 20260505083630 | 16 | 121 | 1.6 | 3.2 | 0.00 | 0.00 | 0.00 | 90 | 1015.0 |
| 20260505083624 | 16 | 126 | 0.0 | 0.0 | 0.00 | 0.00 | 0.00 | 91 | 1014.8 |
| 20260505083618 | 18 | 100 | 1.6 | 8.0 | 0.00 | 0.00 | 0.00 | 85 | 1015.4 |
| 20260505083613 | 18 | 100 | 0.0 | 3.2 | 0.00 | 0.00 | 0.00 | 87 | 1015.3 |
| 20260505083607 | 17 | 100 | 1.6 | 6.4 | 0.00 | 0.00 | 0.00 | 87 | 1015.3 |
| 20260505083559 | 16 | 126 | 0.0 | 0.0 | 0.00 | 0.00 | 0.00 | 92 | 1014.9 |
| 20260505083435 | 21 | 121 | 12.9 | 17.7 | 0.00 | 0.00 | 0.00 | 78 | 1016.6 |
| 20260505083429 | 21 | 113 | 12.9 | 17.7 | 0.00 | 0.00 | 0.00 | 78 | 1016.6 |
| 20260505083424 | 21 | 116 | 14.5 | 19.3 | 0.00 | 0.00 | 0.00 | 80 | 1016.7 |
| 20260505083420 | 20 | 100 | 8.0 | 12.9 | 0.00 | 0.00 | 0.00 | 79 | 1016.0 |
| 20260505083414 | 17 | 121 | 3.2 | 6.4 | 0.00 | 0.00 | 0.00 | 88 | 1015.3 |
| 20260505083408 | 16 | 126 | 1.6 | 3.2 | 0.00 | 0.00 | 0.00 | 90 | 1015.0 |
| 20260505083403 | 16 | 126 | 0.0 | 3.2 | 0.00 | 0.00 | 0.00 | 91 | 1014.9 |
| 20260505083359 | 16 | 126 | 0.0 | 0.0 | 0.00 | 0.00 | 0.00 | 91 | 1014.8 |
| 20260505083352 | 16 | 126 | 0.0 | 0.0 | 0.00 | 0.00 | 0.00 | 91 | 1014.6 |
| 20260505083228 | 21 | 112 | 9.7 | 14.5 | 0.00 | 0.00 | 0.00 | 78 | 1016.4 |
| 20260505083222 | 21 | 107 | 8.0 | 12.9 | 0.00 | 0.00 | 0.00 | 79 | 1016.1 |
| 20260505083217 | 20 | 98 | 6.4 | 9.7 | 0.00 | 0.00 | 0.00 | 80 | 1015.7 |
| 20260505083211 | 20 | 99 | 6.4 | 9.7 | 0.00 | 0.00 | 0.00 | 82 | 1015.7 |
| 20260505083207 | 18 | 99 | 4.8 | 8.0 | 0.00 | 0.00 | 0.00 | 83 | 1015.6 |
| 20260505083201 | 17 | 121 | 1.6 | 6.4 | 0.00 | 0.00 | 0.00 | 89 | 1015.3 |
| 20260505083156 | 16 | 121 | 1.6 | 3.2 | 0.00 | 0.00 | 0.00 | 90 | 1015.0 |
| 20260505083149 | 16 | 121 | 1.6 | 3.2 | 0.00 | 0.00 | 0.00 | 90 | 1015.0 |
| 20260505083145 | 16 | 126 | 0.0 | 0.0 | 0.00 | 0.00 | 0.00 | 91 | 1014.7 |
| 20260505083139 | 16 | 126 | 0.0 | 0.0 | 0.00 | 0.00 | 0.00 | 91 | 1014.8 |
| 20260505083016 | 21 | 106 | 9.7 | 12.9 | 0.00 | 0.00 | 0.00 | 79 | 1016.3 |
| 20260505083011 | 20 | 98 | 8.0 | 11.3 | 0.00 | 0.00 | 0.00 | 80 | 1015.8 |
| 20260505083007 | 18 | 100 | 1.6 | 8.0 | 0.00 | 0.00 | 0.00 | 85 | 1015.4 |
| 20260505083002 | 18 | 100 | 0.0 | 3.2 | 0.00 | 0.00 | 0.00 | 87 | 1015.3 |
| 20260505082956 | 17 | 100 | 1.6 | 6.4 | 0.00 | 0.00 | 0.00 | 87 | 1015.3 |
| 20260505082829 | 17 | 121 | 3.2 | 6.4 | 0.00 | 0.00 | 0.00 | 88 | 1015.3 |
| 20260505082825 | 16 | 126 | 1.6 | 3.2 | 0.00 | 0.00 | 0.00 | 90 | 1015.0 |
| 20260505082820 | 16 | 126 | 0.0 | 3.2 | 0.00 | 0.00 | 0.00 | 91 | 1014.9 |
| 20260505082814 | 16 | 126 | 0.0 | 0.0 | 0.00 | 0.00 | 0.00 | 91 | 1014.8 |
| 20260505082809 | 16 | 126 | 0.0 | 0.0 | 0.00 | 0.00 | 0.00 | 91 | 1014.6 |
| 20260505082643 | 20 | 99 | 6.4 | 9.7 | 0.00 | 0.00 | 0.00 | 82 | 1015.7 |
| 20260505082638 | 18 | 99 | 4.8 | 8.0 | 0.00 | 0.00 | 0.00 | 83 | 1015.6 |
| 20260505082633 | 17 | 121 | 1.6 | 6.4 | 0.00 | 0.00 | 0.00 | 89 | 1015.3 |
| 20260505082628 | 16 | 121 | 1.6 | 3.2 | 0.00 | 0.00 | 0.00 | 90 | 1015.0 |
| 20260505082623 | 16 | 121 | 1.6 | 3.2 | 0.00 | 0.00 | 0.00 | 90 | 1015.0 |
| 20260505082618 | 16 | 126 | 0.0 | 0.0 | 0.00 | 0.00 | 0.00 | 91 | 1014.7 |
| 20260505082613 | 21 | 107 | 8.0 | 12.9 | 0.00 | 0.00 | 0.00 | 79 | 1016.1 |
| 20260505082605 | 16 | 126 | 0.0 | 0.0 | 0.00 | 0.00 | 0.00 | 91 | 1014.8 |
| 20260505082442 | 18 | 100 | 1.6 | 8.0 | 0.00 | 0.00 | 0.00 | 85 | 1015.4 |
| 20260505082437 | 18 | 100 | 0.0 | 3.2 | 0.00 | 0.00 | 0.00 | 87 | 1015.3 |
| 20260505082432 | 17 | 100 | 1.6 | 6.4 | 0.00 | 0.00 | 0.00 | 87 | 1015.3 |
| 20260505082310 | 16 | 126 | 1.6 | 3.2 | 0.00 | 0.00 | 0.00 | 90 | 1015.0 |
| 20260505082305 | 16 | 126 | 0.0 | 3.2 | 0.00 | 0.00 | 0.00 | 91 | 1014.9 |
| 20260505082259 | 16 | 126 | 0.0 | 0.0 | 0.00 | 0.00 | 0.00 | 91 | 1014.8 |
| 20260505082255 | 16 | 126 | 0.0 | 0.0 | 0.00 | 0.00 | 0.00 | 91 | 1014.6 |
| 20260505082129 | 20 | 99 | 6.4 | 9.7 | 0.00 | 0.00 | 0.00 | 82 | 1015.7 |
| 20260505082125 | 18 | 99 | 4.8 | 8.0 | 0.00 | 0.00 | 0.00 | 83 | 1015.6 |
| 20260505082119 | 17 | 121 | 1.6 | 6.4 | 0.00 | 0.00 | 0.00 | 89 | 1015.3 |
| 20260505082114 | 16 | 121 | 1.6 | 3.2 | 0.00 | 0.00 | 0.00 | 90 | 1015.0 |
| 20260505082110 | 16 | 121 | 1.6 | 3.2 | 0.00 | 0.00 | 0.00 | 90 | 1015.0 |
| 20260505082104 | 16 | 126 | 0.0 | 0.0 | 0.00 | 0.00 | 0.00 | 91 | 1014.7 |
| 20260505081940 | 21 | 120 | 20.9 | 25.7 | 0.00 | 0.00 | 0.00 | 81 | 1016.5 |
| 20260505081933 | 18 | 100 | 1.6 | 8.0 | 0.00 | 0.00 | 0.00 | 85 | 1015.4 |
| 20260505081928 | 21 | 114 | 20.9 | 24.1 | 0.00 | 0.00 | 0.00 | 81 | 1016.5 |
| 20260505081924 | 21 | 118 | 19.3 | 25.7 | 0.00 | 0.00 | 0.00 | 80 | 1016.5 |
| 20260505081918 | 21 | 116 | 20.9 | 25.7 | 0.00 | 0.00 | 0.00 | 78 | 1016.4 |
| 20260505081913 | 21 | 121 | 19.3 | 24.1 | 0.00 | 0.00 | 0.00 | 79 | 1016.4 |
| 20260505081908 | 21 | 113 | 17.7 | 24.1 | 0.00 | 0.00 | 0.00 | 80 | 1016.6 |
| 20260505081903 | 21 | 113 | 19.3 | 24.1 | 0.00 | 0.00 | 0.00 | 79 | 1016.5 |
| 20260505081857 | 21 | 111 | 19.3 | 25.7 | 0.00 | 0.00 | 0.00 | 79 | 1016.6 |
| 20260505081853 | 21 | 126 | 20.9 | 25.7 | 0.00 | 0.00 | 0.00 | 81 | 1016.5 |
| 20260505081847 | 21 | 124 | 20.9 | 24.1 | 0.00 | 0.00 | 0.00 | 80 | 1016.5 |
| 20260505081843 | 21 | 124 | 12.9 | 19.3 | 0.00 | 0.00 | 0.00 | 78 | 1016.6 |
| 20260505081836 | 21 | 113 | 11.3 | 17.7 | 0.00 | 0.00 | 0.00 | 78 | 1016.5 |
| 20260505081830 | 21 | 121 | 12.9 | 17.7 | 0.00 | 0.00 | 0.00 | 78 | 1016.6 |
| 20260505081825 | 16 | 126 | 1.6 | 3.2 | 0.00 | 0.00 | 0.00 | 90 | 1015.0 |
| 20260505081821 | 21 | 113 | 12.9 | 17.7 | 0.00 | 0.00 | 0.00 | 78 | 1016.6 |
| 20260505081815 | 21 | 116 | 14.5 | 19.3 | 0.00 | 0.00 | 0.00 | 80 | 1016.7 |
| 20260505081811 | 21 | 127 | 11.3 | 16.1 | 0.00 | 0.00 | 0.00 | 77 | 1016.5 |
| 20260505081806 | 18 | 100 | 0.0 | 3.2 | 0.00 | 0.00 | 0.00 | 87 | 1015.3 |
| 20260505081800 | 21 | 112 | 9.7 | 14.5 | 0.00 | 0.00 | 0.00 | 78 | 1016.4 |
| 20260505081756 | 21 | 115 | 9.7 | 14.5 | 0.00 | 0.00 | 0.00 | 77 | 1016.5 |
| 20260505081750 | 17 | 100 | 1.6 | 6.4 | 0.00 | 0.00 | 0.00 | 87 | 1015.3 |
| 20260505081745 | 17 | 121 | 3.2 | 6.4 | 0.00 | 0.00 | 0.00 | 88 | 1015.3 |
| 20260505081740 | 16 | 126 | 0.0 | 3.2 | 0.00 | 0.00 | 0.00 | 91 | 1014.9 |
| 20260505081733 | 16 | 126 | 0.0 | 0.0 | 0.00 | 0.00 | 0.00 | 91 | 1014.8 |
| 20260505081728 | 16 | 126 | 0.0 | 0.0 | 0.00 | 0.00 | 0.00 | 91 | 1014.6 |
| 20260505081603 | 21 | 115 | 20.9 | 25.7 | 0.00 | 0.00 | 0.00 | 79 | 1016.4 |
| 20260505081557 | 21 | 131 | 14.5 | 22.5 | 0.00 | 0.00 | 0.00 | 79 | 1016.6 |
| 20260505081553 | 21 | 106 | 9.7 | 12.9 | 0.00 | 0.00 | 0.00 | 79 | 1016.3 |
| 20260505081547 | 16 | 126 | 0.0 | 0.0 | 0.00 | 0.00 | 0.00 | 91 | 1014.7 |
| 20260505081542 | 20 | 100 | 8.0 | 12.9 | 0.00 | 0.00 | 0.00 | 79 | 1016.0 |
| 20260505081538 | 16 | 121 | 1.6 | 3.2 | 0.00 | 0.00 | 0.00 | 90 | 1015.0 |
| 20260505081531 | 17 | 121 | 1.6 | 6.4 | 0.00 | 0.00 | 0.00 | 89 | 1015.3 |
| 20260505081525 | 21 | 107 | 8.0 | 12.9 | 0.00 | 0.00 | 0.00 | 79 | 1016.1 |
| 20260505081521 | 20 | 98 | 8.0 | 11.3 | 0.00 | 0.00 | 0.00 | 80 | 1015.8 |
| 20260505081515 | 20 | 98 | 6.4 | 9.7 | 0.00 | 0.00 | 0.00 | 80 | 1015.7 |
| 20260505081510 | 16 | 121 | 1.6 | 3.2 | 0.00 | 0.00 | 0.00 | 90 | 1015.0 |
| 20260505081504 | 20 | 99 | 6.4 | 9.7 | 0.00 | 0.00 | 0.00 | 82 | 1015.7 |
| 20260505081459 | 18 | 99 | 4.8 | 8.0 | 0.00 | 0.00 | 0.00 | 83 | 1015.6 |
| 20260505081454 | 18 | 100 | 1.6 | 8.0 | 0.00 | 0.00 | 0.00 | 85 | 1015.4 |
| 20260505081328 | 16 | 126 | 1.6 | 3.2 | 0.00 | 0.00 | 0.00 | 90 | 1015.0 |
| 20260505081322 | 18 | 100 | 0.0 | 3.2 | 0.00 | 0.00 | 0.00 | 87 | 1015.3 |
| 20260505081318 | 17 | 100 | 1.6 | 6.4 | 0.00 | 0.00 | 0.00 | 87 | 1015.3 |
| 20260505081312 | 21 | 113 | 19.3 | 24.1 | 0.00 | 0.00 | 0.00 | 79 | 1016.5 |
| 20260505081307 | 21 | 124 | 12.9 | 19.3 | 0.00 | 0.00 | 0.00 | 78 | 1016.6 |
| 20260505081301 | 21 | 113 | 11.3 | 17.7 | 0.00 | 0.00 | 0.00 | 78 | 1016.5 |
| 20260505081257 | 21 | 121 | 12.9 | 17.7 | 0.00 | 0.00 | 0.00 | 78 | 1016.6 |
| 20260505081251 | 21 | 113 | 12.9 | 17.7 | 0.00 | 0.00 | 0.00 | 78 | 1016.6 |
| 20260505081247 | 21 | 116 | 14.5 | 19.3 | 0.00 | 0.00 | 0.00 | 80 | 1016.7 |
| 20260505081242 | 21 | 127 | 11.3 | 16.1 | 0.00 | 0.00 | 0.00 | 77 | 1016.5 |
| 20260505081236 | 21 | 112 | 9.7 | 14.5 | 0.00 | 0.00 | 0.00 | 78 | 1016.4 |
| 20260505081229 | 21 | 115 | 9.7 | 14.5 | 0.00 | 0.00 | 0.00 | 77 | 1016.5 |
| 20260505081225 | 16 | 126 | 0.0 | 3.2 | 0.00 | 0.00 | 0.00 | 91 | 1014.9 |
| 20260505081219 | 17 | 121 | 3.2 | 6.4 | 0.00 | 0.00 | 0.00 | 88 | 1015.3 |
| 20260505081214 | 16 | 126 | 0.0 | 0.0 | 0.00 | 0.00 | 0.00 | 91 | 1014.8 |
| 20260505081208 | 16 | 126 | 0.0 | 0.0 | 0.00 | 0.00 | 0.00 | 91 | 1014.6 |
| 20260505081043 | 20 | 100 | 8.0 | 12.9 | 0.00 | 0.00 | 0.00 | 79 | 1016.0 |
| 20260505081038 | 17 | 121 | 1.6 | 6.4 | 0.00 | 0.00 | 0.00 | 89 | 1015.3 |
| 20260505081032 | 16 | 121 | 1.6 | 3.2 | 0.00 | 0.00 | 0.00 | 90 | 1015.0 |
| 20260505081025 | 16 | 121 | 1.6 | 3.2 | 0.00 | 0.00 | 0.00 | 90 | 1015.0 |
| 20260505080902 | 20 | 98 | 6.4 | 9.7 | 0.00 | 0.00 | 0.00 | 80 | 1015.7 |
| 20260505080856 | 20 | 98 | 8.0 | 11.3 | 0.00 | 0.00 | 0.00 | 80 | 1015.8 |
| 20260505080852 | 20 | 99 | 6.4 | 9.7 | 0.00 | 0.00 | 0.00 | 82 | 1015.7 |
| 20260505080846 | 18 | 99 | 4.8 | 8.0 | 0.00 | 0.00 | 0.00 | 83 | 1015.6 |
| 20260505080841 | 18 | 100 | 1.6 | 8.0 | 0.00 | 0.00 | 0.00 | 85 | 1015.4 |
| 20260505080836 | 16 | 126 | 1.6 | 3.2 | 0.00 | 0.00 | 0.00 | 90 | 1015.0 |
| 20260505080831 | 18 | 100 | 0.0 | 3.2 | 0.00 | 0.00 | 0.00 | 87 | 1015.3 |
| 20260505080824 | 17 | 100 | 1.6 | 6.4 | 0.00 | 0.00 | 0.00 | 87 | 1015.3 |
| 20260505080701 | 17 | 121 | 3.2 | 6.4 | 0.00 | 0.00 | 0.00 | 88 | 1015.3 |
| 20260505080656 | 16 | 126 | 0.0 | 0.0 | 0.00 | 0.00 | 0.00 | 91 | 1014.8 |
| 20260505080639 | 16 | 126 | 0.0 | 0.0 | 0.00 | 0.00 | 0.00 | 91 | 1014.6 |
| 20260505080525 | 16 | 121 | 1.6 | 3.2 | 0.00 | 0.00 | 0.00 | 90 | 1015.0 |
| 20260505080520 | 16 | 121 | 1.6 | 3.2 | 0.00 | 0.00 | 0.00 | 90 | 1015.0 |
| 20260505080356 | 20 | 98 | 8.0 | 11.3 | 0.00 | 0.00 | 0.00 | 80 | 1015.8 |
| 20260505080350 | 20 | 98 | 6.4 | 9.7 | 0.00 | 0.00 | 0.00 | 80 | 1015.7 |
| 20260505080346 | 20 | 99 | 6.4 | 9.7 | 0.00 | 0.00 | 0.00 | 82 | 1015.7 |
| 20260505080341 | 18 | 99 | 4.8 | 8.0 | 0.00 | 0.00 | 0.00 | 83 | 1015.6 |
| 20260505080335 | 16 | 126 | 1.6 | 3.2 | 0.00 | 0.00 | 0.00 | 90 | 1015.0 |
| 20260505080209 | 18 | 100 | 0.0 | 3.2 | 0.00 | 0.00 | 0.00 | 87 | 1015.3 |
| 20260505080203 | 16 | 126 | 0.0 | 3.2 | 0.00 | 0.00 | 0.00 | 91 | 1014.9 |
| 20260505080159 | 16 | 126 | 0.0 | 0.0 | 0.00 | 0.00 | 0.00 | 91 | 1014.8 |
| 20260505080034 | 21 | 114 | 20.9 | 24.1 | 0.00 | 0.00 | 0.00 | 81 | 1016.5 |
| 20260505080029 | 21 | 118 | 19.3 | 25.7 | 0.00 | 0.00 | 0.00 | 80 | 1016.5 |
| 20260505080024 | 21 | 116 | 20.9 | 25.7 | 0.00 | 0.00 | 0.00 | 78 | 1016.4 |
| 20260505080018 | 21 | 121 | 19.3 | 24.1 | 0.00 | 0.00 | 0.00 | 79 | 1016.4 |
| 20260505080012 | 21 | 111 | 19.3 | 25.7 | 0.00 | 0.00 | 0.00 | 79 | 1016.6 |
| 20260505080007 | 21 | 126 | 20.9 | 25.7 | 0.00 | 0.00 | 0.00 | 81 | 1016.5 |
| 20260505080002 | 21 | 124 | 20.9 | 24.1 | 0.00 | 0.00 | 0.00 | 80 | 1016.5 |
| 20260505075957 | 21 | 113 | 20.9 | 24.1 | 0.00 | 0.00 | 0.00 | 81 | 1016.5 |
| 20260505075952 | 17 | 121 | 3.2 | 6.4 | 0.00 | 0.00 | 0.00 | 88 | 1015.3 |
| 20260505075946 | 16 | 121 | 1.6 | 3.2 | 0.00 | 0.00 | 0.00 | 90 | 1015.0 |
| 20260505075942 | 21 | 115 | 20.9 | 25.7 | 0.00 | 0.00 | 0.00 | 79 | 1016.4 |
| 20260505075937 | 17 | 100 | 1.6 | 6.4 | 0.00 | 0.00 | 0.00 | 87 | 1015.3 |
| 20260505075931 | 17 | 121 | 1.6 | 6.4 | 0.00 | 0.00 | 0.00 | 89 | 1015.3 |
| 20260505075927 | 16 | 121 | 1.6 | 3.2 | 0.00 | 0.00 | 0.00 | 90 | 1015.0 |
| 20260505075923 | 21 | 113 | 11.3 | 17.7 | 0.00 | 0.00 | 0.00 | 78 | 1016.5 |
| 20260505075917 | 21 | 116 | 14.5 | 19.3 | 0.00 | 0.00 | 0.00 | 80 | 1016.7 |
| 20260505075750 | 20 | 98 | 8.0 | 11.3 | 0.00 | 0.00 | 0.00 | 80 | 1015.8 |
| 20260505075746 | 21 | 121 | 12.9 | 17.7 | 0.00 | 0.00 | 0.00 | 78 | 1016.6 |
| 20260505075740 | 18 | 99 | 4.8 | 8.0 | 0.00 | 0.00 | 0.00 | 83 | 1015.6 |
| 20260505075735 | 21 | 131 | 14.5 | 22.5 | 0.00 | 0.00 | 0.00 | 79 | 1016.6 |
| 20260505075730 | 20 | 98 | 6.4 | 9.7 | 0.00 | 0.00 | 0.00 | 80 | 1015.7 |
| 20260505075725 | 21 | 113 | 17.7 | 24.1 | 0.00 | 0.00 | 0.00 | 80 | 1016.6 |
| 20260505075719 | 21 | 113 | 19.3 | 24.1 | 0.00 | 0.00 | 0.00 | 79 | 1016.5 |
| 20260505075715 | 16 | 126 | 1.6 | 3.2 | 0.00 | 0.00 | 0.00 | 90 | 1015.0 |
| 20260505075708 | 21 | 124 | 12.9 | 19.3 | 0.00 | 0.00 | 0.00 | 78 | 1016.6 |
| 20260505075703 | 21 | 113 | 12.9 | 17.7 | 0.00 | 0.00 | 0.00 | 78 | 1016.6 |
| 20260505075658 | 21 | 112 | 9.7 | 14.5 | 0.00 | 0.00 | 0.00 | 78 | 1016.4 |
| 20260505075653 | 21 | 115 | 9.7 | 14.5 | 0.00 | 0.00 | 0.00 | 77 | 1016.5 |
| 20260505075647 | 21 | 106 | 9.7 | 12.9 | 0.00 | 0.00 | 0.00 | 79 | 1016.3 |
| 20260505075643 | 21 | 107 | 8.0 | 12.9 | 0.00 | 0.00 | 0.00 | 79 | 1016.1 |
| 20260505075637 | 20 | 100 | 8.0 | 12.9 | 0.00 | 0.00 | 0.00 | 79 | 1016.0 |
| 20260505075633 | 20 | 99 | 6.4 | 9.7 | 0.00 | 0.00 | 0.00 | 82 | 1015.7 |
| 20260505075628 | 16 | 126 | 0.0 | 3.2 | 0.00 | 0.00 | 0.00 | 91 | 1014.9 |
| 20260505075622 | 18 | 100 | 1.6 | 8.0 | 0.00 | 0.00 | 0.00 | 85 | 1015.4 |
| 20260505075618 | 18 | 100 | 0.0 | 3.2 | 0.00 | 0.00 | 0.00 | 87 | 1015.3 |
| 20260505075607 | 16 | 126 | 0.0 | 0.0 | 0.00 | 0.00 | 0.00 | 91 | 1014.8 |
| 20260505075447 | 17 | 121 | 3.2 | 6.4 | 0.00 | 0.00 | 0.00 | 88 | 1015.3 |
| 20260505075443 | 17 | 121 | 1.6 | 6.4 | 0.00 | 0.00 | 0.00 | 89 | 1015.3 |
| 20260505075437 | 16 | 121 | 1.6 | 3.2 | 0.00 | 0.00 | 0.00 | 90 | 1015.0 |
| 20260505075432 | 16 | 121 | 1.6 | 3.2 | 0.00 | 0.00 | 0.00 | 90 | 1015.0 |
| 20260505075304 | 21 | 121 | 12.9 | 17.7 | 0.00 | 0.00 | 0.00 | 78 | 1016.6 |
| 20260505075259 | 21 | 116 | 14.5 | 19.3 | 0.00 | 0.00 | 0.00 | 80 | 1016.7 |
| 20260505075254 | 21 | 127 | 11.3 | 16.1 | 0.00 | 0.00 | 0.00 | 77 | 1016.5 |
| 20260505075249 | 20 | 98 | 8.0 | 11.3 | 0.00 | 0.00 | 0.00 | 80 | 1015.8 |
| 20260505075243 | 20 | 98 | 6.4 | 9.7 | 0.00 | 0.00 | 0.00 | 80 | 1015.7 |
| 20260505075239 | 16 | 126 | 1.6 | 3.2 | 0.00 | 0.00 | 0.00 | 90 | 1015.0 |
| 20260505075234 | 18 | 99 | 4.8 | 8.0 | 0.00 | 0.00 | 0.00 | 83 | 1015.6 |
| 20260505075109 | 16 | 126 | 0.0 | 3.2 | 0.00 | 0.00 | 0.00 | 91 | 1014.9 |
| 20260505074943 | 21 | 115 | 9.7 | 14.5 | 0.00 | 0.00 | 0.00 | 77 | 1016.5 |
| 20260505074937 | 21 | 106 | 9.7 | 12.9 | 0.00 | 0.00 | 0.00 | 79 | 1016.3 |
| 20260505074931 | 21 | 107 | 8.0 | 12.9 | 0.00 | 0.00 | 0.00 | 79 | 1016.1 |
| 20260505074926 | 20 | 100 | 8.0 | 12.9 | 0.00 | 0.00 | 0.00 | 79 | 1016.0 |
| 20260505074920 | 20 | 99 | 6.4 | 9.7 | 0.00 | 0.00 | 0.00 | 82 | 1015.7 |
| 20260505074916 | 18 | 100 | 0.0 | 3.2 | 0.00 | 0.00 | 0.00 | 87 | 1015.3 |
| 20260505074911 | 17 | 121 | 3.2 | 6.4 | 0.00 | 0.00 | 0.00 | 88 | 1015.3 |
| 20260505074905 | 17 | 100 | 1.6 | 6.4 | 0.00 | 0.00 | 0.00 | 87 | 1015.3 |
| 20260505074858 | 17 | 121 | 1.6 | 6.4 | 0.00 | 0.00 | 0.00 | 89 | 1015.3 |
| 20260505074853 | 16 | 121 | 1.6 | 3.2 | 0.00 | 0.00 | 0.00 | 90 | 1015.0 |
| 20260505074848 | 16 | 121 | 1.6 | 3.2 | 0.00 | 0.00 | 0.00 | 90 | 1015.0 |
| 20260505074602 | 20 | 98 | 6.4 | 9.7 | 0.00 | 0.00 | 0.00 | 80 | 1015.7 |
| 20260505074555 | 18 | 99 | 4.8 | 8.0 | 0.00 | 0.00 | 0.00 | 83 | 1015.6 |
| 20260505074549 | 16 | 126 | 0.0 | 3.2 | 0.00 | 0.00 | 0.00 | 91 | 1014.9 |
| 20260505074545 | 18 | 100 | 1.6 | 8.0 | 0.00 | 0.00 | 0.00 | 85 | 1015.4 |
| 20260505074420 | 17 | 121 | 3.2 | 6.4 | 0.00 | 0.00 | 0.00 | 88 | 1015.3 |
| 20260505074414 | 21 | 113 | 17.7 | 24.1 | 0.00 | 0.00 | 0.00 | 80 | 1016.6 |
| 20260505074410 | 21 | 113 | 19.3 | 24.1 | 0.00 | 0.00 | 0.00 | 79 | 1016.5 |
| 20260505074405 | 21 | 124 | 12.9 | 19.3 | 0.00 | 0.00 | 0.00 | 78 | 1016.6 |
| 20260505074400 | 21 | 113 | 12.9 | 17.7 | 0.00 | 0.00 | 0.00 | 78 | 1016.6 |
| 20260505074351 | 21 | 113 | 11.3 | 17.7 | 0.00 | 0.00 | 0.00 | 78 | 1016.5 |
| 20260505074347 | 21 | 121 | 12.9 | 17.7 | 0.00 | 0.00 | 0.00 | 78 | 1016.6 |
| 20260505074341 | 21 | 116 | 14.5 | 19.3 | 0.00 | 0.00 | 0.00 | 80 | 1016.7 |
| 20260505074337 | 21 | 127 | 11.3 | 16.1 | 0.00 | 0.00 | 0.00 | 77 | 1016.5 |
| 20260505074332 | 21 | 112 | 9.7 | 14.5 | 0.00 | 0.00 | 0.00 | 78 | 1016.4 |
| 20260505074326 | 17 | 121 | 1.6 | 6.4 | 0.00 | 0.00 | 0.00 | 89 | 1015.3 |
| 20260505074322 | 20 | 99 | 6.4 | 9.7 | 0.00 | 0.00 | 0.00 | 82 | 1015.7 |
| 20260505074316 | 16 | 121 | 1.6 | 3.2 | 0.00 | 0.00 | 0.00 | 90 | 1015.0 |
| 20260505074148 | 18 | 100 | 0.0 | 3.2 | 0.00 | 0.00 | 0.00 | 87 | 1015.3 |
| 20260505074144 | 16 | 121 | 1.6 | 3.2 | 0.00 | 0.00 | 0.00 | 90 | 1015.0 |
| 20260505074139 | 17 | 100 | 1.6 | 6.4 | 0.00 | 0.00 | 0.00 | 87 | 1015.3 |
| 20260505074133 | 16 | 126 | 1.6 | 3.2 | 0.00 | 0.00 | 0.00 | 90 | 1015.0 |
| 20260505074008 | 21 | 107 | 8.0 | 12.9 | 0.00 | 0.00 | 0.00 | 79 | 1016.1 |
| 20260505074003 | 20 | 100 | 8.0 | 12.9 | 0.00 | 0.00 | 0.00 | 79 | 1016.0 |
| 20260505073958 | 20 | 98 | 8.0 | 11.3 | 0.00 | 0.00 | 0.00 | 80 | 1015.8 |
| 20260505073953 | 20 | 98 | 6.4 | 9.7 | 0.00 | 0.00 | 0.00 | 80 | 1015.7 |
| 20260505073946 | 18 | 99 | 4.8 | 8.0 | 0.00 | 0.00 | 0.00 | 83 | 1015.6 |
| 20260505073942 | 18 | 100 | 1.6 | 8.0 | 0.00 | 0.00 | 0.00 | 85 | 1015.4 |
| 20260505073936 | 17 | 121 | 3.2 | 6.4 | 0.00 | 0.00 | 0.00 | 88 | 1015.3 |
| 20260505073812 | 20 | 99 | 6.4 | 9.7 | 0.00 | 0.00 | 0.00 | 82 | 1015.7 |
| 20260505073808 | 16 | 121 | 1.6 | 3.2 | 0.00 | 0.00 | 0.00 | 90 | 1015.0 |
| 20260505073803 | 21 | 120 | 20.9 | 25.7 | 0.00 | 0.00 | 0.00 | 81 | 1016.5 |
| 20260505073636 | 21 | 111 | 19.3 | 25.7 | 0.00 | 0.00 | 0.00 | 79 | 1016.6 |
| 20260505073631 | 21 | 131 | 14.5 | 22.5 | 0.00 | 0.00 | 0.00 | 79 | 1016.6 |
| 20260505073627 | 21 | 113 | 17.7 | 24.1 | 0.00 | 0.00 | 0.00 | 80 | 1016.6 |
| 20260505073621 | 18 | 100 | 0.0 | 3.2 | 0.00 | 0.00 | 0.00 | 87 | 1015.3 |
| 20260505073615 | 17 | 100 | 1.6 | 6.4 | 0.00 | 0.00 | 0.00 | 87 | 1015.3 |
| 20260505073606 | 16 | 126 | 1.6 | 3.2 | 0.00 | 0.00 | 0.00 | 90 | 1015.0 |
| 20260505073443 | 21 | 124 | 12.9 | 19.3 | 0.00 | 0.00 | 0.00 | 78 | 1016.6 |
| 20260505073438 | 21 | 113 | 12.9 | 17.7 | 0.00 | 0.00 | 0.00 | 78 | 1016.6 |
| 20260505073432 | 21 | 113 | 11.3 | 17.7 | 0.00 | 0.00 | 0.00 | 78 | 1016.5 |
| 20260505073428 | 21 | 121 | 12.9 | 17.7 | 0.00 | 0.00 | 0.00 | 78 | 1016.6 |
| 20260505073423 | 21 | 116 | 14.5 | 19.3 | 0.00 | 0.00 | 0.00 | 80 | 1016.7 |
| 20260505073417 | 21 | 127 | 11.3 | 16.1 | 0.00 | 0.00 | 0.00 | 77 | 1016.5 |
| 20260505073413 | 21 | 112 | 9.7 | 14.5 | 0.00 | 0.00 | 0.00 | 78 | 1016.4 |
| 20260505073407 | 21 | 115 | 9.7 | 14.5 | 0.00 | 0.00 | 0.00 | 77 | 1016.5 |
| 20260505073402 | 21 | 106 | 9.7 | 12.9 | 0.00 | 0.00 | 0.00 | 79 | 1016.3 |
| 20260505073357 | 21 | 107 | 8.0 | 12.9 | 0.00 | 0.00 | 0.00 | 79 | 1016.1 |
| 20260505073353 | 20 | 100 | 8.0 | 12.9 | 0.00 | 0.00 | 0.00 | 79 | 1016.0 |
| 20260505073348 | 20 | 98 | 8.0 | 11.3 | 0.00 | 0.00 | 0.00 | 80 | 1015.8 |
| 20260505073341 | 17 | 121 | 3.2 | 6.4 | 0.00 | 0.00 | 0.00 | 88 | 1015.3 |
| 20260505073335 | 20 | 98 | 6.4 | 9.7 | 0.00 | 0.00 | 0.00 | 80 | 1015.7 |
| 20260505073331 | 20 | 99 | 6.4 | 9.7 | 0.00 | 0.00 | 0.00 | 82 | 1015.7 |
| 20260505073325 | 18 | 99 | 4.8 | 8.0 | 0.00 | 0.00 | 0.00 | 83 | 1015.6 |
| 20260505073321 | 17 | 121 | 1.6 | 6.4 | 0.00 | 0.00 | 0.00 | 89 | 1015.3 |
| 20260505073316 | 18 | 100 | 1.6 | 8.0 | 0.00 | 0.00 | 0.00 | 85 | 1015.4 |
| 20260505073310 | 16 | 121 | 1.6 | 3.2 | 0.00 | 0.00 | 0.00 | 90 | 1015.0 |
| 20260505073027 | 17 | 100 | 1.6 | 6.4 | 0.00 | 0.00 | 0.00 | 87 | 1015.3 |
| 20260505072901 | 21 | 118 | 19.3 | 25.7 | 0.00 | 0.00 | 0.00 | 80 | 1016.5 |
| 20260505072856 | 21 | 116 | 20.9 | 25.7 | 0.00 | 0.00 | 0.00 | 78 | 1016.4 |
| 20260505072852 | 21 | 126 | 20.9 | 25.7 | 0.00 | 0.00 | 0.00 | 81 | 1016.5 |
| 20260505072847 | 17 | 121 | 3.2 | 6.4 | 0.00 | 0.00 | 0.00 | 88 | 1015.3 |
| 20260505072842 | 17 | 121 | 1.6 | 6.4 | 0.00 | 0.00 | 0.00 | 89 | 1015.3 |
| 20260505072714 | 18 | 99 | 4.8 | 8.0 | 0.00 | 0.00 | 0.00 | 83 | 1015.6 |
| 20260505072710 | 21 | 131 | 14.5 | 22.5 | 0.00 | 0.00 | 0.00 | 79 | 1016.6 |
| 20260505072705 | 21 | 111 | 19.3 | 25.7 | 0.00 | 0.00 | 0.00 | 79 | 1016.6 |
| 20260505072700 | 21 | 113 | 17.7 | 24.1 | 0.00 | 0.00 | 0.00 | 80 | 1016.6 |
| 20260505072654 | 21 | 113 | 12.9 | 17.7 | 0.00 | 0.00 | 0.00 | 78 | 1016.6 |
| 20260505072650 | 21 | 124 | 12.9 | 19.3 | 0.00 | 0.00 | 0.00 | 78 | 1016.6 |
| 20260505072645 | 21 | 127 | 11.3 | 16.1 | 0.00 | 0.00 | 0.00 | 77 | 1016.5 |
| 20260505072639 | 21 | 113 | 19.3 | 24.1 | 0.00 | 0.00 | 0.00 | 79 | 1016.5 |
| 20260505072632 | 21 | 112 | 9.7 | 14.5 | 0.00 | 0.00 | 0.00 | 78 | 1016.4 |
| 20260505072627 | 21 | 115 | 9.7 | 14.5 | 0.00 | 0.00 | 0.00 | 77 | 1016.5 |
| 20260505072622 | 21 | 113 | 11.3 | 17.7 | 0.00 | 0.00 | 0.00 | 78 | 1016.5 |
| 20260505072617 | 21 | 121 | 12.9 | 17.7 | 0.00 | 0.00 | 0.00 | 78 | 1016.6 |
| 20260505072611 | 21 | 116 | 14.5 | 19.3 | 0.00 | 0.00 | 0.00 | 80 | 1016.7 |
| 20260505072606 | 21 | 106 | 9.7 | 12.9 | 0.00 | 0.00 | 0.00 | 79 | 1016.3 |
| 20260505072602 | 18 | 100 | 1.6 | 8.0 | 0.00 | 0.00 | 0.00 | 85 | 1015.4 |
| 20260505072556 | 21 | 107 | 8.0 | 12.9 | 0.00 | 0.00 | 0.00 | 79 | 1016.1 |
| 20260505072550 | 16 | 121 | 1.6 | 3.2 | 0.00 | 0.00 | 0.00 | 90 | 1015.0 |
| 20260505072545 | 20 | 100 | 8.0 | 12.9 | 0.00 | 0.00 | 0.00 | 79 | 1016.0 |
| 20260505072541 | 16 | 121 | 1.6 | 3.2 | 0.00 | 0.00 | 0.00 | 90 | 1015.0 |
| 20260505072532 | 20 | 98 | 8.0 | 11.3 | 0.00 | 0.00 | 0.00 | 80 | 1015.8 |
| 20260505072528 | 20 | 98 | 6.4 | 9.7 | 0.00 | 0.00 | 0.00 | 80 | 1015.7 |
| 20260505072524 | 20 | 99 | 6.4 | 9.7 | 0.00 | 0.00 | 0.00 | 82 | 1015.7 |
| 20260505072519 | 18 | 100 | 0.0 | 3.2 | 0.00 | 0.00 | 0.00 | 87 | 1015.3 |
| 20260505072513 | 17 | 100 | 1.6 | 6.4 | 0.00 | 0.00 | 0.00 | 87 | 1015.3 |
| 20260505072226 | 18 | 99 | 4.8 | 8.0 | 0.00 | 0.00 | 0.00 | 83 | 1015.6 |
| 20260505072220 | 21 | 113 | 20.9 | 24.1 | 0.00 | 0.00 | 0.00 | 81 | 1016.5 |
| 20260505072215 | 21 | 115 | 20.9 | 25.7 | 0.00 | 0.00 | 0.00 | 79 | 1016.4 |
| 20260505072211 | 21 | 126 | 20.9 | 25.7 | 0.00 | 0.00 | 0.00 | 81 | 1016.5 |
| 20260505072205 | 21 | 124 | 20.9 | 24.1 | 0.00 | 0.00 | 0.00 | 80 | 1016.5 |
| 20260505072201 | 21 | 111 | 19.3 | 25.7 | 0.00 | 0.00 | 0.00 | 79 | 1016.6 |
| 20260505072156 | 21 | 131 | 14.5 | 22.5 | 0.00 | 0.00 | 0.00 | 79 | 1016.6 |
| 20260505072150 | 21 | 124 | 12.9 | 19.3 | 0.00 | 0.00 | 0.00 | 78 | 1016.6 |
| 20260505072144 | 21 | 113 | 12.9 | 17.7 | 0.00 | 0.00 | 0.00 | 78 | 1016.6 |
| 20260505072140 | 21 | 113 | 11.3 | 17.7 | 0.00 | 0.00 | 0.00 | 78 | 1016.5 |
| 20260505072135 | 21 | 127 | 11.3 | 16.1 | 0.00 | 0.00 | 0.00 | 77 | 1016.5 |
| 20260505072128 | 21 | 112 | 9.7 | 14.5 | 0.00 | 0.00 | 0.00 | 78 | 1016.4 |
| 20260505072122 | 21 | 115 | 9.7 | 14.5 | 0.00 | 0.00 | 0.00 | 77 | 1016.5 |
| 20260505072117 | 18 | 100 | 1.6 | 8.0 | 0.00 | 0.00 | 0.00 | 85 | 1015.4 |
| 20260505072111 | 16 | 121 | 1.6 | 3.2 | 0.00 | 0.00 | 0.00 | 90 | 1015.0 |
| 20260505071945 | 21 | 107 | 8.0 | 12.9 | 0.00 | 0.00 | 0.00 | 79 | 1016.1 |
| 20260505071939 | 20 | 100 | 8.0 | 12.9 | 0.00 | 0.00 | 0.00 | 79 | 1016.0 |
| 20260505071935 | 20 | 98 | 8.0 | 11.3 | 0.00 | 0.00 | 0.00 | 80 | 1015.8 |
| 20260505071929 | 20 | 99 | 6.4 | 9.7 | 0.00 | 0.00 | 0.00 | 82 | 1015.7 |
| 20260505071922 | 18 | 100 | 0.0 | 3.2 | 0.00 | 0.00 | 0.00 | 87 | 1015.3 |
| 20260505071918 | 17 | 100 | 1.6 | 6.4 | 0.00 | 0.00 | 0.00 | 87 | 1015.3 |
| 20260505071753 | 21 | 113 | 19.3 | 24.1 | 0.00 | 0.00 | 0.00 | 79 | 1016.5 |
| 20260505071749 | 21 | 121 | 12.9 | 17.7 | 0.00 | 0.00 | 0.00 | 78 | 1016.6 |
| 20260505071743 | 21 | 116 | 14.5 | 19.3 | 0.00 | 0.00 | 0.00 | 80 | 1016.7 |
| 20260505071739 | 20 | 98 | 6.4 | 9.7 | 0.00 | 0.00 | 0.00 | 80 | 1015.7 |
| 20260505071733 | 18 | 99 | 4.8 | 8.0 | 0.00 | 0.00 | 0.00 | 83 | 1015.6 |
| 20260505071728 | 17 | 121 | 3.2 | 6.4 | 0.00 | 0.00 | 0.00 | 88 | 1015.3 |
| 20260505071721 | 17 | 121 | 1.6 | 6.4 | 0.00 | 0.00 | 0.00 | 89 | 1015.3 |
| 20260505071556 | 21 | 124 | 12.9 | 19.3 | 0.00 | 0.00 | 0.00 | 78 | 1016.6 |
| 20260505071551 | 18 | 100 | 1.6 | 8.0 | 0.00 | 0.00 | 0.00 | 85 | 1015.4 |
| 20260505071545 | 16 | 121 | 1.6 | 3.2 | 0.00 | 0.00 | 0.00 | 90 | 1015.0 |
| 20260505071419 | 21 | 113 | 11.3 | 17.7 | 0.00 | 0.00 | 0.00 | 78 | 1016.5 |
| 20260505071415 | 21 | 127 | 11.3 | 16.1 | 0.00 | 0.00 | 0.00 | 77 | 1016.5 |
| 20260505071410 | 21 | 112 | 9.7 | 14.5 | 0.00 | 0.00 | 0.00 | 78 | 1016.4 |
| 20260505071404 | 21 | 115 | 9.7 | 14.5 | 0.00 | 0.00 | 0.00 | 77 | 1016.5 |
| 20260505071358 | 21 | 106 | 9.7 | 12.9 | 0.00 | 0.00 | 0.00 | 79 | 1016.3 |
| 20260505071353 | 21 | 107 | 8.0 | 12.9 | 0.00 | 0.00 | 0.00 | 79 | 1016.1 |
| 20260505071348 | 20 | 100 | 8.0 | 12.9 | 0.00 | 0.00 | 0.00 | 79 | 1016.0 |
| 20260505071343 | 20 | 98 | 8.0 | 11.3 | 0.00 | 0.00 | 0.00 | 80 | 1015.8 |
| 20260505071337 | 20 | 99 | 6.4 | 9.7 | 0.00 | 0.00 | 0.00 | 82 | 1015.7 |
| 20260505071333 | 17 | 100 | 1.6 | 6.4 | 0.00 | 0.00 | 0.00 | 87 | 1015.3 |
| 20260505071328 | 18 | 100 | 0.0 | 3.2 | 0.00 | 0.00 | 0.00 | 87 | 1015.3 |
| 20260505071201 | 21 | 116 | 14.5 | 19.3 | 0.00 | 0.00 | 0.00 | 80 | 1016.7 |
| 20260505071155 | 20 | 98 | 6.4 | 9.7 | 0.00 | 0.00 | 0.00 | 80 | 1015.7 |
| 20260505071151 | 18 | 99 | 4.8 | 8.0 | 0.00 | 0.00 | 0.00 | 83 | 1015.6 |
| 20260505071145 | 17 | 121 | 3.2 | 6.4 | 0.00 | 0.00 | 0.00 | 88 | 1015.3 |
| 20260505071140 | 17 | 121 | 1.6 | 6.4 | 0.00 | 0.00 | 0.00 | 89 | 1015.3 |
| 20260505070856 | 21 | 127 | 11.3 | 16.1 | 0.00 | 0.00 | 0.00 | 77 | 1016.5 |
| 20260505070851 | 21 | 112 | 9.7 | 14.5 | 0.00 | 0.00 | 0.00 | 78 | 1016.4 |
| 20260505070845 | 21 | 115 | 9.7 | 14.5 | 0.00 | 0.00 | 0.00 | 77 | 1016.5 |
| 20260505070841 | 21 | 106 | 9.7 | 12.9 | 0.00 | 0.00 | 0.00 | 79 | 1016.3 |
| 20260505070835 | 21 | 107 | 8.0 | 12.9 | 0.00 | 0.00 | 0.00 | 79 | 1016.1 |
| 20260505070830 | 20 | 100 | 8.0 | 12.9 | 0.00 | 0.00 | 0.00 | 79 | 1016.0 |
| 20260505070826 | 20 | 98 | 8.0 | 11.3 | 0.00 | 0.00 | 0.00 | 80 | 1015.8 |
| 20260505070820 | 20 | 99 | 6.4 | 9.7 | 0.00 | 0.00 | 0.00 | 82 | 1015.7 |
| 20260505070813 | 18 | 100 | 0.0 | 3.2 | 0.00 | 0.00 | 0.00 | 87 | 1015.3 |
| 20260505070807 | 17 | 100 | 1.6 | 6.4 | 0.00 | 0.00 | 0.00 | 87 | 1015.3 |
| 20260505070642 | 22 | 109 | 20.9 | 29.0 | 0.00 | 0.00 | 0.00 | 79 | 1016.4 |
| 20260505070637 | 21 | 121 | 19.3 | 24.1 | 0.00 | 0.00 | 0.00 | 79 | 1016.4 |
| 20260505070631 | 21 | 120 | 20.9 | 25.7 | 0.00 | 0.00 | 0.00 | 81 | 1016.5 |
| 20260505070627 | 21 | 114 | 20.9 | 24.1 | 0.00 | 0.00 | 0.00 | 81 | 1016.5 |
| 20260505070622 | 17 | 121 | 3.2 | 6.4 | 0.00 | 0.00 | 0.00 | 88 | 1015.3 |
| 20260505070616 | 21 | 126 | 20.9 | 25.7 | 0.00 | 0.00 | 0.00 | 81 | 1016.5 |
| 20260505070609 | 20 | 98 | 6.4 | 9.7 | 0.00 | 0.00 | 0.00 | 80 | 1015.7 |
| 20260505070559 | 17 | 121 | 1.6 | 6.4 | 0.00 | 0.00 | 0.00 | 89 | 1015.3 |
| 20260505070439 | 18 | 99 | 4.8 | 8.0 | 0.00 | 0.00 | 0.00 | 83 | 1015.6 |
| 20260505070434 | 21 | 113 | 17.7 | 24.1 | 0.00 | 0.00 | 0.00 | 80 | 1016.6 |
| 20260505070428 | 21 | 116 | 20.9 | 25.7 | 0.00 | 0.00 | 0.00 | 78 | 1016.4 |
| 20260505070423 | 18 | 100 | 1.6 | 8.0 | 0.00 | 0.00 | 0.00 | 85 | 1015.4 |
| 20260505070417 | 21 | 113 | 20.9 | 24.1 | 0.00 | 0.00 | 0.00 | 81 | 1016.5 |
| 20260505070413 | 21 | 115 | 20.9 | 25.7 | 0.00 | 0.00 | 0.00 | 79 | 1016.4 |
| 20260505070405 | 21 | 124 | 20.9 | 24.1 | 0.00 | 0.00 | 0.00 | 80 | 1016.5 |
| 20260505070400 | 21 | 111 | 19.3 | 25.7 | 0.00 | 0.00 | 0.00 | 79 | 1016.6 |
| 20260505070355 | 21 | 113 | 19.3 | 24.1 | 0.00 | 0.00 | 0.00 | 79 | 1016.5 |
| 20260505070349 | 21 | 131 | 14.5 | 22.5 | 0.00 | 0.00 | 0.00 | 79 | 1016.6 |
| 20260505070345 | 21 | 124 | 12.9 | 19.3 | 0.00 | 0.00 | 0.00 | 78 | 1016.6 |
| 20260505070339 | 21 | 113 | 12.9 | 17.7 | 0.00 | 0.00 | 0.00 | 78 | 1016.6 |
| 20260505070335 | 21 | 121 | 12.9 | 17.7 | 0.00 | 0.00 | 0.00 | 78 | 1016.6 |
| 20260505070330 | 21 | 116 | 14.5 | 19.3 | 0.00 | 0.00 | 0.00 | 80 | 1016.7 |
| 20260505070324 | 21 | 113 | 11.3 | 17.7 | 0.00 | 0.00 | 0.00 | 78 | 1016.5 |
| 20260505070320 | 21 | 127 | 11.3 | 16.1 | 0.00 | 0.00 | 0.00 | 77 | 1016.5 |
| 20260505070314 | 21 | 112 | 9.7 | 14.5 | 0.00 | 0.00 | 0.00 | 78 | 1016.4 |
| 20260505070307 | 21 | 115 | 9.7 | 14.5 | 0.00 | 0.00 | 0.00 | 77 | 1016.5 |
| 20260505070303 | 21 | 106 | 9.7 | 12.9 | 0.00 | 0.00 | 0.00 | 79 | 1016.3 |
| 20260505070257 | 21 | 107 | 8.0 | 12.9 | 0.00 | 0.00 | 0.00 | 79 | 1016.1 |
| 20260505070252 | 20 | 100 | 8.0 | 12.9 | 0.00 | 0.00 | 0.00 | 79 | 1016.0 |
| 20260505070247 | 20 | 98 | 8.0 | 11.3 | 0.00 | 0.00 | 0.00 | 80 | 1015.8 |
| 20260505070242 | 20 | 99 | 6.4 | 9.7 | 0.00 | 0.00 | 0.00 | 82 | 1015.7 |
| 20260505070237 | 18 | 100 | 0.0 | 3.2 | 0.00 | 0.00 | 0.00 | 87 | 1015.3 |
| 20260505070231 | 17 | 100 | 1.6 | 6.4 | 0.00 | 0.00 | 0.00 | 87 | 1015.3 |
| 20260505065948 | 21 | 113 | 17.7 | 24.1 | 0.00 | 0.00 | 0.00 | 80 | 1016.6 |
| 20260505065942 | 20 | 98 | 6.4 | 9.7 | 0.00 | 0.00 | 0.00 | 80 | 1015.7 |
| 20260505065938 | 18 | 99 | 4.8 | 8.0 | 0.00 | 0.00 | 0.00 | 83 | 1015.6 |
| 20260505065932 | 18 | 100 | 1.6 | 8.0 | 0.00 | 0.00 | 0.00 | 85 | 1015.4 |
| 20260505065808 | 21 | 131 | 14.5 | 22.5 | 0.00 | 0.00 | 0.00 | 79 | 1016.6 |
| 20260505065801 | 21 | 124 | 12.9 | 19.3 | 0.00 | 0.00 | 0.00 | 78 | 1016.6 |
| 20260505065756 | 21 | 113 | 12.9 | 17.7 | 0.00 | 0.00 | 0.00 | 78 | 1016.6 |
| 20260505065751 | 21 | 121 | 12.9 | 17.7 | 0.00 | 0.00 | 0.00 | 78 | 1016.6 |
| 20260505065746 | 21 | 116 | 14.5 | 19.3 | 0.00 | 0.00 | 0.00 | 80 | 1016.7 |
| 20260505065740 | 21 | 113 | 11.3 | 17.7 | 0.00 | 0.00 | 0.00 | 78 | 1016.5 |
| 20260505065736 | 21 | 127 | 11.3 | 16.1 | 0.00 | 0.00 | 0.00 | 77 | 1016.5 |
| 20260505065730 | 21 | 112 | 9.7 | 14.5 | 0.00 | 0.00 | 0.00 | 78 | 1016.4 |
| 20260505065725 | 21 | 115 | 9.7 | 14.5 | 0.00 | 0.00 | 0.00 | 77 | 1016.5 |
| 20260505065721 | 21 | 106 | 9.7 | 12.9 | 0.00 | 0.00 | 0.00 | 79 | 1016.3 |
| 20260505065715 | 18 | 100 | 0.0 | 3.2 | 0.00 | 0.00 | 0.00 | 87 | 1015.3 |
| 20260505065711 | 17 | 100 | 1.6 | 6.4 | 0.00 | 0.00 | 0.00 | 87 | 1015.3 |
| 20260505065543 | 17 | 121 | 3.2 | 6.4 | 0.00 | 0.00 | 0.00 | 88 | 1015.3 |
| 20260505065537 | 20 | 100 | 8.0 | 12.9 | 0.00 | 0.00 | 0.00 | 79 | 1016.0 |
| 20260505065533 | 20 | 98 | 8.0 | 11.3 | 0.00 | 0.00 | 0.00 | 80 | 1015.8 |
| 20260505065528 | 20 | 99 | 6.4 | 9.7 | 0.00 | 0.00 | 0.00 | 82 | 1015.7 |
| 20260505065404 | 21 | 113 | 20.9 | 24.1 | 0.00 | 0.00 | 0.00 | 81 | 1016.5 |
| 20260505065359 | 20 | 98 | 6.4 | 9.7 | 0.00 | 0.00 | 0.00 | 80 | 1015.7 |
| 20260505065352 | 18 | 99 | 4.8 | 8.0 | 0.00 | 0.00 | 0.00 | 83 | 1015.6 |
| 20260505065347 | 18 | 100 | 1.6 | 8.0 | 0.00 | 0.00 | 0.00 | 85 | 1015.4 |
| 20260505065224 | 21 | 124 | 20.9 | 24.1 | 0.00 | 0.00 | 0.00 | 80 | 1016.5 |
| 20260505065218 | 21 | 111 | 19.3 | 25.7 | 0.00 | 0.00 | 0.00 | 79 | 1016.6 |
| 20260505065212 | 21 | 126 | 20.9 | 25.7 | 0.00 | 0.00 | 0.00 | 81 | 1016.5 |
| 20260505065207 | 21 | 113 | 17.7 | 24.1 | 0.00 | 0.00 | 0.00 | 80 | 1016.6 |
| 20260505065203 | 21 | 113 | 19.3 | 24.1 | 0.00 | 0.00 | 0.00 | 79 | 1016.5 |
| 20260505065154 | 21 | 131 | 14.5 | 22.5 | 0.00 | 0.00 | 0.00 | 79 | 1016.6 |
| 20260505065150 | 21 | 124 | 12.9 | 19.3 | 0.00 | 0.00 | 0.00 | 78 | 1016.6 |
| 20260505065145 | 21 | 113 | 12.9 | 17.7 | 0.00 | 0.00 | 0.00 | 78 | 1016.6 |
| 20260505065139 | 21 | 121 | 12.9 | 17.7 | 0.00 | 0.00 | 0.00 | 78 | 1016.6 |
| 20260505065135 | 21 | 116 | 14.5 | 19.3 | 0.00 | 0.00 | 0.00 | 80 | 1016.7 |
| 20260505065129 | 21 | 113 | 11.3 | 17.7 | 0.00 | 0.00 | 0.00 | 78 | 1016.5 |
| 20260505065125 | 21 | 127 | 11.3 | 16.1 | 0.00 | 0.00 | 0.00 | 77 | 1016.5 |
| 20260505065120 | 21 | 112 | 9.7 | 14.5 | 0.00 | 0.00 | 0.00 | 78 | 1016.4 |
| 20260505065114 | 18 | 100 | 0.0 | 3.2 | 0.00 | 0.00 | 0.00 | 87 | 1015.3 |
| 20260505065109 | 17 | 100 | 1.6 | 6.4 | 0.00 | 0.00 | 0.00 | 87 | 1015.3 |
| 20260505065103 | 21 | 106 | 9.7 | 12.9 | 0.00 | 0.00 | 0.00 | 79 | 1016.3 |
| 20260505064935 | 21 | 107 | 8.0 | 12.9 | 0.00 | 0.00 | 0.00 | 79 | 1016.1 |
| 20260505064931 | 20 | 100 | 8.0 | 12.9 | 0.00 | 0.00 | 0.00 | 79 | 1016.0 |
| 20260505064925 | 20 | 98 | 8.0 | 11.3 | 0.00 | 0.00 | 0.00 | 80 | 1015.8 |
| 20260505064921 | 20 | 99 | 6.4 | 9.7 | 0.00 | 0.00 | 0.00 | 82 | 1015.7 |
| 20260505064756 | 18 | 99 | 4.8 | 8.0 | 0.00 | 0.00 | 0.00 | 83 | 1015.6 |
| 20260505064749 | 18 | 100 | 1.6 | 8.0 | 0.00 | 0.00 | 0.00 | 85 | 1015.4 |
| 20260505064624 | 21 | 126 | 20.9 | 25.7 | 0.00 | 0.00 | 0.00 | 81 | 1016.5 |
| 20260505064619 | 21 | 113 | 17.7 | 24.1 | 0.00 | 0.00 | 0.00 | 80 | 1016.6 |
| 20260505064613 | 21 | 113 | 19.3 | 24.1 | 0.00 | 0.00 | 0.00 | 79 | 1016.5 |
| 20260505064609 | 21 | 106 | 9.7 | 12.9 | 0.00 | 0.00 | 0.00 | 79 | 1016.3 |
| 20260505064604 | 18 | 100 | 0.0 | 3.2 | 0.00 | 0.00 | 0.00 | 87 | 1015.3 |
| 20260505064553 | 17 | 100 | 1.6 | 6.4 | 0.00 | 0.00 | 0.00 | 87 | 1015.3 |
| 20260505064432 | 21 | 124 | 12.9 | 19.3 | 0.00 | 0.00 | 0.00 | 78 | 1016.6 |
| 20260505064425 | 21 | 113 | 12.9 | 17.7 | 0.00 | 0.00 | 0.00 | 78 | 1016.6 |
| 20260505064420 | 21 | 121 | 12.9 | 17.7 | 0.00 | 0.00 | 0.00 | 78 | 1016.6 |
| 20260505064416 | 21 | 116 | 14.5 | 19.3 | 0.00 | 0.00 | 0.00 | 80 | 1016.7 |
| 20260505064410 | 21 | 107 | 8.0 | 12.9 | 0.00 | 0.00 | 0.00 | 79 | 1016.1 |
| 20260505064245 | 21 | 113 | 11.3 | 17.7 | 0.00 | 0.00 | 0.00 | 78 | 1016.5 |
| 20260505064238 | 21 | 114 | 20.9 | 24.1 | 0.00 | 0.00 | 0.00 | 81 | 1016.5 |
| 20260505064234 | 21 | 127 | 11.3 | 16.1 | 0.00 | 0.00 | 0.00 | 77 | 1016.5 |
| 20260505064228 | 21 | 112 | 9.7 | 14.5 | 0.00 | 0.00 | 0.00 | 78 | 1016.4 |
| 20260505064223 | 21 | 115 | 9.7 | 14.5 | 0.00 | 0.00 | 0.00 | 77 | 1016.5 |
| 20260505064219 | 20 | 100 | 8.0 | 12.9 | 0.00 | 0.00 | 0.00 | 79 | 1016.0 |
| 20260505064213 | 20 | 98 | 8.0 | 11.3 | 0.00 | 0.00 | 0.00 | 80 | 1015.8 |
| 20260505064207 | 20 | 98 | 6.4 | 9.7 | 0.00 | 0.00 | 0.00 | 80 | 1015.7 |
| 20260505064202 | 18 | 99 | 4.8 | 8.0 | 0.00 | 0.00 | 0.00 | 83 | 1015.6 |
| 20260505064158 | 18 | 100 | 1.6 | 8.0 | 0.00 | 0.00 | 0.00 | 85 | 1015.4 |
| 20260505064031 | 21 | 113 | 20.9 | 24.1 | 0.00 | 0.00 | 0.00 | 81 | 1016.5 |
| 20260505064026 | 18 | 100 | 0.0 | 3.2 | 0.00 | 0.00 | 0.00 | 87 | 1015.3 |
| 20260505064020 | 21 | 115 | 20.9 | 25.7 | 0.00 | 0.00 | 0.00 | 79 | 1016.4 |
| 20260505064015 | 21 | 124 | 20.9 | 24.1 | 0.00 | 0.00 | 0.00 | 80 | 1016.5 |
| 20260505064009 | 21 | 111 | 19.3 | 25.7 | 0.00 | 0.00 | 0.00 | 79 | 1016.6 |
| 20260505064004 | 21 | 126 | 20.9 | 25.7 | 0.00 | 0.00 | 0.00 | 81 | 1016.5 |
| 20260505063959 | 21 | 113 | 17.7 | 24.1 | 0.00 | 0.00 | 0.00 | 80 | 1016.6 |
| 20260505063954 | 21 | 106 | 9.7 | 12.9 | 0.00 | 0.00 | 0.00 | 79 | 1016.3 |
| 20260505063826 | 21 | 131 | 14.5 | 22.5 | 0.00 | 0.00 | 0.00 | 79 | 1016.6 |
| 20260505063820 | 21 | 124 | 12.9 | 19.3 | 0.00 | 0.00 | 0.00 | 78 | 1016.6 |
| 20260505063815 | 21 | 113 | 12.9 | 17.7 | 0.00 | 0.00 | 0.00 | 78 | 1016.6 |
| 20260505063809 | 21 | 121 | 12.9 | 17.7 | 0.00 | 0.00 | 0.00 | 78 | 1016.6 |
| 20260505063805 | 21 | 116 | 14.5 | 19.3 | 0.00 | 0.00 | 0.00 | 80 | 1016.7 |
| 20260505063800 | 21 | 113 | 11.3 | 17.7 | 0.00 | 0.00 | 0.00 | 78 | 1016.5 |
| 20260505063754 | 21 | 107 | 8.0 | 12.9 | 0.00 | 0.00 | 0.00 | 79 | 1016.1 |
| 20260505063750 | 20 | 99 | 6.4 | 9.7 | 0.00 | 0.00 | 0.00 | 82 | 1015.7 |
| 20260505063623 | 21 | 127 | 11.3 | 16.1 | 0.00 | 0.00 | 0.00 | 77 | 1016.5 |
| 20260505063618 | 18 | 100 | 1.6 | 8.0 | 0.00 | 0.00 | 0.00 | 85 | 1015.4 |
| 20260505063612 | 21 | 112 | 9.7 | 14.5 | 0.00 | 0.00 | 0.00 | 78 | 1016.4 |
| 20260505063608 | 21 | 115 | 9.7 | 14.5 | 0.00 | 0.00 | 0.00 | 77 | 1016.5 |
| 20260505063603 | 20 | 100 | 8.0 | 12.9 | 0.00 | 0.00 | 0.00 | 79 | 1016.0 |
| 20260505063557 | 20 | 98 | 8.0 | 11.3 | 0.00 | 0.00 | 0.00 | 80 | 1015.8 |
| 20260505063553 | 20 | 98 | 6.4 | 9.7 | 0.00 | 0.00 | 0.00 | 80 | 1015.7 |
| 20260505063546 | 18 | 100 | 0.0 | 3.2 | 0.00 | 0.00 | 0.00 | 87 | 1015.3 |
| 20260505063140 | 18 | 99 | 4.8 | 8.0 | 0.00 | 0.00 | 0.00 | 83 | 1015.6 |
| 20260505063134 | 18 | 100 | 1.6 | 8.0 | 0.00 | 0.00 | 0.00 | 85 | 1015.4 |
| 20260505063009 | 21 | 265 | 6.4 | 11.3 | 0.00 | 0.28 | 0.00 | 96 | 1010.3 |
| 20260505063003 | 20 | 100 | 8.0 | 12.9 | 0.00 | 0.00 | 0.00 | 79 | 1016.0 |
| 20260505062958 | 21 | 250 | 8.0 | 12.9 | 0.03 | 0.28 | 0.00 | 96 | 1010.4 |
| 20260505062953 | 21 | 0 | 8.0 | 11.3 | 0.03 | 0.28 | 0.00 | 96 | 1010.7 |
| 20260505062947 | 21 | 235 | 6.4 | 11.3 | 0.03 | 0.28 | 0.00 | 96 | 1010.6 |
| 20260505062943 | 20 | 98 | 8.0 | 11.3 | 0.00 | 0.00 | 0.00 | 80 | 1015.8 |
| 20260505062937 | 20 | 98 | 6.4 | 9.7 | 0.00 | 0.00 | 0.00 | 80 | 1015.7 |
| 20260505062932 | 21 | 246 | 6.4 | 9.7 | 0.03 | 0.28 | 0.00 | 96 | 1010.7 |
| 20260505062924 | 21 | 250 | 4.8 | 8.0 | 0.03 | 0.28 | 0.28 | 96 | 1010.8 |
| 20260505062920 | 21 | 242 | 3.2 | 6.4 | 0.03 | 0.28 | 0.28 | 96 | 1010.7 |
| 20260505062915 | 21 | 234 | 3.2 | 6.4 | 0.00 | 0.25 | 0.25 | 96 | 1010.7 |
| 20260505062909 | 21 | 234 | 3.2 | 4.8 | 0.00 | 0.25 | 0.25 | 96 | 1010.9 |
| 20260505062905 | 22 | 113 | 20.9 | 29.0 | 0.00 | 0.00 | 0.00 | 78 | 1016.3 |
| 20260505062859 | 22 | 113 | 22.5 | 29.0 | 0.00 | 0.00 | 0.00 | 77 | 1016.2 |
| 20260505062854 | 22 | 108 | 22.5 | 30.6 | 0.00 | 0.00 | 0.00 | 77 | 1016.1 |
| 20260505062848 | 22 | 118 | 24.1 | 30.6 | 0.00 | 0.00 | 0.00 | 75 | 1016.0 |
| 20260505062843 | 22 | 105 | 24.1 | 32.2 | 0.00 | 0.00 | 0.00 | 76 | 1015.9 |
| 20260505062837 | 22 | 109 | 20.9 | 29.0 | 0.00 | 0.00 | 0.00 | 79 | 1016.4 |
| 20260505062833 | 21 | 121 | 19.3 | 24.1 | 0.00 | 0.00 | 0.00 | 79 | 1016.4 |
| 20260505062828 | 21 | 118 | 19.3 | 25.7 | 0.00 | 0.00 | 0.00 | 80 | 1016.5 |
| 20260505062821 | 21 | 116 | 20.9 | 25.7 | 0.00 | 0.00 | 0.00 | 78 | 1016.4 |
| 20260505062815 | 21 | 114 | 20.9 | 24.1 | 0.00 | 0.00 | 0.00 | 81 | 1016.5 |
| 20260505062811 | 21 | 120 | 20.9 | 25.7 | 0.00 | 0.00 | 0.00 | 81 | 1016.5 |
| 20260505062805 | 21 | 113 | 20.9 | 24.1 | 0.00 | 0.00 | 0.00 | 81 | 1016.5 |
| 20260505062801 | 21 | 115 | 20.9 | 25.7 | 0.00 | 0.00 | 0.00 | 79 | 1016.4 |
| 20260505062755 | 21 | 124 | 20.9 | 24.1 | 0.00 | 0.00 | 0.00 | 80 | 1016.5 |
| 20260505062750 | 21 | 111 | 19.3 | 25.7 | 0.00 | 0.00 | 0.00 | 79 | 1016.6 |
| 20260505062744 | 21 | 126 | 20.9 | 25.7 | 0.00 | 0.00 | 0.00 | 81 | 1016.5 |
| 20260505062740 | 21 | 113 | 17.7 | 24.1 | 0.00 | 0.00 | 0.00 | 80 | 1016.6 |
| 20260505062736 | 20 | 99 | 6.4 | 9.7 | 0.00 | 0.00 | 0.00 | 82 | 1015.7 |
| 20260505062730 | 21 | 113 | 19.3 | 24.1 | 0.00 | 0.00 | 0.00 | 79 | 1016.5 |
| 20260505062725 | 21 | 131 | 14.5 | 22.5 | 0.00 | 0.00 | 0.00 | 79 | 1016.6 |
| 20260505062719 | 21 | 124 | 12.9 | 19.3 | 0.00 | 0.00 | 0.00 | 78 | 1016.6 |
| 20260505062714 | 21 | 113 | 12.9 | 17.7 | 0.00 | 0.00 | 0.00 | 78 | 1016.6 |
| 20260505062708 | 21 | 121 | 12.9 | 17.7 | 0.00 | 0.00 | 0.00 | 78 | 1016.6 |
| 20260505062704 | 21 | 116 | 14.5 | 19.3 | 0.00 | 0.00 | 0.00 | 80 | 1016.7 |
| 20260505062658 | 21 | 113 | 11.3 | 17.7 | 0.00 | 0.00 | 0.00 | 78 | 1016.5 |
| 20260505062653 | 21 | 127 | 11.3 | 16.1 | 0.00 | 0.00 | 0.00 | 77 | 1016.5 |
| 20260505062648 | 21 | 112 | 9.7 | 14.5 | 0.00 | 0.00 | 0.00 | 78 | 1016.4 |
| 20260505062643 | 21 | 115 | 9.7 | 14.5 | 0.00 | 0.00 | 0.00 | 77 | 1016.5 |
| 20260505062637 | 21 | 106 | 9.7 | 12.9 | 0.00 | 0.00 | 0.00 | 79 | 1016.3 |
| 20260505062633 | 21 | 107 | 8.0 | 12.9 | 0.00 | 0.00 | 0.00 | 79 | 1016.1 |
| 20260505062627 | 18 | 99 | 4.8 | 8.0 | 0.00 | 0.00 | 0.00 | 83 | 1015.6 |
| 20260505062615 | 18 | 100 | 1.6 | 8.0 | 0.00 | 0.00 | 0.00 | 85 | 1015.4 |
| 20260505062455 | 20 | 98 | 8.0 | 11.3 | 0.00 | 0.00 | 0.00 | 80 | 1015.8 |
| 20260505062449 | 20 | 98 | 6.4 | 9.7 | 0.00 | 0.00 | 0.00 | 80 | 1015.7 |
| 20260505062325 | 22 | 113 | 20.9 | 29.0 | 0.00 | 0.00 | 0.00 | 78 | 1016.3 |
| 20260505062318 | 22 | 113 | 22.5 | 29.0 | 0.00 | 0.00 | 0.00 | 77 | 1016.2 |
| 20260505062312 | 22 | 108 | 22.5 | 30.6 | 0.00 | 0.00 | 0.00 | 77 | 1016.1 |
| 20260505062307 | 22 | 118 | 24.1 | 30.6 | 0.00 | 0.00 | 0.00 | 75 | 1016.0 |
| 20260505062301 | 22 | 105 | 24.1 | 32.2 | 0.00 | 0.00 | 0.00 | 76 | 1015.9 |
| 20260505062257 | 22 | 109 | 20.9 | 29.0 | 0.00 | 0.00 | 0.00 | 79 | 1016.4 |
| 20260505062252 | 21 | 121 | 19.3 | 24.1 | 0.00 | 0.00 | 0.00 | 79 | 1016.4 |
| 20260505062247 | 21 | 118 | 19.3 | 25.7 | 0.00 | 0.00 | 0.00 | 80 | 1016.5 |
| 20260505062242 | 20 | 99 | 6.4 | 9.7 | 0.00 | 0.00 | 0.00 | 82 | 1015.7 |
| 20260505062236 | 21 | 116 | 20.9 | 25.7 | 0.00 | 0.00 | 0.00 | 78 | 1016.4 |
| 20260505062232 | 21 | 114 | 20.9 | 24.1 | 0.00 | 0.00 | 0.00 | 81 | 1016.5 |
| 20260505062226 | 21 | 120 | 20.9 | 25.7 | 0.00 | 0.00 | 0.00 | 81 | 1016.5 |
| 20260505062220 | 21 | 113 | 20.9 | 24.1 | 0.00 | 0.00 | 0.00 | 81 | 1016.5 |
| 20260505062215 | 21 | 115 | 20.9 | 25.7 | 0.00 | 0.00 | 0.00 | 79 | 1016.4 |
| 20260505062210 | 21 | 124 | 20.9 | 24.1 | 0.00 | 0.00 | 0.00 | 80 | 1016.5 |
| 20260505062204 | 21 | 111 | 19.3 | 25.7 | 0.00 | 0.00 | 0.00 | 79 | 1016.6 |
| 20260505062159 | 21 | 126 | 20.9 | 25.7 | 0.00 | 0.00 | 0.00 | 81 | 1016.5 |
| 20260505062154 | 21 | 113 | 17.7 | 24.1 | 0.00 | 0.00 | 0.00 | 80 | 1016.6 |
| 20260505062149 | 21 | 113 | 19.3 | 24.1 | 0.00 | 0.00 | 0.00 | 79 | 1016.5 |
| 20260505062143 | 21 | 131 | 14.5 | 22.5 | 0.00 | 0.00 | 0.00 | 79 | 1016.6 |
| 20260505062139 | 21 | 124 | 12.9 | 19.3 | 0.00 | 0.00 | 0.00 | 78 | 1016.6 |
| 20260505062133 | 21 | 113 | 12.9 | 17.7 | 0.00 | 0.00 | 0.00 | 78 | 1016.6 |
| 20260505062128 | 18 | 99 | 4.8 | 8.0 | 0.00 | 0.00 | 0.00 | 83 | 1015.6 |
| 20260505062122 | 21 | 121 | 12.9 | 17.7 | 0.00 | 0.00 | 0.00 | 78 | 1016.6 |
| 20260505062117 | 21 | 113 | 11.3 | 17.7 | 0.00 | 0.00 | 0.00 | 78 | 1016.5 |
| 20260505062111 | 21 | 127 | 11.3 | 16.1 | 0.00 | 0.00 | 0.00 | 77 | 1016.5 |
| 20260505062106 | 21 | 112 | 9.7 | 14.5 | 0.00 | 0.00 | 0.00 | 78 | 1016.4 |
| 20260505062100 | 21 | 115 | 9.7 | 14.5 | 0.00 | 0.00 | 0.00 | 77 | 1016.5 |
| 20260505062055 | 21 | 106 | 9.7 | 12.9 | 0.00 | 0.00 | 0.00 | 79 | 1016.3 |
| 20260505061928 | 21 | 107 | 8.0 | 12.9 | 0.00 | 0.00 | 0.00 | 79 | 1016.1 |
| 20260505061924 | 20 | 100 | 8.0 | 12.9 | 0.00 | 0.00 | 0.00 | 79 | 1016.0 |
| 20260505061919 | 20 | 98 | 8.0 | 11.3 | 0.00 | 0.00 | 0.00 | 80 | 1015.8 |
| 20260505061912 | 20 | 98 | 6.4 | 9.7 | 0.00 | 0.00 | 0.00 | 80 | 1015.7 |
| 20260505061504 | 21 | 127 | 11.3 | 16.1 | 0.00 | 0.00 | 0.00 | 77 | 1016.5 |
| 20260505061458 | 21 | 112 | 9.7 | 14.5 | 0.00 | 0.00 | 0.00 | 78 | 1016.4 |
| 20260505061454 | 21 | 115 | 9.7 | 14.5 | 0.00 | 0.00 | 0.00 | 77 | 1016.5 |
| 20260505061449 | 21 | 106 | 9.7 | 12.9 | 0.00 | 0.00 | 0.00 | 79 | 1016.3 |
| 20260505061324 | 20 | 100 | 8.0 | 12.9 | 0.00 | 0.00 | 0.00 | 79 | 1016.0 |
| 20260505061318 | 21 | 107 | 8.0 | 12.9 | 0.00 | 0.00 | 0.00 | 79 | 1016.1 |
| 20260505061313 | 20 | 98 | 8.0 | 11.3 | 0.00 | 0.00 | 0.00 | 80 | 1015.8 |
| 20260505061305 | 20 | 98 | 6.4 | 9.7 | 0.00 | 0.00 | 0.00 | 80 | 1015.7 |
| 20260505061019 | 21 | 116 | 14.5 | 19.3 | 0.00 | 0.00 | 0.00 | 80 | 1016.7 |
| 20260505060854 | 21 | 127 | 11.3 | 16.1 | 0.00 | 0.00 | 0.00 | 77 | 1016.5 |
| 20260505060849 | 20 | 100 | 8.0 | 12.9 | 0.00 | 0.00 | 0.00 | 79 | 1016.0 |
| 20260505060843 | 21 | 115 | 9.7 | 14.5 | 0.00 | 0.00 | 0.00 | 77 | 1016.5 |
| 20260505060839 | 21 | 112 | 9.7 | 14.5 | 0.00 | 0.00 | 0.00 | 78 | 1016.4 |
| 20260505060833 | 21 | 106 | 9.7 | 12.9 | 0.00 | 0.00 | 0.00 | 79 | 1016.3 |
| 20260505060709 | 21 | 107 | 8.0 | 12.9 | 0.00 | 0.00 | 0.00 | 79 | 1016.1 |
| 20260505060704 | 20 | 98 | 6.4 | 9.7 | 0.00 | 0.00 | 0.00 | 80 | 1015.7 |
| 20260505060416 | 21 | 121 | 12.9 | 17.7 | 0.00 | 0.00 | 0.00 | 78 | 1016.6 |
| 20260505060411 | 21 | 113 | 12.9 | 17.7 | 0.00 | 0.00 | 0.00 | 78 | 1016.6 |
| 20260505060406 | 21 | 124 | 12.9 | 19.3 | 0.00 | 0.00 | 0.00 | 78 | 1016.6 |
| 20260505060400 | 21 | 113 | 11.3 | 17.7 | 0.00 | 0.00 | 0.00 | 78 | 1016.5 |
| 20260505060353 | 20 | 100 | 8.0 | 12.9 | 0.00 | 0.00 | 0.00 | 79 | 1016.0 |
| 20260505060349 | 21 | 127 | 11.3 | 16.1 | 0.00 | 0.00 | 0.00 | 77 | 1016.5 |
| 20260505060343 | 21 | 112 | 9.7 | 14.5 | 0.00 | 0.00 | 0.00 | 78 | 1016.4 |
| 20260505060338 | 21 | 115 | 9.7 | 14.5 | 0.00 | 0.00 | 0.00 | 77 | 1016.5 |
| 20260505060212 | 21 | 106 | 9.7 | 12.9 | 0.00 | 0.00 | 0.00 | 79 | 1016.3 |
| 20260505060206 | 20 | 98 | 6.4 | 9.7 | 0.00 | 0.00 | 0.00 | 80 | 1015.7 |
| 20260505055919 | 21 | 116 | 14.5 | 19.3 | 0.00 | 0.00 | 0.00 | 80 | 1016.7 |
| 20260505055913 | 21 | 121 | 12.9 | 17.7 | 0.00 | 0.00 | 0.00 | 78 | 1016.6 |
| 20260505055908 | 21 | 113 | 11.3 | 17.7 | 0.00 | 0.00 | 0.00 | 78 | 1016.5 |
| 20260505055902 | 20 | 100 | 8.0 | 12.9 | 0.00 | 0.00 | 0.00 | 79 | 1016.0 |
| 20260505055734 | 21 | 127 | 11.3 | 16.1 | 0.00 | 0.00 | 0.00 | 77 | 1016.5 |
| 20260505055603 | 20 | 98 | 6.4 | 9.7 | 0.00 | 0.00 | 0.00 | 80 | 1015.7 |
| 20260505055443 | 21 | 106 | 9.7 | 12.9 | 0.00 | 0.00 | 0.00 | 79 | 1016.3 |
| 20260505055439 | 21 | 107 | 8.0 | 12.9 | 0.00 | 0.00 | 0.00 | 79 | 1016.1 |
| 20260505055315 | 22 | 113 | 22.5 | 29.0 | 0.00 | 0.00 | 0.00 | 77 | 1016.2 |
| 20260505055311 | 22 | 108 | 22.5 | 30.6 | 0.00 | 0.00 | 0.00 | 77 | 1016.1 |
| 20260505055306 | 22 | 109 | 20.9 | 29.0 | 0.00 | 0.00 | 0.00 | 79 | 1016.4 |
| 20260505055300 | 21 | 113 | 11.3 | 17.7 | 0.00 | 0.00 | 0.00 | 78 | 1016.5 |
| 20260505055255 | 20 | 100 | 8.0 | 12.9 | 0.00 | 0.00 | 0.00 | 79 | 1016.0 |
| 20260505055249 | 20 | 98 | 8.0 | 11.3 | 0.00 | 0.00 | 0.00 | 80 | 1015.8 |
| 20260505055124 | 21 | 234 | 1.6 | 8.0 | 0.03 | 0.25 | 0.25 | 96 | 1010.9 |
| 20260505055118 | 21 | 234 | 4.8 | 8.0 | 0.03 | 0.25 | 0.25 | 96 | 1011.0 |
| 20260505055114 | 21 | 234 | 3.2 | 8.0 | 0.03 | 0.25 | 0.25 | 96 | 1010.9 |
| 20260505055109 | 21 | 36 | 0.0 | 0.0 | 0.03 | 0.25 | 0.25 | 96 | 1010.8 |
| 20260505055103 | 21 | 36 | 0.0 | 0.0 | 0.05 | 0.25 | 0.25 | 96 | 1010.9 |
| 20260505055059 | 21 | 36 | 0.0 | 0.0 | 0.05 | 0.25 | 0.25 | 96 | 1010.9 |
| 20260505055053 | 21 | 36 | 0.0 | 0.0 | 0.03 | 0.23 | 0.23 | 95 | 1010.7 |
| 20260505055048 | 21 | 118 | 19.3 | 25.7 | 0.00 | 0.00 | 0.00 | 80 | 1016.5 |
| 20260505055042 | 21 | 116 | 20.9 | 25.7 | 0.00 | 0.00 | 0.00 | 78 | 1016.4 |
| 20260505055035 | 21 | 114 | 20.9 | 24.1 | 0.00 | 0.00 | 0.00 | 81 | 1016.5 |
| 20260505055030 | 21 | 120 | 20.9 | 25.7 | 0.00 | 0.00 | 0.00 | 81 | 1016.5 |
| 20260505055025 | 21 | 113 | 20.9 | 24.1 | 0.00 | 0.00 | 0.00 | 81 | 1016.5 |
| 20260505055020 | 21 | 115 | 20.9 | 25.7 | 0.00 | 0.00 | 0.00 | 79 | 1016.4 |
| 20260505055014 | 21 | 124 | 20.9 | 24.1 | 0.00 | 0.00 | 0.00 | 80 | 1016.5 |
| 20260505055010 | 21 | 111 | 19.3 | 25.7 | 0.00 | 0.00 | 0.00 | 79 | 1016.6 |
| 20260505055005 | 21 | 126 | 20.9 | 25.7 | 0.00 | 0.00 | 0.00 | 81 | 1016.5 |
| 20260505054959 | 21 | 113 | 17.7 | 24.1 | 0.00 | 0.00 | 0.00 | 80 | 1016.6 |
| 20260505054954 | 21 | 113 | 19.3 | 24.1 | 0.00 | 0.00 | 0.00 | 79 | 1016.5 |
| 20260505054949 | 21 | 131 | 14.5 | 22.5 | 0.00 | 0.00 | 0.00 | 79 | 1016.6 |
| 20260505054944 | 21 | 124 | 12.9 | 19.3 | 0.00 | 0.00 | 0.00 | 78 | 1016.6 |
| 20260505054936 | 21 | 113 | 12.9 | 17.7 | 0.00 | 0.00 | 0.00 | 78 | 1016.6 |
| 20260505054932 | 21 | 116 | 14.5 | 19.3 | 0.00 | 0.00 | 0.00 | 80 | 1016.7 |
| 20260505054927 | 21 | 121 | 12.9 | 17.7 | 0.00 | 0.00 | 0.00 | 78 | 1016.6 |
| 20260505054921 | 21 | 127 | 11.3 | 16.1 | 0.00 | 0.00 | 0.00 | 77 | 1016.5 |
| 20260505054916 | 21 | 112 | 9.7 | 14.5 | 0.00 | 0.00 | 0.00 | 78 | 1016.4 |
| 20260505054911 | 21 | 115 | 9.7 | 14.5 | 0.00 | 0.00 | 0.00 | 77 | 1016.5 |
| 20260505054906 | 21 | 106 | 9.7 | 12.9 | 0.00 | 0.00 | 0.00 | 79 | 1016.3 |
| 20260505054901 | 21 | 107 | 8.0 | 12.9 | 0.00 | 0.00 | 0.00 | 79 | 1016.1 |
| 20260505054734 | 22 | 117 | 24.1 | 30.6 | 0.00 | 0.00 | 0.00 | 76 | 1015.8 |
| 20260505054728 | 22 | 114 | 22.5 | 30.6 | 0.00 | 0.00 | 0.00 | 76 | 1015.9 |
| 20260505054723 | 22 | 118 | 24.1 | 30.6 | 0.00 | 0.00 | 0.00 | 75 | 1016.0 |
| 20260505054717 | 22 | 105 | 24.1 | 32.2 | 0.00 | 0.00 | 0.00 | 76 | 1015.9 |
| 20260505054713 | 22 | 113 | 20.9 | 29.0 | 0.00 | 0.00 | 0.00 | 78 | 1016.3 |
| 20260505054708 | 22 | 113 | 22.5 | 29.0 | 0.00 | 0.00 | 0.00 | 77 | 1016.2 |
| 20260505054702 | 22 | 108 | 22.5 | 30.6 | 0.00 | 0.00 | 0.00 | 77 | 1016.1 |
| 20260505054656 | 20 | 100 | 8.0 | 12.9 | 0.00 | 0.00 | 0.00 | 79 | 1016.0 |
| 20260505054651 | 22 | 109 | 20.9 | 29.0 | 0.00 | 0.00 | 0.00 | 79 | 1016.4 |
| 20260505054647 | 21 | 121 | 19.3 | 24.1 | 0.00 | 0.00 | 0.00 | 79 | 1016.4 |
| 20260505054641 | 21 | 113 | 11.3 | 17.7 | 0.00 | 0.00 | 0.00 | 78 | 1016.5 |
| 20260505054623 | 20 | 98 | 8.0 | 11.3 | 0.00 | 0.00 | 0.00 | 80 | 1015.8 |
| 20260505054508 | 21 | 116 | 20.9 | 25.7 | 0.00 | 0.00 | 0.00 | 78 | 1016.4 |
| 20260505054504 | 21 | 114 | 20.9 | 24.1 | 0.00 | 0.00 | 0.00 | 81 | 1016.5 |
| 20260505054458 | 21 | 120 | 20.9 | 25.7 | 0.00 | 0.00 | 0.00 | 81 | 1016.5 |
| 20260505054453 | 21 | 113 | 20.9 | 24.1 | 0.00 | 0.00 | 0.00 | 81 | 1016.5 |
| 20260505054447 | 21 | 115 | 20.9 | 25.7 | 0.00 | 0.00 | 0.00 | 79 | 1016.4 |
| 20260505054443 | 21 | 124 | 20.9 | 24.1 | 0.00 | 0.00 | 0.00 | 80 | 1016.5 |
| 20260505054438 | 21 | 131 | 14.5 | 22.5 | 0.00 | 0.00 | 0.00 | 79 | 1016.6 |
| 20260505054431 | 21 | 111 | 19.3 | 25.7 | 0.00 | 0.00 | 0.00 | 79 | 1016.6 |
| 20260505054426 | 21 | 126 | 20.9 | 25.7 | 0.00 | 0.00 | 0.00 | 81 | 1016.5 |
| 20260505054421 | 21 | 113 | 17.7 | 24.1 | 0.00 | 0.00 | 0.00 | 80 | 1016.6 |
| 20260505054415 | 21 | 112 | 9.7 | 14.5 | 0.00 | 0.00 | 0.00 | 78 | 1016.4 |
| 20260505054411 | 21 | 113 | 19.3 | 24.1 | 0.00 | 0.00 | 0.00 | 79 | 1016.5 |
| 20260505054406 | 21 | 115 | 9.7 | 14.5 | 0.00 | 0.00 | 0.00 | 77 | 1016.5 |
| 20260505054400 | 21 | 124 | 12.9 | 19.3 | 0.00 | 0.00 | 0.00 | 78 | 1016.6 |
| 20260505054355 | 21 | 113 | 12.9 | 17.7 | 0.00 | 0.00 | 0.00 | 78 | 1016.6 |
| 20260505054349 | 21 | 116 | 14.5 | 19.3 | 0.00 | 0.00 | 0.00 | 80 | 1016.7 |
| 20260505054344 | 21 | 121 | 12.9 | 17.7 | 0.00 | 0.00 | 0.00 | 78 | 1016.6 |
| 20260505054339 | 21 | 127 | 11.3 | 16.1 | 0.00 | 0.00 | 0.00 | 77 | 1016.5 |
| 20260505054334 | 21 | 106 | 9.7 | 12.9 | 0.00 | 0.00 | 0.00 | 79 | 1016.3 |
| 20260505054327 | 21 | 107 | 8.0 | 12.9 | 0.00 | 0.00 | 0.00 | 79 | 1016.1 |
| 20260505053919 | 21 | 112 | 9.7 | 14.5 | 0.00 | 0.00 | 0.00 | 78 | 1016.4 |
| 20260505053913 | 21 | 115 | 9.7 | 14.5 | 0.00 | 0.00 | 0.00 | 77 | 1016.5 |
| 20260505053749 | 21 | 115 | 20.9 | 25.7 | 0.00 | 0.00 | 0.00 | 79 | 1016.4 |
| 20260505053744 | 21 | 124 | 20.9 | 24.1 | 0.00 | 0.00 | 0.00 | 80 | 1016.5 |
| 20260505053738 | 21 | 111 | 19.3 | 25.7 | 0.00 | 0.00 | 0.00 | 79 | 1016.6 |
| 20260505053733 | 21 | 126 | 20.9 | 25.7 | 0.00 | 0.00 | 0.00 | 81 | 1016.5 |
| 20260505053727 | 21 | 121 | 12.9 | 17.7 | 0.00 | 0.00 | 0.00 | 78 | 1016.6 |
| 20260505053723 | 21 | 113 | 17.7 | 24.1 | 0.00 | 0.00 | 0.00 | 80 | 1016.6 |
| 20260505053715 | 21 | 113 | 19.3 | 24.1 | 0.00 | 0.00 | 0.00 | 79 | 1016.5 |
| 20260505053709 | 21 | 124 | 12.9 | 19.3 | 0.00 | 0.00 | 0.00 | 78 | 1016.6 |
| 20260505053704 | 21 | 113 | 12.9 | 17.7 | 0.00 | 0.00 | 0.00 | 78 | 1016.6 |
| 20260505053659 | 21 | 127 | 11.3 | 16.1 | 0.00 | 0.00 | 0.00 | 77 | 1016.5 |
| 20260505053654 | 21 | 106 | 9.7 | 12.9 | 0.00 | 0.00 | 0.00 | 79 | 1016.3 |
| 20260505053650 | 21 | 107 | 8.0 | 12.9 | 0.00 | 0.00 | 0.00 | 79 | 1016.1 |
| 20260505053631 | 20 | 100 | 8.0 | 12.9 | 0.00 | 0.00 | 0.00 | 79 | 1016.0 |
| 20260505053517 | 21 | 36 | 3.2 | 8.0 | 0.05 | 0.23 | 0.23 | 95 | 1010.3 |
| 20260505053513 | 21 | 244 | 1.6 | 6.4 | 0.05 | 0.20 | 0.20 | 95 | 1010.0 |
| 20260505053507 | 21 | 232 | 4.8 | 9.7 | 0.05 | 0.20 | 0.20 | 94 | 1009.6 |
| 20260505053502 | 22 | 120 | 24.1 | 32.2 | 0.00 | 0.00 | 0.00 | 75 | 1015.8 |
| 20260505053456 | 22 | 117 | 24.1 | 30.6 | 0.00 | 0.00 | 0.00 | 76 | 1015.8 |
| 20260505053452 | 22 | 114 | 22.5 | 30.6 | 0.00 | 0.00 | 0.00 | 76 | 1015.9 |
| 20260505053447 | 21 | 113 | 11.3 | 17.7 | 0.00 | 0.00 | 0.00 | 78 | 1016.5 |
| 20260505053442 | 22 | 118 | 24.1 | 30.6 | 0.00 | 0.00 | 0.00 | 75 | 1016.0 |
| 20260505053437 | 22 | 105 | 24.1 | 32.2 | 0.00 | 0.00 | 0.00 | 76 | 1015.9 |
| 20260505053431 | 21 | 131 | 14.5 | 22.5 | 0.00 | 0.00 | 0.00 | 79 | 1016.6 |
| 20260505053427 | 21 | 116 | 14.5 | 19.3 | 0.00 | 0.00 | 0.00 | 80 | 1016.7 |
| 20260505053300 | 21 | 115 | 9.7 | 14.5 | 0.00 | 0.00 | 0.00 | 77 | 1016.5 |
| 20260505053254 | 22 | 113 | 20.9 | 29.0 | 0.00 | 0.00 | 0.00 | 78 | 1016.3 |
| 20260505053248 | 22 | 113 | 22.5 | 29.0 | 0.00 | 0.00 | 0.00 | 77 | 1016.2 |
| 20260505053243 | 21 | 121 | 12.9 | 17.7 | 0.00 | 0.00 | 0.00 | 78 | 1016.6 |
| 20260505053239 | 22 | 108 | 22.5 | 30.6 | 0.00 | 0.00 | 0.00 | 77 | 1016.1 |
| 20260505053233 | 22 | 109 | 20.9 | 29.0 | 0.00 | 0.00 | 0.00 | 79 | 1016.4 |
| 20260505053228 | 21 | 121 | 19.3 | 24.1 | 0.00 | 0.00 | 0.00 | 79 | 1016.4 |
| 20260505053222 | 21 | 118 | 19.3 | 25.7 | 0.00 | 0.00 | 0.00 | 80 | 1016.5 |
| 20260505053215 | 21 | 116 | 20.9 | 25.7 | 0.00 | 0.00 | 0.00 | 78 | 1016.4 |
| 20260505053211 | 21 | 114 | 20.9 | 24.1 | 0.00 | 0.00 | 0.00 | 81 | 1016.5 |
| 20260505053206 | 21 | 120 | 20.9 | 25.7 | 0.00 | 0.00 | 0.00 | 81 | 1016.5 |
| 20260505053200 | 21 | 113 | 20.9 | 24.1 | 0.00 | 0.00 | 0.00 | 81 | 1016.5 |
| 20260505053155 | 21 | 115 | 20.9 | 25.7 | 0.00 | 0.00 | 0.00 | 79 | 1016.4 |
| 20260505053149 | 21 | 124 | 20.9 | 24.1 | 0.00 | 0.00 | 0.00 | 80 | 1016.5 |
| 20260505053145 | 21 | 111 | 19.3 | 25.7 | 0.00 | 0.00 | 0.00 | 79 | 1016.6 |
| 20260505053140 | 21 | 126 | 20.9 | 25.7 | 0.00 | 0.00 | 0.00 | 81 | 1016.5 |
| 20260505053134 | 21 | 106 | 9.7 | 12.9 | 0.00 | 0.00 | 0.00 | 79 | 1016.3 |
| 20260505053130 | 21 | 113 | 17.7 | 24.1 | 0.00 | 0.00 | 0.00 | 80 | 1016.6 |
| 20260505053124 | 21 | 113 | 19.3 | 24.1 | 0.00 | 0.00 | 0.00 | 79 | 1016.5 |
| 20260505053119 | 21 | 124 | 12.9 | 19.3 | 0.00 | 0.00 | 0.00 | 78 | 1016.6 |
| 20260505053113 | 21 | 113 | 12.9 | 17.7 | 0.00 | 0.00 | 0.00 | 78 | 1016.6 |
| 20260505053107 | 21 | 127 | 11.3 | 16.1 | 0.00 | 0.00 | 0.00 | 77 | 1016.5 |
| 20260505053102 | 21 | 107 | 8.0 | 12.9 | 0.00 | 0.00 | 0.00 | 79 | 1016.1 |
| 20260505052938 | 21 | 113 | 11.3 | 17.7 | 0.00 | 0.00 | 0.00 | 78 | 1016.5 |
| 20260505052809 | 21 | 121 | 12.9 | 17.7 | 0.00 | 0.00 | 0.00 | 78 | 1016.6 |
| 20260505052805 | 21 | 112 | 9.7 | 14.5 | 0.00 | 0.00 | 0.00 | 78 | 1016.4 |
| 20260505052759 | 21 | 115 | 9.7 | 14.5 | 0.00 | 0.00 | 0.00 | 77 | 1016.5 |
| 20260505052633 | 21 | 106 | 9.7 | 12.9 | 0.00 | 0.00 | 0.00 | 79 | 1016.3 |
| 20260505052627 | 22 | 105 | 24.1 | 32.2 | 0.00 | 0.00 | 0.00 | 76 | 1015.9 |
| 20260505052623 | 22 | 113 | 20.9 | 29.0 | 0.00 | 0.00 | 0.00 | 78 | 1016.3 |
| 20260505052617 | 22 | 113 | 22.5 | 29.0 | 0.00 | 0.00 | 0.00 | 77 | 1016.2 |
| 20260505052613 | 22 | 108 | 22.5 | 30.6 | 0.00 | 0.00 | 0.00 | 77 | 1016.1 |
| 20260505052604 | 22 | 109 | 20.9 | 29.0 | 0.00 | 0.00 | 0.00 | 79 | 1016.4 |
| 20260505052559 | 21 | 121 | 19.3 | 24.1 | 0.00 | 0.00 | 0.00 | 79 | 1016.4 |
| 20260505052555 | 21 | 118 | 19.3 | 25.7 | 0.00 | 0.00 | 0.00 | 80 | 1016.5 |
| 20260505052549 | 21 | 116 | 20.9 | 25.7 | 0.00 | 0.00 | 0.00 | 78 | 1016.4 |
| 20260505052544 | 21 | 114 | 20.9 | 24.1 | 0.00 | 0.00 | 0.00 | 81 | 1016.5 |
| 20260505052540 | 21 | 120 | 20.9 | 25.7 | 0.00 | 0.00 | 0.00 | 81 | 1016.5 |
| 20260505052534 | 21 | 107 | 8.0 | 12.9 | 0.00 | 0.00 | 0.00 | 79 | 1016.1 |
| 20260505052529 | 21 | 111 | 19.3 | 25.7 | 0.00 | 0.00 | 0.00 | 79 | 1016.6 |
| 20260505052523 | 21 | 113 | 17.7 | 24.1 | 0.00 | 0.00 | 0.00 | 80 | 1016.6 |
| 20260505052518 | 21 | 113 | 12.9 | 17.7 | 0.00 | 0.00 | 0.00 | 78 | 1016.6 |
| 20260505052513 | 21 | 124 | 12.9 | 19.3 | 0.00 | 0.00 | 0.00 | 78 | 1016.6 |
| 20260505052505 | 21 | 127 | 11.3 | 16.1 | 0.00 | 0.00 | 0.00 | 77 | 1016.5 |
| 20260505052340 | 21 | 115 | 20.9 | 25.7 | 0.00 | 0.00 | 0.00 | 79 | 1016.4 |
| 20260505052335 | 21 | 124 | 20.9 | 24.1 | 0.00 | 0.00 | 0.00 | 80 | 1016.5 |
| 20260505052329 | 21 | 121 | 12.9 | 17.7 | 0.00 | 0.00 | 0.00 | 78 | 1016.6 |
| 20260505052324 | 21 | 113 | 11.3 | 17.7 | 0.00 | 0.00 | 0.00 | 78 | 1016.5 |
| 20260505052157 | 21 | 113 | 19.3 | 24.1 | 0.00 | 0.00 | 0.00 | 79 | 1016.5 |
| 20260505052152 | 21 | 131 | 14.5 | 22.5 | 0.00 | 0.00 | 0.00 | 79 | 1016.6 |
| 20260505052147 | 21 | 112 | 9.7 | 14.5 | 0.00 | 0.00 | 0.00 | 78 | 1016.4 |
| 20260505052142 | 21 | 116 | 14.5 | 19.3 | 0.00 | 0.00 | 0.00 | 80 | 1016.7 |
| 20260505052136 | 21 | 115 | 9.7 | 14.5 | 0.00 | 0.00 | 0.00 | 77 | 1016.5 |
| 20260505052132 | 21 | 106 | 9.7 | 12.9 | 0.00 | 0.00 | 0.00 | 79 | 1016.3 |
| 20260505052003 | 21 | 111 | 19.3 | 25.7 | 0.00 | 0.00 | 0.00 | 79 | 1016.6 |
| 20260505051959 | 21 | 113 | 17.7 | 24.1 | 0.00 | 0.00 | 0.00 | 80 | 1016.6 |
| 20260505051834 | 21 | 127 | 11.3 | 16.1 | 0.00 | 0.00 | 0.00 | 77 | 1016.5 |
| 20260505051828 | 21 | 121 | 12.9 | 17.7 | 0.00 | 0.00 | 0.00 | 78 | 1016.6 |
| 20260505051823 | 21 | 113 | 11.3 | 17.7 | 0.00 | 0.00 | 0.00 | 78 | 1016.5 |
| 20260505051817 | 21 | 215 | 6.4 | 9.7 | 0.08 | 0.20 | 0.20 | 94 | 1009.5 |
| 20260505051813 | 21 | 254 | 6.4 | 16.1 | 0.10 | 0.20 | 0.20 | 94 | 1009.7 |
| 20260505051808 | 21 | 233 | 9.7 | 16.1 | 0.15 | 0.18 | 0.18 | 93 | 1009.6 |
| 20260505051802 | 21 | 252 | 9.7 | 16.1 | 0.15 | 0.18 | 0.18 | 93 | 1009.5 |
| 20260505051755 | 21 | 241 | 9.7 | 17.7 | 0.13 | 0.15 | 0.15 | 93 | 1009.0 |
| 20260505051749 | 22 | 234 | 8.0 | 17.7 | 0.13 | 0.15 | 0.15 | 91 | 1009.0 |
| 20260505051745 | 23 | 346 | 9.7 | 27.4 | 0.10 | 0.13 | 0.13 | 90 | 1008.9 |
| 20260505051740 | 25 | 248 | 12.9 | 32.2 | 0.08 | 0.10 | 0.10 | 81 | 1008.7 |
| 20260505051734 | 28 | 333 | 3.2 | 11.3 | 0.00 | 0.03 | 0.03 | 69 | 1008.2 |
| 20260505051729 | 28 | 229 | 3.2 | 11.3 | 0.00 | 0.03 | 0.03 | 64 | 1007.8 |
| 20260505051723 | 22 | 113 | 25.7 | 32.2 | 0.00 | 0.00 | 0.00 | 74 | 1015.8 |
| 20260505051719 | 22 | 120 | 24.1 | 32.2 | 0.00 | 0.00 | 0.00 | 75 | 1015.8 |
| 20260505051713 | 22 | 117 | 24.1 | 30.6 | 0.00 | 0.00 | 0.00 | 76 | 1015.8 |
| 20260505051708 | 22 | 114 | 22.5 | 30.6 | 0.00 | 0.00 | 0.00 | 76 | 1015.9 |
| 20260505051702 | 22 | 118 | 24.1 | 30.6 | 0.00 | 0.00 | 0.00 | 75 | 1016.0 |
| 20260505051655 | 22 | 105 | 24.1 | 32.2 | 0.00 | 0.00 | 0.00 | 76 | 1015.9 |
| 20260505051651 | 21 | 131 | 14.5 | 22.5 | 0.00 | 0.00 | 0.00 | 79 | 1016.6 |
| 20260505051646 | 21 | 112 | 9.7 | 14.5 | 0.00 | 0.00 | 0.00 | 78 | 1016.4 |
| 20260505051640 | 22 | 113 | 20.9 | 29.0 | 0.00 | 0.00 | 0.00 | 78 | 1016.3 |
| 20260505051635 | 22 | 113 | 22.5 | 29.0 | 0.00 | 0.00 | 0.00 | 77 | 1016.2 |
| 20260505051629 | 21 | 115 | 9.7 | 14.5 | 0.00 | 0.00 | 0.00 | 77 | 1016.5 |
| 20260505051625 | 21 | 116 | 14.5 | 19.3 | 0.00 | 0.00 | 0.00 | 80 | 1016.7 |
| 20260505051619 | 22 | 108 | 22.5 | 30.6 | 0.00 | 0.00 | 0.00 | 77 | 1016.1 |
| 20260505051614 | 22 | 109 | 20.9 | 29.0 | 0.00 | 0.00 | 0.00 | 79 | 1016.4 |
| 20260505051609 | 21 | 121 | 19.3 | 24.1 | 0.00 | 0.00 | 0.00 | 79 | 1016.4 |
| 20260505051604 | 21 | 118 | 19.3 | 25.7 | 0.00 | 0.00 | 0.00 | 80 | 1016.5 |
| 20260505051557 | 21 | 116 | 20.9 | 25.7 | 0.00 | 0.00 | 0.00 | 78 | 1016.4 |
| 20260505051552 | 21 | 114 | 20.9 | 24.1 | 0.00 | 0.00 | 0.00 | 81 | 1016.5 |
| 20260505051546 | 21 | 120 | 20.9 | 25.7 | 0.00 | 0.00 | 0.00 | 81 | 1016.5 |
| 20260505051541 | 21 | 113 | 20.9 | 24.1 | 0.00 | 0.00 | 0.00 | 81 | 1016.5 |
| 20260505051536 | 21 | 106 | 9.7 | 12.9 | 0.00 | 0.00 | 0.00 | 79 | 1016.3 |
| 20260505051531 | 21 | 115 | 20.9 | 25.7 | 0.00 | 0.00 | 0.00 | 79 | 1016.4 |
| 20260505051525 | 21 | 124 | 20.9 | 24.1 | 0.00 | 0.00 | 0.00 | 80 | 1016.5 |
| 20260505051521 | 21 | 126 | 20.9 | 25.7 | 0.00 | 0.00 | 0.00 | 81 | 1016.5 |
| 20260505051516 | 21 | 111 | 19.3 | 25.7 | 0.00 | 0.00 | 0.00 | 79 | 1016.6 |
| 20260505051510 | 21 | 113 | 12.9 | 17.7 | 0.00 | 0.00 | 0.00 | 78 | 1016.6 |
| 20260505051505 | 21 | 113 | 19.3 | 24.1 | 0.00 | 0.00 | 0.00 | 79 | 1016.5 |
| 20260505051337 | 21 | 113 | 17.7 | 24.1 | 0.00 | 0.00 | 0.00 | 80 | 1016.6 |
| 20260505051331 | 21 | 127 | 11.3 | 16.1 | 0.00 | 0.00 | 0.00 | 77 | 1016.5 |
| 20260505051326 | 21 | 113 | 11.3 | 17.7 | 0.00 | 0.00 | 0.00 | 78 | 1016.5 |
| 20260505051322 | 21 | 124 | 12.9 | 19.3 | 0.00 | 0.00 | 0.00 | 78 | 1016.6 |
| 20260505051145 | 21 | 116 | 14.5 | 19.3 | 0.00 | 0.00 | 0.00 | 80 | 1016.7 |
| 20260505051141 | 21 | 112 | 9.7 | 14.5 | 0.00 | 0.00 | 0.00 | 78 | 1016.4 |
| 20260505051136 | 21 | 115 | 9.7 | 14.5 | 0.00 | 0.00 | 0.00 | 77 | 1016.5 |
| 20260505050850 | 21 | 113 | 11.3 | 17.7 | 0.00 | 0.00 | 0.00 | 78 | 1016.5 |
| 20260505050843 | 21 | 127 | 11.3 | 16.1 | 0.00 | 0.00 | 0.00 | 77 | 1016.5 |
| 20260505050718 | 22 | 113 | 20.9 | 29.0 | 0.00 | 0.00 | 0.00 | 78 | 1016.3 |
| 20260505050713 | 22 | 109 | 20.9 | 29.0 | 0.00 | 0.00 | 0.00 | 79 | 1016.4 |
| 20260505050707 | 21 | 121 | 19.3 | 24.1 | 0.00 | 0.00 | 0.00 | 79 | 1016.4 |
| 20260505050702 | 21 | 118 | 19.3 | 25.7 | 0.00 | 0.00 | 0.00 | 80 | 1016.5 |
| 20260505050657 | 21 | 112 | 9.7 | 14.5 | 0.00 | 0.00 | 0.00 | 78 | 1016.4 |
| 20260505050531 | 21 | 116 | 20.9 | 25.7 | 0.00 | 0.00 | 0.00 | 78 | 1016.4 |
| 20260505050525 | 21 | 114 | 20.9 | 24.1 | 0.00 | 0.00 | 0.00 | 81 | 1016.5 |
| 20260505050519 | 21 | 120 | 20.9 | 25.7 | 0.00 | 0.00 | 0.00 | 81 | 1016.5 |
| 20260505050515 | 21 | 113 | 20.9 | 24.1 | 0.00 | 0.00 | 0.00 | 81 | 1016.5 |
| 20260505050510 | 21 | 115 | 20.9 | 25.7 | 0.00 | 0.00 | 0.00 | 79 | 1016.4 |
| 20260505050504 | 21 | 124 | 20.9 | 24.1 | 0.00 | 0.00 | 0.00 | 80 | 1016.5 |
| 20260505050339 | 21 | 111 | 19.3 | 25.7 | 0.00 | 0.00 | 0.00 | 79 | 1016.6 |
| 20260505050334 | 21 | 113 | 19.3 | 24.1 | 0.00 | 0.00 | 0.00 | 79 | 1016.5 |
| 20260505050328 | 21 | 113 | 17.7 | 24.1 | 0.00 | 0.00 | 0.00 | 80 | 1016.6 |
| 20260505050323 | 21 | 124 | 12.9 | 19.3 | 0.00 | 0.00 | 0.00 | 78 | 1016.6 |
| 20260505050317 | 21 | 131 | 14.5 | 22.5 | 0.00 | 0.00 | 0.00 | 79 | 1016.6 |
| 20260505050313 | 21 | 116 | 14.5 | 19.3 | 0.00 | 0.00 | 0.00 | 80 | 1016.7 |
| 20260505050307 | 21 | 113 | 12.9 | 17.7 | 0.00 | 0.00 | 0.00 | 78 | 1016.6 |
| 20260505050302 | 21 | 113 | 11.3 | 17.7 | 0.00 | 0.00 | 0.00 | 78 | 1016.5 |
| 20260505050256 | 21 | 121 | 12.9 | 17.7 | 0.00 | 0.00 | 0.00 | 78 | 1016.6 |
| 20260505050251 | 21 | 127 | 11.3 | 16.1 | 0.00 | 0.00 | 0.00 | 77 | 1016.5 |
| 20260505041533 | 21 | 113 | 12.9 | 17.7 | 0.00 | 0.00 | 0.00 | 78 | 1016.6 |
| 20260505041528 | 21 | 120 | 20.9 | 25.7 | 0.00 | 0.00 | 0.00 | 81 | 1016.5 |
| 20260505041522 | 21 | 124 | 20.9 | 24.1 | 0.00 | 0.00 | 0.00 | 80 | 1016.5 |
| 20260505041517 | 21 | 126 | 20.9 | 25.7 | 0.00 | 0.00 | 0.00 | 81 | 1016.5 |
| 20260505041511 | 21 | 113 | 17.7 | 24.1 | 0.00 | 0.00 | 0.00 | 80 | 1016.6 |
| 20260505041507 | 21 | 124 | 12.9 | 19.3 | 0.00 | 0.00 | 0.00 | 78 | 1016.6 |
| 20260505041339 | 21 | 118 | 19.3 | 25.7 | 0.00 | 0.00 | 0.00 | 80 | 1016.5 |
| 20260505041333 | 21 | 116 | 20.9 | 25.7 | 0.00 | 0.00 | 0.00 | 78 | 1016.4 |
| 20260505041328 | 21 | 114 | 20.9 | 24.1 | 0.00 | 0.00 | 0.00 | 81 | 1016.5 |
| 20260505041322 | 21 | 115 | 20.9 | 25.7 | 0.00 | 0.00 | 0.00 | 79 | 1016.4 |
| 20260505041158 | 21 | 111 | 19.3 | 25.7 | 0.00 | 0.00 | 0.00 | 79 | 1016.6 |
| 20260505041153 | 21 | 131 | 14.5 | 22.5 | 0.00 | 0.00 | 0.00 | 79 | 1016.6 |
| 20260505041147 | 21 | 116 | 14.5 | 19.3 | 0.00 | 0.00 | 0.00 | 80 | 1016.7 |
| 20260505041021 | 21 | 120 | 20.9 | 25.7 | 0.00 | 0.00 | 0.00 | 81 | 1016.5 |
| 20260505041015 | 26 | 121 | 19.3 | 25.7 | 0.00 | 0.00 | 0.00 | 64 | 1015.5 |
| 20260505041010 | 21 | 124 | 12.9 | 19.3 | 0.00 | 0.00 | 0.00 | 78 | 1016.6 |
| 20260505041004 | 21 | 126 | 20.9 | 25.7 | 0.00 | 0.00 | 0.00 | 81 | 1016.5 |
| 20260505040959 | 22 | 121 | 24.1 | 32.2 | 0.00 | 0.00 | 0.00 | 75 | 1015.5 |
| 20260505040954 | 21 | 124 | 20.9 | 24.1 | 0.00 | 0.00 | 0.00 | 80 | 1016.5 |
| 20260505040950 | 26 | 123 | 16.1 | 29.0 | 0.00 | 0.00 | 0.00 | 62 | 1015.6 |
| 20260505040944 | 26 | 109 | 19.3 | 29.0 | 0.00 | 0.00 | 0.00 | 62 | 1015.7 |
| 20260505040938 | 27 | 123 | 17.7 | 25.7 | 0.00 | 0.00 | 0.00 | 60 | 1015.7 |
| 20260505040932 | 27 | 117 | 14.5 | 22.5 | 0.00 | 0.00 | 0.00 | 59 | 1015.7 |
| 20260505040927 | 26 | 109 | 17.7 | 22.5 | 0.00 | 0.00 | 0.00 | 61 | 1015.7 |
| 20260505040922 | 26 | 123 | 17.7 | 22.5 | 0.00 | 0.00 | 0.00 | 59 | 1015.9 |
| 20260505040917 | 26 | 129 | 16.1 | 20.9 | 0.00 | 0.00 | 0.00 | 62 | 1015.9 |
| 20260505040911 | 26 | 120 | 16.1 | 24.1 | 0.00 | 0.00 | 0.00 | 59 | 1016.1 |
| 20260505040907 | 26 | 124 | 17.7 | 24.1 | 0.00 | 0.00 | 0.00 | 61 | 1016.1 |
| 20260505040902 | 23 | 117 | 25.7 | 32.2 | 0.00 | 0.00 | 0.00 | 73 | 1015.3 |
| 20260505040856 | 21 | 113 | 19.3 | 24.1 | 0.00 | 0.00 | 0.00 | 79 | 1016.5 |
| 20260505040851 | 21 | 113 | 17.7 | 24.1 | 0.00 | 0.00 | 0.00 | 80 | 1016.6 |
| 20260505040725 | 26 | 130 | 17.7 | 24.1 | 0.00 | 0.00 | 0.00 | 62 | 1016.2 |
| 20260505040720 | 22 | 117 | 24.1 | 30.6 | 0.00 | 0.00 | 0.00 | 76 | 1015.8 |
| 20260505040714 | 25 | 132 | 17.7 | 22.5 | 0.00 | 0.00 | 0.00 | 59 | 1016.3 |
| 20260505040709 | 22 | 120 | 24.1 | 32.2 | 0.00 | 0.00 | 0.00 | 75 | 1015.8 |
| 20260505040703 | 26 | 132 | 16.1 | 22.5 | 0.00 | 0.00 | 0.00 | 60 | 1016.5 |
| 20260505040658 | 22 | 114 | 22.5 | 30.6 | 0.00 | 0.00 | 0.00 | 76 | 1015.9 |
| 20260505040652 | 22 | 105 | 24.1 | 32.2 | 0.00 | 0.00 | 0.00 | 76 | 1015.9 |
| 20260505040647 | 22 | 113 | 22.5 | 29.0 | 0.00 | 0.00 | 0.00 | 77 | 1016.2 |
| 20260505040641 | 22 | 108 | 22.5 | 30.6 | 0.00 | 0.00 | 0.00 | 77 | 1016.1 |
| 20260505040634 | 22 | 118 | 24.1 | 30.6 | 0.00 | 0.00 | 0.00 | 75 | 1016.0 |
| 20260505040630 | 22 | 113 | 20.9 | 29.0 | 0.00 | 0.00 | 0.00 | 78 | 1016.3 |
| 20260505040624 | 22 | 109 | 20.9 | 29.0 | 0.00 | 0.00 | 0.00 | 79 | 1016.4 |
| 20260505040619 | 21 | 118 | 19.3 | 25.7 | 0.00 | 0.00 | 0.00 | 80 | 1016.5 |
| 20260505040613 | 21 | 113 | 20.9 | 24.1 | 0.00 | 0.00 | 0.00 | 81 | 1016.5 |
| 20260505040608 | 21 | 116 | 20.9 | 25.7 | 0.00 | 0.00 | 0.00 | 78 | 1016.4 |
| 20260505040603 | 21 | 111 | 19.3 | 25.7 | 0.00 | 0.00 | 0.00 | 79 | 1016.6 |
| 20260505040558 | 21 | 121 | 19.3 | 24.1 | 0.00 | 0.00 | 0.00 | 79 | 1016.4 |
| 20260505040552 | 21 | 114 | 20.9 | 24.1 | 0.00 | 0.00 | 0.00 | 81 | 1016.5 |
| 20260505040548 | 21 | 115 | 20.9 | 25.7 | 0.00 | 0.00 | 0.00 | 79 | 1016.4 |
| 20260505040540 | 21 | 131 | 14.5 | 22.5 | 0.00 | 0.00 | 0.00 | 79 | 1016.6 |
| 20260505040534 | 21 | 116 | 14.5 | 19.3 | 0.00 | 0.00 | 0.00 | 80 | 1016.7 |
| 20260505040527 | 21 | 124 | 12.9 | 19.3 | 0.00 | 0.00 | 0.00 | 78 | 1016.6 |
| 20260505040523 | 21 | 120 | 20.9 | 25.7 | 0.00 | 0.00 | 0.00 | 81 | 1016.5 |
| 20260505040518 | 23 | 119 | 24.1 | 30.6 | 0.00 | 0.00 | 0.00 | 72 | 1015.3 |
| 20260505040513 | 21 | 124 | 20.9 | 24.1 | 0.00 | 0.00 | 0.00 | 80 | 1016.5 |
| 20260505040508 | 22 | 121 | 24.1 | 32.2 | 0.00 | 0.00 | 0.00 | 75 | 1015.5 |
| 20260505040502 | 21 | 126 | 20.9 | 25.7 | 0.00 | 0.00 | 0.00 | 81 | 1016.5 |
| 20260505040337 | 21 | 113 | 19.3 | 24.1 | 0.00 | 0.00 | 0.00 | 79 | 1016.5 |
| 20260505040329 | 21 | 113 | 17.7 | 24.1 | 0.00 | 0.00 | 0.00 | 80 | 1016.6 |
| 20260505040201 | 22 | 120 | 24.1 | 32.2 | 0.00 | 0.00 | 0.00 | 75 | 1015.8 |
| 20260505040157 | 22 | 117 | 24.1 | 30.6 | 0.00 | 0.00 | 0.00 | 76 | 1015.8 |
| 20260505040152 | 22 | 114 | 22.5 | 30.6 | 0.00 | 0.00 | 0.00 | 76 | 1015.9 |
| 20260505040146 | 22 | 105 | 24.1 | 32.2 | 0.00 | 0.00 | 0.00 | 76 | 1015.9 |
| 20260505040141 | 22 | 113 | 22.5 | 29.0 | 0.00 | 0.00 | 0.00 | 77 | 1016.2 |
| 20260505040135 | 22 | 108 | 22.5 | 30.6 | 0.00 | 0.00 | 0.00 | 77 | 1016.1 |
| 20260505040128 | 22 | 118 | 24.1 | 30.6 | 0.00 | 0.00 | 0.00 | 75 | 1016.0 |
| 20260505040124 | 22 | 113 | 20.9 | 29.0 | 0.00 | 0.00 | 0.00 | 78 | 1016.3 |
| 20260505040118 | 22 | 109 | 20.9 | 29.0 | 0.00 | 0.00 | 0.00 | 79 | 1016.4 |
| 20260505040113 | 21 | 113 | 20.9 | 24.1 | 0.00 | 0.00 | 0.00 | 81 | 1016.5 |
| 20260505040109 | 21 | 121 | 19.3 | 24.1 | 0.00 | 0.00 | 0.00 | 79 | 1016.4 |
| 20260505040103 | 21 | 111 | 19.3 | 25.7 | 0.00 | 0.00 | 0.00 | 79 | 1016.6 |
| 20260505040058 | 21 | 118 | 19.3 | 25.7 | 0.00 | 0.00 | 0.00 | 80 | 1016.5 |
| 20260505040052 | 21 | 116 | 20.9 | 25.7 | 0.00 | 0.00 | 0.00 | 78 | 1016.4 |
| 20260505040048 | 21 | 131 | 14.5 | 22.5 | 0.00 | 0.00 | 0.00 | 79 | 1016.6 |
| 20260505040042 | 21 | 114 | 20.9 | 24.1 | 0.00 | 0.00 | 0.00 | 81 | 1016.5 |
| 20260505040037 | 21 | 120 | 20.9 | 25.7 | 0.00 | 0.00 | 0.00 | 81 | 1016.5 |
| 20260505040031 | 21 | 115 | 20.9 | 25.7 | 0.00 | 0.00 | 0.00 | 79 | 1016.4 |
| 20260505040024 | 21 | 124 | 20.9 | 24.1 | 0.00 | 0.00 | 0.00 | 80 | 1016.5 |
| 20260505040020 | 21 | 124 | 12.9 | 19.3 | 0.00 | 0.00 | 0.00 | 78 | 1016.6 |
| 20260505035852 | 21 | 113 | 19.3 | 24.1 | 0.00 | 0.00 | 0.00 | 79 | 1016.5 |
| 20260505035603 | 21 | 111 | 19.3 | 25.7 | 0.00 | 0.00 | 0.00 | 79 | 1016.6 |
| 20260505035557 | 22 | 121 | 24.1 | 32.2 | 0.00 | 0.00 | 0.00 | 75 | 1015.5 |
| 20260505035552 | 22 | 113 | 25.7 | 32.2 | 0.00 | 0.00 | 0.00 | 74 | 1015.8 |
| 20260505035546 | 21 | 131 | 14.5 | 22.5 | 0.00 | 0.00 | 0.00 | 79 | 1016.6 |
| 20260505035542 | 22 | 120 | 24.1 | 32.2 | 0.00 | 0.00 | 0.00 | 75 | 1015.8 |
| 20260505035537 | 22 | 117 | 24.1 | 30.6 | 0.00 | 0.00 | 0.00 | 76 | 1015.8 |
| 20260505035531 | 21 | 124 | 12.9 | 19.3 | 0.00 | 0.00 | 0.00 | 78 | 1016.6 |
| 20260505035525 | 22 | 114 | 22.5 | 30.6 | 0.00 | 0.00 | 0.00 | 76 | 1015.9 |
| 20260505035520 | 22 | 105 | 24.1 | 32.2 | 0.00 | 0.00 | 0.00 | 76 | 1015.9 |
| 20260505035513 | 22 | 113 | 22.5 | 29.0 | 0.00 | 0.00 | 0.00 | 77 | 1016.2 |
| 20260505035507 | 22 | 108 | 22.5 | 30.6 | 0.00 | 0.00 | 0.00 | 77 | 1016.1 |
| 20260505035502 | 21 | 124 | 20.9 | 24.1 | 0.00 | 0.00 | 0.00 | 80 | 1016.5 |
| 20260505035337 | 22 | 113 | 20.9 | 29.0 | 0.00 | 0.00 | 0.00 | 78 | 1016.3 |
| 20260505035331 | 22 | 109 | 20.9 | 29.0 | 0.00 | 0.00 | 0.00 | 79 | 1016.4 |
| 20260505035326 | 21 | 121 | 19.3 | 24.1 | 0.00 | 0.00 | 0.00 | 79 | 1016.4 |
| 20260505035320 | 21 | 118 | 19.3 | 25.7 | 0.00 | 0.00 | 0.00 | 80 | 1016.5 |
| 20260505035313 | 21 | 116 | 20.9 | 25.7 | 0.00 | 0.00 | 0.00 | 78 | 1016.4 |
| 20260505035308 | 21 | 114 | 20.9 | 24.1 | 0.00 | 0.00 | 0.00 | 81 | 1016.5 |
| 20260505035304 | 21 | 120 | 20.9 | 25.7 | 0.00 | 0.00 | 0.00 | 81 | 1016.5 |
| 20260505035258 | 21 | 115 | 20.9 | 25.7 | 0.00 | 0.00 | 0.00 | 79 | 1016.4 |
| 20260505035252 | 21 | 126 | 20.9 | 25.7 | 0.00 | 0.00 | 0.00 | 81 | 1016.5 |
| 20260505035248 | 21 | 113 | 19.3 | 24.1 | 0.00 | 0.00 | 0.00 | 79 | 1016.5 |
| 20260505035243 | 21 | 113 | 17.7 | 24.1 | 0.00 | 0.00 | 0.00 | 80 | 1016.6 |
| 20260505035112 | 21 | 111 | 19.3 | 25.7 | 0.00 | 0.00 | 0.00 | 79 | 1016.6 |
| 20260505035108 | 21 | 131 | 14.5 | 22.5 | 0.00 | 0.00 | 0.00 | 79 | 1016.6 |
| 20260505034941 | 21 | 124 | 20.9 | 24.1 | 0.00 | 0.00 | 0.00 | 80 | 1016.5 |
| 20260505034815 | 22 | 108 | 22.5 | 30.6 | 0.00 | 0.00 | 0.00 | 77 | 1016.1 |
| 20260505034806 | 22 | 113 | 20.9 | 29.0 | 0.00 | 0.00 | 0.00 | 78 | 1016.3 |
| 20260505034802 | 22 | 109 | 20.9 | 29.0 | 0.00 | 0.00 | 0.00 | 79 | 1016.4 |
| 20260505034756 | 21 | 121 | 19.3 | 24.1 | 0.00 | 0.00 | 0.00 | 79 | 1016.4 |
| 20260505034751 | 21 | 118 | 19.3 | 25.7 | 0.00 | 0.00 | 0.00 | 80 | 1016.5 |
| 20260505034745 | 21 | 116 | 20.9 | 25.7 | 0.00 | 0.00 | 0.00 | 78 | 1016.4 |
| 20260505034741 | 21 | 120 | 20.9 | 25.7 | 0.00 | 0.00 | 0.00 | 81 | 1016.5 |
| 20260505034736 | 21 | 115 | 20.9 | 25.7 | 0.00 | 0.00 | 0.00 | 79 | 1016.4 |
| 20260505034730 | 21 | 126 | 20.9 | 25.7 | 0.00 | 0.00 | 0.00 | 81 | 1016.5 |
| 20260505034724 | 21 | 113 | 19.3 | 24.1 | 0.00 | 0.00 | 0.00 | 79 | 1016.5 |
| 20260505034719 | 21 | 113 | 17.7 | 24.1 | 0.00 | 0.00 | 0.00 | 80 | 1016.6 |
| 20260505034552 | 22 | 120 | 24.1 | 32.2 | 0.00 | 0.00 | 0.00 | 75 | 1015.8 |
| 20260505034546 | 22 | 117 | 24.1 | 30.6 | 0.00 | 0.00 | 0.00 | 76 | 1015.8 |
| 20260505034541 | 22 | 114 | 22.5 | 30.6 | 0.00 | 0.00 | 0.00 | 76 | 1015.9 |
| 20260505034537 | 21 | 114 | 20.9 | 24.1 | 0.00 | 0.00 | 0.00 | 81 | 1016.5 |
| 20260505034532 | 21 | 131 | 14.5 | 22.5 | 0.00 | 0.00 | 0.00 | 79 | 1016.6 |
| 20260505034526 | 21 | 113 | 20.9 | 24.1 | 0.00 | 0.00 | 0.00 | 81 | 1016.5 |
| 20260505034521 | 21 | 111 | 19.3 | 25.7 | 0.00 | 0.00 | 0.00 | 79 | 1016.6 |
| 20260505034354 | 21 | 124 | 20.9 | 24.1 | 0.00 | 0.00 | 0.00 | 80 | 1016.5 |
| 20260505034350 | 22 | 118 | 24.1 | 30.6 | 0.00 | 0.00 | 0.00 | 75 | 1016.0 |
| 20260505034344 | 22 | 113 | 22.5 | 29.0 | 0.00 | 0.00 | 0.00 | 77 | 1016.2 |
| 20260505034339 | 22 | 108 | 22.5 | 30.6 | 0.00 | 0.00 | 0.00 | 77 | 1016.1 |
| 20260505034214 | 22 | 109 | 20.9 | 29.0 | 0.00 | 0.00 | 0.00 | 79 | 1016.4 |
| 20260505034208 | 21 | 121 | 19.3 | 24.1 | 0.00 | 0.00 | 0.00 | 79 | 1016.4 |
| 20260505034201 | 21 | 118 | 19.3 | 25.7 | 0.00 | 0.00 | 0.00 | 80 | 1016.5 |
| 20260505034155 | 21 | 116 | 20.9 | 25.7 | 0.00 | 0.00 | 0.00 | 78 | 1016.4 |
| 20260505034150 | 21 | 120 | 20.9 | 25.7 | 0.00 | 0.00 | 0.00 | 81 | 1016.5 |
| 20260505034144 | 21 | 115 | 20.9 | 25.7 | 0.00 | 0.00 | 0.00 | 79 | 1016.4 |
| 20260505034140 | 21 | 126 | 20.9 | 25.7 | 0.00 | 0.00 | 0.00 | 81 | 1016.5 |
| 20260505034134 | 21 | 113 | 19.3 | 24.1 | 0.00 | 0.00 | 0.00 | 79 | 1016.5 |
| 20260505034129 | 21 | 113 | 17.7 | 24.1 | 0.00 | 0.00 | 0.00 | 80 | 1016.6 |
| 20260505034003 | 25 | 132 | 12.9 | 19.3 | 0.00 | 0.00 | 0.00 | 57 | 1016.8 |
| 20260505033958 | 25 | 138 | 12.9 | 19.3 | 0.00 | 0.00 | 0.00 | 53 | 1016.9 |
| 20260505033953 | 25 | 140 | 14.5 | 20.9 | 0.00 | 0.00 | 0.00 | 60 | 1017.0 |
| 20260505033947 | 25 | 141 | 16.1 | 22.5 | 0.00 | 0.23 | 0.00 | 57 | 1017.0 |
| 20260505033941 | 23 | 109 | 25.7 | 33.8 | 0.00 | 0.00 | 0.00 | 74 | 1015.2 |
| 20260505033936 | 23 | 119 | 24.1 | 30.6 | 0.00 | 0.00 | 0.00 | 72 | 1015.3 |
| 20260505033930 | 21 | 114 | 20.9 | 24.1 | 0.00 | 0.00 | 0.00 | 81 | 1016.5 |
| 20260505033926 | 23 | 117 | 25.7 | 32.2 | 0.00 | 0.00 | 0.00 | 73 | 1015.3 |
| 20260505033921 | 21 | 113 | 20.9 | 24.1 | 0.00 | 0.00 | 0.00 | 81 | 1016.5 |
| 20260505033915 | 21 | 124 | 20.9 | 24.1 | 0.00 | 0.00 | 0.00 | 80 | 1016.5 |
| 20260505033909 | 21 | 111 | 19.3 | 25.7 | 0.00 | 0.00 | 0.00 | 79 | 1016.6 |
| 20260505033743 | 22 | 113 | 25.7 | 32.2 | 0.00 | 0.00 | 0.00 | 74 | 1015.8 |
| 20260505033737 | 22 | 120 | 24.1 | 32.2 | 0.00 | 0.00 | 0.00 | 75 | 1015.8 |
| 20260505033731 | 22 | 117 | 24.1 | 30.6 | 0.00 | 0.00 | 0.00 | 76 | 1015.8 |
| 20260505033725 | 22 | 114 | 22.5 | 30.6 | 0.00 | 0.00 | 0.00 | 76 | 1015.9 |
| 20260505033719 | 22 | 105 | 24.1 | 32.2 | 0.00 | 0.00 | 0.00 | 76 | 1015.9 |
| 20260505033713 | 22 | 118 | 24.1 | 30.6 | 0.00 | 0.00 | 0.00 | 75 | 1016.0 |
| 20260505033708 | 22 | 113 | 22.5 | 29.0 | 0.00 | 0.00 | 0.00 | 77 | 1016.2 |
| 20260505033659 | 22 | 108 | 22.5 | 30.6 | 0.00 | 0.00 | 0.00 | 77 | 1016.1 |
| 20260505033653 | 22 | 113 | 20.9 | 29.0 | 0.00 | 0.00 | 0.00 | 78 | 1016.3 |
| 20260505033649 | 22 | 109 | 20.9 | 29.0 | 0.00 | 0.00 | 0.00 | 79 | 1016.4 |
| 20260505033643 | 21 | 121 | 19.3 | 24.1 | 0.00 | 0.00 | 0.00 | 79 | 1016.4 |
| 20260505033637 | 21 | 116 | 20.9 | 25.7 | 0.00 | 0.00 | 0.00 | 78 | 1016.4 |
| 20260505033631 | 21 | 118 | 19.3 | 25.7 | 0.00 | 0.00 | 0.00 | 80 | 1016.5 |
| 20260505033625 | 21 | 120 | 20.9 | 25.7 | 0.00 | 0.00 | 0.00 | 81 | 1016.5 |
| 20260505033619 | 21 | 115 | 20.9 | 25.7 | 0.00 | 0.00 | 0.00 | 79 | 1016.4 |
| 20260505033613 | 21 | 126 | 20.9 | 25.7 | 0.00 | 0.00 | 0.00 | 81 | 1016.5 |
| 20260505033607 | 21 | 113 | 19.3 | 24.1 | 0.00 | 0.00 | 0.00 | 79 | 1016.5 |
| 20260505033553 | 21 | 113 | 17.7 | 24.1 | 0.00 | 0.00 | 0.00 | 80 | 1016.6 |
| 20260505033427 | 21 | 113 | 20.9 | 24.1 | 0.00 | 0.00 | 0.00 | 81 | 1016.5 |
| 20260505033421 | 21 | 124 | 20.9 | 24.1 | 0.00 | 0.00 | 0.00 | 80 | 1016.5 |
| 20260505033126 | 22 | 109 | 20.9 | 29.0 | 0.00 | 0.00 | 0.00 | 79 | 1016.4 |
| 20260505033120 | 22 | 113 | 20.9 | 29.0 | 0.00 | 0.00 | 0.00 | 78 | 1016.3 |
| 20260505033114 | 21 | 121 | 19.3 | 24.1 | 0.00 | 0.00 | 0.00 | 79 | 1016.4 |
| 20260505033110 | 21 | 118 | 19.3 | 25.7 | 0.00 | 0.00 | 0.00 | 80 | 1016.5 |
| 20260505033104 | 21 | 116 | 20.9 | 25.7 | 0.00 | 0.00 | 0.00 | 78 | 1016.4 |
| 20260505033056 | 21 | 126 | 20.9 | 25.7 | 0.00 | 0.00 | 0.00 | 81 | 1016.5 |
| 20260505033052 | 21 | 120 | 20.9 | 25.7 | 0.00 | 0.00 | 0.00 | 81 | 1016.5 |
| 20260505033046 | 23 | 130 | 24.1 | 33.8 | 0.00 | 0.00 | 0.00 | 73 | 1015.1 |
| 20260505033041 | 23 | 111 | 25.7 | 30.6 | 0.00 | 0.00 | 0.00 | 71 | 1014.9 |
| 20260505033037 | 21 | 113 | 19.3 | 24.1 | 0.00 | 0.00 | 0.00 | 79 | 1016.5 |
| 20260505033031 | 23 | 106 | 24.1 | 32.2 | 0.00 | 0.00 | 0.00 | 72 | 1015.0 |
| 20260505033027 | 23 | 109 | 25.7 | 33.8 | 0.00 | 0.00 | 0.00 | 74 | 1015.2 |
| 20260505033021 | 21 | 115 | 20.9 | 25.7 | 0.00 | 0.00 | 0.00 | 79 | 1016.4 |
| 20260505033016 | 23 | 119 | 24.1 | 30.6 | 0.00 | 0.00 | 0.00 | 72 | 1015.3 |
| 20260505033010 | 23 | 117 | 25.7 | 32.2 | 0.00 | 0.00 | 0.00 | 73 | 1015.3 |
| 20260505033005 | 22 | 121 | 24.1 | 32.2 | 0.00 | 0.00 | 0.00 | 75 | 1015.5 |
| 20260505032959 | 22 | 113 | 25.7 | 32.2 | 0.00 | 0.00 | 0.00 | 74 | 1015.8 |
| 20260505032952 | 22 | 120 | 24.1 | 32.2 | 0.00 | 0.00 | 0.00 | 75 | 1015.8 |
| 20260505032948 | 22 | 117 | 24.1 | 30.6 | 0.00 | 0.00 | 0.00 | 76 | 1015.8 |
| 20260505032943 | 22 | 114 | 22.5 | 30.6 | 0.00 | 0.00 | 0.00 | 76 | 1015.9 |
| 20260505032937 | 22 | 105 | 24.1 | 32.2 | 0.00 | 0.00 | 0.00 | 76 | 1015.9 |
| 20260505032932 | 22 | 118 | 24.1 | 30.6 | 0.00 | 0.00 | 0.00 | 75 | 1016.0 |
| 20260505032927 | 22 | 108 | 22.5 | 30.6 | 0.00 | 0.00 | 0.00 | 77 | 1016.1 |
| 20260505032922 | 21 | 113 | 20.9 | 24.1 | 0.00 | 0.00 | 0.00 | 81 | 1016.5 |
| 20260505032916 | 21 | 114 | 20.9 | 24.1 | 0.00 | 0.00 | 0.00 | 81 | 1016.5 |
| 20260505032912 | 21 | 124 | 20.9 | 24.1 | 0.00 | 0.00 | 0.00 | 80 | 1016.5 |
| 20260505032622 | 22 | 113 | 20.9 | 29.0 | 0.00 | 0.00 | 0.00 | 78 | 1016.3 |
| 20260505032617 | 22 | 109 | 20.9 | 29.0 | 0.00 | 0.00 | 0.00 | 79 | 1016.4 |
| 20260505032612 | 21 | 126 | 20.9 | 25.7 | 0.00 | 0.00 | 0.00 | 81 | 1016.5 |
| 20260505032606 | 21 | 121 | 19.3 | 24.1 | 0.00 | 0.00 | 0.00 | 79 | 1016.4 |
| 20260505032601 | 21 | 118 | 19.3 | 25.7 | 0.00 | 0.00 | 0.00 | 80 | 1016.5 |
| 20260505032554 | 21 | 116 | 20.9 | 25.7 | 0.00 | 0.00 | 0.00 | 78 | 1016.4 |
| 20260505032548 | 21 | 120 | 20.9 | 25.7 | 0.00 | 0.00 | 0.00 | 81 | 1016.5 |
| 20260505032544 | 21 | 115 | 20.9 | 25.7 | 0.00 | 0.00 | 0.00 | 79 | 1016.4 |
| 20260505032537 | 21 | 113 | 19.3 | 24.1 | 0.00 | 0.00 | 0.00 | 79 | 1016.5 |
| 20260505032238 | 21 | 124 | 20.9 | 24.1 | 0.00 | 0.00 | 0.00 | 80 | 1016.5 |
| 20260505032233 | 21 | 111 | 19.3 | 25.7 | 0.00 | 0.00 | 0.00 | 79 | 1016.6 |
| 20260505031943 | 22 | 109 | 20.9 | 29.0 | 0.00 | 0.00 | 0.00 | 79 | 1016.4 |
| 20260505031937 | 21 | 118 | 19.3 | 25.7 | 0.00 | 0.00 | 0.00 | 80 | 1016.5 |
| 20260505031932 | 21 | 120 | 20.9 | 25.7 | 0.00 | 0.00 | 0.00 | 81 | 1016.5 |
| 20260505031806 | 21 | 113 | 20.9 | 24.1 | 0.00 | 0.00 | 0.00 | 81 | 1016.5 |
| 20260505031638 | 22 | 113 | 20.9 | 29.0 | 0.00 | 0.00 | 0.00 | 78 | 1016.3 |
| 20260505031634 | 21 | 124 | 20.9 | 24.1 | 0.00 | 0.00 | 0.00 | 80 | 1016.5 |
| 20260505031628 | 21 | 121 | 19.3 | 24.1 | 0.00 | 0.00 | 0.00 | 79 | 1016.4 |
| 20260505031623 | 21 | 126 | 20.9 | 25.7 | 0.00 | 0.00 | 0.00 | 81 | 1016.5 |
| 20260505031606 | 21 | 111 | 19.3 | 25.7 | 0.00 | 0.00 | 0.00 | 79 | 1016.6 |
| 20260505031449 | 21 | 114 | 20.9 | 24.1 | 0.00 | 0.00 | 0.00 | 81 | 1016.5 |
| 20260505031321 | 25 | 144 | 14.5 | 19.3 | 0.00 | 0.53 | 0.00 | 59 | 1017.0 |
| 20260505031315 | 22 | 109 | 20.9 | 29.0 | 0.00 | 0.00 | 0.00 | 79 | 1016.4 |
| 20260505031309 | 25 | 132 | 16.1 | 20.9 | 0.00 | 0.53 | 0.00 | 57 | 1017.1 |
| 20260505031304 | 25 | 130 | 14.5 | 22.5 | 0.00 | 0.53 | 0.00 | 60 | 1017.2 |
| 20260505031259 | 21 | 115 | 20.9 | 25.7 | 0.00 | 0.00 | 0.00 | 79 | 1016.4 |
| 20260505031253 | 21 | 118 | 19.3 | 25.7 | 0.00 | 0.00 | 0.00 | 80 | 1016.5 |
| 20260505031248 | 24 | 149 | 16.1 | 22.5 | 0.00 | 0.53 | 0.00 | 56 | 1017.4 |
| 20260505031242 | 25 | 0.0 | 0.0 | 0.00 | 0.53 | 0.00 | 57 | 1017.4 | |
| 20260505031238 | 21 | 113 | 20.9 | 24.1 | 0.00 | 0.00 | 0.00 | 81 | 1016.5 |
| 20260505031231 | 25 | 0.0 | 0.0 | 0.00 | 0.53 | 0.00 | 52 | 1017.5 | |
| 20260505031225 | 26 | 0.0 | 0.0 | 0.00 | 0.53 | 0.00 | 56 | 1017.6 | |
| 20260505031220 | 25 | 0.0 | 0.0 | 0.00 | 0.53 | 0.00 | 51 | 1017.8 | |
| 20260505031214 | 25 | 0.0 | 0.0 | 0.00 | 0.53 | 0.00 | 54 | 1017.9 | |
| 20260505031210 | 24 | 0.0 | 0.0 | 0.00 | 0.53 | 0.00 | 49 | 1017.9 | |
| 20260505031204 | 24 | 0.0 | 0.0 | 0.00 | 0.53 | 0.00 | 50 | 1017.8 | |
| 20260505031158 | 24 | 0.0 | 0.0 | 0.00 | 0.53 | 0.00 | 49 | 1017.9 | |
| 20260505031153 | 24 | 0.0 | 4.8 | 0.00 | 0.53 | 0.00 | 49 | 1017.9 | |
| 20260505031148 | 24 | 256 | 4.8 | 8.0 | 0.00 | 0.53 | 0.00 | 47 | 1018.0 |
| 20260505031143 | 25 | 256 | 4.8 | 8.0 | 0.00 | 0.53 | 0.00 | 51 | 1018.1 |
| 20260505031139 | 21 | 124 | 20.9 | 24.1 | 0.00 | 0.00 | 0.00 | 80 | 1016.5 |
| 20260505031132 | 26 | 59 | 1.6 | 8.0 | 0.00 | 0.53 | 0.00 | 44 | 1018.0 |
| 20260505031126 | 26 | 59 | 4.8 | 9.7 | 0.00 | 0.53 | 0.00 | 50 | 1018.0 |
| 20260505031121 | 26 | 17 | 6.4 | 16.1 | 0.00 | 0.53 | 0.00 | 48 | 1018.0 |
| 20260505031115 | 26 | 22 | 11.3 | 16.1 | 0.00 | 0.53 | 0.00 | 48 | 1018.0 |
| 20260505031110 | 26 | 13 | 11.3 | 16.1 | 0.00 | 0.53 | 0.00 | 48 | 1018.0 |
| 20260505031104 | 21 | 126 | 20.9 | 25.7 | 0.00 | 0.00 | 0.00 | 81 | 1016.5 |
| 20260505031059 | 26 | 22 | 8.0 | 16.1 | 0.00 | 0.53 | 0.00 | 50 | 1018.1 |
| 20260505031054 | 25 | 28 | 9.7 | 17.7 | 0.00 | 0.53 | 0.00 | 46 | 1018.1 |
| 20260505031049 | 25 | 31 | 14.5 | 17.7 | 0.00 | 0.53 | 0.00 | 49 | 1018.1 |
| 20260505031043 | 25 | 36 | 8.0 | 16.1 | 0.00 | 0.53 | 0.00 | 51 | 1018.2 |
| 20260505031037 | 25 | 54 | 9.7 | 17.7 | 0.00 | 0.53 | 0.00 | 53 | 1018.3 |
| 20260505031030 | 23 | 122 | 25.7 | 32.2 | 0.00 | 0.00 | 0.00 | 73 | 1015.1 |
| 20260505031025 | 23 | 111 | 24.1 | 29.0 | 0.00 | 0.00 | 0.00 | 71 | 1015.1 |
| 20260505031020 | 24 | 117 | 24.1 | 32.2 | 0.00 | 0.00 | 0.00 | 70 | 1015.2 |
| 20260505031014 | 25 | 123 | 20.9 | 29.0 | 0.00 | 0.00 | 0.00 | 67 | 1015.2 |
| 20260505031010 | 23 | 130 | 24.1 | 33.8 | 0.00 | 0.00 | 0.00 | 73 | 1015.1 |
| 20260505031005 | 23 | 111 | 25.7 | 30.6 | 0.00 | 0.00 | 0.00 | 71 | 1014.9 |
| 20260505031000 | 23 | 106 | 24.1 | 32.2 | 0.00 | 0.00 | 0.00 | 72 | 1015.0 |
| 20260505030954 | 23 | 109 | 25.7 | 33.8 | 0.00 | 0.00 | 0.00 | 74 | 1015.2 |
| 20260505030949 | 23 | 119 | 24.1 | 30.6 | 0.00 | 0.00 | 0.00 | 72 | 1015.3 |
| 20260505030943 | 23 | 117 | 25.7 | 32.2 | 0.00 | 0.00 | 0.00 | 73 | 1015.3 |
| 20260505030938 | 22 | 121 | 24.1 | 32.2 | 0.00 | 0.00 | 0.00 | 75 | 1015.5 |
| 20260505030931 | 22 | 113 | 25.7 | 32.2 | 0.00 | 0.00 | 0.00 | 74 | 1015.8 |
| 20260505030925 | 22 | 120 | 24.1 | 32.2 | 0.00 | 0.00 | 0.00 | 75 | 1015.8 |
| 20260505030920 | 22 | 117 | 24.1 | 30.6 | 0.00 | 0.00 | 0.00 | 76 | 1015.8 |
| 20260505030914 | 22 | 114 | 22.5 | 30.6 | 0.00 | 0.00 | 0.00 | 76 | 1015.9 |
| 20260505030910 | 21 | 114 | 20.9 | 24.1 | 0.00 | 0.00 | 0.00 | 81 | 1016.5 |
| 20260505030904 | 22 | 105 | 24.1 | 32.2 | 0.00 | 0.00 | 0.00 | 76 | 1015.9 |
| 20260505030859 | 22 | 108 | 22.5 | 30.6 | 0.00 | 0.00 | 0.00 | 77 | 1016.1 |
| 20260505030853 | 22 | 118 | 24.1 | 30.6 | 0.00 | 0.00 | 0.00 | 75 | 1016.0 |
| 20260505030848 | 22 | 113 | 22.5 | 29.0 | 0.00 | 0.00 | 0.00 | 77 | 1016.2 |
| 20260505030842 | 22 | 113 | 20.9 | 29.0 | 0.00 | 0.00 | 0.00 | 78 | 1016.3 |
| 20260505030837 | 22 | 109 | 20.9 | 29.0 | 0.00 | 0.00 | 0.00 | 79 | 1016.4 |
| 20260505030830 | 21 | 121 | 19.3 | 24.1 | 0.00 | 0.00 | 0.00 | 79 | 1016.4 |
| 20260505030826 | 21 | 116 | 20.9 | 25.7 | 0.00 | 0.00 | 0.00 | 78 | 1016.4 |
| 20260505030820 | 21 | 118 | 19.3 | 25.7 | 0.00 | 0.00 | 0.00 | 80 | 1016.5 |
| 20260505030814 | 21 | 120 | 20.9 | 25.7 | 0.00 | 0.00 | 0.00 | 81 | 1016.5 |
| 20260505030809 | 21 | 115 | 20.9 | 25.7 | 0.00 | 0.00 | 0.00 | 79 | 1016.4 |
| 20260505030803 | 21 | 113 | 20.9 | 24.1 | 0.00 | 0.00 | 0.00 | 81 | 1016.5 |
| 20260505030621 | 21 | 126 | 20.9 | 25.7 | 0.00 | 0.00 | 0.00 | 81 | 1016.5 |
| 20260505030507 | 25 | 113 | 19.3 | 29.0 | 0.00 | 0.00 | 0.00 | 65 | 1015.2 |
| 20260505030502 | 25 | 132 | 20.9 | 29.0 | 0.00 | 0.00 | 0.00 | 64 | 1015.2 |
| 20260505030458 | 26 | 103 | 20.9 | 32.2 | 0.00 | 0.00 | 0.00 | 64 | 1015.2 |
| 20260505030453 | 25 | 117 | 20.9 | 32.2 | 0.00 | 0.00 | 0.00 | 68 | 1015.3 |
| 20260505030447 | 26 | 123 | 19.3 | 25.7 | 0.00 | 0.00 | 0.00 | 64 | 1015.3 |
| 20260505030441 | 26 | 111 | 19.3 | 24.1 | 0.00 | 0.00 | 0.00 | 64 | 1015.4 |
| 20260505030436 | 26 | 121 | 19.3 | 25.7 | 0.00 | 0.00 | 0.00 | 64 | 1015.5 |
| 20260505030432 | 21 | 114 | 20.9 | 24.1 | 0.00 | 0.00 | 0.00 | 81 | 1016.5 |
| 20260505030424 | 26 | 123 | 16.1 | 29.0 | 0.00 | 0.00 | 0.00 | 62 | 1015.6 |
| 20260505030418 | 23 | 130 | 24.1 | 33.8 | 0.00 | 0.00 | 0.00 | 73 | 1015.1 |
| 20260505030414 | 23 | 111 | 25.7 | 30.6 | 0.00 | 0.00 | 0.00 | 71 | 1014.9 |
| 20260505030408 | 23 | 106 | 24.1 | 32.2 | 0.00 | 0.00 | 0.00 | 72 | 1015.0 |
| 20260505030403 | 23 | 109 | 25.7 | 33.8 | 0.00 | 0.00 | 0.00 | 74 | 1015.2 |
| 20260505030357 | 23 | 119 | 24.1 | 30.6 | 0.00 | 0.00 | 0.00 | 72 | 1015.3 |
| 20260505030352 | 23 | 117 | 25.7 | 32.2 | 0.00 | 0.00 | 0.00 | 73 | 1015.3 |
| 20260505030348 | 22 | 121 | 24.1 | 32.2 | 0.00 | 0.00 | 0.00 | 75 | 1015.5 |
| 20260505030342 | 22 | 113 | 25.7 | 32.2 | 0.00 | 0.00 | 0.00 | 74 | 1015.8 |
| 20260505030336 | 22 | 120 | 24.1 | 32.2 | 0.00 | 0.00 | 0.00 | 75 | 1015.8 |
| 20260505030331 | 22 | 117 | 24.1 | 30.6 | 0.00 | 0.00 | 0.00 | 76 | 1015.8 |
| 20260505030324 | 22 | 114 | 22.5 | 30.6 | 0.00 | 0.00 | 0.00 | 76 | 1015.9 |
| 20260505030320 | 22 | 105 | 24.1 | 32.2 | 0.00 | 0.00 | 0.00 | 76 | 1015.9 |
| 20260505030314 | 22 | 113 | 22.5 | 29.0 | 0.00 | 0.00 | 0.00 | 77 | 1016.2 |
| 20260505030310 | 21 | 118 | 19.3 | 25.7 | 0.00 | 0.00 | 0.00 | 80 | 1016.5 |
| 20260505030305 | 22 | 108 | 22.5 | 30.6 | 0.00 | 0.00 | 0.00 | 77 | 1016.1 |
| 20260505030259 | 22 | 118 | 24.1 | 30.6 | 0.00 | 0.00 | 0.00 | 75 | 1016.0 |
| 20260505030253 | 22 | 113 | 20.9 | 29.0 | 0.00 | 0.00 | 0.00 | 78 | 1016.3 |
| 20260505030248 | 22 | 109 | 20.9 | 29.0 | 0.00 | 0.00 | 0.00 | 79 | 1016.4 |
| 20260505030242 | 21 | 121 | 19.3 | 24.1 | 0.00 | 0.00 | 0.00 | 79 | 1016.4 |
| 20260505030237 | 21 | 116 | 20.9 | 25.7 | 0.00 | 0.00 | 0.00 | 78 | 1016.4 |
| 20260505030231 | 21 | 120 | 20.9 | 25.7 | 0.00 | 0.00 | 0.00 | 81 | 1016.5 |
| 20260505030226 | 21 | 115 | 20.9 | 25.7 | 0.00 | 0.00 | 0.00 | 79 | 1016.4 |
| 20260505030058 | 21 | 124 | 20.9 | 24.1 | 0.00 | 0.00 | 0.00 | 80 | 1016.5 |
| 20260505025811 | 21 | 118 | 19.3 | 25.7 | 0.00 | 0.00 | 0.00 | 80 | 1016.5 |
| 20260505025643 | 21 | 115 | 20.9 | 25.7 | 0.00 | 0.00 | 0.00 | 79 | 1016.4 |
| 20260505025638 | 21 | 120 | 20.9 | 25.7 | 0.00 | 0.00 | 0.00 | 81 | 1016.5 |
| 20260505025634 | 26 | 109 | 19.3 | 29.0 | 0.00 | 0.00 | 0.00 | 62 | 1015.7 |
| 20260505025628 | 27 | 123 | 17.7 | 25.7 | 0.00 | 0.00 | 0.00 | 60 | 1015.7 |
| 20260505025624 | 27 | 117 | 14.5 | 22.5 | 0.00 | 0.00 | 0.00 | 59 | 1015.7 |
| 20260505025616 | 26 | 109 | 17.7 | 22.5 | 0.00 | 0.00 | 0.00 | 61 | 1015.7 |
| 20260505025610 | 26 | 123 | 17.7 | 22.5 | 0.00 | 0.00 | 0.00 | 59 | 1015.9 |
| 20260505025606 | 26 | 129 | 16.1 | 20.9 | 0.00 | 0.00 | 0.00 | 62 | 1015.9 |
| 20260505025600 | 26 | 120 | 16.1 | 24.1 | 0.00 | 0.00 | 0.00 | 59 | 1016.1 |
| 20260505025555 | 26 | 124 | 17.7 | 24.1 | 0.00 | 0.00 | 0.00 | 61 | 1016.1 |
| 20260505025550 | 26 | 130 | 17.7 | 24.1 | 0.00 | 0.00 | 0.00 | 62 | 1016.2 |
| 20260505025543 | 25 | 132 | 17.7 | 22.5 | 0.00 | 0.00 | 0.00 | 59 | 1016.3 |
| 20260505025538 | 26 | 132 | 16.1 | 22.5 | 0.00 | 0.00 | 0.00 | 60 | 1016.5 |
| 20260505025533 | 26 | 139 | 14.5 | 22.5 | 0.00 | 0.00 | 0.00 | 58 | 1016.6 |
| 20260505025528 | 21 | 124 | 20.9 | 24.1 | 0.00 | 0.00 | 0.00 | 80 | 1016.5 |
| 20260505025523 | 23 | 122 | 25.7 | 32.2 | 0.00 | 0.00 | 0.00 | 73 | 1015.1 |
| 20260505025516 | 23 | 111 | 24.1 | 29.0 | 0.00 | 0.00 | 0.00 | 71 | 1015.1 |
| 20260505025510 | 24 | 117 | 24.1 | 32.2 | 0.00 | 0.00 | 0.00 | 70 | 1015.2 |
| 20260505025505 | 21 | 113 | 20.9 | 24.1 | 0.00 | 0.00 | 0.00 | 81 | 1016.5 |
| 20260505025459 | 23 | 130 | 24.1 | 33.8 | 0.00 | 0.00 | 0.00 | 73 | 1015.1 |
| 20260505025454 | 22 | 105 | 24.1 | 32.2 | 0.00 | 0.00 | 0.00 | 76 | 1015.9 |
| 20260505025449 | 22 | 108 | 22.5 | 30.6 | 0.00 | 0.00 | 0.00 | 77 | 1016.1 |
| 20260505025444 | 22 | 109 | 20.9 | 29.0 | 0.00 | 0.00 | 0.00 | 79 | 1016.4 |
| 20260505025438 | 21 | 121 | 19.3 | 24.1 | 0.00 | 0.00 | 0.00 | 79 | 1016.4 |
| 20260505025434 | 21 | 116 | 20.9 | 25.7 | 0.00 | 0.00 | 0.00 | 78 | 1016.4 |
| 20260505025429 | 21 | 114 | 20.9 | 24.1 | 0.00 | 0.00 | 0.00 | 81 | 1016.5 |
| 20260505025300 | 23 | 106 | 24.1 | 32.2 | 0.00 | 0.00 | 0.00 | 72 | 1015.0 |
| 20260505025255 | 23 | 109 | 25.7 | 33.8 | 0.00 | 0.00 | 0.00 | 74 | 1015.2 |
| 20260505025249 | 23 | 119 | 24.1 | 30.6 | 0.00 | 0.00 | 0.00 | 72 | 1015.3 |
| 20260505025244 | 23 | 117 | 25.7 | 32.2 | 0.00 | 0.00 | 0.00 | 73 | 1015.3 |
| 20260505025238 | 22 | 121 | 24.1 | 32.2 | 0.00 | 0.00 | 0.00 | 75 | 1015.5 |
| 20260505025234 | 22 | 113 | 25.7 | 32.2 | 0.00 | 0.00 | 0.00 | 74 | 1015.8 |
| 20260505025228 | 22 | 120 | 24.1 | 32.2 | 0.00 | 0.00 | 0.00 | 75 | 1015.8 |
| 20260505025223 | 22 | 117 | 24.1 | 30.6 | 0.00 | 0.00 | 0.00 | 76 | 1015.8 |
| 20260505025217 | 22 | 114 | 22.5 | 30.6 | 0.00 | 0.00 | 0.00 | 76 | 1015.9 |
| 20260505025210 | 22 | 118 | 24.1 | 30.6 | 0.00 | 0.00 | 0.00 | 75 | 1016.0 |
| 20260505025205 | 21 | 118 | 19.3 | 25.7 | 0.00 | 0.00 | 0.00 | 80 | 1016.5 |
| 20260505025200 | 22 | 113 | 22.5 | 29.0 | 0.00 | 0.00 | 0.00 | 77 | 1016.2 |
| 20260505025154 | 22 | 113 | 20.9 | 29.0 | 0.00 | 0.00 | 0.00 | 78 | 1016.3 |
| 20260505025150 | 21 | 120 | 20.9 | 25.7 | 0.00 | 0.00 | 0.00 | 81 | 1016.5 |
| 20260505025144 | 21 | 115 | 20.9 | 25.7 | 0.00 | 0.00 | 0.00 | 79 | 1016.4 |
| 20260505024854 | 22 | 108 | 22.5 | 30.6 | 0.00 | 0.00 | 0.00 | 77 | 1016.1 |
| 20260505024849 | 21 | 121 | 19.3 | 24.1 | 0.00 | 0.00 | 0.00 | 79 | 1016.4 |
| 20260505024843 | 22 | 109 | 20.9 | 29.0 | 0.00 | 0.00 | 0.00 | 79 | 1016.4 |
| 20260505024838 | 25 | 132 | 12.9 | 19.3 | 0.00 | 0.00 | 0.00 | 57 | 1016.8 |
| 20260505024832 | 21 | 116 | 20.9 | 25.7 | 0.00 | 0.00 | 0.00 | 78 | 1016.4 |
| 20260505024827 | 21 | 114 | 20.9 | 24.1 | 0.00 | 0.00 | 0.00 | 81 | 1016.5 |
| 20260505024658 | 21 | 118 | 19.3 | 25.7 | 0.00 | 0.00 | 0.00 | 80 | 1016.5 |
| 20260505024654 | 25 | 140 | 14.5 | 20.9 | 0.00 | 0.00 | 0.00 | 60 | 1017.0 |
| 20260505024648 | 25 | 141 | 16.1 | 22.5 | 0.00 | 0.23 | 0.00 | 57 | 1017.0 |
| 20260505024643 | 25 | 144 | 14.5 | 19.3 | 0.00 | 0.53 | 0.00 | 59 | 1017.0 |
| 20260505024637 | 25 | 132 | 16.1 | 20.9 | 0.00 | 0.53 | 0.00 | 57 | 1017.1 |
| 20260505024632 | 25 | 130 | 14.5 | 22.5 | 0.00 | 0.53 | 0.00 | 60 | 1017.2 |
| 20260505024626 | 24 | 149 | 16.1 | 22.5 | 0.00 | 0.53 | 0.00 | 56 | 1017.4 |
| 20260505024622 | 25 | 123 | 20.9 | 29.0 | 0.00 | 0.00 | 0.00 | 67 | 1015.2 |
| 20260505024616 | 25 | 111 | 19.3 | 29.0 | 0.00 | 0.00 | 0.00 | 66 | 1015.3 |
| 20260505024612 | 25 | 113 | 19.3 | 29.0 | 0.00 | 0.00 | 0.00 | 65 | 1015.2 |
| 20260505024607 | 25 | 132 | 20.9 | 29.0 | 0.00 | 0.00 | 0.00 | 64 | 1015.2 |
| 20260505024558 | 26 | 103 | 20.9 | 32.2 | 0.00 | 0.00 | 0.00 | 64 | 1015.2 |
| 20260505024554 | 25 | 117 | 20.9 | 32.2 | 0.00 | 0.00 | 0.00 | 68 | 1015.3 |
| 20260505024548 | 23 | 122 | 25.7 | 32.2 | 0.00 | 0.00 | 0.00 | 73 | 1015.1 |
| 20260505024543 | 23 | 111 | 24.1 | 29.0 | 0.00 | 0.00 | 0.00 | 71 | 1015.1 |
| 20260505024538 | 24 | 117 | 24.1 | 32.2 | 0.00 | 0.00 | 0.00 | 70 | 1015.2 |
| 20260505024532 | 22 | 113 | 20.9 | 29.0 | 0.00 | 0.00 | 0.00 | 78 | 1016.3 |
| 20260505024528 | 21 | 113 | 20.9 | 24.1 | 0.00 | 0.00 | 0.00 | 81 | 1016.5 |
| 20260505024522 | 21 | 120 | 20.9 | 25.7 | 0.00 | 0.00 | 0.00 | 81 | 1016.5 |
| 20260505024517 | 23 | 130 | 24.1 | 33.8 | 0.00 | 0.00 | 0.00 | 73 | 1015.1 |
| 20260505024511 | 23 | 106 | 24.1 | 32.2 | 0.00 | 0.00 | 0.00 | 72 | 1015.0 |
| 20260505024506 | 21 | 115 | 20.9 | 25.7 | 0.00 | 0.00 | 0.00 | 79 | 1016.4 |
| 20260505024459 | 23 | 111 | 25.7 | 30.6 | 0.00 | 0.00 | 0.00 | 71 | 1014.9 |
| 20260505024453 | 23 | 109 | 25.7 | 33.8 | 0.00 | 0.00 | 0.00 | 74 | 1015.2 |
| 20260505024448 | 23 | 119 | 24.1 | 30.6 | 0.00 | 0.00 | 0.00 | 72 | 1015.3 |
| 20260505024442 | 23 | 117 | 25.7 | 32.2 | 0.00 | 0.00 | 0.00 | 73 | 1015.3 |
| 20260505024438 | 22 | 121 | 24.1 | 32.2 | 0.00 | 0.00 | 0.00 | 75 | 1015.5 |
| 20260505024432 | 22 | 113 | 25.7 | 32.2 | 0.00 | 0.00 | 0.00 | 74 | 1015.8 |
| 20260505024427 | 22 | 120 | 24.1 | 32.2 | 0.00 | 0.00 | 0.00 | 75 | 1015.8 |
| 20260505024421 | 22 | 114 | 22.5 | 30.6 | 0.00 | 0.00 | 0.00 | 76 | 1015.9 |
| 20260505024416 | 22 | 117 | 24.1 | 30.6 | 0.00 | 0.00 | 0.00 | 76 | 1015.8 |
| 20260505024410 | 22 | 105 | 24.1 | 32.2 | 0.00 | 0.00 | 0.00 | 76 | 1015.9 |
| 20260505024406 | 22 | 118 | 24.1 | 30.6 | 0.00 | 0.00 | 0.00 | 75 | 1016.0 |
| 20260505024358 | 22 | 113 | 22.5 | 29.0 | 0.00 | 0.00 | 0.00 | 77 | 1016.2 |
| 20260505024352 | 22 | 109 | 20.9 | 29.0 | 0.00 | 0.00 | 0.00 | 79 | 1016.4 |
| 20260505024348 | 22 | 108 | 22.5 | 30.6 | 0.00 | 0.00 | 0.00 | 77 | 1016.1 |
| 20260505024343 | 21 | 121 | 19.3 | 24.1 | 0.00 | 0.00 | 0.00 | 79 | 1016.4 |
| 20260505024215 | 21 | 114 | 20.9 | 24.1 | 0.00 | 0.00 | 0.00 | 81 | 1016.5 |
| 20260505024209 | 21 | 118 | 19.3 | 25.7 | 0.00 | 0.00 | 0.00 | 80 | 1016.5 |
| 20260505024040 | 22 | 113 | 20.9 | 29.0 | 0.00 | 0.00 | 0.00 | 78 | 1016.3 |
| 20260505024034 | 25 | 123 | 20.9 | 29.0 | 0.00 | 0.00 | 0.00 | 67 | 1015.2 |
| 20260505024028 | 23 | 122 | 25.7 | 32.2 | 0.00 | 0.00 | 0.00 | 73 | 1015.1 |
| 20260505024024 | 21 | 120 | 20.9 | 25.7 | 0.00 | 0.00 | 0.00 | 81 | 1016.5 |
| 20260505024019 | 21 | 115 | 20.9 | 25.7 | 0.00 | 0.00 | 0.00 | 79 | 1016.4 |
| 20260505024013 | 23 | 111 | 24.1 | 29.0 | 0.00 | 0.00 | 0.00 | 71 | 1015.1 |
| 20260505024008 | 24 | 117 | 24.1 | 32.2 | 0.00 | 0.00 | 0.00 | 70 | 1015.2 |
| 20260505024002 | 23 | 130 | 24.1 | 33.8 | 0.00 | 0.00 | 0.00 | 73 | 1015.1 |
| 20260505023955 | 23 | 111 | 25.7 | 30.6 | 0.00 | 0.00 | 0.00 | 71 | 1014.9 |
| 20260505023950 | 23 | 106 | 24.1 | 32.2 | 0.00 | 0.00 | 0.00 | 72 | 1015.0 |
| 20260505023944 | 23 | 109 | 25.7 | 33.8 | 0.00 | 0.00 | 0.00 | 74 | 1015.2 |
| 20260505023940 | 23 | 119 | 24.1 | 30.6 | 0.00 | 0.00 | 0.00 | 72 | 1015.3 |
| 20260505023934 | 23 | 117 | 25.7 | 32.2 | 0.00 | 0.00 | 0.00 | 73 | 1015.3 |
| 20260505023930 | 22 | 121 | 24.1 | 32.2 | 0.00 | 0.00 | 0.00 | 75 | 1015.5 |
| 20260505023925 | 22 | 113 | 25.7 | 32.2 | 0.00 | 0.00 | 0.00 | 74 | 1015.8 |
| 20260505023919 | 22 | 120 | 24.1 | 32.2 | 0.00 | 0.00 | 0.00 | 75 | 1015.8 |
| 20260505023913 | 22 | 117 | 24.1 | 30.6 | 0.00 | 0.00 | 0.00 | 76 | 1015.8 |
| 20260505023908 | 22 | 114 | 22.5 | 30.6 | 0.00 | 0.00 | 0.00 | 76 | 1015.9 |
| 20260505023904 | 22 | 105 | 24.1 | 32.2 | 0.00 | 0.00 | 0.00 | 76 | 1015.9 |
| 20260505023858 | 22 | 109 | 20.9 | 29.0 | 0.00 | 0.00 | 0.00 | 79 | 1016.4 |
| 20260505023851 | 21 | 121 | 19.3 | 24.1 | 0.00 | 0.00 | 0.00 | 79 | 1016.4 |
| 20260505023846 | 22 | 118 | 24.1 | 30.6 | 0.00 | 0.00 | 0.00 | 75 | 1016.0 |
| 20260505023840 | 22 | 108 | 22.5 | 30.6 | 0.00 | 0.00 | 0.00 | 77 | 1016.1 |
| 20260505023836 | 22 | 113 | 22.5 | 29.0 | 0.00 | 0.00 | 0.00 | 77 | 1016.2 |
| 20260505023709 | 21 | 116 | 20.9 | 25.7 | 0.00 | 0.00 | 0.00 | 78 | 1016.4 |
| 20260505023703 | 21 | 114 | 20.9 | 24.1 | 0.00 | 0.00 | 0.00 | 81 | 1016.5 |
| 20260505023534 | 21 | 120 | 20.9 | 25.7 | 0.00 | 0.00 | 0.00 | 81 | 1016.5 |
| 20260505023529 | 21 | 115 | 20.9 | 25.7 | 0.00 | 0.00 | 0.00 | 79 | 1016.4 |
| 20260505023404 | 21 | 121 | 19.3 | 24.1 | 0.00 | 0.00 | 0.00 | 79 | 1016.4 |
| 20260505023236 | 23 | 109 | 25.7 | 33.8 | 0.00 | 0.00 | 0.00 | 74 | 1015.2 |
| 20260505023231 | 23 | 119 | 24.1 | 30.6 | 0.00 | 0.00 | 0.00 | 72 | 1015.3 |
| 20260505023225 | 23 | 117 | 25.7 | 32.2 | 0.00 | 0.00 | 0.00 | 73 | 1015.3 |
| 20260505023220 | 22 | 121 | 24.1 | 32.2 | 0.00 | 0.00 | 0.00 | 75 | 1015.5 |
| 20260505023214 | 22 | 113 | 25.7 | 32.2 | 0.00 | 0.00 | 0.00 | 74 | 1015.8 |
| 20260505023210 | 22 | 120 | 24.1 | 32.2 | 0.00 | 0.00 | 0.00 | 75 | 1015.8 |
| 20260505023205 | 21 | 118 | 19.3 | 25.7 | 0.00 | 0.00 | 0.00 | 80 | 1016.5 |
| 20260505023159 | 22 | 117 | 24.1 | 30.6 | 0.00 | 0.00 | 0.00 | 76 | 1015.8 |
| 20260505023154 | 21 | 114 | 20.9 | 24.1 | 0.00 | 0.00 | 0.00 | 81 | 1016.5 |
| 20260505023148 | 21 | 116 | 20.9 | 25.7 | 0.00 | 0.00 | 0.00 | 78 | 1016.4 |
| 20260505023021 | 22 | 108 | 22.5 | 30.6 | 0.00 | 0.00 | 0.00 | 77 | 1016.1 |
| 20260505023015 | 22 | 113 | 22.5 | 29.0 | 0.00 | 0.00 | 0.00 | 77 | 1016.2 |
| 20260505023010 | 21 | 120 | 20.9 | 25.7 | 0.00 | 0.00 | 0.00 | 81 | 1016.5 |
| 20260505023004 | 22 | 113 | 20.9 | 29.0 | 0.00 | 0.00 | 0.00 | 78 | 1016.3 |
| 20260505022836 | 22 | 118 | 24.1 | 30.6 | 0.00 | 0.00 | 0.00 | 75 | 1016.0 |
| 20260505022832 | 22 | 109 | 20.9 | 29.0 | 0.00 | 0.00 | 0.00 | 79 | 1016.4 |
| 20260505022827 | 21 | 121 | 19.3 | 24.1 | 0.00 | 0.00 | 0.00 | 79 | 1016.4 |
| 20260505022700 | 21 | 118 | 19.3 | 25.7 | 0.00 | 0.00 | 0.00 | 80 | 1016.5 |
| 20260505022655 | 21 | 114 | 20.9 | 24.1 | 0.00 | 0.00 | 0.00 | 81 | 1016.5 |
| 20260505022527 | 21 | 120 | 20.9 | 25.7 | 0.00 | 0.00 | 0.00 | 81 | 1016.5 |
| 20260505022522 | 23 | 111 | 24.1 | 29.0 | 0.00 | 0.00 | 0.00 | 71 | 1015.1 |
| 20260505022518 | 23 | 111 | 25.7 | 30.6 | 0.00 | 0.00 | 0.00 | 71 | 1014.9 |
| 20260505022512 | 23 | 106 | 24.1 | 32.2 | 0.00 | 0.00 | 0.00 | 72 | 1015.0 |
| 20260505022507 | 23 | 130 | 24.1 | 33.8 | 0.00 | 0.00 | 0.00 | 73 | 1015.1 |
| 20260505022501 | 23 | 117 | 25.7 | 32.2 | 0.00 | 0.00 | 0.00 | 73 | 1015.3 |
| 20260505022456 | 22 | 108 | 22.5 | 30.6 | 0.00 | 0.00 | 0.00 | 77 | 1016.1 |
| 20260505022450 | 22 | 113 | 22.5 | 29.0 | 0.00 | 0.00 | 0.00 | 77 | 1016.2 |
| 20260505022446 | 22 | 113 | 20.9 | 29.0 | 0.00 | 0.00 | 0.00 | 78 | 1016.3 |
| 20260505022318 | 26 | 121 | 19.3 | 25.7 | 0.00 | 0.00 | 0.00 | 64 | 1015.5 |
| 20260505022313 | 26 | 123 | 16.1 | 29.0 | 0.00 | 0.00 | 0.00 | 62 | 1015.6 |
| 20260505022307 | 26 | 109 | 19.3 | 29.0 | 0.00 | 0.00 | 0.00 | 62 | 1015.7 |
| 20260505022304 | 27 | 123 | 17.7 | 25.7 | 0.00 | 0.00 | 0.00 | 60 | 1015.7 |
| 20260505022258 | 27 | 117 | 14.5 | 22.5 | 0.00 | 0.00 | 0.00 | 59 | 1015.7 |
| 20260505022252 | 26 | 109 | 17.7 | 22.5 | 0.00 | 0.00 | 0.00 | 61 | 1015.7 |
| 20260505022247 | 26 | 123 | 17.7 | 22.5 | 0.00 | 0.00 | 0.00 | 59 | 1015.9 |
| 20260505022241 | 23 | 109 | 25.7 | 33.8 | 0.00 | 0.00 | 0.00 | 74 | 1015.2 |
| 20260505022234 | 23 | 119 | 24.1 | 30.6 | 0.00 | 0.00 | 0.00 | 72 | 1015.3 |
| 20260505022230 | 22 | 121 | 24.1 | 32.2 | 0.00 | 0.00 | 0.00 | 75 | 1015.5 |
| 20260505022224 | 22 | 113 | 25.7 | 32.2 | 0.00 | 0.00 | 0.00 | 74 | 1015.8 |
| 20260505022219 | 22 | 120 | 24.1 | 32.2 | 0.00 | 0.00 | 0.00 | 75 | 1015.8 |
| 20260505022213 | 22 | 117 | 24.1 | 30.6 | 0.00 | 0.00 | 0.00 | 76 | 1015.8 |
| 20260505022209 | 22 | 114 | 22.5 | 30.6 | 0.00 | 0.00 | 0.00 | 76 | 1015.9 |
| 20260505022203 | 22 | 109 | 20.9 | 29.0 | 0.00 | 0.00 | 0.00 | 79 | 1016.4 |
| 20260505022158 | 21 | 121 | 19.3 | 24.1 | 0.00 | 0.00 | 0.00 | 79 | 1016.4 |
| 20260505022152 | 22 | 105 | 24.1 | 32.2 | 0.00 | 0.00 | 0.00 | 76 | 1015.9 |
| 20260505022147 | 22 | 118 | 24.1 | 30.6 | 0.00 | 0.00 | 0.00 | 75 | 1016.0 |
| 20260505022141 | 21 | 116 | 20.9 | 25.7 | 0.00 | 0.00 | 0.00 | 78 | 1016.4 |
| 20260505022134 | 21 | 118 | 19.3 | 25.7 | 0.00 | 0.00 | 0.00 | 80 | 1016.5 |
| 20260505022129 | 21 | 114 | 20.9 | 24.1 | 0.00 | 0.00 | 0.00 | 81 | 1016.5 |
| 20260505022002 | 25 | 113 | 19.3 | 29.0 | 0.00 | 0.00 | 0.00 | 65 | 1015.2 |
| 20260505021957 | 25 | 132 | 20.9 | 29.0 | 0.00 | 0.00 | 0.00 | 64 | 1015.2 |
| 20260505021952 | 25 | 123 | 20.9 | 29.0 | 0.00 | 0.00 | 0.00 | 67 | 1015.2 |
| 20260505021946 | 24 | 117 | 24.1 | 32.2 | 0.00 | 0.00 | 0.00 | 70 | 1015.2 |
| 20260505021942 | 22 | 108 | 22.5 | 30.6 | 0.00 | 0.00 | 0.00 | 77 | 1016.1 |
| 20260505021935 | 23 | 122 | 25.7 | 32.2 | 0.00 | 0.00 | 0.00 | 73 | 1015.1 |
| 20260505021929 | 23 | 111 | 24.1 | 29.0 | 0.00 | 0.00 | 0.00 | 71 | 1015.1 |
| 20260505021924 | 22 | 113 | 22.5 | 29.0 | 0.00 | 0.00 | 0.00 | 77 | 1016.2 |
| 20260505021918 | 23 | 111 | 25.7 | 30.6 | 0.00 | 0.00 | 0.00 | 71 | 1014.9 |
| 20260505021913 | 23 | 106 | 24.1 | 32.2 | 0.00 | 0.00 | 0.00 | 72 | 1015.0 |
| 20260505021909 | 23 | 130 | 24.1 | 33.8 | 0.00 | 0.00 | 0.00 | 73 | 1015.1 |
| 20260505021903 | 23 | 117 | 25.7 | 32.2 | 0.00 | 0.00 | 0.00 | 73 | 1015.3 |
| 20260505021858 | 22 | 113 | 20.9 | 29.0 | 0.00 | 0.00 | 0.00 | 78 | 1016.3 |
| 20260505021729 | 23 | 109 | 25.7 | 33.8 | 0.00 | 0.00 | 0.00 | 74 | 1015.2 |
| 20260505021723 | 23 | 119 | 24.1 | 30.6 | 0.00 | 0.00 | 0.00 | 72 | 1015.3 |
| 20260505021718 | 25 | 117 | 20.9 | 32.2 | 0.00 | 0.00 | 0.00 | 68 | 1015.3 |
| 20260505021712 | 22 | 121 | 24.1 | 32.2 | 0.00 | 0.00 | 0.00 | 75 | 1015.5 |
| 20260505021708 | 22 | 113 | 25.7 | 32.2 | 0.00 | 0.00 | 0.00 | 74 | 1015.8 |
| 20260505021702 | 22 | 109 | 20.9 | 29.0 | 0.00 | 0.00 | 0.00 | 79 | 1016.4 |
| 20260505021657 | 22 | 114 | 22.5 | 30.6 | 0.00 | 0.00 | 0.00 | 76 | 1015.9 |
| 20260505021652 | 21 | 121 | 19.3 | 24.1 | 0.00 | 0.00 | 0.00 | 79 | 1016.4 |
| 20260505021646 | 22 | 120 | 24.1 | 32.2 | 0.00 | 0.00 | 0.00 | 75 | 1015.8 |
| 20260505021642 | 22 | 117 | 24.1 | 30.6 | 0.00 | 0.00 | 0.00 | 76 | 1015.8 |
| 20260505021636 | 22 | 105 | 24.1 | 32.2 | 0.00 | 0.00 | 0.00 | 76 | 1015.9 |
| 20260505021628 | 22 | 118 | 24.1 | 30.6 | 0.00 | 0.00 | 0.00 | 75 | 1016.0 |
| 20260505021624 | 21 | 116 | 20.9 | 25.7 | 0.00 | 0.00 | 0.00 | 78 | 1016.4 |
| 20260505021618 | 21 | 118 | 19.3 | 25.7 | 0.00 | 0.00 | 0.00 | 80 | 1016.5 |
| 20260505021604 | 21 | 114 | 20.9 | 24.1 | 0.00 | 0.00 | 0.00 | 81 | 1016.5 |
| 20260505021447 | 22 | 113 | 22.5 | 29.0 | 0.00 | 0.00 | 0.00 | 77 | 1016.2 |
| 20260505021317 | 22 | 113 | 20.9 | 29.0 | 0.00 | 0.00 | 0.00 | 78 | 1016.3 |
| 20260505021312 | 25 | 123 | 20.9 | 29.0 | 0.00 | 0.00 | 0.00 | 67 | 1015.2 |
| 20260505021306 | 24 | 117 | 24.1 | 32.2 | 0.00 | 0.00 | 0.00 | 70 | 1015.2 |
| 20260505021302 | 23 | 122 | 25.7 | 32.2 | 0.00 | 0.00 | 0.00 | 73 | 1015.1 |
| 20260505021256 | 23 | 111 | 24.1 | 29.0 | 0.00 | 0.00 | 0.00 | 71 | 1015.1 |
| 20260505021251 | 23 | 111 | 25.7 | 30.6 | 0.00 | 0.00 | 0.00 | 71 | 1014.9 |
| 20260505021246 | 23 | 106 | 24.1 | 32.2 | 0.00 | 0.00 | 0.00 | 72 | 1015.0 |
| 20260505021240 | 23 | 130 | 24.1 | 33.8 | 0.00 | 0.00 | 0.00 | 73 | 1015.1 |
| 20260505021236 | 23 | 109 | 25.7 | 33.8 | 0.00 | 0.00 | 0.00 | 74 | 1015.2 |
| 20260505021230 | 23 | 119 | 24.1 | 30.6 | 0.00 | 0.00 | 0.00 | 72 | 1015.3 |
| 20260505021223 | 23 | 117 | 25.7 | 32.2 | 0.00 | 0.00 | 0.00 | 73 | 1015.3 |
| 20260505021218 | 22 | 121 | 24.1 | 32.2 | 0.00 | 0.00 | 0.00 | 75 | 1015.5 |
| 20260505021212 | 22 | 114 | 22.5 | 30.6 | 0.00 | 0.00 | 0.00 | 76 | 1015.9 |
| 20260505021208 | 22 | 109 | 20.9 | 29.0 | 0.00 | 0.00 | 0.00 | 79 | 1016.4 |
| 20260505021202 | 21 | 121 | 19.3 | 24.1 | 0.00 | 0.00 | 0.00 | 79 | 1016.4 |
| 20260505021036 | 21 | 116 | 20.9 | 25.7 | 0.00 | 0.00 | 0.00 | 78 | 1016.4 |
| 20260505021030 | 22 | 113 | 25.7 | 32.2 | 0.00 | 0.00 | 0.00 | 74 | 1015.8 |
| 20260505021026 | 22 | 120 | 24.1 | 32.2 | 0.00 | 0.00 | 0.00 | 75 | 1015.8 |
| 20260505021018 | 21 | 118 | 19.3 | 25.7 | 0.00 | 0.00 | 0.00 | 80 | 1016.5 |
| 20260505021012 | 22 | 117 | 24.1 | 30.6 | 0.00 | 0.00 | 0.00 | 76 | 1015.8 |
| 20260505021008 | 22 | 105 | 24.1 | 32.2 | 0.00 | 0.00 | 0.00 | 76 | 1015.9 |
| 20260505020842 | 22 | 113 | 22.5 | 29.0 | 0.00 | 0.00 | 0.00 | 77 | 1016.2 |
| 20260505020836 | 22 | 113 | 20.9 | 29.0 | 0.00 | 0.00 | 0.00 | 78 | 1016.3 |
| 20260505020710 | 22 | 109 | 20.9 | 29.0 | 0.00 | 0.00 | 0.00 | 79 | 1016.4 |
| 20260505020541 | 22 | 118 | 24.1 | 30.6 | 0.00 | 0.00 | 0.00 | 75 | 1016.0 |
| 20260505020535 | 21 | 116 | 20.9 | 25.7 | 0.00 | 0.00 | 0.00 | 78 | 1016.4 |
| 20260505020530 | 21 | 118 | 19.3 | 25.7 | 0.00 | 0.00 | 0.00 | 80 | 1016.5 |
| 20260505020401 | 26 | 111 | 19.3 | 24.1 | 0.00 | 0.00 | 0.00 | 64 | 1015.4 |
| 20260505020356 | 25 | 111 | 19.3 | 29.0 | 0.00 | 0.00 | 0.00 | 66 | 1015.3 |
| 20260505020352 | 23 | 111 | 25.7 | 30.6 | 0.00 | 0.00 | 0.00 | 71 | 1014.9 |
| 20260505020347 | 25 | 113 | 19.3 | 29.0 | 0.00 | 0.00 | 0.00 | 65 | 1015.2 |
| 20260505020342 | 25 | 132 | 20.9 | 29.0 | 0.00 | 0.00 | 0.00 | 64 | 1015.2 |
| 20260505020336 | 23 | 130 | 24.1 | 33.8 | 0.00 | 0.00 | 0.00 | 73 | 1015.1 |
| 20260505020331 | 22 | 108 | 22.5 | 30.6 | 0.00 | 0.00 | 0.00 | 77 | 1016.1 |
| 20260505020325 | 25 | 123 | 20.9 | 29.0 | 0.00 | 0.00 | 0.00 | 67 | 1015.2 |
| 20260505020320 | 24 | 117 | 24.1 | 32.2 | 0.00 | 0.00 | 0.00 | 70 | 1015.2 |
| 20260505020313 | 23 | 111 | 24.1 | 29.0 | 0.00 | 0.00 | 0.00 | 71 | 1015.1 |
| 20260505020307 | 23 | 109 | 25.7 | 33.8 | 0.00 | 0.00 | 0.00 | 74 | 1015.2 |
| 20260505020303 | 23 | 119 | 24.1 | 30.6 | 0.00 | 0.00 | 0.00 | 72 | 1015.3 |
| 20260505020257 | 23 | 117 | 25.7 | 32.2 | 0.00 | 0.00 | 0.00 | 73 | 1015.3 |
| 20260505020252 | 22 | 121 | 24.1 | 32.2 | 0.00 | 0.00 | 0.00 | 75 | 1015.5 |
| 20260505020247 | 22 | 113 | 25.7 | 32.2 | 0.00 | 0.00 | 0.00 | 74 | 1015.8 |
| 20260505020241 | 22 | 120 | 24.1 | 32.2 | 0.00 | 0.00 | 0.00 | 75 | 1015.8 |
| 20260505020235 | 22 | 117 | 24.1 | 30.6 | 0.00 | 0.00 | 0.00 | 76 | 1015.8 |
| 20260505020231 | 22 | 105 | 24.1 | 32.2 | 0.00 | 0.00 | 0.00 | 76 | 1015.9 |
| 20260505020226 | 22 | 113 | 22.5 | 29.0 | 0.00 | 0.00 | 0.00 | 77 | 1016.2 |
| 20260505020220 | 22 | 113 | 20.9 | 29.0 | 0.00 | 0.00 | 0.00 | 78 | 1016.3 |
| 20260505020213 | 21 | 121 | 19.3 | 24.1 | 0.00 | 0.00 | 0.00 | 79 | 1016.4 |
| 20260505020208 | 22 | 109 | 20.9 | 29.0 | 0.00 | 0.00 | 0.00 | 79 | 1016.4 |
| 20260505020041 | 21 | 116 | 20.9 | 25.7 | 0.00 | 0.00 | 0.00 | 78 | 1016.4 |
| 20260505020035 | 22 | 118 | 24.1 | 30.6 | 0.00 | 0.00 | 0.00 | 75 | 1016.0 |
| 20260505015908 | 23 | 106 | 24.1 | 32.2 | 0.00 | 0.00 | 0.00 | 72 | 1015.0 |
| 20260505015902 | 23 | 111 | 25.7 | 30.6 | 0.00 | 0.00 | 0.00 | 71 | 1014.9 |
| 20260505015858 | 23 | 130 | 24.1 | 33.8 | 0.00 | 0.00 | 0.00 | 73 | 1015.1 |
| 20260505015853 | 22 | 108 | 22.5 | 30.6 | 0.00 | 0.00 | 0.00 | 77 | 1016.1 |
| 20260505015726 | 23 | 117 | 25.7 | 32.2 | 0.00 | 0.00 | 0.00 | 73 | 1015.3 |
| 20260505015721 | 22 | 113 | 25.7 | 32.2 | 0.00 | 0.00 | 0.00 | 74 | 1015.8 |
| 20260505015717 | 22 | 105 | 24.1 | 32.2 | 0.00 | 0.00 | 0.00 | 76 | 1015.9 |
| 20260505015711 | 22 | 113 | 20.9 | 29.0 | 0.00 | 0.00 | 0.00 | 78 | 1016.3 |
| 20260505015704 | 22 | 109 | 20.9 | 29.0 | 0.00 | 0.00 | 0.00 | 79 | 1016.4 |
| 20260505015700 | 22 | 113 | 22.5 | 29.0 | 0.00 | 0.00 | 0.00 | 77 | 1016.2 |
| 20260505015654 | 21 | 121 | 19.3 | 24.1 | 0.00 | 0.00 | 0.00 | 79 | 1016.4 |
| 20260505015525 | 23 | 119 | 24.1 | 30.6 | 0.00 | 0.00 | 0.00 | 72 | 1015.3 |
| 20260505015521 | 22 | 121 | 24.1 | 32.2 | 0.00 | 0.00 | 0.00 | 75 | 1015.5 |
| 20260505015516 | 22 | 120 | 24.1 | 32.2 | 0.00 | 0.00 | 0.00 | 75 | 1015.8 |
| 20260505015510 | 22 | 117 | 24.1 | 30.6 | 0.00 | 0.00 | 0.00 | 76 | 1015.8 |
| 20260505015503 | 22 | 114 | 22.5 | 30.6 | 0.00 | 0.00 | 0.00 | 76 | 1015.9 |
| 20260505015457 | 22 | 118 | 24.1 | 30.6 | 0.00 | 0.00 | 0.00 | 75 | 1016.0 |
| 20260505015211 | 22 | 109 | 20.9 | 29.0 | 0.00 | 0.00 | 0.00 | 79 | 1016.4 |
| 20260505015205 | 26 | 103 | 20.9 | 32.2 | 0.00 | 0.00 | 0.00 | 64 | 1015.2 |
| 20260505015158 | 22 | 113 | 20.9 | 29.0 | 0.00 | 0.00 | 0.00 | 78 | 1016.3 |
| 20260505015154 | 22 | 113 | 22.5 | 29.0 | 0.00 | 0.00 | 0.00 | 77 | 1016.2 |
| 20260505015148 | 25 | 111 | 19.3 | 29.0 | 0.00 | 0.00 | 0.00 | 66 | 1015.3 |
| 20260505015143 | 25 | 113 | 19.3 | 29.0 | 0.00 | 0.00 | 0.00 | 65 | 1015.2 |
| 20260505015137 | 23 | 130 | 24.1 | 33.8 | 0.00 | 0.00 | 0.00 | 73 | 1015.1 |
| 20260505015132 | 23 | 117 | 25.7 | 32.2 | 0.00 | 0.00 | 0.00 | 73 | 1015.3 |
| 20260505015128 | 22 | 113 | 25.7 | 32.2 | 0.00 | 0.00 | 0.00 | 74 | 1015.8 |
| 20260505015122 | 21 | 121 | 19.3 | 24.1 | 0.00 | 0.00 | 0.00 | 79 | 1016.4 |
| 20260505014954 | 22 | 117 | 24.1 | 30.6 | 0.00 | 0.00 | 0.00 | 76 | 1015.8 |
| 20260505014949 | 25 | 123 | 20.9 | 29.0 | 0.00 | 0.00 | 0.00 | 67 | 1015.2 |
| 20260505014943 | 24 | 117 | 24.1 | 32.2 | 0.00 | 0.00 | 0.00 | 70 | 1015.2 |
| 20260505014938 | 23 | 111 | 24.1 | 29.0 | 0.00 | 0.00 | 0.00 | 71 | 1015.1 |
| 20260505014932 | 23 | 122 | 25.7 | 32.2 | 0.00 | 0.00 | 0.00 | 73 | 1015.1 |
| 20260505014927 | 23 | 106 | 24.1 | 32.2 | 0.00 | 0.00 | 0.00 | 72 | 1015.0 |
| 20260505014921 | 23 | 111 | 25.7 | 30.6 | 0.00 | 0.00 | 0.00 | 71 | 1014.9 |
| 20260505014915 | 23 | 109 | 25.7 | 33.8 | 0.00 | 0.00 | 0.00 | 74 | 1015.2 |
| 20260505014910 | 23 | 119 | 24.1 | 30.6 | 0.00 | 0.00 | 0.00 | 72 | 1015.3 |
| 20260505014904 | 22 | 121 | 24.1 | 32.2 | 0.00 | 0.00 | 0.00 | 75 | 1015.5 |
| 20260505014859 | 22 | 120 | 24.1 | 32.2 | 0.00 | 0.00 | 0.00 | 75 | 1015.8 |
| 20260505014731 | 22 | 114 | 22.5 | 30.6 | 0.00 | 0.00 | 0.00 | 76 | 1015.9 |
| 20260505014726 | 22 | 118 | 24.1 | 30.6 | 0.00 | 0.00 | 0.00 | 75 | 1016.0 |
| 20260505014720 | 22 | 108 | 22.5 | 30.6 | 0.00 | 0.00 | 0.00 | 77 | 1016.1 |
| 20260505014716 | 22 | 113 | 22.5 | 29.0 | 0.00 | 0.00 | 0.00 | 77 | 1016.2 |
| 20260505014710 | 22 | 113 | 20.9 | 29.0 | 0.00 | 0.00 | 0.00 | 78 | 1016.3 |
| 20260505014705 | 22 | 109 | 20.9 | 29.0 | 0.00 | 0.00 | 0.00 | 79 | 1016.4 |
| 20260505014534 | 23 | 117 | 25.7 | 32.2 | 0.00 | 0.00 | 0.00 | 73 | 1015.3 |
| 20260505014530 | 22 | 113 | 25.7 | 32.2 | 0.00 | 0.00 | 0.00 | 74 | 1015.8 |
| 20260505014525 | 21 | 121 | 19.3 | 24.1 | 0.00 | 0.00 | 0.00 | 79 | 1016.4 |
| 20260505014519 | 22 | 117 | 24.1 | 30.6 | 0.00 | 0.00 | 0.00 | 76 | 1015.8 |
| 20260505014231 | 26 | 123 | 16.1 | 29.0 | 0.00 | 0.00 | 0.00 | 62 | 1015.6 |
| 20260505014226 | 22 | 105 | 24.1 | 32.2 | 0.00 | 0.00 | 0.00 | 76 | 1015.9 |
| 20260505014221 | 23 | 119 | 24.1 | 30.6 | 0.00 | 0.00 | 0.00 | 72 | 1015.3 |
| 20260505014215 | 25 | 117 | 20.9 | 32.2 | 0.00 | 0.00 | 0.00 | 68 | 1015.3 |
| 20260505014210 | 22 | 121 | 24.1 | 32.2 | 0.00 | 0.00 | 0.00 | 75 | 1015.5 |
| 20260505014204 | 22 | 114 | 22.5 | 30.6 | 0.00 | 0.00 | 0.00 | 76 | 1015.9 |
| 20260505014200 | 22 | 108 | 22.5 | 30.6 | 0.00 | 0.00 | 0.00 | 77 | 1016.1 |
| 20260505014154 | 22 | 118 | 24.1 | 30.6 | 0.00 | 0.00 | 0.00 | 75 | 1016.0 |
| 20260505014147 | 26 | 103 | 20.9 | 32.2 | 0.00 | 0.00 | 0.00 | 64 | 1015.2 |
| 20260505014143 | 22 | 113 | 22.5 | 29.0 | 0.00 | 0.00 | 0.00 | 77 | 1016.2 |
| 20260505014138 | 25 | 111 | 19.3 | 29.0 | 0.00 | 0.00 | 0.00 | 66 | 1015.3 |
| 20260505014133 | 25 | 113 | 19.3 | 29.0 | 0.00 | 0.00 | 0.00 | 65 | 1015.2 |
| 20260505014128 | 22 | 113 | 20.9 | 29.0 | 0.00 | 0.00 | 0.00 | 78 | 1016.3 |
| 20260505014122 | 25 | 132 | 20.9 | 29.0 | 0.00 | 0.00 | 0.00 | 64 | 1015.2 |
| 20260505014116 | 25 | 123 | 20.9 | 29.0 | 0.00 | 0.00 | 0.00 | 67 | 1015.2 |
| 20260505014112 | 24 | 117 | 24.1 | 32.2 | 0.00 | 0.00 | 0.00 | 70 | 1015.2 |
| 20260505014107 | 22 | 109 | 20.9 | 29.0 | 0.00 | 0.00 | 0.00 | 79 | 1016.4 |
| 20260505013939 | 23 | 122 | 25.7 | 32.2 | 0.00 | 0.00 | 0.00 | 73 | 1015.1 |
| 20260505013933 | 23 | 106 | 24.1 | 32.2 | 0.00 | 0.00 | 0.00 | 72 | 1015.0 |
| 20260505013928 | 23 | 111 | 25.7 | 30.6 | 0.00 | 0.00 | 0.00 | 71 | 1014.9 |
| 20260505013923 | 23 | 109 | 25.7 | 33.8 | 0.00 | 0.00 | 0.00 | 74 | 1015.2 |
| 20260505013917 | 23 | 130 | 24.1 | 33.8 | 0.00 | 0.00 | 0.00 | 73 | 1015.1 |
| 20260505013911 | 23 | 117 | 25.7 | 32.2 | 0.00 | 0.00 | 0.00 | 73 | 1015.3 |
| 20260505013906 | 22 | 117 | 24.1 | 30.6 | 0.00 | 0.00 | 0.00 | 76 | 1015.8 |
| 20260505013900 | 22 | 113 | 25.7 | 32.2 | 0.00 | 0.00 | 0.00 | 74 | 1015.8 |
| 20260505013733 | 22 | 121 | 24.1 | 32.2 | 0.00 | 0.00 | 0.00 | 75 | 1015.5 |
| 20260505013727 | 22 | 120 | 24.1 | 32.2 | 0.00 | 0.00 | 0.00 | 75 | 1015.8 |
| 20260505013721 | 22 | 114 | 22.5 | 30.6 | 0.00 | 0.00 | 0.00 | 76 | 1015.9 |
| 20260505013717 | 22 | 108 | 22.5 | 30.6 | 0.00 | 0.00 | 0.00 | 77 | 1016.1 |
| 20260505013712 | 22 | 105 | 24.1 | 32.2 | 0.00 | 0.00 | 0.00 | 76 | 1015.9 |
| 20260505013706 | 22 | 118 | 24.1 | 30.6 | 0.00 | 0.00 | 0.00 | 75 | 1016.0 |
| 20260505013701 | 22 | 113 | 22.5 | 29.0 | 0.00 | 0.00 | 0.00 | 77 | 1016.2 |
| 20260505013655 | 22 | 113 | 20.9 | 29.0 | 0.00 | 0.00 | 0.00 | 78 | 1016.3 |
| 20260505013405 | 23 | 117 | 25.7 | 32.2 | 0.00 | 0.00 | 0.00 | 73 | 1015.3 |
| 20260505013238 | 22 | 120 | 24.1 | 32.2 | 0.00 | 0.00 | 0.00 | 75 | 1015.8 |
| 20260505013232 | 22 | 113 | 25.7 | 32.2 | 0.00 | 0.00 | 0.00 | 74 | 1015.8 |
| 20260505013228 | 22 | 114 | 22.5 | 30.6 | 0.00 | 0.00 | 0.00 | 76 | 1015.9 |
| 20260505013222 | 22 | 118 | 24.1 | 30.6 | 0.00 | 0.00 | 0.00 | 75 | 1016.0 |
| 20260505013217 | 22 | 108 | 22.5 | 30.6 | 0.00 | 0.00 | 0.00 | 77 | 1016.1 |
| 20260505013211 | 26 | 123 | 19.3 | 25.7 | 0.00 | 0.00 | 0.00 | 64 | 1015.3 |
| 20260505013206 | 26 | 111 | 19.3 | 24.1 | 0.00 | 0.00 | 0.00 | 64 | 1015.4 |
| 20260505013200 | 26 | 121 | 19.3 | 25.7 | 0.00 | 0.00 | 0.00 | 64 | 1015.5 |
| 20260505013156 | 25 | 117 | 20.9 | 32.2 | 0.00 | 0.00 | 0.00 | 68 | 1015.3 |
| 20260505013150 | 26 | 103 | 20.9 | 32.2 | 0.00 | 0.00 | 0.00 | 64 | 1015.2 |
| 20260505013146 | 25 | 111 | 19.3 | 29.0 | 0.00 | 0.00 | 0.00 | 66 | 1015.3 |
| 20260505013138 | 25 | 113 | 19.3 | 29.0 | 0.00 | 0.00 | 0.00 | 65 | 1015.2 |
| 20260505013134 | 25 | 132 | 20.9 | 29.0 | 0.00 | 0.00 | 0.00 | 64 | 1015.2 |
| 20260505013128 | 25 | 123 | 20.9 | 29.0 | 0.00 | 0.00 | 0.00 | 67 | 1015.2 |
| 20260505013124 | 24 | 117 | 24.1 | 32.2 | 0.00 | 0.00 | 0.00 | 70 | 1015.2 |
| 20260505013118 | 23 | 111 | 24.1 | 29.0 | 0.00 | 0.00 | 0.00 | 71 | 1015.1 |
| 20260505013113 | 22 | 105 | 24.1 | 32.2 | 0.00 | 0.00 | 0.00 | 76 | 1015.9 |
| 20260505013107 | 23 | 122 | 25.7 | 32.2 | 0.00 | 0.00 | 0.00 | 73 | 1015.1 |
| 20260505013102 | 23 | 106 | 24.1 | 32.2 | 0.00 | 0.00 | 0.00 | 72 | 1015.0 |
| 20260505013056 | 22 | 113 | 22.5 | 29.0 | 0.00 | 0.00 | 0.00 | 77 | 1016.2 |
| 20260505013051 | 22 | 113 | 20.9 | 29.0 | 0.00 | 0.00 | 0.00 | 78 | 1016.3 |
| 20260505012923 | 22 | 117 | 24.1 | 30.6 | 0.00 | 0.00 | 0.00 | 76 | 1015.8 |
| 20260505012918 | 23 | 111 | 25.7 | 30.6 | 0.00 | 0.00 | 0.00 | 71 | 1014.9 |
| 20260505012912 | 23 | 119 | 24.1 | 30.6 | 0.00 | 0.00 | 0.00 | 72 | 1015.3 |
| 20260505012746 | 23 | 117 | 25.7 | 32.2 | 0.00 | 0.00 | 0.00 | 73 | 1015.3 |
| 20260505012741 | 22 | 121 | 24.1 | 32.2 | 0.00 | 0.00 | 0.00 | 75 | 1015.5 |
| 20260505012733 | 22 | 113 | 25.7 | 32.2 | 0.00 | 0.00 | 0.00 | 74 | 1015.8 |
| 20260505012728 | 22 | 120 | 24.1 | 32.2 | 0.00 | 0.00 | 0.00 | 75 | 1015.8 |
| 20260505012723 | 22 | 114 | 22.5 | 30.6 | 0.00 | 0.00 | 0.00 | 76 | 1015.9 |
| 20260505012717 | 22 | 118 | 24.1 | 30.6 | 0.00 | 0.00 | 0.00 | 75 | 1016.0 |
| 20260505012713 | 22 | 108 | 22.5 | 30.6 | 0.00 | 0.00 | 0.00 | 77 | 1016.1 |
| 20260505012547 | 22 | 113 | 22.5 | 29.0 | 0.00 | 0.00 | 0.00 | 77 | 1016.2 |
| 20260505012537 | 22 | 113 | 20.9 | 29.0 | 0.00 | 0.00 | 0.00 | 78 | 1016.3 |
| 20260505012413 | 23 | 109 | 25.7 | 33.8 | 0.00 | 0.00 | 0.00 | 74 | 1015.2 |
| 20260505012408 | 25 | 0.0 | 0.0 | 0.00 | 0.53 | 0.00 | 57 | 1017.4 | |
| 20260505012402 | 22 | 117 | 24.1 | 30.6 | 0.00 | 0.00 | 0.00 | 76 | 1015.8 |
| 20260505012358 | 23 | 106 | 24.1 | 32.2 | 0.00 | 0.00 | 0.00 | 72 | 1015.0 |
| 20260505012353 | 25 | 0.0 | 0.0 | 0.00 | 0.53 | 0.00 | 52 | 1017.5 | |
| 20260505012347 | 23 | 119 | 24.1 | 30.6 | 0.00 | 0.00 | 0.00 | 72 | 1015.3 |
| 20260505012341 | 26 | 0.0 | 0.0 | 0.00 | 0.53 | 0.00 | 56 | 1017.6 | |
| 20260505012336 | 25 | 0.0 | 0.0 | 0.00 | 0.53 | 0.00 | 51 | 1017.8 | |
| 20260505012330 | 25 | 0.0 | 0.0 | 0.00 | 0.53 | 0.00 | 54 | 1017.9 | |
| 20260505012323 | 24 | 0.0 | 0.0 | 0.00 | 0.53 | 0.00 | 49 | 1017.9 | |
| 20260505012318 | 26 | 109 | 19.3 | 29.0 | 0.00 | 0.00 | 0.00 | 62 | 1015.7 |
| 20260505012312 | 27 | 123 | 17.7 | 25.7 | 0.00 | 0.00 | 0.00 | 60 | 1015.7 |
| 20260505012307 | 27 | 117 | 14.5 | 22.5 | 0.00 | 0.00 | 0.00 | 59 | 1015.7 |
| 20260505012304 | 26 | 109 | 17.7 | 22.5 | 0.00 | 0.00 | 0.00 | 61 | 1015.7 |
| 20260505012257 | 26 | 123 | 17.7 | 22.5 | 0.00 | 0.00 | 0.00 | 59 | 1015.9 |
| 20260505012251 | 26 | 123 | 16.1 | 29.0 | 0.00 | 0.00 | 0.00 | 62 | 1015.6 |
| 20260505012246 | 26 | 123 | 19.3 | 25.7 | 0.00 | 0.00 | 0.00 | 64 | 1015.3 |
| 20260505012241 | 26 | 111 | 19.3 | 24.1 | 0.00 | 0.00 | 0.00 | 64 | 1015.4 |
| 20260505012235 | 22 | 118 | 24.1 | 30.6 | 0.00 | 0.00 | 0.00 | 75 | 1016.0 |
| 20260505012228 | 26 | 121 | 19.3 | 25.7 | 0.00 | 0.00 | 0.00 | 64 | 1015.5 |
| 20260505012224 | 25 | 117 | 20.9 | 32.2 | 0.00 | 0.00 | 0.00 | 68 | 1015.3 |
| 20260505012218 | 23 | 117 | 25.7 | 32.2 | 0.00 | 0.00 | 0.00 | 73 | 1015.3 |
| 20260505012213 | 26 | 103 | 20.9 | 32.2 | 0.00 | 0.00 | 0.00 | 64 | 1015.2 |
| 20260505012207 | 25 | 111 | 19.3 | 29.0 | 0.00 | 0.00 | 0.00 | 66 | 1015.3 |
| 20260505012202 | 25 | 113 | 19.3 | 29.0 | 0.00 | 0.00 | 0.00 | 65 | 1015.2 |
| 20260505012156 | 25 | 132 | 20.9 | 29.0 | 0.00 | 0.00 | 0.00 | 64 | 1015.2 |
| 20260505012151 | 25 | 123 | 20.9 | 29.0 | 0.00 | 0.00 | 0.00 | 67 | 1015.2 |
| 20260505012146 | 24 | 117 | 24.1 | 32.2 | 0.00 | 0.00 | 0.00 | 70 | 1015.2 |
| 20260505012141 | 23 | 111 | 24.1 | 29.0 | 0.00 | 0.00 | 0.00 | 71 | 1015.1 |
| 20260505012135 | 23 | 111 | 25.7 | 30.6 | 0.00 | 0.00 | 0.00 | 71 | 1014.9 |
| 20260505012130 | 23 | 130 | 24.1 | 33.8 | 0.00 | 0.00 | 0.00 | 73 | 1015.1 |
| 20260505012123 | 22 | 121 | 24.1 | 32.2 | 0.00 | 0.00 | 0.00 | 75 | 1015.5 |
| 20260505012117 | 22 | 113 | 25.7 | 32.2 | 0.00 | 0.00 | 0.00 | 74 | 1015.8 |
| 20260505012112 | 22 | 120 | 24.1 | 32.2 | 0.00 | 0.00 | 0.00 | 75 | 1015.8 |
| 20260505012106 | 22 | 114 | 22.5 | 30.6 | 0.00 | 0.00 | 0.00 | 76 | 1015.9 |
| 20260505012101 | 22 | 108 | 22.5 | 30.6 | 0.00 | 0.00 | 0.00 | 77 | 1016.1 |
| 20260505012056 | 22 | 113 | 22.5 | 29.0 | 0.00 | 0.00 | 0.00 | 77 | 1016.2 |
| 20260505011930 | 24 | 0.0 | 0.0 | 0.00 | 0.53 | 0.00 | 50 | 1017.8 | |
| 20260505011923 | 22 | 117 | 24.1 | 30.6 | 0.00 | 0.00 | 0.00 | 76 | 1015.8 |
| 20260505011918 | 23 | 122 | 25.7 | 32.2 | 0.00 | 0.00 | 0.00 | 73 | 1015.1 |
| 20260505011912 | 23 | 109 | 25.7 | 33.8 | 0.00 | 0.00 | 0.00 | 74 | 1015.2 |
| 20260505011908 | 23 | 106 | 24.1 | 32.2 | 0.00 | 0.00 | 0.00 | 72 | 1015.0 |
| 20260505011902 | 23 | 119 | 24.1 | 30.6 | 0.00 | 0.00 | 0.00 | 72 | 1015.3 |
| 20260505011736 | 22 | 118 | 24.1 | 30.6 | 0.00 | 0.00 | 0.00 | 75 | 1016.0 |
| 20260505011731 | 23 | 117 | 25.7 | 32.2 | 0.00 | 0.00 | 0.00 | 73 | 1015.3 |
| 20260505011726 | 26 | 120 | 16.1 | 24.1 | 0.00 | 0.00 | 0.00 | 59 | 1016.1 |
| 20260505011719 | 26 | 124 | 17.7 | 24.1 | 0.00 | 0.00 | 0.00 | 61 | 1016.1 |
| 20260505011713 | 26 | 130 | 17.7 | 24.1 | 0.00 | 0.00 | 0.00 | 62 | 1016.2 |
| 20260505011707 | 25 | 132 | 17.7 | 22.5 | 0.00 | 0.00 | 0.00 | 59 | 1016.3 |
| 20260505011702 | 26 | 132 | 16.1 | 22.5 | 0.00 | 0.00 | 0.00 | 60 | 1016.5 |
| 20260505011656 | 26 | 109 | 19.3 | 29.0 | 0.00 | 0.00 | 0.00 | 62 | 1015.7 |
| 20260505011652 | 27 | 123 | 17.7 | 25.7 | 0.00 | 0.00 | 0.00 | 60 | 1015.7 |
| 20260505011646 | 27 | 117 | 14.5 | 22.5 | 0.00 | 0.00 | 0.00 | 59 | 1015.7 |
| 20260505011641 | 26 | 109 | 17.7 | 22.5 | 0.00 | 0.00 | 0.00 | 61 | 1015.7 |
| 20260505011635 | 26 | 123 | 17.7 | 22.5 | 0.00 | 0.00 | 0.00 | 59 | 1015.9 |
| 20260505011630 | 23 | 111 | 25.7 | 30.6 | 0.00 | 0.00 | 0.00 | 71 | 1014.9 |
| 20260505011624 | 26 | 123 | 16.1 | 29.0 | 0.00 | 0.00 | 0.00 | 62 | 1015.6 |
| 20260505011617 | 22 | 121 | 24.1 | 32.2 | 0.00 | 0.00 | 0.00 | 75 | 1015.5 |
| 20260505011612 | 26 | 123 | 19.3 | 25.7 | 0.00 | 0.00 | 0.00 | 64 | 1015.3 |
| 20260505011606 | 26 | 111 | 19.3 | 24.1 | 0.00 | 0.00 | 0.00 | 64 | 1015.4 |
| 20260505011602 | 23 | 130 | 24.1 | 33.8 | 0.00 | 0.00 | 0.00 | 73 | 1015.1 |
| 20260505011556 | 22 | 108 | 22.5 | 30.6 | 0.00 | 0.00 | 0.00 | 77 | 1016.1 |
| 20260505011551 | 26 | 121 | 19.3 | 25.7 | 0.00 | 0.00 | 0.00 | 64 | 1015.5 |
| 20260505011545 | 25 | 117 | 20.9 | 32.2 | 0.00 | 0.00 | 0.00 | 68 | 1015.3 |
| 20260505011540 | 26 | 103 | 20.9 | 32.2 | 0.00 | 0.00 | 0.00 | 64 | 1015.2 |
| 20260505011534 | 25 | 111 | 19.3 | 29.0 | 0.00 | 0.00 | 0.00 | 66 | 1015.3 |
| 20260505011530 | 25 | 113 | 19.3 | 29.0 | 0.00 | 0.00 | 0.00 | 65 | 1015.2 |
| 20260505011523 | 22 | 113 | 22.5 | 29.0 | 0.00 | 0.00 | 0.00 | 77 | 1016.2 |
| 20260505011517 | 25 | 132 | 20.9 | 29.0 | 0.00 | 0.00 | 0.00 | 64 | 1015.2 |
| 20260505011512 | 25 | 123 | 20.9 | 29.0 | 0.00 | 0.00 | 0.00 | 67 | 1015.2 |
| 20260505011507 | 24 | 117 | 24.1 | 32.2 | 0.00 | 0.00 | 0.00 | 70 | 1015.2 |
| 20260505011501 | 23 | 111 | 24.1 | 29.0 | 0.00 | 0.00 | 0.00 | 71 | 1015.1 |
| 20260505011455 | 22 | 113 | 25.7 | 32.2 | 0.00 | 0.00 | 0.00 | 74 | 1015.8 |
| 20260505011450 | 22 | 120 | 24.1 | 32.2 | 0.00 | 0.00 | 0.00 | 75 | 1015.8 |
| 20260505011444 | 22 | 105 | 24.1 | 32.2 | 0.00 | 0.00 | 0.00 | 76 | 1015.9 |
| 20260505011440 | 22 | 114 | 22.5 | 30.6 | 0.00 | 0.00 | 0.00 | 76 | 1015.9 |
| 20260505011435 | 22 | 117 | 24.1 | 30.6 | 0.00 | 0.00 | 0.00 | 76 | 1015.8 |
| 20260505011430 | 23 | 109 | 25.7 | 33.8 | 0.00 | 0.00 | 0.00 | 74 | 1015.2 |
| 20260505011301 | 23 | 106 | 24.1 | 32.2 | 0.00 | 0.00 | 0.00 | 72 | 1015.0 |
| 20260505011256 | 22 | 118 | 24.1 | 30.6 | 0.00 | 0.00 | 0.00 | 75 | 1016.0 |
| 20260505011251 | 23 | 119 | 24.1 | 30.6 | 0.00 | 0.00 | 0.00 | 72 | 1015.3 |
| 20260505011246 | 23 | 117 | 25.7 | 32.2 | 0.00 | 0.00 | 0.00 | 73 | 1015.3 |
| 20260505011120 | 23 | 130 | 24.1 | 33.8 | 0.00 | 0.00 | 0.00 | 73 | 1015.1 |
| 20260505011113 | 22 | 121 | 24.1 | 32.2 | 0.00 | 0.00 | 0.00 | 75 | 1015.5 |
| 20260505011108 | 22 | 108 | 22.5 | 30.6 | 0.00 | 0.00 | 0.00 | 77 | 1016.1 |
| 20260505010942 | 22 | 113 | 25.7 | 32.2 | 0.00 | 0.00 | 0.00 | 74 | 1015.8 |
| 20260505010936 | 22 | 120 | 24.1 | 32.2 | 0.00 | 0.00 | 0.00 | 75 | 1015.8 |
| 20260505010931 | 22 | 117 | 24.1 | 30.6 | 0.00 | 0.00 | 0.00 | 76 | 1015.8 |
| 20260505010927 | 22 | 105 | 24.1 | 32.2 | 0.00 | 0.00 | 0.00 | 76 | 1015.9 |
| 20260505010759 | 22 | 118 | 24.1 | 30.6 | 0.00 | 0.00 | 0.00 | 75 | 1016.0 |
| 20260505010631 | 23 | 117 | 25.7 | 32.2 | 0.00 | 0.00 | 0.00 | 73 | 1015.3 |
| 20260505010613 | 22 | 108 | 22.5 | 30.6 | 0.00 | 0.00 | 0.00 | 77 | 1016.1 |
| 20260505010458 | 22 | 114 | 22.5 | 30.6 | 0.00 | 0.00 | 0.00 | 76 | 1015.9 |
| 20260505010452 | 22 | 113 | 25.7 | 32.2 | 0.00 | 0.00 | 0.00 | 74 | 1015.8 |
| 20260505010327 | 22 | 120 | 24.1 | 32.2 | 0.00 | 0.00 | 0.00 | 75 | 1015.8 |
| 20260505010321 | 22 | 105 | 24.1 | 32.2 | 0.00 | 0.00 | 0.00 | 76 | 1015.9 |
| 20260505010035 | 25 | 123 | 20.9 | 29.0 | 0.00 | 0.00 | 0.00 | 67 | 1015.2 |
| 20260505010029 | 23 | 111 | 24.1 | 29.0 | 0.00 | 0.00 | 0.00 | 71 | 1015.1 |
| 20260505010025 | 22 | 114 | 22.5 | 30.6 | 0.00 | 0.00 | 0.00 | 76 | 1015.9 |
| 20260505005854 | 23 | 122 | 25.7 | 32.2 | 0.00 | 0.00 | 0.00 | 73 | 1015.1 |
| 20260505005850 | 23 | 106 | 24.1 | 32.2 | 0.00 | 0.00 | 0.00 | 72 | 1015.0 |
| 20260505005845 | 23 | 111 | 25.7 | 30.6 | 0.00 | 0.00 | 0.00 | 71 | 1014.9 |
| 20260505005839 | 23 | 130 | 24.1 | 33.8 | 0.00 | 0.00 | 0.00 | 73 | 1015.1 |
| 20260505005834 | 23 | 109 | 25.7 | 33.8 | 0.00 | 0.00 | 0.00 | 74 | 1015.2 |
| 20260505005828 | 23 | 119 | 24.1 | 30.6 | 0.00 | 0.00 | 0.00 | 72 | 1015.3 |
| 20260505005822 | 23 | 117 | 25.7 | 32.2 | 0.00 | 0.00 | 0.00 | 73 | 1015.3 |
| 20260505005818 | 22 | 120 | 24.1 | 32.2 | 0.00 | 0.00 | 0.00 | 75 | 1015.8 |
| 20260505005812 | 22 | 117 | 24.1 | 30.6 | 0.00 | 0.00 | 0.00 | 76 | 1015.8 |
| 20260505005644 | 22 | 113 | 25.7 | 32.2 | 0.00 | 0.00 | 0.00 | 74 | 1015.8 |
| 20260505005638 | 22 | 105 | 24.1 | 32.2 | 0.00 | 0.00 | 0.00 | 76 | 1015.9 |
| 20260505005618 | 22 | 118 | 24.1 | 30.6 | 0.00 | 0.00 | 0.00 | 75 | 1016.0 |
| 20260505005507 | 26 | 123 | 16.1 | 29.0 | 0.00 | 0.00 | 0.00 | 62 | 1015.6 |
| 20260505005501 | 26 | 123 | 19.3 | 25.7 | 0.00 | 0.00 | 0.00 | 64 | 1015.3 |
| 20260505005454 | 26 | 111 | 19.3 | 24.1 | 0.00 | 0.00 | 0.00 | 64 | 1015.4 |
| 20260505005448 | 26 | 121 | 19.3 | 25.7 | 0.00 | 0.00 | 0.00 | 64 | 1015.5 |
| 20260505005443 | 25 | 117 | 20.9 | 32.2 | 0.00 | 0.00 | 0.00 | 68 | 1015.3 |
| 20260505005438 | 26 | 103 | 20.9 | 32.2 | 0.00 | 0.00 | 0.00 | 64 | 1015.2 |
| 20260505005432 | 25 | 113 | 19.3 | 29.0 | 0.00 | 0.00 | 0.00 | 65 | 1015.2 |
| 20260505005426 | 23 | 111 | 24.1 | 29.0 | 0.00 | 0.00 | 0.00 | 71 | 1015.1 |
| 20260505005422 | 25 | 132 | 20.9 | 29.0 | 0.00 | 0.00 | 0.00 | 64 | 1015.2 |
| 20260505005416 | 25 | 111 | 19.3 | 29.0 | 0.00 | 0.00 | 0.00 | 66 | 1015.3 |
| 20260505005411 | 25 | 123 | 20.9 | 29.0 | 0.00 | 0.00 | 0.00 | 67 | 1015.2 |
| 20260505005243 | 23 | 122 | 25.7 | 32.2 | 0.00 | 0.00 | 0.00 | 73 | 1015.1 |
| 20260505005238 | 23 | 106 | 24.1 | 32.2 | 0.00 | 0.00 | 0.00 | 72 | 1015.0 |
| 20260505005233 | 23 | 111 | 25.7 | 30.6 | 0.00 | 0.00 | 0.00 | 71 | 1014.9 |
| 20260505005228 | 22 | 120 | 24.1 | 32.2 | 0.00 | 0.00 | 0.00 | 75 | 1015.8 |
| 20260505005223 | 23 | 130 | 24.1 | 33.8 | 0.00 | 0.00 | 0.00 | 73 | 1015.1 |
| 20260505005217 | 22 | 117 | 24.1 | 30.6 | 0.00 | 0.00 | 0.00 | 76 | 1015.8 |
| 20260505005211 | 23 | 109 | 25.7 | 33.8 | 0.00 | 0.00 | 0.00 | 74 | 1015.2 |
| 20260505005206 | 23 | 119 | 24.1 | 30.6 | 0.00 | 0.00 | 0.00 | 72 | 1015.3 |
| 20260505005041 | 22 | 121 | 24.1 | 32.2 | 0.00 | 0.00 | 0.00 | 75 | 1015.5 |
| 20260505005035 | 22 | 114 | 22.5 | 30.6 | 0.00 | 0.00 | 0.00 | 76 | 1015.9 |
| 20260505005030 | 22 | 113 | 25.7 | 32.2 | 0.00 | 0.00 | 0.00 | 74 | 1015.8 |
| 20260505005024 | 22 | 105 | 24.1 | 32.2 | 0.00 | 0.00 | 0.00 | 76 | 1015.9 |
| 20260505004735 | 22 | 120 | 24.1 | 32.2 | 0.00 | 0.00 | 0.00 | 75 | 1015.8 |
| 20260505004607 | 26 | 123 | 16.1 | 29.0 | 0.00 | 0.00 | 0.00 | 62 | 1015.6 |
| 20260505004602 | 22 | 114 | 22.5 | 30.6 | 0.00 | 0.00 | 0.00 | 76 | 1015.9 |
| 20260505004556 | 26 | 123 | 19.3 | 25.7 | 0.00 | 0.00 | 0.00 | 64 | 1015.3 |
| 20260505004551 | 26 | 111 | 19.3 | 24.1 | 0.00 | 0.00 | 0.00 | 64 | 1015.4 |
| 20260505004544 | 26 | 121 | 19.3 | 25.7 | 0.00 | 0.00 | 0.00 | 64 | 1015.5 |
| 20260505004539 | 25 | 117 | 20.9 | 32.2 | 0.00 | 0.00 | 0.00 | 68 | 1015.3 |
| 20260505004533 | 26 | 103 | 20.9 | 32.2 | 0.00 | 0.00 | 0.00 | 64 | 1015.2 |
| 20260505004528 | 25 | 113 | 19.3 | 29.0 | 0.00 | 0.00 | 0.00 | 65 | 1015.2 |
| 20260505004522 | 22 | 105 | 24.1 | 32.2 | 0.00 | 0.00 | 0.00 | 76 | 1015.9 |
| 20260505004518 | 25 | 132 | 20.9 | 29.0 | 0.00 | 0.00 | 0.00 | 64 | 1015.2 |
| 20260505004512 | 23 | 106 | 24.1 | 32.2 | 0.00 | 0.00 | 0.00 | 72 | 1015.0 |
| 20260505004507 | 23 | 111 | 25.7 | 30.6 | 0.00 | 0.00 | 0.00 | 71 | 1014.9 |
| 20260505004501 | 23 | 122 | 25.7 | 32.2 | 0.00 | 0.00 | 0.00 | 73 | 1015.1 |
| 20260505004456 | 23 | 109 | 25.7 | 33.8 | 0.00 | 0.00 | 0.00 | 74 | 1015.2 |
| 20260505004450 | 23 | 119 | 24.1 | 30.6 | 0.00 | 0.00 | 0.00 | 72 | 1015.3 |
| 20260505004445 | 25 | 111 | 19.3 | 29.0 | 0.00 | 0.00 | 0.00 | 66 | 1015.3 |
| 20260505004438 | 23 | 130 | 24.1 | 33.8 | 0.00 | 0.00 | 0.00 | 73 | 1015.1 |
| 20260505004432 | 23 | 117 | 25.7 | 32.2 | 0.00 | 0.00 | 0.00 | 73 | 1015.3 |
| 20260505004427 | 22 | 113 | 25.7 | 32.2 | 0.00 | 0.00 | 0.00 | 74 | 1015.8 |
| 20260505004421 | 22 | 121 | 24.1 | 32.2 | 0.00 | 0.00 | 0.00 | 75 | 1015.5 |
| 20260505004256 | 24 | 117 | 24.1 | 32.2 | 0.00 | 0.00 | 0.00 | 70 | 1015.2 |
| 20260505004251 | 23 | 111 | 24.1 | 29.0 | 0.00 | 0.00 | 0.00 | 71 | 1015.1 |
| 20260505004245 | 22 | 120 | 24.1 | 32.2 | 0.00 | 0.00 | 0.00 | 75 | 1015.8 |
| 20260505004238 | 22 | 117 | 24.1 | 30.6 | 0.00 | 0.00 | 0.00 | 76 | 1015.8 |
| 20260505003953 | 23 | 106 | 24.1 | 32.2 | 0.00 | 0.00 | 0.00 | 72 | 1015.0 |
| 20260505003947 | 23 | 111 | 25.7 | 30.6 | 0.00 | 0.00 | 0.00 | 71 | 1014.9 |
| 20260505003942 | 23 | 130 | 24.1 | 33.8 | 0.00 | 0.00 | 0.00 | 73 | 1015.1 |
| 20260505003937 | 23 | 109 | 25.7 | 33.8 | 0.00 | 0.00 | 0.00 | 74 | 1015.2 |
| 20260505003930 | 23 | 119 | 24.1 | 30.6 | 0.00 | 0.00 | 0.00 | 72 | 1015.3 |
| 20260505003924 | 23 | 117 | 25.7 | 32.2 | 0.00 | 0.00 | 0.00 | 73 | 1015.3 |
| 20260505003919 | 22 | 121 | 24.1 | 32.2 | 0.00 | 0.00 | 0.00 | 75 | 1015.5 |
| 20260505003914 | 22 | 113 | 25.7 | 32.2 | 0.00 | 0.00 | 0.00 | 74 | 1015.8 |
| 20260505003612 | 22 | 114 | 22.5 | 30.6 | 0.00 | 0.00 | 0.00 | 76 | 1015.9 |
| 20260505003459 | 27 | 123 | 17.7 | 25.7 | 0.00 | 0.00 | 0.00 | 60 | 1015.7 |
| 20260505003455 | 27 | 117 | 14.5 | 22.5 | 0.00 | 0.00 | 0.00 | 59 | 1015.7 |
| 20260505003448 | 26 | 109 | 17.7 | 22.5 | 0.00 | 0.00 | 0.00 | 61 | 1015.7 |
| 20260505003444 | 26 | 123 | 17.7 | 22.5 | 0.00 | 0.00 | 0.00 | 59 | 1015.9 |
| 20260505003439 | 26 | 109 | 19.3 | 29.0 | 0.00 | 0.00 | 0.00 | 62 | 1015.7 |
| 20260505003433 | 23 | 106 | 24.1 | 32.2 | 0.00 | 0.00 | 0.00 | 72 | 1015.0 |
| 20260505003426 | 23 | 111 | 25.7 | 30.6 | 0.00 | 0.00 | 0.00 | 71 | 1014.9 |
| 20260505003420 | 23 | 130 | 24.1 | 33.8 | 0.00 | 0.00 | 0.00 | 73 | 1015.1 |
| 20260505003254 | 26 | 123 | 19.3 | 25.7 | 0.00 | 0.00 | 0.00 | 64 | 1015.3 |
| 20260505003248 | 26 | 111 | 19.3 | 24.1 | 0.00 | 0.00 | 0.00 | 64 | 1015.4 |
| 20260505003243 | 26 | 121 | 19.3 | 25.7 | 0.00 | 0.00 | 0.00 | 64 | 1015.5 |
| 20260505003238 | 25 | 117 | 20.9 | 32.2 | 0.00 | 0.00 | 0.00 | 68 | 1015.3 |
| 20260505003232 | 26 | 103 | 20.9 | 32.2 | 0.00 | 0.00 | 0.00 | 64 | 1015.2 |
| 20260505003225 | 25 | 113 | 19.3 | 29.0 | 0.00 | 0.00 | 0.00 | 65 | 1015.2 |
| 20260505003220 | 25 | 132 | 20.9 | 29.0 | 0.00 | 0.00 | 0.00 | 64 | 1015.2 |
| 20260505003214 | 25 | 111 | 19.3 | 29.0 | 0.00 | 0.00 | 0.00 | 66 | 1015.3 |
| 20260505003210 | 25 | 123 | 20.9 | 29.0 | 0.00 | 0.00 | 0.00 | 67 | 1015.2 |
| 20260505003204 | 24 | 117 | 24.1 | 32.2 | 0.00 | 0.00 | 0.00 | 70 | 1015.2 |
| 20260505003200 | 23 | 109 | 25.7 | 33.8 | 0.00 | 0.00 | 0.00 | 74 | 1015.2 |
| 20260505003154 | 23 | 119 | 24.1 | 30.6 | 0.00 | 0.00 | 0.00 | 72 | 1015.3 |
| 20260505003149 | 23 | 117 | 25.7 | 32.2 | 0.00 | 0.00 | 0.00 | 73 | 1015.3 |
| 20260505003143 | 23 | 111 | 24.1 | 29.0 | 0.00 | 0.00 | 0.00 | 71 | 1015.1 |
| 20260505003139 | 23 | 122 | 25.7 | 32.2 | 0.00 | 0.00 | 0.00 | 73 | 1015.1 |
| 20260505003134 | 22 | 121 | 24.1 | 32.2 | 0.00 | 0.00 | 0.00 | 75 | 1015.5 |
| 20260505003128 | 22 | 120 | 24.1 | 32.2 | 0.00 | 0.00 | 0.00 | 75 | 1015.8 |
| 20260505003121 | 22 | 117 | 24.1 | 30.6 | 0.00 | 0.00 | 0.00 | 76 | 1015.8 |
| 20260505002836 | 23 | 111 | 25.7 | 30.6 | 0.00 | 0.00 | 0.00 | 71 | 1014.9 |
| 20260505002830 | 23 | 130 | 24.1 | 33.8 | 0.00 | 0.00 | 0.00 | 73 | 1015.1 |
| 20260505002704 | 23 | 119 | 24.1 | 30.6 | 0.00 | 0.00 | 0.00 | 72 | 1015.3 |
| 20260505002658 | 23 | 117 | 25.7 | 32.2 | 0.00 | 0.00 | 0.00 | 73 | 1015.3 |
| 20260505002532 | 26 | 103 | 20.9 | 32.2 | 0.00 | 0.00 | 0.00 | 64 | 1015.2 |
| 20260505002526 | 22 | 117 | 24.1 | 30.6 | 0.00 | 0.00 | 0.00 | 76 | 1015.8 |
| 20260505002519 | 25 | 113 | 19.3 | 29.0 | 0.00 | 0.00 | 0.00 | 65 | 1015.2 |
| 20260505002515 | 25 | 132 | 20.9 | 29.0 | 0.00 | 0.00 | 0.00 | 64 | 1015.2 |
| 20260505002509 | 22 | 120 | 24.1 | 32.2 | 0.00 | 0.00 | 0.00 | 75 | 1015.8 |
| 20260505002504 | 22 | 121 | 24.1 | 32.2 | 0.00 | 0.00 | 0.00 | 75 | 1015.5 |
| 20260505002500 | 22 | 113 | 25.7 | 32.2 | 0.00 | 0.00 | 0.00 | 74 | 1015.8 |
| 20260505002333 | 25 | 123 | 20.9 | 29.0 | 0.00 | 0.00 | 0.00 | 67 | 1015.2 |
| 20260505002329 | 24 | 117 | 24.1 | 32.2 | 0.00 | 0.00 | 0.00 | 70 | 1015.2 |
| 20260505002201 | 27 | 123 | 17.7 | 25.7 | 0.00 | 0.00 | 0.00 | 60 | 1015.7 |
| 20260505002156 | 23 | 111 | 25.7 | 30.6 | 0.00 | 0.00 | 0.00 | 71 | 1014.9 |
| 20260505002152 | 23 | 109 | 25.7 | 33.8 | 0.00 | 0.00 | 0.00 | 74 | 1015.2 |
| 20260505002146 | 23 | 122 | 25.7 | 32.2 | 0.00 | 0.00 | 0.00 | 73 | 1015.1 |
| 20260505002142 | 27 | 117 | 14.5 | 22.5 | 0.00 | 0.00 | 0.00 | 59 | 1015.7 |
| 20260505002136 | 23 | 106 | 24.1 | 32.2 | 0.00 | 0.00 | 0.00 | 72 | 1015.0 |
| 20260505002131 | 23 | 130 | 24.1 | 33.8 | 0.00 | 0.00 | 0.00 | 73 | 1015.1 |
| 20260505002127 | 23 | 119 | 24.1 | 30.6 | 0.00 | 0.00 | 0.00 | 72 | 1015.3 |
| 20260505002121 | 23 | 117 | 25.7 | 32.2 | 0.00 | 0.00 | 0.00 | 73 | 1015.3 |
| 20260505001955 | 22 | 120 | 24.1 | 32.2 | 0.00 | 0.00 | 0.00 | 75 | 1015.8 |
| 20260505001949 | 22 | 113 | 25.7 | 32.2 | 0.00 | 0.00 | 0.00 | 74 | 1015.8 |
| 20260505001824 | 25 | 132 | 12.9 | 19.3 | 0.00 | 0.00 | 0.00 | 57 | 1016.8 |
| 20260505001819 | 26 | 109 | 19.3 | 29.0 | 0.00 | 0.00 | 0.00 | 62 | 1015.7 |
| 20260505001810 | 26 | 123 | 16.1 | 29.0 | 0.00 | 0.00 | 0.00 | 62 | 1015.6 |
| 20260505001806 | 26 | 109 | 17.7 | 22.5 | 0.00 | 0.00 | 0.00 | 61 | 1015.7 |
| 20260505001801 | 26 | 121 | 19.3 | 25.7 | 0.00 | 0.00 | 0.00 | 64 | 1015.5 |
| 20260505001755 | 25 | 117 | 20.9 | 32.2 | 0.00 | 0.00 | 0.00 | 68 | 1015.3 |
| 20260505001749 | 26 | 123 | 19.3 | 25.7 | 0.00 | 0.00 | 0.00 | 64 | 1015.3 |
| 20260505001744 | 26 | 103 | 20.9 | 32.2 | 0.00 | 0.00 | 0.00 | 64 | 1015.2 |
| 20260505001739 | 25 | 113 | 19.3 | 29.0 | 0.00 | 0.00 | 0.00 | 65 | 1015.2 |
| 20260505001733 | 26 | 111 | 19.3 | 24.1 | 0.00 | 0.00 | 0.00 | 64 | 1015.4 |
| 20260505001728 | 25 | 132 | 20.9 | 29.0 | 0.00 | 0.00 | 0.00 | 64 | 1015.2 |
| 20260505001722 | 24 | 117 | 24.1 | 32.2 | 0.00 | 0.00 | 0.00 | 70 | 1015.2 |
| 20260505001717 | 25 | 123 | 20.9 | 29.0 | 0.00 | 0.00 | 0.00 | 67 | 1015.2 |
| 20260505001709 | 23 | 111 | 25.7 | 30.6 | 0.00 | 0.00 | 0.00 | 71 | 1014.9 |
| 20260505001704 | 25 | 111 | 19.3 | 29.0 | 0.00 | 0.00 | 0.00 | 66 | 1015.3 |
| 20260505001700 | 23 | 111 | 24.1 | 29.0 | 0.00 | 0.00 | 0.00 | 71 | 1015.1 |
| 20260505001654 | 23 | 109 | 25.7 | 33.8 | 0.00 | 0.00 | 0.00 | 74 | 1015.2 |
| 20260505001649 | 23 | 122 | 25.7 | 32.2 | 0.00 | 0.00 | 0.00 | 73 | 1015.1 |
| 20260505001644 | 23 | 130 | 24.1 | 33.8 | 0.00 | 0.00 | 0.00 | 73 | 1015.1 |
| 20260505001639 | 23 | 117 | 25.7 | 32.2 | 0.00 | 0.00 | 0.00 | 73 | 1015.3 |
| 20260505001513 | 23 | 119 | 24.1 | 30.6 | 0.00 | 0.00 | 0.00 | 72 | 1015.3 |
| 20260505001506 | 22 | 121 | 24.1 | 32.2 | 0.00 | 0.00 | 0.00 | 75 | 1015.5 |
| 20260505001500 | 26 | 120 | 16.1 | 24.1 | 0.00 | 0.00 | 0.00 | 59 | 1016.1 |
| 20260505001456 | 26 | 129 | 16.1 | 20.9 | 0.00 | 0.00 | 0.00 | 62 | 1015.9 |
| 20260505001451 | 22 | 113 | 25.7 | 32.2 | 0.00 | 0.00 | 0.00 | 74 | 1015.8 |
| 20260505001445 | 26 | 123 | 17.7 | 22.5 | 0.00 | 0.00 | 0.00 | 59 | 1015.9 |
| 20260505001439 | 27 | 123 | 17.7 | 25.7 | 0.00 | 0.00 | 0.00 | 60 | 1015.7 |
| 20260505001435 | 27 | 117 | 14.5 | 22.5 | 0.00 | 0.00 | 0.00 | 59 | 1015.7 |
| 20260505001430 | 23 | 106 | 24.1 | 32.2 | 0.00 | 0.00 | 0.00 | 72 | 1015.0 |
| 20260505001302 | 26 | 109 | 17.7 | 22.5 | 0.00 | 0.00 | 0.00 | 61 | 1015.7 |
| 20260505001256 | 26 | 123 | 16.1 | 29.0 | 0.00 | 0.00 | 0.00 | 62 | 1015.6 |
| 20260505001252 | 26 | 111 | 19.3 | 24.1 | 0.00 | 0.00 | 0.00 | 64 | 1015.4 |
| 20260505001247 | 26 | 121 | 19.3 | 25.7 | 0.00 | 0.00 | 0.00 | 64 | 1015.5 |
| 20260505001241 | 25 | 117 | 20.9 | 32.2 | 0.00 | 0.00 | 0.00 | 68 | 1015.3 |
| 20260505001237 | 26 | 123 | 19.3 | 25.7 | 0.00 | 0.00 | 0.00 | 64 | 1015.3 |
| 20260505001232 | 26 | 103 | 20.9 | 32.2 | 0.00 | 0.00 | 0.00 | 64 | 1015.2 |
| 20260505001226 | 25 | 113 | 19.3 | 29.0 | 0.00 | 0.00 | 0.00 | 65 | 1015.2 |
| 20260505001222 | 25 | 132 | 20.9 | 29.0 | 0.00 | 0.00 | 0.00 | 64 | 1015.2 |
| 20260505001216 | 25 | 111 | 19.3 | 29.0 | 0.00 | 0.00 | 0.00 | 66 | 1015.3 |
| 20260505001211 | 25 | 123 | 20.9 | 29.0 | 0.00 | 0.00 | 0.00 | 67 | 1015.2 |
| 20260505001203 | 23 | 109 | 25.7 | 33.8 | 0.00 | 0.00 | 0.00 | 74 | 1015.2 |
| 20260505001158 | 23 | 111 | 25.7 | 30.6 | 0.00 | 0.00 | 0.00 | 71 | 1014.9 |
| 20260505001153 | 24 | 117 | 24.1 | 32.2 | 0.00 | 0.00 | 0.00 | 70 | 1015.2 |
| 20260505001147 | 23 | 130 | 24.1 | 33.8 | 0.00 | 0.00 | 0.00 | 73 | 1015.1 |
| 20260505001142 | 23 | 117 | 25.7 | 32.2 | 0.00 | 0.00 | 0.00 | 73 | 1015.3 |
| 20260505001137 | 23 | 111 | 24.1 | 29.0 | 0.00 | 0.00 | 0.00 | 71 | 1015.1 |
| 20260505001010 | 23 | 119 | 24.1 | 30.6 | 0.00 | 0.00 | 0.00 | 72 | 1015.3 |
| 20260505001002 | 22 | 113 | 25.7 | 32.2 | 0.00 | 0.00 | 0.00 | 74 | 1015.8 |
| 20260505000958 | 22 | 121 | 24.1 | 32.2 | 0.00 | 0.00 | 0.00 | 75 | 1015.5 |
| 20260505000831 | 26 | 109 | 19.3 | 29.0 | 0.00 | 0.00 | 0.00 | 62 | 1015.7 |
| 20260505000826 | 23 | 106 | 24.1 | 32.2 | 0.00 | 0.00 | 0.00 | 72 | 1015.0 |
| 20260505000658 | 23 | 111 | 25.7 | 30.6 | 0.00 | 0.00 | 0.00 | 71 | 1014.9 |
| 20260505000654 | 26 | 123 | 16.1 | 29.0 | 0.00 | 0.00 | 0.00 | 62 | 1015.6 |
| 20260505000648 | 23 | 130 | 24.1 | 33.8 | 0.00 | 0.00 | 0.00 | 73 | 1015.1 |
| 20260505000643 | 23 | 117 | 25.7 | 32.2 | 0.00 | 0.00 | 0.00 | 73 | 1015.3 |
| 20260505000518 | 22 | 113 | 25.7 | 32.2 | 0.00 | 0.00 | 0.00 | 74 | 1015.8 |
| 20260505000513 | 22 | 121 | 24.1 | 32.2 | 0.00 | 0.00 | 0.00 | 75 | 1015.5 |
| 20260505000507 | 26 | 124 | 17.7 | 24.1 | 0.00 | 0.00 | 0.00 | 61 | 1016.1 |
| 20260505000501 | 26 | 120 | 16.1 | 24.1 | 0.00 | 0.00 | 0.00 | 59 | 1016.1 |
| 20260505000454 | 26 | 111 | 19.3 | 24.1 | 0.00 | 0.00 | 0.00 | 64 | 1015.4 |
| 20260505000450 | 26 | 121 | 19.3 | 25.7 | 0.00 | 0.00 | 0.00 | 64 | 1015.5 |
| 20260505000445 | 25 | 117 | 20.9 | 32.2 | 0.00 | 0.00 | 0.00 | 68 | 1015.3 |
| 20260505000439 | 26 | 129 | 16.1 | 20.9 | 0.00 | 0.00 | 0.00 | 62 | 1015.9 |
| 20260505000434 | 26 | 103 | 20.9 | 32.2 | 0.00 | 0.00 | 0.00 | 64 | 1015.2 |
| 20260505000428 | 25 | 113 | 19.3 | 29.0 | 0.00 | 0.00 | 0.00 | 65 | 1015.2 |
| 20260505000422 | 25 | 132 | 20.9 | 29.0 | 0.00 | 0.00 | 0.00 | 64 | 1015.2 |
| 20260505000420 | 24 | 117 | 24.1 | 32.2 | 0.00 | 0.00 | 0.00 | 70 | 1015.2 |
| 20260505000413 | 25 | 111 | 19.3 | 29.0 | 0.00 | 0.00 | 0.00 | 66 | 1015.3 |
| 20260505000407 | 26 | 123 | 19.3 | 25.7 | 0.00 | 0.00 | 0.00 | 64 | 1015.3 |
| 20260505000402 | 25 | 123 | 20.9 | 29.0 | 0.00 | 0.00 | 0.00 | 67 | 1015.2 |
| 20260505000358 | 23 | 119 | 24.1 | 30.6 | 0.00 | 0.00 | 0.00 | 72 | 1015.3 |
| 20260505000351 | 23 | 111 | 24.1 | 29.0 | 0.00 | 0.00 | 0.00 | 71 | 1015.1 |
| 20260505000344 | 23 | 122 | 25.7 | 32.2 | 0.00 | 0.00 | 0.00 | 73 | 1015.1 |
| 20260505000218 | 26 | 123 | 17.7 | 22.5 | 0.00 | 0.00 | 0.00 | 59 | 1015.9 |
| 20260505000211 | 27 | 117 | 14.5 | 22.5 | 0.00 | 0.00 | 0.00 | 59 | 1015.7 |
| 20260505000205 | 23 | 106 | 24.1 | 32.2 | 0.00 | 0.00 | 0.00 | 72 | 1015.0 |
| 20260505000200 | 26 | 109 | 17.7 | 22.5 | 0.00 | 0.00 | 0.00 | 61 | 1015.7 |
| 20260505000154 | 23 | 111 | 25.7 | 30.6 | 0.00 | 0.00 | 0.00 | 71 | 1014.9 |
| 20260505000147 | 27 | 123 | 17.7 | 25.7 | 0.00 | 0.00 | 0.00 | 60 | 1015.7 |
| 20260505000142 | 26 | 109 | 19.3 | 29.0 | 0.00 | 0.00 | 0.00 | 62 | 1015.7 |
| 20260505000137 | 26 | 123 | 16.1 | 29.0 | 0.00 | 0.00 | 0.00 | 62 | 1015.6 |
| 20260505000131 | 23 | 130 | 24.1 | 33.8 | 0.00 | 0.00 | 0.00 | 73 | 1015.1 |
| 20260505000126 | 23 | 117 | 25.7 | 32.2 | 0.00 | 0.00 | 0.00 | 73 | 1015.3 |
| 20260505000000 | 26 | 111 | 19.3 | 24.1 | 0.00 | 0.00 | 0.00 | 64 | 1015.4 |
| 20260504235954 | 26 | 121 | 19.3 | 25.7 | 0.00 | 0.00 | 0.00 | 64 | 1015.5 |
| 20260504235947 | 25 | 117 | 20.9 | 32.2 | 0.00 | 0.00 | 0.00 | 68 | 1015.3 |
| 20260504235941 | 26 | 103 | 20.9 | 32.2 | 0.00 | 0.00 | 0.00 | 64 | 1015.2 |
| 20260504235936 | 25 | 113 | 19.3 | 29.0 | 0.00 | 0.00 | 0.00 | 65 | 1015.2 |
| 20260504235930 | 25 | 132 | 20.9 | 29.0 | 0.00 | 0.00 | 0.00 | 64 | 1015.2 |
| 20260504235926 | 26 | 123 | 19.3 | 25.7 | 0.00 | 0.00 | 0.00 | 64 | 1015.3 |
| 20260504235921 | 25 | 111 | 19.3 | 29.0 | 0.00 | 0.00 | 0.00 | 66 | 1015.3 |
| 20260504235915 | 23 | 119 | 24.1 | 30.6 | 0.00 | 0.00 | 0.00 | 72 | 1015.3 |
| 20260504235909 | 24 | 117 | 24.1 | 32.2 | 0.00 | 0.00 | 0.00 | 70 | 1015.2 |
| 20260504235904 | 25 | 123 | 20.9 | 29.0 | 0.00 | 0.00 | 0.00 | 67 | 1015.2 |
| 20260504235736 | 26 | 130 | 17.7 | 24.1 | 0.00 | 0.00 | 0.00 | 62 | 1016.2 |
| 20260504235731 | 23 | 109 | 25.7 | 33.8 | 0.00 | 0.00 | 0.00 | 74 | 1015.2 |
| 20260504235725 | 25 | 132 | 17.7 | 22.5 | 0.00 | 0.00 | 0.00 | 59 | 1016.3 |
| 20260504235720 | 23 | 111 | 24.1 | 29.0 | 0.00 | 0.00 | 0.00 | 71 | 1015.1 |
| 20260504235714 | 23 | 106 | 24.1 | 32.2 | 0.00 | 0.00 | 0.00 | 72 | 1015.0 |
| 20260504235709 | 23 | 111 | 25.7 | 30.6 | 0.00 | 0.00 | 0.00 | 71 | 1014.9 |
| 20260504235541 | 26 | 120 | 16.1 | 24.1 | 0.00 | 0.00 | 0.00 | 59 | 1016.1 |
| 20260504235535 | 23 | 117 | 25.7 | 32.2 | 0.00 | 0.00 | 0.00 | 73 | 1015.3 |
| 20260504235530 | 26 | 129 | 16.1 | 20.9 | 0.00 | 0.00 | 0.00 | 62 | 1015.9 |
| 20260504235526 | 26 | 123 | 17.7 | 22.5 | 0.00 | 0.00 | 0.00 | 59 | 1015.9 |
| 20260504235520 | 27 | 117 | 14.5 | 22.5 | 0.00 | 0.00 | 0.00 | 59 | 1015.7 |
| 20260504235515 | 22 | 121 | 24.1 | 32.2 | 0.00 | 0.00 | 0.00 | 75 | 1015.5 |
| 20260504235509 | 26 | 109 | 17.7 | 22.5 | 0.00 | 0.00 | 0.00 | 61 | 1015.7 |
| 20260504235504 | 27 | 123 | 17.7 | 25.7 | 0.00 | 0.00 | 0.00 | 60 | 1015.7 |
| 20260504235458 | 26 | 109 | 19.3 | 29.0 | 0.00 | 0.00 | 0.00 | 62 | 1015.7 |
| 20260504235454 | 26 | 123 | 16.1 | 29.0 | 0.00 | 0.00 | 0.00 | 62 | 1015.6 |
| 20260504235448 | 26 | 111 | 19.3 | 24.1 | 0.00 | 0.00 | 0.00 | 64 | 1015.4 |
| 20260504235441 | 26 | 121 | 19.3 | 25.7 | 0.00 | 0.00 | 0.00 | 64 | 1015.5 |
| 20260504235436 | 25 | 117 | 20.9 | 32.2 | 0.00 | 0.00 | 0.00 | 68 | 1015.3 |
| 20260504235432 | 26 | 123 | 19.3 | 25.7 | 0.00 | 0.00 | 0.00 | 64 | 1015.3 |
| 20260504235426 | 26 | 103 | 20.9 | 32.2 | 0.00 | 0.00 | 0.00 | 64 | 1015.2 |
| 20260504235420 | 25 | 113 | 19.3 | 29.0 | 0.00 | 0.00 | 0.00 | 65 | 1015.2 |
| 20260504235416 | 25 | 132 | 20.9 | 29.0 | 0.00 | 0.00 | 0.00 | 64 | 1015.2 |
| 20260504235411 | 25 | 111 | 19.3 | 29.0 | 0.00 | 0.00 | 0.00 | 66 | 1015.3 |
| 20260504235405 | 25 | 123 | 20.9 | 29.0 | 0.00 | 0.00 | 0.00 | 67 | 1015.2 |
| 20260504235400 | 24 | 117 | 24.1 | 32.2 | 0.00 | 0.00 | 0.00 | 70 | 1015.2 |
| 20260504235355 | 23 | 119 | 24.1 | 30.6 | 0.00 | 0.00 | 0.00 | 72 | 1015.3 |
| 20260504235227 | 23 | 111 | 24.1 | 29.0 | 0.00 | 0.00 | 0.00 | 71 | 1015.1 |
| 20260504235221 | 23 | 122 | 25.7 | 32.2 | 0.00 | 0.00 | 0.00 | 73 | 1015.1 |
| 20260504235054 | 23 | 111 | 25.7 | 30.6 | 0.00 | 0.00 | 0.00 | 71 | 1014.9 |
| 20260504235048 | 23 | 130 | 24.1 | 33.8 | 0.00 | 0.00 | 0.00 | 73 | 1015.1 |
| 20260504235043 | 23 | 117 | 25.7 | 32.2 | 0.00 | 0.00 | 0.00 | 73 | 1015.3 |
| 20260504234916 | 25 | 141 | 16.1 | 22.5 | 0.00 | 0.23 | 0.00 | 57 | 1017.0 |
| 20260504234911 | 23 | 119 | 24.1 | 30.6 | 0.00 | 0.00 | 0.00 | 72 | 1015.3 |
| 20260504234906 | 25 | 144 | 14.5 | 19.3 | 0.00 | 0.53 | 0.00 | 59 | 1017.0 |
| 20260504234901 | 25 | 132 | 16.1 | 20.9 | 0.00 | 0.53 | 0.00 | 57 | 1017.1 |
| 20260504234855 | 25 | 130 | 14.5 | 22.5 | 0.00 | 0.53 | 0.00 | 60 | 1017.2 |
| 20260504234850 | 24 | 149 | 16.1 | 22.5 | 0.00 | 0.53 | 0.00 | 56 | 1017.4 |
| 20260504234846 | 25 | 0.0 | 0.0 | 0.00 | 0.53 | 0.00 | 57 | 1017.4 | |
| 20260504234840 | 26 | 132 | 16.1 | 22.5 | 0.00 | 0.00 | 0.00 | 60 | 1016.5 |
| 20260504234833 | 26 | 139 | 14.5 | 22.5 | 0.00 | 0.00 | 0.00 | 58 | 1016.6 |
| 20260504234828 | 25 | 132 | 12.9 | 19.3 | 0.00 | 0.00 | 0.00 | 57 | 1016.8 |
| 20260504234822 | 26 | 124 | 17.7 | 24.1 | 0.00 | 0.00 | 0.00 | 61 | 1016.1 |
| 20260504234818 | 25 | 132 | 20.9 | 29.0 | 0.00 | 0.00 | 0.00 | 64 | 1015.2 |
| 20260504234813 | 25 | 111 | 19.3 | 29.0 | 0.00 | 0.00 | 0.00 | 66 | 1015.3 |
| 20260504234807 | 25 | 113 | 19.3 | 29.0 | 0.00 | 0.00 | 0.00 | 65 | 1015.2 |
| 20260504234802 | 26 | 130 | 17.7 | 24.1 | 0.00 | 0.00 | 0.00 | 62 | 1016.2 |
| 20260504234756 | 25 | 132 | 17.7 | 22.5 | 0.00 | 0.00 | 0.00 | 59 | 1016.3 |
| 20260504234752 | 26 | 120 | 16.1 | 24.1 | 0.00 | 0.00 | 0.00 | 59 | 1016.1 |
| 20260504234747 | 24 | 117 | 24.1 | 32.2 | 0.00 | 0.00 | 0.00 | 70 | 1015.2 |
| 20260504234742 | 26 | 129 | 16.1 | 20.9 | 0.00 | 0.00 | 0.00 | 62 | 1015.9 |
| 20260504234735 | 26 | 123 | 17.7 | 22.5 | 0.00 | 0.00 | 0.00 | 59 | 1015.9 |
| 20260504234730 | 23 | 109 | 25.7 | 33.8 | 0.00 | 0.00 | 0.00 | 74 | 1015.2 |
| 20260504234725 | 27 | 117 | 14.5 | 22.5 | 0.00 | 0.00 | 0.00 | 59 | 1015.7 |
| 20260504234720 | 26 | 109 | 17.7 | 22.5 | 0.00 | 0.00 | 0.00 | 61 | 1015.7 |
| 20260504234553 | 26 | 109 | 19.3 | 29.0 | 0.00 | 0.00 | 0.00 | 62 | 1015.7 |
| 20260504234548 | 26 | 123 | 16.1 | 29.0 | 0.00 | 0.00 | 0.00 | 62 | 1015.6 |
| 20260504234542 | 26 | 111 | 19.3 | 24.1 | 0.00 | 0.00 | 0.00 | 64 | 1015.4 |
| 20260504234537 | 26 | 121 | 19.3 | 25.7 | 0.00 | 0.00 | 0.00 | 64 | 1015.5 |
| 20260504234529 | 25 | 117 | 20.9 | 32.2 | 0.00 | 0.00 | 0.00 | 68 | 1015.3 |
| 20260504234524 | 26 | 123 | 19.3 | 25.7 | 0.00 | 0.00 | 0.00 | 64 | 1015.3 |
| 20260504234519 | 23 | 117 | 25.7 | 32.2 | 0.00 | 0.00 | 0.00 | 73 | 1015.3 |
| 20260504234514 | 26 | 103 | 20.9 | 32.2 | 0.00 | 0.00 | 0.00 | 64 | 1015.2 |
| 20260504234509 | 25 | 123 | 20.9 | 29.0 | 0.00 | 0.00 | 0.00 | 67 | 1015.2 |
| 20260504234503 | 23 | 111 | 24.1 | 29.0 | 0.00 | 0.00 | 0.00 | 71 | 1015.1 |
| 20260504234458 | 23 | 122 | 25.7 | 32.2 | 0.00 | 0.00 | 0.00 | 73 | 1015.1 |
| 20260504234452 | 23 | 106 | 24.1 | 32.2 | 0.00 | 0.00 | 0.00 | 72 | 1015.0 |
| 20260504234448 | 23 | 111 | 25.7 | 30.6 | 0.00 | 0.00 | 0.00 | 71 | 1014.9 |
| 20260504234442 | 23 | 130 | 24.1 | 33.8 | 0.00 | 0.00 | 0.00 | 73 | 1015.1 |
| 20260504234437 | 23 | 119 | 24.1 | 30.6 | 0.00 | 0.00 | 0.00 | 72 | 1015.3 |
| 20260504234311 | 25 | 132 | 20.9 | 29.0 | 0.00 | 0.00 | 0.00 | 64 | 1015.2 |
| 20260504234305 | 25 | 111 | 19.3 | 29.0 | 0.00 | 0.00 | 0.00 | 66 | 1015.3 |
| 20260504234300 | 24 | 117 | 24.1 | 32.2 | 0.00 | 0.00 | 0.00 | 70 | 1015.2 |
| 20260504234254 | 23 | 109 | 25.7 | 33.8 | 0.00 | 0.00 | 0.00 | 74 | 1015.2 |
| 20260504234128 | 26 | 0.0 | 0.0 | 0.00 | 0.53 | 0.00 | 56 | 1017.6 | |
| 20260504234123 | 25 | 138 | 12.9 | 19.3 | 0.00 | 0.00 | 0.00 | 53 | 1016.9 |
| 20260504234118 | 25 | 140 | 14.5 | 20.9 | 0.00 | 0.00 | 0.00 | 60 | 1017.0 |
| 20260504234112 | 25 | 141 | 16.1 | 22.5 | 0.00 | 0.23 | 0.00 | 57 | 1017.0 |
| 20260504234106 | 25 | 144 | 14.5 | 19.3 | 0.00 | 0.53 | 0.00 | 59 | 1017.0 |
| 20260504234102 | 25 | 132 | 16.1 | 20.9 | 0.00 | 0.53 | 0.00 | 57 | 1017.1 |
| 20260504234058 | 25 | 130 | 14.5 | 22.5 | 0.00 | 0.53 | 0.00 | 60 | 1017.2 |
| 20260504234053 | 24 | 149 | 16.1 | 22.5 | 0.00 | 0.53 | 0.00 | 56 | 1017.4 |
| 20260504234047 | 26 | 132 | 16.1 | 22.5 | 0.00 | 0.00 | 0.00 | 60 | 1016.5 |
| 20260504234041 | 26 | 139 | 14.5 | 22.5 | 0.00 | 0.00 | 0.00 | 58 | 1016.6 |
| 20260504234036 | 25 | 132 | 12.9 | 19.3 | 0.00 | 0.00 | 0.00 | 57 | 1016.8 |
| 20260504234031 | 26 | 124 | 17.7 | 24.1 | 0.00 | 0.00 | 0.00 | 61 | 1016.1 |
| 20260504234024 | 26 | 130 | 17.7 | 24.1 | 0.00 | 0.00 | 0.00 | 62 | 1016.2 |
| 20260504234018 | 25 | 132 | 17.7 | 22.5 | 0.00 | 0.00 | 0.00 | 59 | 1016.3 |
| 20260504234013 | 26 | 120 | 16.1 | 24.1 | 0.00 | 0.00 | 0.00 | 59 | 1016.1 |
| 20260504234008 | 26 | 129 | 16.1 | 20.9 | 0.00 | 0.00 | 0.00 | 62 | 1015.9 |
| 20260504234003 | 26 | 123 | 17.7 | 22.5 | 0.00 | 0.00 | 0.00 | 59 | 1015.9 |
| 20260504233957 | 23 | 119 | 24.1 | 30.6 | 0.00 | 0.00 | 0.00 | 72 | 1015.3 |
| 20260504233952 | 27 | 117 | 14.5 | 22.5 | 0.00 | 0.00 | 0.00 | 59 | 1015.7 |
| 20260504233948 | 26 | 109 | 17.7 | 22.5 | 0.00 | 0.00 | 0.00 | 61 | 1015.7 |
| 20260504233942 | 27 | 123 | 17.7 | 25.7 | 0.00 | 0.00 | 0.00 | 60 | 1015.7 |
| 20260504233937 | 26 | 109 | 19.3 | 29.0 | 0.00 | 0.00 | 0.00 | 62 | 1015.7 |
| 20260504233931 | 26 | 123 | 16.1 | 29.0 | 0.00 | 0.00 | 0.00 | 62 | 1015.6 |
| 20260504233925 | 26 | 111 | 19.3 | 24.1 | 0.00 | 0.00 | 0.00 | 64 | 1015.4 |
| 20260504233919 | 26 | 121 | 19.3 | 25.7 | 0.00 | 0.00 | 0.00 | 64 | 1015.5 |
| 20260504233914 | 25 | 117 | 20.9 | 32.2 | 0.00 | 0.00 | 0.00 | 68 | 1015.3 |
| 20260504233909 | 23 | 111 | 24.1 | 29.0 | 0.00 | 0.00 | 0.00 | 71 | 1015.1 |
| 20260504233903 | 23 | 106 | 24.1 | 32.2 | 0.00 | 0.00 | 0.00 | 72 | 1015.0 |
| 20260504233857 | 25 | 123 | 20.9 | 29.0 | 0.00 | 0.00 | 0.00 | 67 | 1015.2 |
| 20260504233853 | 23 | 130 | 24.1 | 33.8 | 0.00 | 0.00 | 0.00 | 73 | 1015.1 |
| 20260504233848 | 23 | 122 | 25.7 | 32.2 | 0.00 | 0.00 | 0.00 | 73 | 1015.1 |
| 20260504233842 | 26 | 123 | 19.3 | 25.7 | 0.00 | 0.00 | 0.00 | 64 | 1015.3 |
| 20260504233837 | 23 | 111 | 25.7 | 30.6 | 0.00 | 0.00 | 0.00 | 71 | 1014.9 |
| 20260504233710 | 24 | 117 | 24.1 | 32.2 | 0.00 | 0.00 | 0.00 | 70 | 1015.2 |
| 20260504233705 | 25 | 113 | 19.3 | 29.0 | 0.00 | 0.00 | 0.00 | 65 | 1015.2 |
| 20260504233659 | 25 | 132 | 20.9 | 29.0 | 0.00 | 0.00 | 0.00 | 64 | 1015.2 |
| 20260504233654 | 25 | 111 | 19.3 | 29.0 | 0.00 | 0.00 | 0.00 | 66 | 1015.3 |
| 20260504233648 | 23 | 109 | 25.7 | 33.8 | 0.00 | 0.00 | 0.00 | 74 | 1015.2 |
| 20260504233359 | 25 | 123 | 20.9 | 29.0 | 0.00 | 0.00 | 0.00 | 67 | 1015.2 |
| 20260504233355 | 23 | 122 | 25.7 | 32.2 | 0.00 | 0.00 | 0.00 | 73 | 1015.1 |
| 20260504233349 | 23 | 106 | 24.1 | 32.2 | 0.00 | 0.00 | 0.00 | 72 | 1015.0 |
| 20260504233344 | 23 | 130 | 24.1 | 33.8 | 0.00 | 0.00 | 0.00 | 73 | 1015.1 |
| 20260504233217 | 23 | 111 | 25.7 | 30.6 | 0.00 | 0.00 | 0.00 | 71 | 1014.9 |
| 20260504233051 | 23 | 109 | 25.7 | 33.8 | 0.00 | 0.00 | 0.00 | 74 | 1015.2 |
| 20260504232925 | 25 | 113 | 19.3 | 29.0 | 0.00 | 0.00 | 0.00 | 65 | 1015.2 |
| 20260504232920 | 25 | 123 | 20.9 | 29.0 | 0.00 | 0.00 | 0.00 | 67 | 1015.2 |
| 20260504232913 | 23 | 111 | 24.1 | 29.0 | 0.00 | 0.00 | 0.00 | 71 | 1015.1 |
| 20260504232747 | 25 | 132 | 20.9 | 29.0 | 0.00 | 0.00 | 0.00 | 64 | 1015.2 |
| 20260504232741 | 25 | 0.0 | 0.0 | 0.00 | 0.53 | 0.00 | 51 | 1017.8 | |
| 20260504232735 | 26 | 123 | 19.3 | 25.7 | 0.00 | 0.00 | 0.00 | 64 | 1015.3 |
| 20260504232730 | 23 | 106 | 24.1 | 32.2 | 0.00 | 0.00 | 0.00 | 72 | 1015.0 |
| 20260504232724 | 25 | 111 | 19.3 | 29.0 | 0.00 | 0.00 | 0.00 | 66 | 1015.3 |
| 20260504232720 | 25 | 0.0 | 0.0 | 0.00 | 0.53 | 0.00 | 54 | 1017.9 | |
| 20260504232715 | 23 | 130 | 24.1 | 33.8 | 0.00 | 0.00 | 0.00 | 73 | 1015.1 |
| 20260504232708 | 23 | 111 | 25.7 | 30.6 | 0.00 | 0.00 | 0.00 | 71 | 1014.9 |
| 20260504232702 | 24 | 117 | 24.1 | 32.2 | 0.00 | 0.00 | 0.00 | 70 | 1015.2 |
| 20260504232536 | 25 | 0.0 | 0.0 | 0.00 | 0.53 | 0.00 | 52 | 1017.5 | |
| 20260504232530 | 25 | 138 | 12.9 | 19.3 | 0.00 | 0.00 | 0.00 | 53 | 1016.9 |
| 20260504232525 | 25 | 140 | 14.5 | 20.9 | 0.00 | 0.00 | 0.00 | 60 | 1017.0 |
| 20260504232520 | 25 | 141 | 16.1 | 22.5 | 0.00 | 0.23 | 0.00 | 57 | 1017.0 |
| 20260504232515 | 23 | 109 | 25.7 | 33.8 | 0.00 | 0.00 | 0.00 | 74 | 1015.2 |
| 20260504232507 | 25 | 144 | 14.5 | 19.3 | 0.00 | 0.53 | 0.00 | 59 | 1017.0 |
| 20260504232502 | 25 | 132 | 16.1 | 20.9 | 0.00 | 0.53 | 0.00 | 57 | 1017.1 |
| 20260504232457 | 25 | 130 | 14.5 | 22.5 | 0.00 | 0.53 | 0.00 | 60 | 1017.2 |
| 20260504232451 | 24 | 149 | 16.1 | 22.5 | 0.00 | 0.53 | 0.00 | 56 | 1017.4 |
| 20260504232446 | 26 | 132 | 16.1 | 22.5 | 0.00 | 0.00 | 0.00 | 60 | 1016.5 |
| 20260504232440 | 26 | 139 | 14.5 | 22.5 | 0.00 | 0.00 | 0.00 | 58 | 1016.6 |
| 20260504232435 | 25 | 132 | 12.9 | 19.3 | 0.00 | 0.00 | 0.00 | 57 | 1016.8 |
| 20260504232430 | 26 | 124 | 17.7 | 24.1 | 0.00 | 0.00 | 0.00 | 61 | 1016.1 |
| 20260504232425 | 26 | 130 | 17.7 | 24.1 | 0.00 | 0.00 | 0.00 | 62 | 1016.2 |
| 20260504232419 | 25 | 132 | 17.7 | 22.5 | 0.00 | 0.00 | 0.00 | 59 | 1016.3 |
| 20260504232414 | 25 | 123 | 20.9 | 29.0 | 0.00 | 0.00 | 0.00 | 67 | 1015.2 |
| 20260504232407 | 26 | 120 | 16.1 | 24.1 | 0.00 | 0.00 | 0.00 | 59 | 1016.1 |
| 20260504232403 | 26 | 129 | 16.1 | 20.9 | 0.00 | 0.00 | 0.00 | 62 | 1015.9 |
| 20260504232357 | 26 | 123 | 17.7 | 22.5 | 0.00 | 0.00 | 0.00 | 59 | 1015.9 |
| 20260504232352 | 27 | 117 | 14.5 | 22.5 | 0.00 | 0.00 | 0.00 | 59 | 1015.7 |
| 20260504232347 | 26 | 109 | 17.7 | 22.5 | 0.00 | 0.00 | 0.00 | 61 | 1015.7 |
| 20260504232342 | 27 | 123 | 17.7 | 25.7 | 0.00 | 0.00 | 0.00 | 60 | 1015.7 |
| 20260504232336 | 26 | 109 | 19.3 | 29.0 | 0.00 | 0.00 | 0.00 | 62 | 1015.7 |
| 20260504232330 | 26 | 123 | 16.1 | 29.0 | 0.00 | 0.00 | 0.00 | 62 | 1015.6 |
| 20260504232325 | 26 | 111 | 19.3 | 24.1 | 0.00 | 0.00 | 0.00 | 64 | 1015.4 |
| 20260504232319 | 26 | 121 | 19.3 | 25.7 | 0.00 | 0.00 | 0.00 | 64 | 1015.5 |
| 20260504232314 | 23 | 122 | 25.7 | 32.2 | 0.00 | 0.00 | 0.00 | 73 | 1015.1 |
| 20260504232307 | 25 | 117 | 20.9 | 32.2 | 0.00 | 0.00 | 0.00 | 68 | 1015.3 |
| 20260504232303 | 23 | 111 | 24.1 | 29.0 | 0.00 | 0.00 | 0.00 | 71 | 1015.1 |
| 20260504232256 | 26 | 123 | 19.3 | 25.7 | 0.00 | 0.00 | 0.00 | 64 | 1015.3 |
| 20260504232250 | 26 | 103 | 20.9 | 32.2 | 0.00 | 0.00 | 0.00 | 64 | 1015.2 |
| 20260504232246 | 25 | 113 | 19.3 | 29.0 | 0.00 | 0.00 | 0.00 | 65 | 1015.2 |
| 20260504232241 | 25 | 132 | 20.9 | 29.0 | 0.00 | 0.00 | 0.00 | 64 | 1015.2 |
| 20260504232235 | 25 | 111 | 19.3 | 29.0 | 0.00 | 0.00 | 0.00 | 66 | 1015.3 |
| 20260504232229 | 23 | 106 | 24.1 | 32.2 | 0.00 | 0.00 | 0.00 | 72 | 1015.0 |
| 20260504232224 | 23 | 111 | 25.7 | 30.6 | 0.00 | 0.00 | 0.00 | 71 | 1014.9 |
| 20260504232218 | 23 | 130 | 24.1 | 33.8 | 0.00 | 0.00 | 0.00 | 73 | 1015.1 |
| 20260504231810 | 23 | 122 | 25.7 | 32.2 | 0.00 | 0.00 | 0.00 | 73 | 1015.1 |
| 20260504231643 | 23 | 106 | 24.1 | 32.2 | 0.00 | 0.00 | 0.00 | 72 | 1015.0 |
| 20260504231637 | 25 | 113 | 19.3 | 29.0 | 0.00 | 0.00 | 0.00 | 65 | 1015.2 |
| 20260504231632 | 25 | 111 | 19.3 | 29.0 | 0.00 | 0.00 | 0.00 | 66 | 1015.3 |
| 20260504231626 | 23 | 111 | 25.7 | 30.6 | 0.00 | 0.00 | 0.00 | 71 | 1014.9 |
| 20260504231608 | 23 | 130 | 24.1 | 33.8 | 0.00 | 0.00 | 0.00 | 73 | 1015.1 |
| 20260504231332 | 25 | 132 | 20.9 | 29.0 | 0.00 | 0.00 | 0.00 | 64 | 1015.2 |
| 20260504231327 | 25 | 123 | 20.9 | 29.0 | 0.00 | 0.00 | 0.00 | 67 | 1015.2 |
| 20260504231322 | 23 | 111 | 24.1 | 29.0 | 0.00 | 0.00 | 0.00 | 71 | 1015.1 |
| 20260504231317 | 23 | 122 | 25.7 | 32.2 | 0.00 | 0.00 | 0.00 | 73 | 1015.1 |
| 20260504231030 | 23 | 111 | 25.7 | 30.6 | 0.00 | 0.00 | 0.00 | 71 | 1014.9 |
| 20260504230901 | 26 | 123 | 16.1 | 29.0 | 0.00 | 0.00 | 0.00 | 62 | 1015.6 |
| 20260504230855 | 25 | 113 | 19.3 | 29.0 | 0.00 | 0.00 | 0.00 | 65 | 1015.2 |
| 20260504230849 | 24 | 117 | 24.1 | 32.2 | 0.00 | 0.00 | 0.00 | 70 | 1015.2 |
| 20260504230845 | 26 | 111 | 19.3 | 24.1 | 0.00 | 0.00 | 0.00 | 64 | 1015.4 |
| 20260504230719 | 25 | 123 | 20.9 | 29.0 | 0.00 | 0.00 | 0.00 | 67 | 1015.2 |
| 20260504230714 | 23 | 111 | 24.1 | 29.0 | 0.00 | 0.00 | 0.00 | 71 | 1015.1 |
| 20260504230708 | 26 | 123 | 19.3 | 25.7 | 0.00 | 0.00 | 0.00 | 64 | 1015.3 |
| 20260504230704 | 25 | 117 | 20.9 | 32.2 | 0.00 | 0.00 | 0.00 | 68 | 1015.3 |
| 20260504230657 | 26 | 103 | 20.9 | 32.2 | 0.00 | 0.00 | 0.00 | 64 | 1015.2 |
| 20260504230651 | 23 | 122 | 25.7 | 32.2 | 0.00 | 0.00 | 0.00 | 73 | 1015.1 |
| 20260504230646 | 23 | 106 | 24.1 | 32.2 | 0.00 | 0.00 | 0.00 | 72 | 1015.0 |
| 20260504230521 | 23 | 111 | 25.7 | 30.6 | 0.00 | 0.00 | 0.00 | 71 | 1014.9 |
| 20260504230354 | 25 | 113 | 19.3 | 29.0 | 0.00 | 0.00 | 0.00 | 65 | 1015.2 |
| 20260504230349 | 24 | 117 | 24.1 | 32.2 | 0.00 | 0.00 | 0.00 | 70 | 1015.2 |
| 20260504230220 | 23 | 111 | 24.1 | 29.0 | 0.00 | 0.00 | 0.00 | 71 | 1015.1 |
| 20260504230052 | 23 | 122 | 25.7 | 32.2 | 0.00 | 0.00 | 0.00 | 73 | 1015.1 |
| 20260504230046 | 23 | 106 | 24.1 | 32.2 | 0.00 | 0.00 | 0.00 | 72 | 1015.0 |
| 20260504230041 | 25 | 140 | 14.5 | 20.9 | 0.00 | 0.00 | 0.00 | 60 | 1017.0 |
| 20260504230035 | 25 | 141 | 16.1 | 22.5 | 0.00 | 0.23 | 0.00 | 57 | 1017.0 |
| 20260504230030 | 25 | 144 | 14.5 | 19.3 | 0.00 | 0.53 | 0.00 | 59 | 1017.0 |
| 20260504230024 | 26 | 124 | 17.7 | 24.1 | 0.00 | 0.00 | 0.00 | 61 | 1016.1 |
| 20260504230020 | 25 | 111 | 19.3 | 29.0 | 0.00 | 0.00 | 0.00 | 66 | 1015.3 |
| 20260504225853 | 25 | 132 | 17.7 | 22.5 | 0.00 | 0.00 | 0.00 | 59 | 1016.3 |
| 20260504225848 | 26 | 120 | 16.1 | 24.1 | 0.00 | 0.00 | 0.00 | 59 | 1016.1 |
| 20260504225843 | 24 | 117 | 24.1 | 32.2 | 0.00 | 0.00 | 0.00 | 70 | 1015.2 |
| 20260504225716 | 26 | 123 | 17.7 | 22.5 | 0.00 | 0.00 | 0.00 | 59 | 1015.9 |
| 20260504225711 | 27 | 117 | 14.5 | 22.5 | 0.00 | 0.00 | 0.00 | 59 | 1015.7 |
| 20260504225705 | 26 | 109 | 17.7 | 22.5 | 0.00 | 0.00 | 0.00 | 61 | 1015.7 |
| 20260504225700 | 27 | 123 | 17.7 | 25.7 | 0.00 | 0.00 | 0.00 | 60 | 1015.7 |
| 20260504225653 | 26 | 109 | 19.3 | 29.0 | 0.00 | 0.00 | 0.00 | 62 | 1015.7 |
| 20260504225649 | 26 | 123 | 16.1 | 29.0 | 0.00 | 0.00 | 0.00 | 62 | 1015.6 |
| 20260504225644 | 26 | 111 | 19.3 | 24.1 | 0.00 | 0.00 | 0.00 | 64 | 1015.4 |
| 20260504225639 | 26 | 121 | 19.3 | 25.7 | 0.00 | 0.00 | 0.00 | 64 | 1015.5 |
| 20260504225633 | 26 | 123 | 19.3 | 25.7 | 0.00 | 0.00 | 0.00 | 64 | 1015.3 |
| 20260504225628 | 23 | 111 | 24.1 | 29.0 | 0.00 | 0.00 | 0.00 | 71 | 1015.1 |
| 20260504225622 | 25 | 117 | 20.9 | 32.2 | 0.00 | 0.00 | 0.00 | 68 | 1015.3 |
| 20260504225618 | 26 | 103 | 20.9 | 32.2 | 0.00 | 0.00 | 0.00 | 64 | 1015.2 |
| 20260504225612 | 25 | 132 | 20.9 | 29.0 | 0.00 | 0.00 | 0.00 | 64 | 1015.2 |
| 20260504225607 | 25 | 113 | 19.3 | 29.0 | 0.00 | 0.00 | 0.00 | 65 | 1015.2 |
| 20260504225602 | 25 | 123 | 20.9 | 29.0 | 0.00 | 0.00 | 0.00 | 67 | 1015.2 |
| 20260504225554 | 23 | 122 | 25.7 | 32.2 | 0.00 | 0.00 | 0.00 | 73 | 1015.1 |
| 20260504225542 | 23 | 106 | 24.1 | 32.2 | 0.00 | 0.00 | 0.00 | 72 | 1015.0 |
| 20260504225017 | 25 | 39 | 12.9 | 19.3 | 0.00 | 0.53 | 0.00 | 51 | 1018.1 |
| 20260504225012 | 26 | 111 | 19.3 | 24.1 | 0.00 | 0.00 | 0.00 | 64 | 1015.4 |
| 20260504225008 | 25 | 117 | 20.9 | 32.2 | 0.00 | 0.00 | 0.00 | 68 | 1015.3 |
| 20260504225002 | 23 | 122 | 25.7 | 32.2 | 0.00 | 0.00 | 0.00 | 73 | 1015.1 |
| 20260504224958 | 25 | 132 | 20.9 | 29.0 | 0.00 | 0.00 | 0.00 | 64 | 1015.2 |
| 20260504224952 | 24 | 0.0 | 0.0 | 0.00 | 0.53 | 0.00 | 49 | 1017.9 | |
| 20260504224945 | 26 | 103 | 20.9 | 32.2 | 0.00 | 0.00 | 0.00 | 64 | 1015.2 |
| 20260504224940 | 25 | 113 | 19.3 | 29.0 | 0.00 | 0.00 | 0.00 | 65 | 1015.2 |
| 20260504224934 | 24 | 0.0 | 4.8 | 0.00 | 0.53 | 0.00 | 49 | 1017.9 | |
| 20260504224930 | 25 | 111 | 19.3 | 29.0 | 0.00 | 0.00 | 0.00 | 66 | 1015.3 |
| 20260504224925 | 25 | 123 | 20.9 | 29.0 | 0.00 | 0.00 | 0.00 | 67 | 1015.2 |
| 20260504224919 | 24 | 0.0 | 0.0 | 0.00 | 0.53 | 0.00 | 49 | 1017.9 | |
| 20260504224913 | 24 | 0.0 | 0.0 | 0.00 | 0.53 | 0.00 | 50 | 1017.8 | |
| 20260504224908 | 26 | 0.0 | 0.0 | 0.00 | 0.53 | 0.00 | 56 | 1017.6 | |
| 20260504224902 | 25 | 0.0 | 0.0 | 0.00 | 0.53 | 0.00 | 51 | 1017.8 | |
| 20260504224858 | 25 | 0.0 | 0.0 | 0.00 | 0.53 | 0.00 | 54 | 1017.9 | |
| 20260504224852 | 25 | 0.0 | 0.0 | 0.00 | 0.53 | 0.00 | 57 | 1017.4 | |
| 20260504224846 | 25 | 0.0 | 0.0 | 0.00 | 0.53 | 0.00 | 52 | 1017.5 | |
| 20260504224840 | 25 | 132 | 16.1 | 20.9 | 0.00 | 0.53 | 0.00 | 57 | 1017.1 |
| 20260504224834 | 25 | 130 | 14.5 | 22.5 | 0.00 | 0.53 | 0.00 | 60 | 1017.2 |
| 20260504224829 | 24 | 149 | 16.1 | 22.5 | 0.00 | 0.53 | 0.00 | 56 | 1017.4 |
| 20260504224823 | 26 | 132 | 16.1 | 22.5 | 0.00 | 0.00 | 0.00 | 60 | 1016.5 |
| 20260504224819 | 25 | 132 | 12.9 | 19.3 | 0.00 | 0.00 | 0.00 | 57 | 1016.8 |
| 20260504224815 | 25 | 138 | 12.9 | 19.3 | 0.00 | 0.00 | 0.00 | 53 | 1016.9 |
| 20260504224809 | 26 | 124 | 17.7 | 24.1 | 0.00 | 0.00 | 0.00 | 61 | 1016.1 |
| 20260504224804 | 24 | 117 | 24.1 | 32.2 | 0.00 | 0.00 | 0.00 | 70 | 1015.2 |
| 20260504224759 | 26 | 130 | 17.7 | 24.1 | 0.00 | 0.00 | 0.00 | 62 | 1016.2 |
| 20260504224753 | 25 | 132 | 17.7 | 22.5 | 0.00 | 0.00 | 0.00 | 59 | 1016.3 |
| 20260504224625 | 26 | 123 | 17.7 | 22.5 | 0.00 | 0.00 | 0.00 | 59 | 1015.9 |
| 20260504224620 | 26 | 109 | 17.7 | 22.5 | 0.00 | 0.00 | 0.00 | 61 | 1015.7 |
| 20260504224614 | 27 | 117 | 14.5 | 22.5 | 0.00 | 0.00 | 0.00 | 59 | 1015.7 |
| 20260504224608 | 26 | 109 | 19.3 | 29.0 | 0.00 | 0.00 | 0.00 | 62 | 1015.7 |
| 20260504224604 | 26 | 120 | 16.1 | 24.1 | 0.00 | 0.00 | 0.00 | 59 | 1016.1 |
| 20260504224559 | 27 | 123 | 17.7 | 25.7 | 0.00 | 0.00 | 0.00 | 60 | 1015.7 |
| 20260504224553 | 25 | 140 | 14.5 | 20.9 | 0.00 | 0.00 | 0.00 | 60 | 1017.0 |
| 20260504224548 | 25 | 141 | 16.1 | 22.5 | 0.00 | 0.23 | 0.00 | 57 | 1017.0 |
| 20260504224542 | 26 | 121 | 19.3 | 25.7 | 0.00 | 0.00 | 0.00 | 64 | 1015.5 |
| 20260504224535 | 23 | 111 | 24.1 | 29.0 | 0.00 | 0.00 | 0.00 | 71 | 1015.1 |
| 20260504224530 | 26 | 123 | 19.3 | 25.7 | 0.00 | 0.00 | 0.00 | 64 | 1015.3 |
| 20260504224524 | 25 | 144 | 14.5 | 19.3 | 0.00 | 0.53 | 0.00 | 59 | 1017.0 |
| 20260504224519 | 26 | 139 | 14.5 | 22.5 | 0.00 | 0.00 | 0.00 | 58 | 1016.6 |
| 20260504224513 | 26 | 123 | 16.1 | 29.0 | 0.00 | 0.00 | 0.00 | 62 | 1015.6 |
| 20260504224509 | 23 | 122 | 25.7 | 32.2 | 0.00 | 0.00 | 0.00 | 73 | 1015.1 |
| 20260504224503 | 26 | 111 | 19.3 | 24.1 | 0.00 | 0.00 | 0.00 | 64 | 1015.4 |
| 20260504224458 | 25 | 117 | 20.9 | 32.2 | 0.00 | 0.00 | 0.00 | 68 | 1015.3 |
| 20260504224454 | 26 | 103 | 20.9 | 32.2 | 0.00 | 0.00 | 0.00 | 64 | 1015.2 |
| 20260504224448 | 25 | 113 | 19.3 | 29.0 | 0.00 | 0.00 | 0.00 | 65 | 1015.2 |
| 20260504224443 | 25 | 132 | 20.9 | 29.0 | 0.00 | 0.00 | 0.00 | 64 | 1015.2 |
| 20260504224435 | 25 | 111 | 19.3 | 29.0 | 0.00 | 0.00 | 0.00 | 66 | 1015.3 |
| 20260504224431 | 25 | 123 | 20.9 | 29.0 | 0.00 | 0.00 | 0.00 | 67 | 1015.2 |
| 20260504224145 | 26 | 130 | 17.7 | 24.1 | 0.00 | 0.00 | 0.00 | 62 | 1016.2 |
| 20260504224136 | 25 | 132 | 17.7 | 22.5 | 0.00 | 0.00 | 0.00 | 59 | 1016.3 |
| 20260504224132 | 26 | 120 | 16.1 | 24.1 | 0.00 | 0.00 | 0.00 | 59 | 1016.1 |
| 20260504224128 | 26 | 129 | 16.1 | 20.9 | 0.00 | 0.00 | 0.00 | 62 | 1015.9 |
| 20260504224122 | 26 | 123 | 17.7 | 22.5 | 0.00 | 0.00 | 0.00 | 59 | 1015.9 |
| 20260504224116 | 27 | 117 | 14.5 | 22.5 | 0.00 | 0.00 | 0.00 | 59 | 1015.7 |
| 20260504224112 | 26 | 109 | 17.7 | 22.5 | 0.00 | 0.00 | 0.00 | 61 | 1015.7 |
| 20260504224107 | 27 | 123 | 17.7 | 25.7 | 0.00 | 0.00 | 0.00 | 60 | 1015.7 |
| 20260504224101 | 26 | 109 | 19.3 | 29.0 | 0.00 | 0.00 | 0.00 | 62 | 1015.7 |
| 20260504224056 | 23 | 111 | 24.1 | 29.0 | 0.00 | 0.00 | 0.00 | 71 | 1015.1 |
| 20260504224050 | 26 | 121 | 19.3 | 25.7 | 0.00 | 0.00 | 0.00 | 64 | 1015.5 |
| 20260504224046 | 26 | 123 | 19.3 | 25.7 | 0.00 | 0.00 | 0.00 | 64 | 1015.3 |
| 20260504223757 | 26 | 111 | 19.3 | 24.1 | 0.00 | 0.00 | 0.00 | 64 | 1015.4 |
| 20260504223751 | 25 | 117 | 20.9 | 32.2 | 0.00 | 0.00 | 0.00 | 68 | 1015.3 |
| 20260504223746 | 25 | 111 | 19.3 | 29.0 | 0.00 | 0.00 | 0.00 | 66 | 1015.3 |
| 20260504223740 | 26 | 103 | 20.9 | 32.2 | 0.00 | 0.00 | 0.00 | 64 | 1015.2 |
| 20260504223734 | 25 | 132 | 20.9 | 29.0 | 0.00 | 0.00 | 0.00 | 64 | 1015.2 |
| 20260504223727 | 25 | 123 | 20.9 | 29.0 | 0.00 | 0.00 | 0.00 | 67 | 1015.2 |
| 20260504223722 | 24 | 117 | 24.1 | 32.2 | 0.00 | 0.00 | 0.00 | 70 | 1015.2 |
| 20260504223435 | 26 | 132 | 16.1 | 22.5 | 0.00 | 0.00 | 0.00 | 60 | 1016.5 |
| 20260504223426 | 26 | 121 | 19.3 | 25.7 | 0.00 | 0.00 | 0.00 | 64 | 1015.5 |
| 20260504223422 | 25 | 132 | 12.9 | 19.3 | 0.00 | 0.00 | 0.00 | 57 | 1016.8 |
| 20260504223417 | 25 | 138 | 12.9 | 19.3 | 0.00 | 0.00 | 0.00 | 53 | 1016.9 |
| 20260504223411 | 26 | 139 | 14.5 | 22.5 | 0.00 | 0.00 | 0.00 | 58 | 1016.6 |
| 20260504223407 | 26 | 124 | 17.7 | 24.1 | 0.00 | 0.00 | 0.00 | 61 | 1016.1 |
| 20260504223402 | 26 | 130 | 17.7 | 24.1 | 0.00 | 0.00 | 0.00 | 62 | 1016.2 |
| 20260504223356 | 26 | 123 | 19.3 | 25.7 | 0.00 | 0.00 | 0.00 | 64 | 1015.3 |
| 20260504223352 | 25 | 113 | 19.3 | 29.0 | 0.00 | 0.00 | 0.00 | 65 | 1015.2 |
| 20260504223224 | 25 | 111 | 19.3 | 29.0 | 0.00 | 0.00 | 0.00 | 66 | 1015.3 |
| 20260504223219 | 26 | 120 | 16.1 | 24.1 | 0.00 | 0.00 | 0.00 | 59 | 1016.1 |
| 20260504223053 | 26 | 123 | 17.7 | 22.5 | 0.00 | 0.00 | 0.00 | 59 | 1015.9 |
| 20260504223047 | 25 | 117 | 20.9 | 32.2 | 0.00 | 0.00 | 0.00 | 68 | 1015.3 |
| 20260504223043 | 27 | 117 | 14.5 | 22.5 | 0.00 | 0.00 | 0.00 | 59 | 1015.7 |
| 20260504223037 | 26 | 109 | 17.7 | 22.5 | 0.00 | 0.00 | 0.00 | 61 | 1015.7 |
| 20260504223032 | 27 | 123 | 17.7 | 25.7 | 0.00 | 0.00 | 0.00 | 60 | 1015.7 |
| 20260504223026 | 26 | 103 | 20.9 | 32.2 | 0.00 | 0.00 | 0.00 | 64 | 1015.2 |
| 20260504223019 | 26 | 109 | 19.3 | 29.0 | 0.00 | 0.00 | 0.00 | 62 | 1015.7 |
| 20260504223014 | 25 | 132 | 20.9 | 29.0 | 0.00 | 0.00 | 0.00 | 64 | 1015.2 |
| 20260504223008 | 24 | 117 | 24.1 | 32.2 | 0.00 | 0.00 | 0.00 | 70 | 1015.2 |
| 20260504223003 | 26 | 123 | 16.1 | 29.0 | 0.00 | 0.00 | 0.00 | 62 | 1015.6 |
| 20260504222958 | 25 | 123 | 20.9 | 29.0 | 0.00 | 0.00 | 0.00 | 67 | 1015.2 |
| 20260504222953 | 26 | 111 | 19.3 | 24.1 | 0.00 | 0.00 | 0.00 | 64 | 1015.4 |
| 20260504222947 | 26 | 121 | 19.3 | 25.7 | 0.00 | 0.00 | 0.00 | 64 | 1015.5 |
| 20260504222821 | 25 | 113 | 19.3 | 29.0 | 0.00 | 0.00 | 0.00 | 65 | 1015.2 |
| 20260504222535 | 26 | 103 | 20.9 | 32.2 | 0.00 | 0.00 | 0.00 | 64 | 1015.2 |
| 20260504222529 | 25 | 132 | 20.9 | 29.0 | 0.00 | 0.00 | 0.00 | 64 | 1015.2 |
| 20260504222523 | 25 | 123 | 20.9 | 29.0 | 0.00 | 0.00 | 0.00 | 67 | 1015.2 |
| 20260504222515 | 24 | 117 | 24.1 | 32.2 | 0.00 | 0.00 | 0.00 | 70 | 1015.2 |
| 20260504222350 | 25 | 130 | 14.5 | 22.5 | 0.00 | 0.53 | 0.00 | 60 | 1017.2 |
| 20260504222345 | 25 | 140 | 14.5 | 20.9 | 0.00 | 0.00 | 0.00 | 60 | 1017.0 |
| 20260504222339 | 26 | 111 | 19.3 | 24.1 | 0.00 | 0.00 | 0.00 | 64 | 1015.4 |
| 20260504222213 | 25 | 113 | 19.3 | 29.0 | 0.00 | 0.00 | 0.00 | 65 | 1015.2 |
| 20260504222209 | 25 | 144 | 14.5 | 19.3 | 0.00 | 0.53 | 0.00 | 59 | 1017.0 |
| 20260504222203 | 25 | 111 | 19.3 | 29.0 | 0.00 | 0.00 | 0.00 | 66 | 1015.3 |
| 20260504222158 | 25 | 132 | 16.1 | 20.9 | 0.00 | 0.53 | 0.00 | 57 | 1017.1 |
| 20260504222152 | 26 | 132 | 16.1 | 22.5 | 0.00 | 0.00 | 0.00 | 60 | 1016.5 |
| 20260504222146 | 25 | 132 | 12.9 | 19.3 | 0.00 | 0.00 | 0.00 | 57 | 1016.8 |
| 20260504222142 | 25 | 138 | 12.9 | 19.3 | 0.00 | 0.00 | 0.00 | 53 | 1016.9 |
| 20260504222136 | 26 | 139 | 14.5 | 22.5 | 0.00 | 0.00 | 0.00 | 58 | 1016.6 |
| 20260504222131 | 26 | 124 | 17.7 | 24.1 | 0.00 | 0.00 | 0.00 | 61 | 1016.1 |
| 20260504222126 | 26 | 130 | 17.7 | 24.1 | 0.00 | 0.00 | 0.00 | 62 | 1016.2 |
| 20260504222121 | 25 | 132 | 17.7 | 22.5 | 0.00 | 0.00 | 0.00 | 59 | 1016.3 |
| 20260504222116 | 26 | 120 | 16.1 | 24.1 | 0.00 | 0.00 | 0.00 | 59 | 1016.1 |
| 20260504222109 | 26 | 129 | 16.1 | 20.9 | 0.00 | 0.00 | 0.00 | 62 | 1015.9 |
| 20260504222105 | 26 | 123 | 17.7 | 22.5 | 0.00 | 0.00 | 0.00 | 59 | 1015.9 |
| 20260504222059 | 27 | 123 | 17.7 | 25.7 | 0.00 | 0.00 | 0.00 | 60 | 1015.7 |
| 20260504222053 | 27 | 117 | 14.5 | 22.5 | 0.00 | 0.00 | 0.00 | 59 | 1015.7 |
| 20260504222048 | 26 | 109 | 17.7 | 22.5 | 0.00 | 0.00 | 0.00 | 61 | 1015.7 |
| 20260504222044 | 26 | 109 | 19.3 | 29.0 | 0.00 | 0.00 | 0.00 | 62 | 1015.7 |
| 20260504222038 | 26 | 123 | 16.1 | 29.0 | 0.00 | 0.00 | 0.00 | 62 | 1015.6 |
| 20260504222033 | 26 | 121 | 19.3 | 25.7 | 0.00 | 0.00 | 0.00 | 64 | 1015.5 |
| 20260504222027 | 26 | 123 | 19.3 | 25.7 | 0.00 | 0.00 | 0.00 | 64 | 1015.3 |
| 20260504222023 | 25 | 117 | 20.9 | 32.2 | 0.00 | 0.00 | 0.00 | 68 | 1015.3 |
| 20260504222017 | 26 | 103 | 20.9 | 32.2 | 0.00 | 0.00 | 0.00 | 64 | 1015.2 |
| 20260504222012 | 25 | 123 | 20.9 | 29.0 | 0.00 | 0.00 | 0.00 | 67 | 1015.2 |
| 20260504221846 | 25 | 132 | 20.9 | 29.0 | 0.00 | 0.00 | 0.00 | 64 | 1015.2 |
| 20260504221721 | 25 | 111 | 19.3 | 29.0 | 0.00 | 0.00 | 0.00 | 66 | 1015.3 |
| 20260504221553 | 26 | 120 | 16.1 | 24.1 | 0.00 | 0.00 | 0.00 | 59 | 1016.1 |
| 20260504221547 | 26 | 129 | 16.1 | 20.9 | 0.00 | 0.00 | 0.00 | 62 | 1015.9 |
| 20260504221542 | 26 | 123 | 17.7 | 22.5 | 0.00 | 0.00 | 0.00 | 59 | 1015.9 |
| 20260504221537 | 27 | 117 | 14.5 | 22.5 | 0.00 | 0.00 | 0.00 | 59 | 1015.7 |
| 20260504221532 | 26 | 109 | 17.7 | 22.5 | 0.00 | 0.00 | 0.00 | 61 | 1015.7 |
| 20260504221527 | 27 | 123 | 17.7 | 25.7 | 0.00 | 0.00 | 0.00 | 60 | 1015.7 |
| 20260504221521 | 26 | 109 | 19.3 | 29.0 | 0.00 | 0.00 | 0.00 | 62 | 1015.7 |
| 20260504221516 | 26 | 123 | 16.1 | 29.0 | 0.00 | 0.00 | 0.00 | 62 | 1015.6 |
| 20260504221510 | 25 | 123 | 20.9 | 29.0 | 0.00 | 0.00 | 0.00 | 67 | 1015.2 |
| 20260504221505 | 26 | 121 | 19.3 | 25.7 | 0.00 | 0.00 | 0.00 | 64 | 1015.5 |
| 20260504221458 | 26 | 123 | 19.3 | 25.7 | 0.00 | 0.00 | 0.00 | 64 | 1015.3 |
| 20260504221452 | 25 | 117 | 20.9 | 32.2 | 0.00 | 0.00 | 0.00 | 68 | 1015.3 |
| 20260504221447 | 26 | 103 | 20.9 | 32.2 | 0.00 | 0.00 | 0.00 | 64 | 1015.2 |
| 20260504221324 | 25 | 132 | 20.9 | 29.0 | 0.00 | 0.00 | 0.00 | 64 | 1015.2 |
| 20260504221157 | 25 | 111 | 19.3 | 29.0 | 0.00 | 0.00 | 0.00 | 66 | 1015.3 |
| 20260504221030 | 25 | 141 | 16.1 | 22.5 | 0.00 | 0.23 | 0.00 | 57 | 1017.0 |
| 20260504221025 | 25 | 144 | 14.5 | 19.3 | 0.00 | 0.53 | 0.00 | 59 | 1017.0 |
| 20260504221020 | 26 | 132 | 16.1 | 22.5 | 0.00 | 0.00 | 0.00 | 60 | 1016.5 |
| 20260504221014 | 25 | 132 | 12.9 | 19.3 | 0.00 | 0.00 | 0.00 | 57 | 1016.8 |
| 20260504221009 | 25 | 138 | 12.9 | 19.3 | 0.00 | 0.00 | 0.00 | 53 | 1016.9 |
| 20260504221004 | 26 | 139 | 14.5 | 22.5 | 0.00 | 0.00 | 0.00 | 58 | 1016.6 |
| 20260504220957 | 26 | 130 | 17.7 | 24.1 | 0.00 | 0.00 | 0.00 | 62 | 1016.2 |
| 20260504220952 | 25 | 132 | 17.7 | 22.5 | 0.00 | 0.00 | 0.00 | 59 | 1016.3 |
| 20260504220946 | 26 | 124 | 17.7 | 24.1 | 0.00 | 0.00 | 0.00 | 61 | 1016.1 |
| 20260504220941 | 26 | 120 | 16.1 | 24.1 | 0.00 | 0.00 | 0.00 | 59 | 1016.1 |
| 20260504220937 | 26 | 123 | 17.7 | 22.5 | 0.00 | 0.00 | 0.00 | 59 | 1015.9 |
| 20260504220931 | 26 | 129 | 16.1 | 20.9 | 0.00 | 0.00 | 0.00 | 62 | 1015.9 |
| 20260504220927 | 27 | 123 | 17.7 | 25.7 | 0.00 | 0.00 | 0.00 | 60 | 1015.7 |
| 20260504220921 | 27 | 117 | 14.5 | 22.5 | 0.00 | 0.00 | 0.00 | 59 | 1015.7 |
| 20260504220916 | 26 | 109 | 19.3 | 29.0 | 0.00 | 0.00 | 0.00 | 62 | 1015.7 |
| 20260504220910 | 26 | 123 | 16.1 | 29.0 | 0.00 | 0.00 | 0.00 | 62 | 1015.6 |
| 20260504220905 | 25 | 117 | 20.9 | 32.2 | 0.00 | 0.00 | 0.00 | 68 | 1015.3 |
| 20260504220857 | 26 | 123 | 19.3 | 25.7 | 0.00 | 0.00 | 0.00 | 64 | 1015.3 |
| 20260504220852 | 26 | 109 | 17.7 | 22.5 | 0.00 | 0.00 | 0.00 | 61 | 1015.7 |
| 20260504220846 | 26 | 121 | 19.3 | 25.7 | 0.00 | 0.00 | 0.00 | 64 | 1015.5 |
| 20260504220842 | 26 | 103 | 20.9 | 32.2 | 0.00 | 0.00 | 0.00 | 64 | 1015.2 |
| 20260504220714 | 25 | 132 | 20.9 | 29.0 | 0.00 | 0.00 | 0.00 | 64 | 1015.2 |
| 20260504220710 | 25 | 113 | 19.3 | 29.0 | 0.00 | 0.00 | 0.00 | 65 | 1015.2 |
| 20260504220423 | 27 | 123 | 17.7 | 25.7 | 0.00 | 0.00 | 0.00 | 60 | 1015.7 |
| 20260504220417 | 26 | 109 | 19.3 | 29.0 | 0.00 | 0.00 | 0.00 | 62 | 1015.7 |
| 20260504220413 | 26 | 123 | 19.3 | 25.7 | 0.00 | 0.00 | 0.00 | 64 | 1015.3 |
| 20260504220408 | 26 | 123 | 16.1 | 29.0 | 0.00 | 0.00 | 0.00 | 62 | 1015.6 |
| 20260504220402 | 25 | 117 | 20.9 | 32.2 | 0.00 | 0.00 | 0.00 | 68 | 1015.3 |
| 20260504220112 | 26 | 111 | 19.3 | 24.1 | 0.00 | 0.00 | 0.00 | 64 | 1015.4 |
| 20260504220108 | 25 | 132 | 20.9 | 29.0 | 0.00 | 0.00 | 0.00 | 64 | 1015.2 |
| 20260504215935 | 26 | 123 | 19.3 | 25.7 | 0.00 | 0.00 | 0.00 | 64 | 1015.3 |
| 20260504215810 | 25 | 117 | 20.9 | 32.2 | 0.00 | 0.00 | 0.00 | 68 | 1015.3 |
| 20260504215641 | 26 | 109 | 19.3 | 29.0 | 0.00 | 0.00 | 0.00 | 62 | 1015.7 |
| 20260504215636 | 26 | 103 | 20.9 | 32.2 | 0.00 | 0.00 | 0.00 | 64 | 1015.2 |
| 20260504215632 | 25 | 130 | 14.5 | 22.5 | 0.00 | 0.53 | 0.00 | 60 | 1017.2 |
| 20260504215626 | 25 | 132 | 16.1 | 20.9 | 0.00 | 0.53 | 0.00 | 57 | 1017.1 |
| 20260504215621 | 25 | 132 | 20.9 | 29.0 | 0.00 | 0.00 | 0.00 | 64 | 1015.2 |
| 20260504215616 | 25 | 140 | 14.5 | 20.9 | 0.00 | 0.00 | 0.00 | 60 | 1017.0 |
| 20260504215611 | 25 | 141 | 16.1 | 22.5 | 0.00 | 0.23 | 0.00 | 57 | 1017.0 |
| 20260504215605 | 26 | 123 | 16.1 | 29.0 | 0.00 | 0.00 | 0.00 | 62 | 1015.6 |
| 20260504215600 | 26 | 121 | 19.3 | 25.7 | 0.00 | 0.00 | 0.00 | 64 | 1015.5 |
| 20260504215554 | 26 | 111 | 19.3 | 24.1 | 0.00 | 0.00 | 0.00 | 64 | 1015.4 |
| 20260504215539 | 25 | 113 | 19.3 | 29.0 | 0.00 | 0.00 | 0.00 | 65 | 1015.2 |
| 20260504215422 | 26 | 132 | 16.1 | 22.5 | 0.00 | 0.00 | 0.00 | 60 | 1016.5 |
| 20260504215417 | 25 | 132 | 12.9 | 19.3 | 0.00 | 0.00 | 0.00 | 57 | 1016.8 |
| 20260504215412 | 25 | 138 | 12.9 | 19.3 | 0.00 | 0.00 | 0.00 | 53 | 1016.9 |
| 20260504215407 | 26 | 139 | 14.5 | 22.5 | 0.00 | 0.00 | 0.00 | 58 | 1016.6 |
| 20260504215402 | 26 | 130 | 17.7 | 24.1 | 0.00 | 0.00 | 0.00 | 62 | 1016.2 |
| 20260504215357 | 25 | 132 | 17.7 | 22.5 | 0.00 | 0.00 | 0.00 | 59 | 1016.3 |
| 20260504215352 | 26 | 124 | 17.7 | 24.1 | 0.00 | 0.00 | 0.00 | 61 | 1016.1 |
| 20260504215347 | 26 | 123 | 19.3 | 25.7 | 0.00 | 0.00 | 0.00 | 64 | 1015.3 |
| 20260504215220 | 26 | 129 | 16.1 | 20.9 | 0.00 | 0.00 | 0.00 | 62 | 1015.9 |
| 20260504215214 | 26 | 109 | 17.7 | 22.5 | 0.00 | 0.00 | 0.00 | 61 | 1015.7 |
| 20260504215210 | 26 | 123 | 17.7 | 22.5 | 0.00 | 0.00 | 0.00 | 59 | 1015.9 |
| 20260504215205 | 25 | 117 | 20.9 | 32.2 | 0.00 | 0.00 | 0.00 | 68 | 1015.3 |
| 20260504215200 | 27 | 117 | 14.5 | 22.5 | 0.00 | 0.00 | 0.00 | 59 | 1015.7 |
| 20260504215155 | 27 | 123 | 17.7 | 25.7 | 0.00 | 0.00 | 0.00 | 60 | 1015.7 |
| 20260504215149 | 26 | 109 | 19.3 | 29.0 | 0.00 | 0.00 | 0.00 | 62 | 1015.7 |
| 20260504215144 | 26 | 103 | 20.9 | 32.2 | 0.00 | 0.00 | 0.00 | 64 | 1015.2 |
| 20260504215137 | 25 | 132 | 20.9 | 29.0 | 0.00 | 0.00 | 0.00 | 64 | 1015.2 |
| 20260504215010 | 26 | 121 | 19.3 | 25.7 | 0.00 | 0.00 | 0.00 | 64 | 1015.5 |
| 20260504215005 | 26 | 111 | 19.3 | 24.1 | 0.00 | 0.00 | 0.00 | 64 | 1015.4 |
| 20260504214715 | 25 | 132 | 16.1 | 20.9 | 0.00 | 0.53 | 0.00 | 57 | 1017.1 |
| 20260504214710 | 25 | 140 | 14.5 | 20.9 | 0.00 | 0.00 | 0.00 | 60 | 1017.0 |
| 20260504214704 | 25 | 117 | 20.9 | 32.2 | 0.00 | 0.00 | 0.00 | 68 | 1015.3 |
| 20260504214700 | 25 | 141 | 16.1 | 22.5 | 0.00 | 0.23 | 0.00 | 57 | 1017.0 |
| 20260504214654 | 25 | 144 | 14.5 | 19.3 | 0.00 | 0.53 | 0.00 | 59 | 1017.0 |
| 20260504214649 | 26 | 132 | 16.1 | 22.5 | 0.00 | 0.00 | 0.00 | 60 | 1016.5 |
| 20260504214644 | 25 | 132 | 12.9 | 19.3 | 0.00 | 0.00 | 0.00 | 57 | 1016.8 |
| 20260504214639 | 25 | 138 | 12.9 | 19.3 | 0.00 | 0.00 | 0.00 | 53 | 1016.9 |
| 20260504214631 | 26 | 139 | 14.5 | 22.5 | 0.00 | 0.00 | 0.00 | 58 | 1016.6 |
| 20260504214627 | 26 | 130 | 17.7 | 24.1 | 0.00 | 0.00 | 0.00 | 62 | 1016.2 |
| 20260504214621 | 25 | 132 | 17.7 | 22.5 | 0.00 | 0.00 | 0.00 | 59 | 1016.3 |
| 20260504214615 | 26 | 103 | 20.9 | 32.2 | 0.00 | 0.00 | 0.00 | 64 | 1015.2 |
| 20260504214611 | 26 | 124 | 17.7 | 24.1 | 0.00 | 0.00 | 0.00 | 61 | 1016.1 |
| 20260504214553 | 25 | 132 | 20.9 | 29.0 | 0.00 | 0.00 | 0.00 | 64 | 1015.2 |
| 20260504214439 | 26 | 129 | 16.1 | 20.9 | 0.00 | 0.00 | 0.00 | 62 | 1015.9 |
| 20260504214434 | 26 | 109 | 17.7 | 22.5 | 0.00 | 0.00 | 0.00 | 61 | 1015.7 |
| 20260504214427 | 26 | 123 | 17.7 | 22.5 | 0.00 | 0.00 | 0.00 | 59 | 1015.9 |
| 20260504214421 | 27 | 117 | 14.5 | 22.5 | 0.00 | 0.00 | 0.00 | 59 | 1015.7 |
| 20260504214417 | 27 | 123 | 17.7 | 25.7 | 0.00 | 0.00 | 0.00 | 60 | 1015.7 |
| 20260504214412 | 26 | 109 | 19.3 | 29.0 | 0.00 | 0.00 | 0.00 | 62 | 1015.7 |
| 20260504214406 | 26 | 123 | 16.1 | 29.0 | 0.00 | 0.00 | 0.00 | 62 | 1015.6 |
| 20260504214400 | 26 | 121 | 19.3 | 25.7 | 0.00 | 0.00 | 0.00 | 64 | 1015.5 |
| 20260504214356 | 26 | 111 | 19.3 | 24.1 | 0.00 | 0.00 | 0.00 | 64 | 1015.4 |
| 20260504214351 | 26 | 123 | 19.3 | 25.7 | 0.00 | 0.00 | 0.00 | 64 | 1015.3 |
| 20260504214101 | 26 | 103 | 20.9 | 32.2 | 0.00 | 0.00 | 0.00 | 64 | 1015.2 |
| 20260504213933 | 26 | 120 | 16.1 | 24.1 | 0.00 | 0.00 | 0.00 | 59 | 1016.1 |
| 20260504213927 | 26 | 129 | 16.1 | 20.9 | 0.00 | 0.00 | 0.00 | 62 | 1015.9 |
| 20260504213922 | 26 | 109 | 17.7 | 22.5 | 0.00 | 0.00 | 0.00 | 61 | 1015.7 |
| 20260504213914 | 26 | 123 | 17.7 | 22.5 | 0.00 | 0.00 | 0.00 | 59 | 1015.9 |
| 20260504213908 | 27 | 117 | 14.5 | 22.5 | 0.00 | 0.00 | 0.00 | 59 | 1015.7 |
| 20260504213903 | 27 | 123 | 17.7 | 25.7 | 0.00 | 0.00 | 0.00 | 60 | 1015.7 |
| 20260504213857 | 26 | 109 | 19.3 | 29.0 | 0.00 | 0.00 | 0.00 | 62 | 1015.7 |
| 20260504213852 | 26 | 111 | 19.3 | 24.1 | 0.00 | 0.00 | 0.00 | 64 | 1015.4 |
| 20260504213846 | 26 | 123 | 19.3 | 25.7 | 0.00 | 0.00 | 0.00 | 64 | 1015.3 |
| 20260504213717 | 25 | 141 | 16.1 | 22.5 | 0.00 | 0.23 | 0.00 | 57 | 1017.0 |
| 20260504213713 | 26 | 132 | 16.1 | 22.5 | 0.00 | 0.00 | 0.00 | 60 | 1016.5 |
| 20260504213707 | 26 | 123 | 16.1 | 29.0 | 0.00 | 0.00 | 0.00 | 62 | 1015.6 |
| 20260504213701 | 26 | 121 | 19.3 | 25.7 | 0.00 | 0.00 | 0.00 | 64 | 1015.5 |
| 20260504213656 | 25 | 117 | 20.9 | 32.2 | 0.00 | 0.00 | 0.00 | 68 | 1015.3 |
| 20260504213405 | 25 | 132 | 16.1 | 20.9 | 0.00 | 0.53 | 0.00 | 57 | 1017.1 |
| 20260504213400 | 25 | 144 | 14.5 | 19.3 | 0.00 | 0.53 | 0.00 | 59 | 1017.0 |
| 20260504213355 | 26 | 139 | 14.5 | 22.5 | 0.00 | 0.00 | 0.00 | 58 | 1016.6 |
| 20260504213350 | 25 | 132 | 17.7 | 22.5 | 0.00 | 0.00 | 0.00 | 59 | 1016.3 |
| 20260504213345 | 26 | 130 | 17.7 | 24.1 | 0.00 | 0.00 | 0.00 | 62 | 1016.2 |
| 20260504213339 | 26 | 124 | 17.7 | 24.1 | 0.00 | 0.00 | 0.00 | 61 | 1016.1 |
| 20260504213334 | 26 | 120 | 16.1 | 24.1 | 0.00 | 0.00 | 0.00 | 59 | 1016.1 |
| 20260504213329 | 26 | 129 | 16.1 | 20.9 | 0.00 | 0.00 | 0.00 | 62 | 1015.9 |
| 20260504213324 | 26 | 109 | 17.7 | 22.5 | 0.00 | 0.00 | 0.00 | 61 | 1015.7 |
| 20260504213318 | 26 | 123 | 17.7 | 22.5 | 0.00 | 0.00 | 0.00 | 59 | 1015.9 |
| 20260504213313 | 27 | 117 | 14.5 | 22.5 | 0.00 | 0.00 | 0.00 | 59 | 1015.7 |
| 20260504213306 | 27 | 123 | 17.7 | 25.7 | 0.00 | 0.00 | 0.00 | 60 | 1015.7 |
| 20260504213300 | 26 | 109 | 19.3 | 29.0 | 0.00 | 0.00 | 0.00 | 62 | 1015.7 |
| 20260504213255 | 26 | 111 | 19.3 | 24.1 | 0.00 | 0.00 | 0.00 | 64 | 1015.4 |
| 20260504213249 | 26 | 123 | 19.3 | 25.7 | 0.00 | 0.00 | 0.00 | 64 | 1015.3 |
| 20260504213124 | 25 | 138 | 12.9 | 19.3 | 0.00 | 0.00 | 0.00 | 53 | 1016.9 |
| 20260504213119 | 25 | 140 | 14.5 | 20.9 | 0.00 | 0.00 | 0.00 | 60 | 1017.0 |
| 20260504213114 | 26 | 123 | 16.1 | 29.0 | 0.00 | 0.00 | 0.00 | 62 | 1015.6 |
| 20260504213107 | 25 | 117 | 20.9 | 32.2 | 0.00 | 0.00 | 0.00 | 68 | 1015.3 |
| 20260504212941 | 26 | 132 | 16.1 | 22.5 | 0.00 | 0.00 | 0.00 | 60 | 1016.5 |
| 20260504212935 | 26 | 121 | 19.3 | 25.7 | 0.00 | 0.00 | 0.00 | 64 | 1015.5 |
| 20260504212809 | 25 | 132 | 17.7 | 22.5 | 0.00 | 0.00 | 0.00 | 59 | 1016.3 |
| 20260504212800 | 26 | 130 | 17.7 | 24.1 | 0.00 | 0.00 | 0.00 | 62 | 1016.2 |
| 20260504212755 | 26 | 124 | 17.7 | 24.1 | 0.00 | 0.00 | 0.00 | 61 | 1016.1 |
| 20260504212750 | 26 | 120 | 16.1 | 24.1 | 0.00 | 0.00 | 0.00 | 59 | 1016.1 |
| 20260504212745 | 26 | 129 | 16.1 | 20.9 | 0.00 | 0.00 | 0.00 | 62 | 1015.9 |
| 20260504212741 | 26 | 109 | 17.7 | 22.5 | 0.00 | 0.00 | 0.00 | 61 | 1015.7 |
| 20260504212735 | 26 | 123 | 17.7 | 22.5 | 0.00 | 0.00 | 0.00 | 59 | 1015.9 |
| 20260504212730 | 27 | 117 | 14.5 | 22.5 | 0.00 | 0.00 | 0.00 | 59 | 1015.7 |
| 20260504212724 | 27 | 123 | 17.7 | 25.7 | 0.00 | 0.00 | 0.00 | 60 | 1015.7 |
| 20260504212719 | 26 | 111 | 19.3 | 24.1 | 0.00 | 0.00 | 0.00 | 64 | 1015.4 |
| 20260504212715 | 26 | 109 | 19.3 | 29.0 | 0.00 | 0.00 | 0.00 | 62 | 1015.7 |
| 20260504212709 | 26 | 123 | 19.3 | 25.7 | 0.00 | 0.00 | 0.00 | 64 | 1015.3 |
| 20260504212533 | 25 | 117 | 20.9 | 32.2 | 0.00 | 0.00 | 0.00 | 68 | 1015.3 |
| 20260504212249 | 26 | 132 | 16.1 | 22.5 | 0.00 | 0.00 | 0.00 | 60 | 1016.5 |
| 20260504212245 | 26 | 139 | 14.5 | 22.5 | 0.00 | 0.00 | 0.00 | 58 | 1016.6 |
| 20260504212239 | 25 | 132 | 17.7 | 22.5 | 0.00 | 0.00 | 0.00 | 59 | 1016.3 |
| 20260504212234 | 26 | 130 | 17.7 | 24.1 | 0.00 | 0.00 | 0.00 | 62 | 1016.2 |
| 20260504212228 | 26 | 124 | 17.7 | 24.1 | 0.00 | 0.00 | 0.00 | 61 | 1016.1 |
| 20260504212223 | 26 | 120 | 16.1 | 24.1 | 0.00 | 0.00 | 0.00 | 59 | 1016.1 |
| 20260504212219 | 26 | 129 | 16.1 | 20.9 | 0.00 | 0.00 | 0.00 | 62 | 1015.9 |
| 20260504212213 | 26 | 111 | 19.3 | 24.1 | 0.00 | 0.00 | 0.00 | 64 | 1015.4 |
| 20260504212208 | 26 | 109 | 17.7 | 22.5 | 0.00 | 0.00 | 0.00 | 61 | 1015.7 |
| 20260504212201 | 26 | 123 | 17.7 | 22.5 | 0.00 | 0.00 | 0.00 | 59 | 1015.9 |
| 20260504212154 | 27 | 117 | 14.5 | 22.5 | 0.00 | 0.00 | 0.00 | 59 | 1015.7 |
| 20260504212148 | 27 | 123 | 17.7 | 25.7 | 0.00 | 0.00 | 0.00 | 60 | 1015.7 |
| 20260504212143 | 26 | 109 | 19.3 | 29.0 | 0.00 | 0.00 | 0.00 | 62 | 1015.7 |
| 20260504212138 | 26 | 123 | 19.3 | 25.7 | 0.00 | 0.00 | 0.00 | 64 | 1015.3 |
| 20260504211438 | 27 | 117 | 14.5 | 22.5 | 0.00 | 0.00 | 0.00 | 59 | 1015.7 |
| 20260504211432 | 26 | 132 | 16.1 | 22.5 | 0.00 | 0.00 | 0.00 | 60 | 1016.5 |
| 20260504211426 | 26 | 129 | 16.1 | 20.9 | 0.00 | 0.00 | 0.00 | 62 | 1015.9 |
| 20260504211421 | 26 | 109 | 17.7 | 22.5 | 0.00 | 0.00 | 0.00 | 61 | 1015.7 |
| 20260504211256 | 25 | 0.0 | 0.0 | 0.00 | 0.53 | 0.00 | 51 | 1017.8 | |
| 20260504211251 | 27 | 123 | 17.7 | 25.7 | 0.00 | 0.00 | 0.00 | 60 | 1015.7 |
| 20260504211244 | 26 | 120 | 16.1 | 24.1 | 0.00 | 0.00 | 0.00 | 59 | 1016.1 |
| 20260504211238 | 26 | 124 | 17.7 | 24.1 | 0.00 | 0.00 | 0.00 | 61 | 1016.1 |
| 20260504211233 | 26 | 123 | 17.7 | 22.5 | 0.00 | 0.00 | 0.00 | 59 | 1015.9 |
| 20260504211228 | 25 | 0.0 | 0.0 | 0.00 | 0.53 | 0.00 | 52 | 1017.5 | |
| 20260504211223 | 26 | 123 | 16.1 | 29.0 | 0.00 | 0.00 | 0.00 | 62 | 1015.6 |
| 20260504211217 | 26 | 109 | 19.3 | 29.0 | 0.00 | 0.00 | 0.00 | 62 | 1015.7 |
| 20260504211212 | 26 | 121 | 19.3 | 25.7 | 0.00 | 0.00 | 0.00 | 64 | 1015.5 |
| 20260504211044 | 25 | 0.0 | 0.0 | 0.00 | 0.53 | 0.00 | 57 | 1017.4 | |
| 20260504211039 | 24 | 149 | 16.1 | 22.5 | 0.00 | 0.53 | 0.00 | 56 | 1017.4 |
| 20260504211033 | 25 | 130 | 14.5 | 22.5 | 0.00 | 0.53 | 0.00 | 60 | 1017.2 |
| 20260504211028 | 25 | 132 | 16.1 | 20.9 | 0.00 | 0.53 | 0.00 | 57 | 1017.1 |
| 20260504211022 | 25 | 144 | 14.5 | 19.3 | 0.00 | 0.53 | 0.00 | 59 | 1017.0 |
| 20260504211017 | 25 | 138 | 12.9 | 19.3 | 0.00 | 0.00 | 0.00 | 53 | 1016.9 |
| 20260504211013 | 25 | 140 | 14.5 | 20.9 | 0.00 | 0.00 | 0.00 | 60 | 1017.0 |
| 20260504211007 | 25 | 141 | 16.1 | 22.5 | 0.00 | 0.23 | 0.00 | 57 | 1017.0 |
| 20260504211001 | 25 | 132 | 12.9 | 19.3 | 0.00 | 0.00 | 0.00 | 57 | 1016.8 |
| 20260504210956 | 26 | 132 | 16.1 | 22.5 | 0.00 | 0.00 | 0.00 | 60 | 1016.5 |
| 20260504210950 | 26 | 139 | 14.5 | 22.5 | 0.00 | 0.00 | 0.00 | 58 | 1016.6 |
| 20260504210943 | 25 | 132 | 17.7 | 22.5 | 0.00 | 0.00 | 0.00 | 59 | 1016.3 |
| 20260504210938 | 27 | 117 | 14.5 | 22.5 | 0.00 | 0.00 | 0.00 | 59 | 1015.7 |
| 20260504210934 | 26 | 130 | 17.7 | 24.1 | 0.00 | 0.00 | 0.00 | 62 | 1016.2 |
| 20260504210929 | 26 | 129 | 16.1 | 20.9 | 0.00 | 0.00 | 0.00 | 62 | 1015.9 |
| 20260504210923 | 26 | 109 | 17.7 | 22.5 | 0.00 | 0.00 | 0.00 | 61 | 1015.7 |
| 20260504210755 | 26 | 124 | 17.7 | 24.1 | 0.00 | 0.00 | 0.00 | 61 | 1016.1 |
| 20260504210751 | 26 | 120 | 16.1 | 24.1 | 0.00 | 0.00 | 0.00 | 59 | 1016.1 |
| 20260504210747 | 26 | 123 | 17.7 | 22.5 | 0.00 | 0.00 | 0.00 | 59 | 1015.9 |
| 20260504210740 | 26 | 123 | 16.1 | 29.0 | 0.00 | 0.00 | 0.00 | 62 | 1015.6 |
| 20260504210612 | 26 | 109 | 19.3 | 29.0 | 0.00 | 0.00 | 0.00 | 62 | 1015.7 |
| 20260504210555 | 26 | 111 | 19.3 | 24.1 | 0.00 | 0.00 | 0.00 | 64 | 1015.4 |
| 20260504210316 | 26 | 109 | 17.7 | 22.5 | 0.00 | 0.00 | 0.00 | 61 | 1015.7 |
| 20260504210311 | 27 | 123 | 17.7 | 25.7 | 0.00 | 0.00 | 0.00 | 60 | 1015.7 |
| 20260504210144 | 25 | 138 | 12.9 | 19.3 | 0.00 | 0.00 | 0.00 | 53 | 1016.9 |
| 20260504210139 | 25 | 132 | 12.9 | 19.3 | 0.00 | 0.00 | 0.00 | 57 | 1016.8 |
| 20260504210132 | 26 | 132 | 16.1 | 22.5 | 0.00 | 0.00 | 0.00 | 60 | 1016.5 |
| 20260504210126 | 26 | 123 | 16.1 | 29.0 | 0.00 | 0.00 | 0.00 | 62 | 1015.6 |
| 20260504210120 | 26 | 121 | 19.3 | 25.7 | 0.00 | 0.00 | 0.00 | 64 | 1015.5 |
| 20260504210115 | 26 | 109 | 19.3 | 29.0 | 0.00 | 0.00 | 0.00 | 62 | 1015.7 |
| 20260504205947 | 27 | 117 | 14.5 | 22.5 | 0.00 | 0.00 | 0.00 | 59 | 1015.7 |
| 20260504205942 | 25 | 132 | 17.7 | 22.5 | 0.00 | 0.00 | 0.00 | 59 | 1016.3 |
| 20260504205935 | 26 | 130 | 17.7 | 24.1 | 0.00 | 0.00 | 0.00 | 62 | 1016.2 |
| 20260504205807 | 26 | 120 | 16.1 | 24.1 | 0.00 | 0.00 | 0.00 | 59 | 1016.1 |
| 20260504205801 | 26 | 129 | 16.1 | 20.9 | 0.00 | 0.00 | 0.00 | 62 | 1015.9 |
| 20260504205755 | 26 | 123 | 17.7 | 22.5 | 0.00 | 0.00 | 0.00 | 59 | 1015.9 |
| 20260504205749 | 26 | 109 | 17.7 | 22.5 | 0.00 | 0.00 | 0.00 | 61 | 1015.7 |
| 20260504205744 | 27 | 123 | 17.7 | 25.7 | 0.00 | 0.00 | 0.00 | 60 | 1015.7 |
| 20260504205615 | 26 | 123 | 16.1 | 29.0 | 0.00 | 0.00 | 0.00 | 62 | 1015.6 |
| 20260504205556 | 26 | 121 | 19.3 | 25.7 | 0.00 | 0.00 | 0.00 | 64 | 1015.5 |
| 20260504205319 | 25 | 138 | 12.9 | 19.3 | 0.00 | 0.00 | 0.00 | 53 | 1016.9 |
| 20260504205152 | 25 | 0.0 | 0.0 | 0.00 | 0.53 | 0.00 | 52 | 1017.5 | |
| 20260504205147 | 25 | 0.0 | 0.0 | 0.00 | 0.53 | 0.00 | 57 | 1017.4 | |
| 20260504205143 | 24 | 149 | 16.1 | 22.5 | 0.00 | 0.53 | 0.00 | 56 | 1017.4 |
| 20260504205137 | 25 | 130 | 14.5 | 22.5 | 0.00 | 0.53 | 0.00 | 60 | 1017.2 |
| 20260504205131 | 25 | 132 | 16.1 | 20.9 | 0.00 | 0.53 | 0.00 | 57 | 1017.1 |
| 20260504205124 | 25 | 132 | 12.9 | 19.3 | 0.00 | 0.00 | 0.00 | 57 | 1016.8 |
| 20260504205119 | 26 | 132 | 16.1 | 22.5 | 0.00 | 0.00 | 0.00 | 60 | 1016.5 |
| 20260504205113 | 26 | 139 | 14.5 | 22.5 | 0.00 | 0.00 | 0.00 | 58 | 1016.6 |
| 20260504205108 | 25 | 132 | 17.7 | 22.5 | 0.00 | 0.00 | 0.00 | 59 | 1016.3 |
| 20260504205102 | 26 | 130 | 17.7 | 24.1 | 0.00 | 0.00 | 0.00 | 62 | 1016.2 |
| 20260504205057 | 27 | 123 | 17.7 | 25.7 | 0.00 | 0.00 | 0.00 | 60 | 1015.7 |
| 20260504205051 | 26 | 109 | 17.7 | 22.5 | 0.00 | 0.00 | 0.00 | 61 | 1015.7 |
| 20260504205046 | 26 | 109 | 19.3 | 29.0 | 0.00 | 0.00 | 0.00 | 62 | 1015.7 |
| 20260504205040 | 26 | 123 | 16.1 | 29.0 | 0.00 | 0.00 | 0.00 | 62 | 1015.6 |
| 20260504204912 | 26 | 120 | 16.1 | 24.1 | 0.00 | 0.00 | 0.00 | 59 | 1016.1 |
| 20260504204907 | 26 | 129 | 16.1 | 20.9 | 0.00 | 0.00 | 0.00 | 62 | 1015.9 |
| 20260504204903 | 26 | 123 | 17.7 | 22.5 | 0.00 | 0.00 | 0.00 | 59 | 1015.9 |
| 20260504204857 | 27 | 117 | 14.5 | 22.5 | 0.00 | 0.00 | 0.00 | 59 | 1015.7 |
| 20260504204732 | 25 | 144 | 14.5 | 19.3 | 0.00 | 0.53 | 0.00 | 59 | 1017.0 |
| 20260504204725 | 25 | 140 | 14.5 | 20.9 | 0.00 | 0.00 | 0.00 | 60 | 1017.0 |
| 20260504204721 | 25 | 138 | 12.9 | 19.3 | 0.00 | 0.00 | 0.00 | 53 | 1016.9 |
| 20260504204554 | 27 | 123 | 17.7 | 25.7 | 0.00 | 0.00 | 0.00 | 60 | 1015.7 |
| 20260504204549 | 26 | 132 | 16.1 | 22.5 | 0.00 | 0.00 | 0.00 | 60 | 1016.5 |
| 20260504204544 | 26 | 139 | 14.5 | 22.5 | 0.00 | 0.00 | 0.00 | 58 | 1016.6 |
| 20260504204539 | 25 | 132 | 17.7 | 22.5 | 0.00 | 0.00 | 0.00 | 59 | 1016.3 |
| 20260504204535 | 26 | 109 | 17.7 | 22.5 | 0.00 | 0.00 | 0.00 | 61 | 1015.7 |
| 20260504204529 | 26 | 109 | 19.3 | 29.0 | 0.00 | 0.00 | 0.00 | 62 | 1015.7 |
| 20260504204519 | 26 | 123 | 16.1 | 29.0 | 0.00 | 0.00 | 0.00 | 62 | 1015.6 |
| 20260504204356 | 24 | 256 | 4.8 | 8.0 | 0.00 | 0.53 | 0.00 | 47 | 1018.0 |
| 20260504204352 | 25 | 256 | 4.8 | 8.0 | 0.00 | 0.53 | 0.00 | 51 | 1018.1 |
| 20260504204347 | 26 | 124 | 17.7 | 24.1 | 0.00 | 0.00 | 0.00 | 61 | 1016.1 |
| 20260504204342 | 26 | 120 | 16.1 | 24.1 | 0.00 | 0.00 | 0.00 | 59 | 1016.1 |
| 20260504204338 | 26 | 129 | 16.1 | 20.9 | 0.00 | 0.00 | 0.00 | 62 | 1015.9 |
| 20260504204332 | 26 | 123 | 17.7 | 22.5 | 0.00 | 0.00 | 0.00 | 59 | 1015.9 |
| 20260504204325 | 27 | 117 | 14.5 | 22.5 | 0.00 | 0.00 | 0.00 | 59 | 1015.7 |
| 20260504204201 | 26 | 59 | 4.8 | 9.7 | 0.00 | 0.53 | 0.00 | 50 | 1018.0 |
| 20260504204155 | 26 | 17 | 6.4 | 16.1 | 0.00 | 0.53 | 0.00 | 48 | 1018.0 |
| 20260504204149 | 26 | 22 | 11.3 | 16.1 | 0.00 | 0.53 | 0.00 | 48 | 1018.0 |
| 20260504204145 | 26 | 13 | 11.3 | 16.1 | 0.00 | 0.53 | 0.00 | 48 | 1018.0 |
| 20260504204140 | 26 | 22 | 8.0 | 16.1 | 0.00 | 0.53 | 0.00 | 50 | 1018.1 |
| 20260504204134 | 25 | 28 | 9.7 | 17.7 | 0.00 | 0.53 | 0.00 | 46 | 1018.1 |
| 20260504204129 | 25 | 31 | 14.5 | 17.7 | 0.00 | 0.53 | 0.00 | 49 | 1018.1 |
| 20260504204122 | 25 | 36 | 8.0 | 16.1 | 0.00 | 0.53 | 0.00 | 51 | 1018.2 |
| 20260504204118 | 25 | 54 | 9.7 | 17.7 | 0.00 | 0.53 | 0.00 | 53 | 1018.3 |
| 20260504204112 | 24 | 0.0 | 0.0 | 0.00 | 0.53 | 0.00 | 49 | 1017.9 | |
| 20260504204106 | 24 | 0.0 | 0.0 | 0.00 | 0.53 | 0.00 | 50 | 1017.8 | |
| 20260504204101 | 27 | 123 | 17.7 | 25.7 | 0.00 | 0.00 | 0.00 | 60 | 1015.7 |
| 20260504204057 | 25 | 0.0 | 0.0 | 0.00 | 0.53 | 0.00 | 54 | 1017.9 | |
| 20260504204051 | 26 | 109 | 19.3 | 29.0 | 0.00 | 0.00 | 0.00 | 62 | 1015.7 |
| 20260504204045 | 25 | 0.0 | 0.0 | 0.00 | 0.53 | 0.00 | 51 | 1017.8 | |
| 20260504204040 | 26 | 0.0 | 0.0 | 0.00 | 0.53 | 0.00 | 56 | 1017.6 | |
| 20260504204034 | 25 | 0.0 | 0.0 | 0.00 | 0.53 | 0.00 | 52 | 1017.5 | |
| 20260504204028 | 25 | 0.0 | 0.0 | 0.00 | 0.53 | 0.00 | 57 | 1017.4 | |
| 20260504204023 | 24 | 149 | 16.1 | 22.5 | 0.00 | 0.53 | 0.00 | 56 | 1017.4 |
| 20260504204018 | 25 | 130 | 14.5 | 22.5 | 0.00 | 0.53 | 0.00 | 60 | 1017.2 |
| 20260504204013 | 25 | 132 | 16.1 | 20.9 | 0.00 | 0.53 | 0.00 | 57 | 1017.1 |
| 20260504204008 | 25 | 141 | 16.1 | 22.5 | 0.00 | 0.23 | 0.00 | 57 | 1017.0 |
| 20260504204003 | 25 | 144 | 14.5 | 19.3 | 0.00 | 0.53 | 0.00 | 59 | 1017.0 |
| 20260504203958 | 25 | 140 | 14.5 | 20.9 | 0.00 | 0.00 | 0.00 | 60 | 1017.0 |
| 20260504203953 | 25 | 138 | 12.9 | 19.3 | 0.00 | 0.00 | 0.00 | 53 | 1016.9 |
| 20260504203947 | 25 | 132 | 12.9 | 19.3 | 0.00 | 0.00 | 0.00 | 57 | 1016.8 |
| 20260504203942 | 26 | 109 | 17.7 | 22.5 | 0.00 | 0.00 | 0.00 | 61 | 1015.7 |
| 20260504203936 | 26 | 132 | 16.1 | 22.5 | 0.00 | 0.00 | 0.00 | 60 | 1016.5 |
| 20260504203932 | 26 | 139 | 14.5 | 22.5 | 0.00 | 0.00 | 0.00 | 58 | 1016.6 |
| 20260504203925 | 25 | 132 | 17.7 | 22.5 | 0.00 | 0.00 | 0.00 | 59 | 1016.3 |
| 20260504203920 | 26 | 130 | 17.7 | 24.1 | 0.00 | 0.00 | 0.00 | 62 | 1016.2 |
| 20260504203756 | 26 | 120 | 16.1 | 24.1 | 0.00 | 0.00 | 0.00 | 59 | 1016.1 |
| 20260504203750 | 26 | 129 | 16.1 | 20.9 | 0.00 | 0.00 | 0.00 | 62 | 1015.9 |
| 20260504203746 | 26 | 123 | 17.7 | 22.5 | 0.00 | 0.00 | 0.00 | 59 | 1015.9 |
| 20260504203740 | 27 | 117 | 14.5 | 22.5 | 0.00 | 0.00 | 0.00 | 59 | 1015.7 |
| 20260504203558 | 26 | 109 | 19.3 | 29.0 | 0.00 | 0.00 | 0.00 | 62 | 1015.7 |
| 20260504203324 | 24 | 149 | 16.1 | 22.5 | 0.00 | 0.53 | 0.00 | 56 | 1017.4 |
| 20260504203319 | 25 | 130 | 14.5 | 22.5 | 0.00 | 0.53 | 0.00 | 60 | 1017.2 |
| 20260504203152 | 25 | 144 | 14.5 | 19.3 | 0.00 | 0.53 | 0.00 | 59 | 1017.0 |
| 20260504203147 | 25 | 141 | 16.1 | 22.5 | 0.00 | 0.23 | 0.00 | 57 | 1017.0 |
| 20260504203142 | 24 | 0.0 | 0.0 | 0.00 | 0.53 | 0.00 | 49 | 1017.9 | |
| 20260504203137 | 27 | 117 | 14.5 | 22.5 | 0.00 | 0.00 | 0.00 | 59 | 1015.7 |
| 20260504203132 | 25 | 132 | 16.1 | 20.9 | 0.00 | 0.53 | 0.00 | 57 | 1017.1 |
| 20260504203126 | 25 | 140 | 14.5 | 20.9 | 0.00 | 0.00 | 0.00 | 60 | 1017.0 |
| 20260504203119 | 25 | 138 | 12.9 | 19.3 | 0.00 | 0.00 | 0.00 | 53 | 1016.9 |
| 20260504203114 | 25 | 132 | 12.9 | 19.3 | 0.00 | 0.00 | 0.00 | 57 | 1016.8 |
| 20260504203108 | 26 | 132 | 16.1 | 22.5 | 0.00 | 0.00 | 0.00 | 60 | 1016.5 |
| 20260504203102 | 27 | 123 | 17.7 | 25.7 | 0.00 | 0.00 | 0.00 | 60 | 1015.7 |
| 20260504202937 | 26 | 124 | 17.7 | 24.1 | 0.00 | 0.00 | 0.00 | 61 | 1016.1 |
| 20260504202931 | 24 | 0.0 | 0.0 | 0.00 | 0.53 | 0.00 | 50 | 1017.8 | |
| 20260504202927 | 25 | 0.0 | 0.0 | 0.00 | 0.53 | 0.00 | 54 | 1017.9 | |
| 20260504202920 | 25 | 132 | 17.7 | 22.5 | 0.00 | 0.00 | 0.00 | 59 | 1016.3 |
| 20260504202914 | 26 | 130 | 17.7 | 24.1 | 0.00 | 0.00 | 0.00 | 62 | 1016.2 |
| 20260504202908 | 26 | 120 | 16.1 | 24.1 | 0.00 | 0.00 | 0.00 | 59 | 1016.1 |
| 20260504202903 | 26 | 129 | 16.1 | 20.9 | 0.00 | 0.00 | 0.00 | 62 | 1015.9 |
| 20260504202858 | 26 | 123 | 17.7 | 22.5 | 0.00 | 0.00 | 0.00 | 59 | 1015.9 |
| 20260504202853 | 26 | 109 | 17.7 | 22.5 | 0.00 | 0.00 | 0.00 | 61 | 1015.7 |
| 20260504202729 | 26 | 0.0 | 0.0 | 0.00 | 0.53 | 0.00 | 56 | 1017.6 | |
| 20260504202722 | 25 | 0.0 | 0.0 | 0.00 | 0.53 | 0.00 | 52 | 1017.5 | |
| 20260504202717 | 25 | 0.0 | 0.0 | 0.00 | 0.53 | 0.00 | 57 | 1017.4 | |
| 20260504202711 | 24 | 149 | 16.1 | 22.5 | 0.00 | 0.53 | 0.00 | 56 | 1017.4 |
| 20260504202706 | 25 | 130 | 14.5 | 22.5 | 0.00 | 0.53 | 0.00 | 60 | 1017.2 |
| 20260504202700 | 25 | 132 | 16.1 | 20.9 | 0.00 | 0.53 | 0.00 | 57 | 1017.1 |
| 20260504202655 | 25 | 141 | 16.1 | 22.5 | 0.00 | 0.23 | 0.00 | 57 | 1017.0 |
| 20260504202650 | 25 | 144 | 14.5 | 19.3 | 0.00 | 0.53 | 0.00 | 59 | 1017.0 |
| 20260504202645 | 27 | 117 | 14.5 | 22.5 | 0.00 | 0.00 | 0.00 | 59 | 1015.7 |
| 20260504202516 | 26 | 132 | 16.1 | 22.5 | 0.00 | 0.00 | 0.00 | 60 | 1016.5 |
| 20260504202510 | 25 | 138 | 12.9 | 19.3 | 0.00 | 0.00 | 0.00 | 53 | 1016.9 |
| 20260504202505 | 27 | 123 | 17.7 | 25.7 | 0.00 | 0.00 | 0.00 | 60 | 1015.7 |
| 20260504202500 | 25 | 132 | 12.9 | 19.3 | 0.00 | 0.00 | 0.00 | 57 | 1016.8 |
| 20260504202455 | 26 | 139 | 14.5 | 22.5 | 0.00 | 0.00 | 0.00 | 58 | 1016.6 |
| 20260504202450 | 26 | 124 | 17.7 | 24.1 | 0.00 | 0.00 | 0.00 | 61 | 1016.1 |
| 20260504202321 | 26 | 130 | 17.7 | 24.1 | 0.00 | 0.00 | 0.00 | 62 | 1016.2 |
| 20260504202315 | 26 | 120 | 16.1 | 24.1 | 0.00 | 0.00 | 0.00 | 59 | 1016.1 |
| 20260504202309 | 26 | 129 | 16.1 | 20.9 | 0.00 | 0.00 | 0.00 | 62 | 1015.9 |
| 20260504202305 | 26 | 123 | 17.7 | 22.5 | 0.00 | 0.00 | 0.00 | 59 | 1015.9 |
| 20260504202300 | 26 | 109 | 17.7 | 22.5 | 0.00 | 0.00 | 0.00 | 61 | 1015.7 |
| 20260504202010 | 26 | 132 | 16.1 | 22.5 | 0.00 | 0.00 | 0.00 | 60 | 1016.5 |
| 20260504202005 | 26 | 124 | 17.7 | 24.1 | 0.00 | 0.00 | 0.00 | 61 | 1016.1 |
| 20260504201839 | 24 | 149 | 16.1 | 22.5 | 0.00 | 0.53 | 0.00 | 56 | 1017.4 |
| 20260504201833 | 25 | 130 | 14.5 | 22.5 | 0.00 | 0.53 | 0.00 | 60 | 1017.2 |
| 20260504201828 | 25 | 132 | 16.1 | 20.9 | 0.00 | 0.53 | 0.00 | 57 | 1017.1 |
| 20260504201821 | 26 | 120 | 16.1 | 24.1 | 0.00 | 0.00 | 0.00 | 59 | 1016.1 |
| 20260504201815 | 25 | 141 | 16.1 | 22.5 | 0.00 | 0.23 | 0.00 | 57 | 1017.0 |
| 20260504201811 | 25 | 132 | 17.7 | 22.5 | 0.00 | 0.00 | 0.00 | 59 | 1016.3 |
| 20260504201643 | 26 | 129 | 16.1 | 20.9 | 0.00 | 0.00 | 0.00 | 62 | 1015.9 |
| 20260504201638 | 25 | 140 | 14.5 | 20.9 | 0.00 | 0.00 | 0.00 | 60 | 1017.0 |
| 20260504201633 | 25 | 138 | 12.9 | 19.3 | 0.00 | 0.00 | 0.00 | 53 | 1016.9 |
| 20260504201627 | 25 | 132 | 12.9 | 19.3 | 0.00 | 0.00 | 0.00 | 57 | 1016.8 |
| 20260504201620 | 26 | 139 | 14.5 | 22.5 | 0.00 | 0.00 | 0.00 | 58 | 1016.6 |
| 20260504201614 | 26 | 130 | 17.7 | 24.1 | 0.00 | 0.00 | 0.00 | 62 | 1016.2 |
| 20260504201610 | 26 | 123 | 17.7 | 22.5 | 0.00 | 0.00 | 0.00 | 59 | 1015.9 |
| 20260504201605 | 26 | 109 | 17.7 | 22.5 | 0.00 | 0.00 | 0.00 | 61 | 1015.7 |
| 20260504201548 | 27 | 117 | 14.5 | 22.5 | 0.00 | 0.00 | 0.00 | 59 | 1015.7 |
| 20260504201434 | 26 | 124 | 17.7 | 24.1 | 0.00 | 0.00 | 0.00 | 61 | 1016.1 |
| 20260504201307 | 26 | 120 | 16.1 | 24.1 | 0.00 | 0.00 | 0.00 | 59 | 1016.1 |
| 20260504201018 | 26 | 109 | 17.7 | 22.5 | 0.00 | 0.00 | 0.00 | 61 | 1015.7 |
| 20260504201012 | 26 | 123 | 17.7 | 22.5 | 0.00 | 0.00 | 0.00 | 59 | 1015.9 |
| 20260504200846 | 24 | 256 | 4.8 | 8.0 | 0.00 | 0.53 | 0.00 | 47 | 1018.0 |
| 20260504200841 | 25 | 256 | 4.8 | 8.0 | 0.00 | 0.53 | 0.00 | 51 | 1018.1 |
| 20260504200835 | 26 | 59 | 1.6 | 8.0 | 0.00 | 0.53 | 0.00 | 44 | 1018.0 |
| 20260504200831 | 25 | 140 | 14.5 | 20.9 | 0.00 | 0.00 | 0.00 | 60 | 1017.0 |
| 20260504200825 | 26 | 59 | 4.8 | 9.7 | 0.00 | 0.53 | 0.00 | 50 | 1018.0 |
| 20260504200817 | 26 | 17 | 6.4 | 16.1 | 0.00 | 0.53 | 0.00 | 48 | 1018.0 |
| 20260504200813 | 26 | 22 | 11.3 | 16.1 | 0.00 | 0.53 | 0.00 | 48 | 1018.0 |
| 20260504200807 | 26 | 13 | 11.3 | 16.1 | 0.00 | 0.53 | 0.00 | 48 | 1018.0 |
| 20260504200802 | 26 | 124 | 17.7 | 24.1 | 0.00 | 0.00 | 0.00 | 61 | 1016.1 |
| 20260504200756 | 24 | 0.0 | 0.0 | 0.00 | 0.53 | 0.00 | 49 | 1017.9 | |
| 20260504200751 | 26 | 22 | 8.0 | 16.1 | 0.00 | 0.53 | 0.00 | 50 | 1018.1 |
| 20260504200745 | 24 | 0.0 | 0.0 | 0.00 | 0.53 | 0.00 | 50 | 1017.8 | |
| 20260504200741 | 25 | 0.0 | 0.0 | 0.00 | 0.53 | 0.00 | 54 | 1017.9 | |
| 20260504200735 | 25 | 0.0 | 0.0 | 0.00 | 0.53 | 0.00 | 51 | 1017.8 | |
| 20260504200730 | 26 | 0.0 | 0.0 | 0.00 | 0.53 | 0.00 | 56 | 1017.6 | |
| 20260504200724 | 25 | 0.0 | 0.0 | 0.00 | 0.53 | 0.00 | 52 | 1017.5 | |
| 20260504200717 | 25 | 138 | 12.9 | 19.3 | 0.00 | 0.00 | 0.00 | 53 | 1016.9 |
| 20260504200711 | 25 | 132 | 12.9 | 19.3 | 0.00 | 0.00 | 0.00 | 57 | 1016.8 |
| 20260504200706 | 26 | 139 | 14.5 | 22.5 | 0.00 | 0.00 | 0.00 | 58 | 1016.6 |
| 20260504200700 | 26 | 132 | 16.1 | 22.5 | 0.00 | 0.00 | 0.00 | 60 | 1016.5 |
| 20260504200655 | 26 | 120 | 16.1 | 24.1 | 0.00 | 0.00 | 0.00 | 59 | 1016.1 |
| 20260504200651 | 26 | 129 | 16.1 | 20.9 | 0.00 | 0.00 | 0.00 | 62 | 1015.9 |
| 20260504200525 | 24 | 149 | 16.1 | 22.5 | 0.00 | 0.53 | 0.00 | 56 | 1017.4 |
| 20260504200517 | 25 | 130 | 14.5 | 22.5 | 0.00 | 0.53 | 0.00 | 60 | 1017.2 |
| 20260504200512 | 25 | 132 | 16.1 | 20.9 | 0.00 | 0.53 | 0.00 | 57 | 1017.1 |
| 20260504200506 | 26 | 109 | 17.7 | 22.5 | 0.00 | 0.00 | 0.00 | 61 | 1015.7 |
| 20260504200501 | 25 | 141 | 16.1 | 22.5 | 0.00 | 0.23 | 0.00 | 57 | 1017.0 |
| 20260504200457 | 25 | 144 | 14.5 | 19.3 | 0.00 | 0.53 | 0.00 | 59 | 1017.0 |
| 20260504200451 | 26 | 123 | 17.7 | 22.5 | 0.00 | 0.00 | 0.00 | 59 | 1015.9 |
| 20260504200446 | 25 | 132 | 17.7 | 22.5 | 0.00 | 0.00 | 0.00 | 59 | 1016.3 |
| 20260504200441 | 26 | 130 | 17.7 | 24.1 | 0.00 | 0.00 | 0.00 | 62 | 1016.2 |
| 20260504200313 | 25 | 140 | 14.5 | 20.9 | 0.00 | 0.00 | 0.00 | 60 | 1017.0 |
| 20260504200307 | 26 | 124 | 17.7 | 24.1 | 0.00 | 0.00 | 0.00 | 61 | 1016.1 |
| 20260504200144 | 25 | 132 | 12.9 | 19.3 | 0.00 | 0.00 | 0.00 | 57 | 1016.8 |
| 20260504200138 | 26 | 139 | 14.5 | 22.5 | 0.00 | 0.00 | 0.00 | 58 | 1016.6 |
| 20260504200132 | 26 | 132 | 16.1 | 22.5 | 0.00 | 0.00 | 0.00 | 60 | 1016.5 |
| 20260504200127 | 26 | 120 | 16.1 | 24.1 | 0.00 | 0.00 | 0.00 | 59 | 1016.1 |
| 20260504200123 | 26 | 129 | 16.1 | 20.9 | 0.00 | 0.00 | 0.00 | 62 | 1015.9 |
| 20260504195954 | 25 | 0.0 | 0.0 | 0.00 | 0.53 | 0.00 | 51 | 1017.8 | |
| 20260504195948 | 26 | 0.0 | 0.0 | 0.00 | 0.53 | 0.00 | 56 | 1017.6 | |
| 20260504195943 | 25 | 0.0 | 0.0 | 0.00 | 0.53 | 0.00 | 52 | 1017.5 | |
| 20260504195938 | 25 | 0.0 | 0.0 | 0.00 | 0.53 | 0.00 | 57 | 1017.4 | |
| 20260504195933 | 24 | 149 | 16.1 | 22.5 | 0.00 | 0.53 | 0.00 | 56 | 1017.4 |
| 20260504195928 | 25 | 130 | 14.5 | 22.5 | 0.00 | 0.53 | 0.00 | 60 | 1017.2 |
| 20260504195923 | 25 | 132 | 16.1 | 20.9 | 0.00 | 0.53 | 0.00 | 57 | 1017.1 |
| 20260504195915 | 25 | 141 | 16.1 | 22.5 | 0.00 | 0.23 | 0.00 | 57 | 1017.0 |
| 20260504195911 | 25 | 132 | 17.7 | 22.5 | 0.00 | 0.00 | 0.00 | 59 | 1016.3 |
| 20260504195905 | 25 | 144 | 14.5 | 19.3 | 0.00 | 0.53 | 0.00 | 59 | 1017.0 |
| 20260504195900 | 26 | 130 | 17.7 | 24.1 | 0.00 | 0.00 | 0.00 | 62 | 1016.2 |
| 20260504195611 | 25 | 140 | 14.5 | 20.9 | 0.00 | 0.00 | 0.00 | 60 | 1017.0 |
| 20260504195605 | 25 | 138 | 12.9 | 19.3 | 0.00 | 0.00 | 0.00 | 53 | 1016.9 |
| 20260504195600 | 25 | 0.0 | 0.0 | 0.00 | 0.53 | 0.00 | 54 | 1017.9 | |
| 20260504195555 | 26 | 139 | 14.5 | 22.5 | 0.00 | 0.00 | 0.00 | 58 | 1016.6 |
| 20260504195550 | 25 | 132 | 12.9 | 19.3 | 0.00 | 0.00 | 0.00 | 57 | 1016.8 |
| 20260504195545 | 31 | 232 | 11.3 | 25.7 | 0.00 | 0.03 | 0.03 | 53 | 1007.1 |
| 20260504195541 | 26 | 120 | 16.1 | 24.1 | 0.00 | 0.00 | 0.00 | 59 | 1016.1 |
| 20260504195535 | 26 | 129 | 16.1 | 20.9 | 0.00 | 0.00 | 0.00 | 62 | 1015.9 |
| 20260504195530 | 31 | 244 | 11.3 | 25.7 | 0.00 | 0.03 | 0.03 | 56 | 1007.1 |
| 20260504195524 | 26 | 132 | 16.1 | 22.5 | 0.00 | 0.00 | 0.00 | 60 | 1016.5 |
| 20260504195517 | 25 | 35 | 14.5 | 19.3 | 0.00 | 0.53 | 0.00 | 59 | 1018.0 |
| 20260504195513 | 25 | 39 | 12.9 | 19.3 | 0.00 | 0.53 | 0.00 | 51 | 1018.1 |
| 20260504195508 | 26 | 123 | 17.7 | 22.5 | 0.00 | 0.00 | 0.00 | 59 | 1015.9 |
| 20260504195503 | 25 | 28 | 9.7 | 17.7 | 0.00 | 0.53 | 0.00 | 46 | 1018.1 |
| 20260504195457 | 25 | 31 | 14.5 | 17.7 | 0.00 | 0.53 | 0.00 | 49 | 1018.1 |
| 20260504195452 | 25 | 36 | 8.0 | 16.1 | 0.00 | 0.53 | 0.00 | 51 | 1018.2 |
| 20260504195447 | 25 | 54 | 9.7 | 17.7 | 0.00 | 0.53 | 0.00 | 53 | 1018.3 |
| 20260504195442 | 24 | 0.0 | 4.8 | 0.00 | 0.53 | 0.00 | 49 | 1017.9 | |
| 20260504195437 | 24 | 256 | 4.8 | 8.0 | 0.00 | 0.53 | 0.00 | 47 | 1018.0 |
| 20260504195431 | 25 | 256 | 4.8 | 8.0 | 0.00 | 0.53 | 0.00 | 51 | 1018.1 |
| 20260504195427 | 26 | 59 | 1.6 | 8.0 | 0.00 | 0.53 | 0.00 | 44 | 1018.0 |
| 20260504195422 | 26 | 59 | 4.8 | 9.7 | 0.00 | 0.53 | 0.00 | 50 | 1018.0 |
| 20260504195414 | 24 | 0.0 | 0.0 | 0.00 | 0.53 | 0.00 | 49 | 1017.9 | |
| 20260504195409 | 25 | 132 | 17.7 | 22.5 | 0.00 | 0.00 | 0.00 | 59 | 1016.3 |
| 20260504195405 | 26 | 130 | 17.7 | 24.1 | 0.00 | 0.00 | 0.00 | 62 | 1016.2 |
| 20260504195359 | 25 | 0.0 | 0.0 | 0.00 | 0.53 | 0.00 | 51 | 1017.8 | |
| 20260504195354 | 26 | 0.0 | 0.0 | 0.00 | 0.53 | 0.00 | 56 | 1017.6 | |
| 20260504195348 | 25 | 0.0 | 0.0 | 0.00 | 0.53 | 0.00 | 52 | 1017.5 | |
| 20260504195343 | 25 | 0.0 | 0.0 | 0.00 | 0.53 | 0.00 | 57 | 1017.4 | |
| 20260504195338 | 24 | 149 | 16.1 | 22.5 | 0.00 | 0.53 | 0.00 | 56 | 1017.4 |
| 20260504195333 | 25 | 130 | 14.5 | 22.5 | 0.00 | 0.53 | 0.00 | 60 | 1017.2 |
| 20260504195206 | 26 | 22 | 11.3 | 16.1 | 0.00 | 0.53 | 0.00 | 48 | 1018.0 |
| 20260504195201 | 25 | 132 | 16.1 | 20.9 | 0.00 | 0.53 | 0.00 | 57 | 1017.1 |
| 20260504195156 | 25 | 141 | 16.1 | 22.5 | 0.00 | 0.23 | 0.00 | 57 | 1017.0 |
| 20260504195150 | 26 | 13 | 11.3 | 16.1 | 0.00 | 0.53 | 0.00 | 48 | 1018.0 |
| 20260504195146 | 25 | 144 | 14.5 | 19.3 | 0.00 | 0.53 | 0.00 | 59 | 1017.0 |
| 20260504195141 | 26 | 124 | 17.7 | 24.1 | 0.00 | 0.00 | 0.00 | 61 | 1016.1 |
| 20260504195136 | 26 | 22 | 8.0 | 16.1 | 0.00 | 0.53 | 0.00 | 50 | 1018.1 |
| 20260504195130 | 24 | 0.0 | 0.0 | 0.00 | 0.53 | 0.00 | 49 | 1017.9 | |
| 20260504195125 | 24 | 0.0 | 0.0 | 0.00 | 0.53 | 0.00 | 50 | 1017.8 | |
| 20260504195121 | 25 | 0.0 | 0.0 | 0.00 | 0.53 | 0.00 | 54 | 1017.9 | |
| 20260504195113 | 25 | 140 | 14.5 | 20.9 | 0.00 | 0.00 | 0.00 | 60 | 1017.0 |
| 20260504195107 | 25 | 138 | 12.9 | 19.3 | 0.00 | 0.00 | 0.00 | 53 | 1016.9 |
| 20260504195103 | 25 | 132 | 12.9 | 19.3 | 0.00 | 0.00 | 0.00 | 57 | 1016.8 |
| 20260504195057 | 26 | 139 | 14.5 | 22.5 | 0.00 | 0.00 | 0.00 | 58 | 1016.6 |
| 20260504195052 | 26 | 132 | 16.1 | 22.5 | 0.00 | 0.00 | 0.00 | 60 | 1016.5 |
| 20260504195046 | 26 | 120 | 16.1 | 24.1 | 0.00 | 0.00 | 0.00 | 59 | 1016.1 |
| 20260504195041 | 26 | 129 | 16.1 | 20.9 | 0.00 | 0.00 | 0.00 | 62 | 1015.9 |
| 20260504194913 | 26 | 130 | 17.7 | 24.1 | 0.00 | 0.00 | 0.00 | 62 | 1016.2 |
| 20260504194747 | 25 | 0.0 | 0.0 | 0.00 | 0.53 | 0.00 | 51 | 1017.8 | |
| 20260504194741 | 26 | 0.0 | 0.0 | 0.00 | 0.53 | 0.00 | 56 | 1017.6 | |
| 20260504194737 | 25 | 0.0 | 0.0 | 0.00 | 0.53 | 0.00 | 52 | 1017.5 | |
| 20260504194731 | 25 | 0.0 | 0.0 | 0.00 | 0.53 | 0.00 | 57 | 1017.4 | |
| 20260504194726 | 24 | 149 | 16.1 | 22.5 | 0.00 | 0.53 | 0.00 | 56 | 1017.4 |
| 20260504194721 | 25 | 130 | 14.5 | 22.5 | 0.00 | 0.53 | 0.00 | 60 | 1017.2 |
| 20260504194714 | 25 | 132 | 16.1 | 20.9 | 0.00 | 0.53 | 0.00 | 57 | 1017.1 |
| 20260504194709 | 25 | 141 | 16.1 | 22.5 | 0.00 | 0.23 | 0.00 | 57 | 1017.0 |
| 20260504194703 | 25 | 144 | 14.5 | 19.3 | 0.00 | 0.53 | 0.00 | 59 | 1017.0 |
| 20260504194658 | 26 | 124 | 17.7 | 24.1 | 0.00 | 0.00 | 0.00 | 61 | 1016.1 |
| 20260504194533 | 25 | 138 | 12.9 | 19.3 | 0.00 | 0.00 | 0.00 | 53 | 1016.9 |
| 20260504194529 | 25 | 132 | 12.9 | 19.3 | 0.00 | 0.00 | 0.00 | 57 | 1016.8 |
| 20260504194523 | 26 | 132 | 16.1 | 22.5 | 0.00 | 0.00 | 0.00 | 60 | 1016.5 |
| 20260504194518 | 26 | 120 | 16.1 | 24.1 | 0.00 | 0.00 | 0.00 | 59 | 1016.1 |
| 20260504194511 | 26 | 139 | 14.5 | 22.5 | 0.00 | 0.00 | 0.00 | 58 | 1016.6 |
| 20260504194505 | 26 | 129 | 16.1 | 20.9 | 0.00 | 0.00 | 0.00 | 62 | 1015.9 |
| 20260504194340 | 26 | 130 | 17.7 | 24.1 | 0.00 | 0.00 | 0.00 | 62 | 1016.2 |
| 20260504194213 | 25 | 0.0 | 0.0 | 0.00 | 0.53 | 0.00 | 51 | 1017.8 | |
| 20260504194207 | 26 | 0.0 | 0.0 | 0.00 | 0.53 | 0.00 | 56 | 1017.6 | |
| 20260504194201 | 25 | 0.0 | 0.0 | 0.00 | 0.53 | 0.00 | 52 | 1017.5 | |
| 20260504194157 | 25 | 0.0 | 0.0 | 0.00 | 0.53 | 0.00 | 57 | 1017.4 | |
| 20260504194152 | 24 | 149 | 16.1 | 22.5 | 0.00 | 0.53 | 0.00 | 56 | 1017.4 |
| 20260504194146 | 26 | 124 | 17.7 | 24.1 | 0.00 | 0.00 | 0.00 | 61 | 1016.1 |
| 20260504194020 | 25 | 130 | 14.5 | 22.5 | 0.00 | 0.53 | 0.00 | 60 | 1017.2 |
| 20260504194013 | 25 | 132 | 16.1 | 20.9 | 0.00 | 0.53 | 0.00 | 57 | 1017.1 |
| 20260504194008 | 25 | 141 | 16.1 | 22.5 | 0.00 | 0.23 | 0.00 | 57 | 1017.0 |
| 20260504194002 | 26 | 120 | 16.1 | 24.1 | 0.00 | 0.00 | 0.00 | 59 | 1016.1 |
| 20260504193956 | 25 | 138 | 12.9 | 19.3 | 0.00 | 0.00 | 0.00 | 53 | 1016.9 |
| 20260504193830 | 25 | 140 | 14.5 | 20.9 | 0.00 | 0.00 | 0.00 | 60 | 1017.0 |
| 20260504193824 | 25 | 132 | 12.9 | 19.3 | 0.00 | 0.00 | 0.00 | 57 | 1016.8 |
| 20260504193819 | 26 | 139 | 14.5 | 22.5 | 0.00 | 0.00 | 0.00 | 58 | 1016.6 |
| 20260504193813 | 25 | 132 | 17.7 | 22.5 | 0.00 | 0.00 | 0.00 | 59 | 1016.3 |
| 20260504193808 | 26 | 130 | 17.7 | 24.1 | 0.00 | 0.00 | 0.00 | 62 | 1016.2 |
| 20260504193518 | 26 | 120 | 16.1 | 24.1 | 0.00 | 0.00 | 0.00 | 59 | 1016.1 |
| 20260504193234 | 26 | 130 | 17.7 | 24.1 | 0.00 | 0.00 | 0.00 | 62 | 1016.2 |
| 20260504193104 | 26 | 124 | 17.7 | 24.1 | 0.00 | 0.00 | 0.00 | 61 | 1016.1 |
| 20260504192939 | 24 | 256 | 4.8 | 8.0 | 0.00 | 0.53 | 0.00 | 47 | 1018.0 |
| 20260504192934 | 26 | 139 | 14.5 | 22.5 | 0.00 | 0.00 | 0.00 | 58 | 1016.6 |
| 20260504192928 | 26 | 132 | 16.1 | 22.5 | 0.00 | 0.00 | 0.00 | 60 | 1016.5 |
| 20260504192923 | 24 | 0.0 | 0.0 | 0.00 | 0.53 | 0.00 | 49 | 1017.9 | |
| 20260504192755 | 24 | 0.0 | 0.0 | 0.00 | 0.53 | 0.00 | 49 | 1017.9 | |
| 20260504192750 | 25 | 28 | 9.7 | 17.7 | 0.00 | 0.53 | 0.00 | 46 | 1018.1 |
| 20260504192744 | 25 | 130 | 14.5 | 22.5 | 0.00 | 0.53 | 0.00 | 60 | 1017.2 |
| 20260504192739 | 25 | 256 | 4.8 | 8.0 | 0.00 | 0.53 | 0.00 | 51 | 1018.1 |
| 20260504192734 | 26 | 59 | 1.6 | 8.0 | 0.00 | 0.53 | 0.00 | 44 | 1018.0 |
| 20260504192729 | 26 | 59 | 4.8 | 9.7 | 0.00 | 0.53 | 0.00 | 50 | 1018.0 |
| 20260504192725 | 25 | 0.0 | 0.0 | 0.00 | 0.53 | 0.00 | 54 | 1017.9 | |
| 20260504192720 | 25 | 132 | 17.7 | 22.5 | 0.00 | 0.00 | 0.00 | 59 | 1016.3 |
| 20260504192715 | 25 | 0.0 | 0.0 | 0.00 | 0.53 | 0.00 | 51 | 1017.8 | |
| 20260504192707 | 26 | 0.0 | 0.0 | 0.00 | 0.53 | 0.00 | 56 | 1017.6 | |
| 20260504192701 | 25 | 0.0 | 0.0 | 0.00 | 0.53 | 0.00 | 52 | 1017.5 | |
| 20260504192657 | 25 | 0.0 | 0.0 | 0.00 | 0.53 | 0.00 | 57 | 1017.4 | |
| 20260504192651 | 24 | 149 | 16.1 | 22.5 | 0.00 | 0.53 | 0.00 | 56 | 1017.4 |
| 20260504192646 | 25 | 132 | 16.1 | 20.9 | 0.00 | 0.53 | 0.00 | 57 | 1017.1 |
| 20260504192640 | 25 | 141 | 16.1 | 22.5 | 0.00 | 0.23 | 0.00 | 57 | 1017.0 |
| 20260504192635 | 25 | 144 | 14.5 | 19.3 | 0.00 | 0.53 | 0.00 | 59 | 1017.0 |
| 20260504192629 | 25 | 140 | 14.5 | 20.9 | 0.00 | 0.00 | 0.00 | 60 | 1017.0 |
| 20260504192625 | 25 | 138 | 12.9 | 19.3 | 0.00 | 0.00 | 0.00 | 53 | 1016.9 |
| 20260504192619 | 25 | 132 | 12.9 | 19.3 | 0.00 | 0.00 | 0.00 | 57 | 1016.8 |
| 20260504192611 | 26 | 130 | 17.7 | 24.1 | 0.00 | 0.00 | 0.00 | 62 | 1016.2 |
| 20260504192553 | 26 | 124 | 17.7 | 24.1 | 0.00 | 0.00 | 0.00 | 61 | 1016.1 |
| 20260504192440 | 26 | 132 | 16.1 | 22.5 | 0.00 | 0.00 | 0.00 | 60 | 1016.5 |
| 20260504192314 | 24 | 0.0 | 4.8 | 0.00 | 0.53 | 0.00 | 49 | 1017.9 | |
| 20260504192307 | 24 | 256 | 4.8 | 8.0 | 0.00 | 0.53 | 0.00 | 47 | 1018.0 |
| 20260504192304 | 24 | 0.0 | 0.0 | 0.00 | 0.53 | 0.00 | 49 | 1017.9 | |
| 20260504192257 | 24 | 0.0 | 0.0 | 0.00 | 0.53 | 0.00 | 50 | 1017.8 | |
| 20260504192253 | 24 | 0.0 | 0.0 | 0.00 | 0.53 | 0.00 | 49 | 1017.9 | |
| 20260504192247 | 25 | 130 | 14.5 | 22.5 | 0.00 | 0.53 | 0.00 | 60 | 1017.2 |
| 20260504192242 | 25 | 132 | 17.7 | 22.5 | 0.00 | 0.00 | 0.00 | 59 | 1016.3 |
| 20260504192107 | 25 | 0.0 | 0.0 | 0.00 | 0.53 | 0.00 | 54 | 1017.9 | |
| 20260504192102 | 25 | 0.0 | 0.0 | 0.00 | 0.53 | 0.00 | 51 | 1017.8 | |
| 20260504192056 | 26 | 0.0 | 0.0 | 0.00 | 0.53 | 0.00 | 56 | 1017.6 | |
| 20260504192051 | 25 | 0.0 | 0.0 | 0.00 | 0.53 | 0.00 | 52 | 1017.5 | |
| 20260504192045 | 26 | 130 | 17.7 | 24.1 | 0.00 | 0.00 | 0.00 | 62 | 1016.2 |
| 20260504191923 | 24 | 149 | 16.1 | 22.5 | 0.00 | 0.53 | 0.00 | 56 | 1017.4 |
| 20260504191917 | 25 | 132 | 16.1 | 20.9 | 0.00 | 0.53 | 0.00 | 57 | 1017.1 |
| 20260504191910 | 25 | 141 | 16.1 | 22.5 | 0.00 | 0.23 | 0.00 | 57 | 1017.0 |
| 20260504191906 | 25 | 144 | 14.5 | 19.3 | 0.00 | 0.53 | 0.00 | 59 | 1017.0 |
| 20260504191900 | 25 | 140 | 14.5 | 20.9 | 0.00 | 0.00 | 0.00 | 60 | 1017.0 |
| 20260504191855 | 25 | 138 | 12.9 | 19.3 | 0.00 | 0.00 | 0.00 | 53 | 1016.9 |
| 20260504191851 | 25 | 132 | 12.9 | 19.3 | 0.00 | 0.00 | 0.00 | 57 | 1016.8 |
| 20260504191845 | 26 | 139 | 14.5 | 22.5 | 0.00 | 0.00 | 0.00 | 58 | 1016.6 |
| 20260504191841 | 26 | 132 | 16.1 | 22.5 | 0.00 | 0.00 | 0.00 | 60 | 1016.5 |
| 20260504191711 | 24 | 0.0 | 4.8 | 0.00 | 0.53 | 0.00 | 49 | 1017.9 | |
| 20260504191706 | 24 | 256 | 4.8 | 8.0 | 0.00 | 0.53 | 0.00 | 47 | 1018.0 |
| 20260504191701 | 24 | 0.0 | 0.0 | 0.00 | 0.53 | 0.00 | 49 | 1017.9 | |
| 20260504191656 | 24 | 0.0 | 0.0 | 0.00 | 0.53 | 0.00 | 50 | 1017.8 | |
| 20260504191651 | 24 | 0.0 | 0.0 | 0.00 | 0.53 | 0.00 | 49 | 1017.9 | |
| 20260504191647 | 25 | 130 | 14.5 | 22.5 | 0.00 | 0.53 | 0.00 | 60 | 1017.2 |
| 20260504191641 | 25 | 132 | 17.7 | 22.5 | 0.00 | 0.00 | 0.00 | 59 | 1016.3 |
| 20260504191354 | 25 | 0.0 | 0.0 | 0.00 | 0.53 | 0.00 | 51 | 1017.8 | |
| 20260504191348 | 26 | 0.0 | 0.0 | 0.00 | 0.53 | 0.00 | 56 | 1017.6 | |
| 20260504191343 | 25 | 0.0 | 0.0 | 0.00 | 0.53 | 0.00 | 52 | 1017.5 | |
| 20260504191339 | 25 | 141 | 16.1 | 22.5 | 0.00 | 0.23 | 0.00 | 57 | 1017.0 |
| 20260504191333 | 25 | 0.0 | 0.0 | 0.00 | 0.53 | 0.00 | 57 | 1017.4 | |
| 20260504191329 | 25 | 132 | 16.1 | 20.9 | 0.00 | 0.53 | 0.00 | 57 | 1017.1 |
| 20260504191323 | 24 | 149 | 16.1 | 22.5 | 0.00 | 0.53 | 0.00 | 56 | 1017.4 |
| 20260504191318 | 25 | 132 | 12.9 | 19.3 | 0.00 | 0.00 | 0.00 | 57 | 1016.8 |
| 20260504191311 | 25 | 144 | 14.5 | 19.3 | 0.00 | 0.53 | 0.00 | 59 | 1017.0 |
| 20260504191305 | 25 | 140 | 14.5 | 20.9 | 0.00 | 0.00 | 0.00 | 60 | 1017.0 |
| 20260504191259 | 25 | 138 | 12.9 | 19.3 | 0.00 | 0.00 | 0.00 | 53 | 1016.9 |
| 20260504191254 | 26 | 139 | 14.5 | 22.5 | 0.00 | 0.00 | 0.00 | 58 | 1016.6 |
| 20260504191248 | 26 | 132 | 16.1 | 22.5 | 0.00 | 0.00 | 0.00 | 60 | 1016.5 |
| 20260504190841 | 25 | 141 | 16.1 | 22.5 | 0.00 | 0.23 | 0.00 | 57 | 1017.0 |
| 20260504190835 | 25 | 132 | 12.9 | 19.3 | 0.00 | 0.00 | 0.00 | 57 | 1016.8 |
| 20260504190547 | 25 | 144 | 14.5 | 19.3 | 0.00 | 0.53 | 0.00 | 59 | 1017.0 |
| 20260504190542 | 25 | 140 | 14.5 | 20.9 | 0.00 | 0.00 | 0.00 | 60 | 1017.0 |
| 20260504190536 | 25 | 138 | 12.9 | 19.3 | 0.00 | 0.00 | 0.00 | 53 | 1016.9 |
| 20260504190531 | 26 | 132 | 16.1 | 22.5 | 0.00 | 0.00 | 0.00 | 60 | 1016.5 |
| 20260504190521 | 25 | 132 | 17.7 | 22.5 | 0.00 | 0.00 | 0.00 | 59 | 1016.3 |
| 20260504190238 | 24 | 0.0 | 0.0 | 0.00 | 0.53 | 0.00 | 49 | 1017.9 | |
| 20260504190233 | 25 | 0.0 | 0.0 | 0.00 | 0.53 | 0.00 | 54 | 1017.9 | |
| 20260504190227 | 25 | 141 | 16.1 | 22.5 | 0.00 | 0.23 | 0.00 | 57 | 1017.0 |
| 20260504190222 | 25 | 0.0 | 0.0 | 0.00 | 0.53 | 0.00 | 51 | 1017.8 | |
| 20260504190216 | 26 | 0.0 | 0.0 | 0.00 | 0.53 | 0.00 | 56 | 1017.6 | |
| 20260504190209 | 25 | 0.0 | 0.0 | 0.00 | 0.53 | 0.00 | 52 | 1017.5 | |
| 20260504190204 | 25 | 0.0 | 0.0 | 0.00 | 0.53 | 0.00 | 57 | 1017.4 | |
| 20260504190158 | 24 | 149 | 16.1 | 22.5 | 0.00 | 0.53 | 0.00 | 56 | 1017.4 |
| 20260504190154 | 25 | 130 | 14.5 | 22.5 | 0.00 | 0.53 | 0.00 | 60 | 1017.2 |
| 20260504190149 | 25 | 132 | 16.1 | 20.9 | 0.00 | 0.53 | 0.00 | 57 | 1017.1 |
| 20260504190143 | 25 | 132 | 12.9 | 19.3 | 0.00 | 0.00 | 0.00 | 57 | 1016.8 |
| 20260504190139 | 26 | 139 | 14.5 | 22.5 | 0.00 | 0.00 | 0.00 | 58 | 1016.6 |
| 20260504190011 | 25 | 144 | 14.5 | 19.3 | 0.00 | 0.53 | 0.00 | 59 | 1017.0 |
| 20260504190007 | 25 | 140 | 14.5 | 20.9 | 0.00 | 0.00 | 0.00 | 60 | 1017.0 |
| 20260504185559 | 26 | 139 | 14.5 | 22.5 | 0.00 | 0.00 | 0.00 | 58 | 1016.6 |
| 20260504185543 | 26 | 132 | 16.1 | 22.5 | 0.00 | 0.00 | 0.00 | 60 | 1016.5 |
| 20260504185305 | 25 | 138 | 12.9 | 19.3 | 0.00 | 0.00 | 0.00 | 53 | 1016.9 |
| 20260504185141 | 26 | 59 | 1.6 | 8.0 | 0.00 | 0.53 | 0.00 | 44 | 1018.0 |
| 20260504185135 | 24 | 256 | 4.8 | 8.0 | 0.00 | 0.53 | 0.00 | 47 | 1018.0 |
| 20260504185130 | 24 | 0.0 | 4.8 | 0.00 | 0.53 | 0.00 | 49 | 1017.9 | |
| 20260504185002 | 24 | 0.0 | 0.0 | 0.00 | 0.53 | 0.00 | 49 | 1017.9 | |
| 20260504184958 | 26 | 139 | 14.5 | 22.5 | 0.00 | 0.00 | 0.00 | 58 | 1016.6 |
| 20260504184953 | 24 | 0.0 | 0.0 | 0.00 | 0.53 | 0.00 | 50 | 1017.8 | |
| 20260504184947 | 24 | 0.0 | 0.0 | 0.00 | 0.53 | 0.00 | 49 | 1017.9 | |
| 20260504184941 | 25 | 0.0 | 0.0 | 0.00 | 0.53 | 0.00 | 54 | 1017.9 | |
| 20260504184936 | 25 | 0.0 | 0.0 | 0.00 | 0.53 | 0.00 | 51 | 1017.8 | |
| 20260504184931 | 26 | 0.0 | 0.0 | 0.00 | 0.53 | 0.00 | 56 | 1017.6 | |
| 20260504184925 | 25 | 0.0 | 0.0 | 0.00 | 0.53 | 0.00 | 52 | 1017.5 | |
| 20260504184921 | 25 | 0.0 | 0.0 | 0.00 | 0.53 | 0.00 | 57 | 1017.4 | |
| 20260504184915 | 24 | 149 | 16.1 | 22.5 | 0.00 | 0.53 | 0.00 | 56 | 1017.4 |
| 20260504184910 | 25 | 130 | 14.5 | 22.5 | 0.00 | 0.53 | 0.00 | 60 | 1017.2 |
| 20260504184904 | 25 | 132 | 16.1 | 20.9 | 0.00 | 0.53 | 0.00 | 57 | 1017.1 |
| 20260504184857 | 25 | 144 | 14.5 | 19.3 | 0.00 | 0.53 | 0.00 | 59 | 1017.0 |
| 20260504184853 | 25 | 141 | 16.1 | 22.5 | 0.00 | 0.23 | 0.00 | 57 | 1017.0 |
| 20260504184847 | 25 | 140 | 14.5 | 20.9 | 0.00 | 0.00 | 0.00 | 60 | 1017.0 |
| 20260504184600 | 25 | 31 | 14.5 | 17.7 | 0.00 | 0.53 | 0.00 | 49 | 1018.1 |
| 20260504184556 | 25 | 36 | 8.0 | 16.1 | 0.00 | 0.53 | 0.00 | 51 | 1018.2 |
| 20260504184550 | 26 | 22 | 11.3 | 16.1 | 0.00 | 0.53 | 0.00 | 48 | 1018.0 |
| 20260504184545 | 26 | 17 | 6.4 | 16.1 | 0.00 | 0.53 | 0.00 | 48 | 1018.0 |
| 20260504184540 | 26 | 13 | 11.3 | 16.1 | 0.00 | 0.53 | 0.00 | 48 | 1018.0 |
| 20260504184535 | 26 | 59 | 1.6 | 8.0 | 0.00 | 0.53 | 0.00 | 44 | 1018.0 |
| 20260504184529 | 25 | 256 | 4.8 | 8.0 | 0.00 | 0.53 | 0.00 | 51 | 1018.1 |
| 20260504184524 | 24 | 256 | 4.8 | 8.0 | 0.00 | 0.53 | 0.00 | 47 | 1018.0 |
| 20260504184519 | 25 | 132 | 12.9 | 19.3 | 0.00 | 0.00 | 0.00 | 57 | 1016.8 |
| 20260504184513 | 25 | 54 | 9.7 | 17.7 | 0.00 | 0.53 | 0.00 | 53 | 1018.3 |
| 20260504184508 | 26 | 139 | 14.5 | 22.5 | 0.00 | 0.00 | 0.00 | 58 | 1016.6 |
| 20260504184501 | 26 | 59 | 4.8 | 9.7 | 0.00 | 0.53 | 0.00 | 50 | 1018.0 |
| 20260504184455 | 24 | 0.0 | 4.8 | 0.00 | 0.53 | 0.00 | 49 | 1017.9 | |
| 20260504184450 | 24 | 0.0 | 0.0 | 0.00 | 0.53 | 0.00 | 49 | 1017.9 | |
| 20260504184324 | 25 | 0.0 | 0.0 | 0.00 | 0.53 | 0.00 | 51 | 1017.8 | |
| 20260504184318 | 25 | 0.0 | 0.0 | 0.00 | 0.53 | 0.00 | 52 | 1017.5 | |
| 20260504184312 | 24 | 0.0 | 0.0 | 0.00 | 0.53 | 0.00 | 50 | 1017.8 | |
| 20260504184307 | 26 | 22 | 8.0 | 16.1 | 0.00 | 0.53 | 0.00 | 50 | 1018.1 |
| 20260504184301 | 25 | 0.0 | 0.0 | 0.00 | 0.53 | 0.00 | 54 | 1017.9 | |
| 20260504184254 | 26 | 0.0 | 0.0 | 0.00 | 0.53 | 0.00 | 56 | 1017.6 | |
| 20260504184249 | 25 | 28 | 9.7 | 17.7 | 0.00 | 0.53 | 0.00 | 46 | 1018.1 |
| 20260504184243 | 25 | 0.0 | 0.0 | 0.00 | 0.53 | 0.00 | 57 | 1017.4 | |
| 20260504184239 | 24 | 149 | 16.1 | 22.5 | 0.00 | 0.53 | 0.00 | 56 | 1017.4 |
| 20260504184233 | 25 | 130 | 14.5 | 22.5 | 0.00 | 0.53 | 0.00 | 60 | 1017.2 |
| 20260504184229 | 25 | 132 | 16.1 | 20.9 | 0.00 | 0.53 | 0.00 | 57 | 1017.1 |
| 20260504184224 | 25 | 144 | 14.5 | 19.3 | 0.00 | 0.53 | 0.00 | 59 | 1017.0 |
| 20260504184218 | 25 | 141 | 16.1 | 22.5 | 0.00 | 0.23 | 0.00 | 57 | 1017.0 |
| 20260504184212 | 25 | 140 | 14.5 | 20.9 | 0.00 | 0.00 | 0.00 | 60 | 1017.0 |
| 20260504184207 | 25 | 138 | 12.9 | 19.3 | 0.00 | 0.00 | 0.00 | 53 | 1016.9 |
| 20260504184042 | 25 | 132 | 12.9 | 19.3 | 0.00 | 0.00 | 0.00 | 57 | 1016.8 |
| 20260504184036 | 26 | 22 | 11.3 | 16.1 | 0.00 | 0.53 | 0.00 | 48 | 1018.0 |
| 20260504184031 | 26 | 13 | 11.3 | 16.1 | 0.00 | 0.53 | 0.00 | 48 | 1018.0 |
| 20260504184026 | 26 | 17 | 6.4 | 16.1 | 0.00 | 0.53 | 0.00 | 48 | 1018.0 |
| 20260504184020 | 26 | 59 | 4.8 | 9.7 | 0.00 | 0.53 | 0.00 | 50 | 1018.0 |
| 20260504184015 | 25 | 256 | 4.8 | 8.0 | 0.00 | 0.53 | 0.00 | 51 | 1018.1 |
| 20260504184010 | 26 | 59 | 1.6 | 8.0 | 0.00 | 0.53 | 0.00 | 44 | 1018.0 |
| 20260504184005 | 24 | 256 | 4.8 | 8.0 | 0.00 | 0.53 | 0.00 | 47 | 1018.0 |
| 20260504183838 | 24 | 0.0 | 0.0 | 0.00 | 0.53 | 0.00 | 49 | 1017.9 | |
| 20260504183833 | 24 | 0.0 | 0.0 | 0.00 | 0.53 | 0.00 | 50 | 1017.8 | |
| 20260504183829 | 24 | 0.0 | 0.0 | 0.00 | 0.53 | 0.00 | 49 | 1017.9 | |
| 20260504183823 | 25 | 0.0 | 0.0 | 0.00 | 0.53 | 0.00 | 54 | 1017.9 | |
| 20260504183818 | 25 | 0.0 | 0.0 | 0.00 | 0.53 | 0.00 | 51 | 1017.8 | |
| 20260504183812 | 26 | 0.0 | 0.0 | 0.00 | 0.53 | 0.00 | 56 | 1017.6 | |
| 20260504183806 | 25 | 0.0 | 0.0 | 0.00 | 0.53 | 0.00 | 52 | 1017.5 | |
| 20260504183639 | 24 | 149 | 16.1 | 22.5 | 0.00 | 0.53 | 0.00 | 56 | 1017.4 |
| 20260504183633 | 25 | 130 | 14.5 | 22.5 | 0.00 | 0.53 | 0.00 | 60 | 1017.2 |
| 20260504183629 | 25 | 132 | 16.1 | 20.9 | 0.00 | 0.53 | 0.00 | 57 | 1017.1 |
| 20260504183623 | 25 | 144 | 14.5 | 19.3 | 0.00 | 0.53 | 0.00 | 59 | 1017.0 |
| 20260504183618 | 25 | 141 | 16.1 | 22.5 | 0.00 | 0.23 | 0.00 | 57 | 1017.0 |
| 20260504183612 | 25 | 140 | 14.5 | 20.9 | 0.00 | 0.00 | 0.00 | 60 | 1017.0 |
| 20260504183607 | 25 | 138 | 12.9 | 19.3 | 0.00 | 0.00 | 0.00 | 53 | 1016.9 |
| 20260504183551 | 25 | 132 | 12.9 | 19.3 | 0.00 | 0.00 | 0.00 | 57 | 1016.8 |
| 20260504183436 | 29 | 5 | 3.2 | 11.3 | 0.00 | 0.03 | 0.03 | 70 | 1007.2 |
| 20260504183430 | 29 | 56 | 3.2 | 16.1 | 0.00 | 0.03 | 0.03 | 72 | 1007.4 |
| 20260504183426 | 29 | 57 | 9.7 | 16.1 | 0.00 | 0.03 | 0.03 | 73 | 1007.5 |
| 20260504183421 | 29 | 0 | 11.3 | 19.3 | 0.00 | 0.03 | 0.03 | 76 | 1007.6 |
| 20260504183415 | 29 | 42 | 14.5 | 19.3 | 0.03 | 0.03 | 0.03 | 77 | 1007.8 |
| 20260504183249 | 28 | 40 | 12.9 | 20.9 | 0.03 | 0.03 | 0.03 | 79 | 1007.9 |
| 20260504183243 | 25 | 35 | 14.5 | 19.3 | 0.00 | 0.53 | 0.00 | 59 | 1018.0 |
| 20260504183236 | 26 | 22 | 8.0 | 16.1 | 0.00 | 0.53 | 0.00 | 50 | 1018.1 |
| 20260504183230 | 25 | 39 | 12.9 | 19.3 | 0.00 | 0.53 | 0.00 | 51 | 1018.1 |
| 20260504183225 | 25 | 54 | 9.7 | 17.7 | 0.00 | 0.53 | 0.00 | 53 | 1018.3 |
| 20260504183221 | 26 | 17 | 6.4 | 16.1 | 0.00 | 0.53 | 0.00 | 48 | 1018.0 |
| 20260504183215 | 26 | 59 | 4.8 | 9.7 | 0.00 | 0.53 | 0.00 | 50 | 1018.0 |
| 20260504183209 | 25 | 256 | 4.8 | 8.0 | 0.00 | 0.53 | 0.00 | 51 | 1018.1 |
| 20260504183204 | 26 | 0.0 | 0.0 | 0.00 | 0.53 | 0.00 | 56 | 1017.6 | |
| 20260504183159 | 24 | 0.0 | 4.8 | 0.00 | 0.53 | 0.00 | 49 | 1017.9 | |
| 20260504183154 | 24 | 0.0 | 0.0 | 0.00 | 0.53 | 0.00 | 49 | 1017.9 | |
| 20260504183149 | 24 | 0.0 | 0.0 | 0.00 | 0.53 | 0.00 | 49 | 1017.9 | |
| 20260504183143 | 24 | 256 | 4.8 | 8.0 | 0.00 | 0.53 | 0.00 | 47 | 1018.0 |
| 20260504183136 | 24 | 0.0 | 0.0 | 0.00 | 0.53 | 0.00 | 50 | 1017.8 | |
| 20260504183131 | 25 | 28 | 9.7 | 17.7 | 0.00 | 0.53 | 0.00 | 46 | 1018.1 |
| 20260504183126 | 26 | 59 | 1.6 | 8.0 | 0.00 | 0.53 | 0.00 | 44 | 1018.0 |
| 20260504183121 | 25 | 0.0 | 0.0 | 0.00 | 0.53 | 0.00 | 52 | 1017.5 | |
| 20260504183116 | 25 | 0.0 | 0.0 | 0.00 | 0.53 | 0.00 | 57 | 1017.4 | |
| 20260504183111 | 25 | 0.0 | 0.0 | 0.00 | 0.53 | 0.00 | 54 | 1017.9 | |
| 20260504183105 | 25 | 141 | 16.1 | 22.5 | 0.00 | 0.23 | 0.00 | 57 | 1017.0 |
| 20260504183100 | 25 | 31 | 14.5 | 17.7 | 0.00 | 0.53 | 0.00 | 49 | 1018.1 |
| 20260504183054 | 25 | 140 | 14.5 | 20.9 | 0.00 | 0.00 | 0.00 | 60 | 1017.0 |
| 20260504183049 | 25 | 0.0 | 0.0 | 0.00 | 0.53 | 0.00 | 51 | 1017.8 | |
| 20260504183043 | 26 | 22 | 11.3 | 16.1 | 0.00 | 0.53 | 0.00 | 48 | 1018.0 |
| 20260504183036 | 26 | 13 | 11.3 | 16.1 | 0.00 | 0.53 | 0.00 | 48 | 1018.0 |
| 20260504183032 | 24 | 149 | 16.1 | 22.5 | 0.00 | 0.53 | 0.00 | 56 | 1017.4 |
| 20260504183027 | 25 | 130 | 14.5 | 22.5 | 0.00 | 0.53 | 0.00 | 60 | 1017.2 |
| 20260504183022 | 25 | 138 | 12.9 | 19.3 | 0.00 | 0.00 | 0.00 | 53 | 1016.9 |
| 20260504183016 | 25 | 132 | 16.1 | 20.9 | 0.00 | 0.53 | 0.00 | 57 | 1017.1 |
| 20260504183011 | 25 | 144 | 14.5 | 19.3 | 0.00 | 0.53 | 0.00 | 59 | 1017.0 |
| 20260504182847 | 28 | 31 | 8.0 | 20.9 | 0.03 | 0.03 | 0.03 | 76 | 1007.9 |
| 20260504182843 | 28 | 24 | 3.2 | 9.7 | 0.03 | 0.03 | 0.03 | 75 | 1008.0 |
| 20260504182838 | 29 | 327 | 4.8 | 17.7 | 0.03 | 0.03 | 0.03 | 73 | 1008.3 |
| 20260504182831 | 30 | 281 | 9.7 | 25.7 | 0.00 | 0.00 | 0.00 | 65 | 1008.3 |
| 20260504182825 | 32 | 248 | 14.5 | 25.7 | 0.00 | 0.00 | 0.00 | 59 | 1008.4 |
| 20260504182820 | 31 | 240 | 14.5 | 25.7 | 0.00 | 0.00 | 0.00 | 62 | 1008.5 |
| 20260504182815 | 31 | 290 | 11.3 | 25.7 | 0.00 | 0.00 | 0.00 | 60 | 1008.6 |
| 20260504182810 | 31 | 0 | 12.9 | 25.7 | 0.00 | 0.00 | 0.00 | 66 | 1008.8 |
| 20260504182804 | 30 | 229 | 11.3 | 24.1 | 0.00 | 0.00 | 0.00 | 67 | 1008.9 |
| 20260504182759 | 30 | 306 | 9.7 | 17.7 | 0.00 | 0.00 | 0.00 | 74 | 1008.9 |
| 20260504182755 | 30 | 22 | 11.3 | 17.7 | 0.00 | 0.00 | 0.00 | 72 | 1009.0 |
| 20260504182749 | 24 | 42 | 14.5 | 19.3 | 0.00 | 0.53 | 0.00 | 57 | 1018.0 |
| 20260504182744 | 25 | 35 | 14.5 | 19.3 | 0.00 | 0.53 | 0.00 | 59 | 1018.0 |
| 20260504182738 | 25 | 36 | 8.0 | 16.1 | 0.00 | 0.53 | 0.00 | 51 | 1018.2 |
| 20260504182731 | 26 | 22 | 8.0 | 16.1 | 0.00 | 0.53 | 0.00 | 50 | 1018.1 |
| 20260504182727 | 26 | 0.0 | 0.0 | 0.00 | 0.53 | 0.00 | 56 | 1017.6 | |
| 20260504182721 | 26 | 17 | 6.4 | 16.1 | 0.00 | 0.53 | 0.00 | 48 | 1018.0 |
| 20260504182715 | 26 | 59 | 4.8 | 9.7 | 0.00 | 0.53 | 0.00 | 50 | 1018.0 |
| 20260504182710 | 25 | 256 | 4.8 | 8.0 | 0.00 | 0.53 | 0.00 | 51 | 1018.1 |
| 20260504182706 | 24 | 256 | 4.8 | 8.0 | 0.00 | 0.53 | 0.00 | 47 | 1018.0 |
| 20260504182700 | 24 | 0.0 | 4.8 | 0.00 | 0.53 | 0.00 | 49 | 1017.9 | |
| 20260504182655 | 25 | 39 | 12.9 | 19.3 | 0.00 | 0.53 | 0.00 | 51 | 1018.1 |
| 20260504182651 | 24 | 0.0 | 0.0 | 0.00 | 0.53 | 0.00 | 49 | 1017.9 | |
| 20260504182645 | 26 | 59 | 1.6 | 8.0 | 0.00 | 0.53 | 0.00 | 44 | 1018.0 |
| 20260504182641 | 24 | 0.0 | 0.0 | 0.00 | 0.53 | 0.00 | 50 | 1017.8 | |
| 20260504182635 | 24 | 0.0 | 0.0 | 0.00 | 0.53 | 0.00 | 49 | 1017.9 | |
| 20260504182628 | 25 | 0.0 | 0.0 | 0.00 | 0.53 | 0.00 | 57 | 1017.4 | |
| 20260504182623 | 25 | 0.0 | 0.0 | 0.00 | 0.53 | 0.00 | 54 | 1017.9 | |
| 20260504182618 | 25 | 0.0 | 0.0 | 0.00 | 0.53 | 0.00 | 52 | 1017.5 | |
| 20260504182613 | 25 | 54 | 9.7 | 17.7 | 0.00 | 0.53 | 0.00 | 53 | 1018.3 |
| 20260504182609 | 25 | 28 | 9.7 | 17.7 | 0.00 | 0.53 | 0.00 | 46 | 1018.1 |
| 20260504182603 | 25 | 0.0 | 0.0 | 0.00 | 0.53 | 0.00 | 51 | 1017.8 | |
| 20260504182557 | 25 | 140 | 14.5 | 20.9 | 0.00 | 0.00 | 0.00 | 60 | 1017.0 |
| 20260504182552 | 25 | 31 | 14.5 | 17.7 | 0.00 | 0.53 | 0.00 | 49 | 1018.1 |
| 20260504182547 | 25 | 141 | 16.1 | 22.5 | 0.00 | 0.23 | 0.00 | 57 | 1017.0 |
| 20260504182535 | 25 | 138 | 12.9 | 19.3 | 0.00 | 0.00 | 0.00 | 53 | 1016.9 |
| 20260504182417 | 24 | 149 | 16.1 | 22.5 | 0.00 | 0.53 | 0.00 | 56 | 1017.4 |
| 20260504182412 | 25 | 130 | 14.5 | 22.5 | 0.00 | 0.53 | 0.00 | 60 | 1017.2 |
| 20260504182408 | 26 | 13 | 11.3 | 16.1 | 0.00 | 0.53 | 0.00 | 48 | 1018.0 |
| 20260504182402 | 25 | 132 | 16.1 | 20.9 | 0.00 | 0.53 | 0.00 | 57 | 1017.1 |
| 20260504182357 | 25 | 144 | 14.5 | 19.3 | 0.00 | 0.53 | 0.00 | 59 | 1017.0 |
| 20260504182228 | 25 | 36 | 8.0 | 16.1 | 0.00 | 0.53 | 0.00 | 51 | 1018.2 |
| 20260504182223 | 26 | 22 | 8.0 | 16.1 | 0.00 | 0.53 | 0.00 | 50 | 1018.1 |
| 20260504182217 | 26 | 17 | 6.4 | 16.1 | 0.00 | 0.53 | 0.00 | 48 | 1018.0 |
| 20260504182212 | 26 | 59 | 4.8 | 9.7 | 0.00 | 0.53 | 0.00 | 50 | 1018.0 |
| 20260504182207 | 25 | 256 | 4.8 | 8.0 | 0.00 | 0.53 | 0.00 | 51 | 1018.1 |
| 20260504182202 | 26 | 59 | 1.6 | 8.0 | 0.00 | 0.53 | 0.00 | 44 | 1018.0 |
| 20260504182157 | 24 | 256 | 4.8 | 8.0 | 0.00 | 0.53 | 0.00 | 47 | 1018.0 |
| 20260504182151 | 24 | 0.0 | 4.8 | 0.00 | 0.53 | 0.00 | 49 | 1017.9 | |
| 20260504182147 | 24 | 0.0 | 0.0 | 0.00 | 0.53 | 0.00 | 49 | 1017.9 | |
| 20260504182142 | 24 | 0.0 | 0.0 | 0.00 | 0.53 | 0.00 | 50 | 1017.8 | |
| 20260504182136 | 24 | 0.0 | 0.0 | 0.00 | 0.53 | 0.00 | 49 | 1017.9 | |
| 20260504182129 | 25 | 0.0 | 0.0 | 0.00 | 0.53 | 0.00 | 54 | 1017.9 | |
| 20260504182123 | 25 | 0.0 | 0.0 | 0.00 | 0.53 | 0.00 | 51 | 1017.8 | |
| 20260504182118 | 25 | 0.0 | 0.0 | 0.00 | 0.53 | 0.00 | 52 | 1017.5 | |
| 20260504182112 | 25 | 0.0 | 0.0 | 0.00 | 0.53 | 0.00 | 57 | 1017.4 | |
| 20260504182107 | 25 | 140 | 14.5 | 20.9 | 0.00 | 0.00 | 0.00 | 60 | 1017.0 |
| 20260504182103 | 25 | 141 | 16.1 | 22.5 | 0.00 | 0.23 | 0.00 | 57 | 1017.0 |
| 20260504181936 | 25 | 130 | 14.5 | 22.5 | 0.00 | 0.53 | 0.00 | 60 | 1017.2 |
| 20260504181808 | 26 | 22 | 11.3 | 16.1 | 0.00 | 0.53 | 0.00 | 48 | 1018.0 |
| 20260504181803 | 26 | 13 | 11.3 | 16.1 | 0.00 | 0.53 | 0.00 | 48 | 1018.0 |
| 20260504181759 | 26 | 0.0 | 0.0 | 0.00 | 0.53 | 0.00 | 56 | 1017.6 | |
| 20260504181753 | 25 | 132 | 16.1 | 20.9 | 0.00 | 0.53 | 0.00 | 57 | 1017.1 |
| 20260504181749 | 25 | 144 | 14.5 | 19.3 | 0.00 | 0.53 | 0.00 | 59 | 1017.0 |
| 20260504181620 | 26 | 59 | 4.8 | 9.7 | 0.00 | 0.53 | 0.00 | 50 | 1018.0 |
| 20260504181616 | 25 | 256 | 4.8 | 8.0 | 0.00 | 0.53 | 0.00 | 51 | 1018.1 |
| 20260504181610 | 26 | 59 | 1.6 | 8.0 | 0.00 | 0.53 | 0.00 | 44 | 1018.0 |
| 20260504181605 | 24 | 256 | 4.8 | 8.0 | 0.00 | 0.53 | 0.00 | 47 | 1018.0 |
| 20260504181600 | 24 | 0.0 | 4.8 | 0.00 | 0.53 | 0.00 | 49 | 1017.9 | |
| 20260504181555 | 25 | 141 | 16.1 | 22.5 | 0.00 | 0.23 | 0.00 | 57 | 1017.0 |
| 20260504181540 | 25 | 140 | 14.5 | 20.9 | 0.00 | 0.00 | 0.00 | 60 | 1017.0 |
| 20260504181420 | 25 | 0.0 | 0.0 | 0.00 | 0.53 | 0.00 | 54 | 1017.9 | |
| 20260504181415 | 24 | 0.0 | 0.0 | 0.00 | 0.53 | 0.00 | 50 | 1017.8 | |
| 20260504181409 | 25 | 0.0 | 0.0 | 0.00 | 0.53 | 0.00 | 51 | 1017.8 | |
| 20260504181405 | 25 | 0.0 | 0.0 | 0.00 | 0.53 | 0.00 | 57 | 1017.4 | |
| 20260504181359 | 24 | 0.0 | 0.0 | 0.00 | 0.53 | 0.00 | 49 | 1017.9 | |
| 20260504181354 | 25 | 0.0 | 0.0 | 0.00 | 0.53 | 0.00 | 52 | 1017.5 | |
| 20260504181350 | 24 | 149 | 16.1 | 22.5 | 0.00 | 0.53 | 0.00 | 56 | 1017.4 |
| 20260504181344 | 25 | 130 | 14.5 | 22.5 | 0.00 | 0.53 | 0.00 | 60 | 1017.2 |
| 20260504181216 | 26 | 0.0 | 0.0 | 0.00 | 0.53 | 0.00 | 56 | 1017.6 | |
| 20260504181212 | 25 | 144 | 14.5 | 19.3 | 0.00 | 0.53 | 0.00 | 59 | 1017.0 |
| 20260504180925 | 25 | 256 | 4.8 | 8.0 | 0.00 | 0.53 | 0.00 | 51 | 1018.1 |
| 20260504180920 | 24 | 0.0 | 4.8 | 0.00 | 0.53 | 0.00 | 49 | 1017.9 | |
| 20260504180914 | 25 | 0.0 | 0.0 | 0.00 | 0.53 | 0.00 | 54 | 1017.9 | |
| 20260504180909 | 24 | 0.0 | 0.0 | 0.00 | 0.53 | 0.00 | 49 | 1017.9 | |
| 20260504180903 | 24 | 0.0 | 0.0 | 0.00 | 0.53 | 0.00 | 49 | 1017.9 | |
| 20260504180859 | 25 | 0.0 | 0.0 | 0.00 | 0.53 | 0.00 | 51 | 1017.8 | |
| 20260504180853 | 25 | 0.0 | 0.0 | 0.00 | 0.53 | 0.00 | 52 | 1017.5 | |
| 20260504180848 | 25 | 0.0 | 0.0 | 0.00 | 0.53 | 0.00 | 57 | 1017.4 | |
| 20260504180842 | 24 | 149 | 16.1 | 22.5 | 0.00 | 0.53 | 0.00 | 56 | 1017.4 |
| 20260504180836 | 25 | 130 | 14.5 | 22.5 | 0.00 | 0.53 | 0.00 | 60 | 1017.2 |
| 20260504180709 | 25 | 132 | 16.1 | 20.9 | 0.00 | 0.53 | 0.00 | 57 | 1017.1 |
| 20260504180535 | 25 | 141 | 16.1 | 22.5 | 0.00 | 0.23 | 0.00 | 57 | 1017.0 |
| 20260504180417 | 25 | 0.0 | 0.0 | 0.00 | 0.53 | 0.00 | 54 | 1017.9 | |
| 20260504180413 | 25 | 0.0 | 0.0 | 0.00 | 0.53 | 0.00 | 52 | 1017.5 | |
| 20260504180247 | 24 | 149 | 16.1 | 22.5 | 0.00 | 0.53 | 0.00 | 56 | 1017.4 |
| 20260504180241 | 25 | 130 | 14.5 | 22.5 | 0.00 | 0.53 | 0.00 | 60 | 1017.2 |
| 20260504180115 | 24 | 0.0 | 4.8 | 0.00 | 0.53 | 0.00 | 49 | 1017.9 | |
| 20260504180109 | 25 | 0.0 | 0.0 | 0.00 | 0.53 | 0.00 | 51 | 1017.8 | |
| 20260504180104 | 24 | 0.0 | 0.0 | 0.00 | 0.53 | 0.00 | 49 | 1017.9 | |
| 20260504180058 | 25 | 132 | 16.1 | 20.9 | 0.00 | 0.53 | 0.00 | 57 | 1017.1 |
| 20260504180052 | 24 | 0.0 | 0.0 | 0.00 | 0.53 | 0.00 | 49 | 1017.9 | |
| 20260504180048 | 26 | 0.0 | 0.0 | 0.00 | 0.53 | 0.00 | 56 | 1017.6 | |
| 20260504180043 | 25 | 144 | 14.5 | 19.3 | 0.00 | 0.53 | 0.00 | 59 | 1017.0 |
| 20260504175755 | 25 | 0.0 | 0.0 | 0.00 | 0.53 | 0.00 | 54 | 1017.9 | |
| 20260504175749 | 30 | 251 | 12.9 | 27.4 | 0.00 | 0.00 | 0.00 | 69 | 1009.2 |
| 20260504175745 | 24 | 0.0 | 0.0 | 0.00 | 0.53 | 0.00 | 50 | 1017.8 | |
| 20260504175739 | 30 | 251 | 16.1 | 33.8 | 0.00 | 0.00 | 0.00 | 65 | 1009.2 |
| 20260504175734 | 25 | 0.0 | 0.0 | 0.00 | 0.53 | 0.00 | 57 | 1017.4 | |
| 20260504175728 | 30 | 232 | 9.7 | 30.6 | 0.00 | 0.00 | 0.00 | 66 | 1009.4 |
| 20260504175723 | 25 | 0.0 | 0.0 | 0.00 | 0.53 | 0.00 | 52 | 1017.5 | |
| 20260504175717 | 30 | 261 | 9.7 | 19.3 | 0.00 | 0.00 | 0.00 | 68 | 1009.4 |
| 20260504175713 | 29 | 237 | 8.0 | 17.7 | 0.00 | 0.00 | 0.00 | 71 | 1009.7 |
| 20260504175705 | 28 | 232 | 6.4 | 12.9 | 0.00 | 0.00 | 0.00 | 72 | 1009.9 |
| 20260504175659 | 28 | 253 | 6.4 | 17.7 | 0.00 | 0.00 | 0.00 | 72 | 1010.1 |
| 20260504175655 | 28 | 238 | 9.7 | 17.7 | 0.00 | 0.00 | 0.00 | 70 | 1010.4 |
| 20260504175649 | 23 | 51 | 12.9 | 17.7 | 0.00 | 0.53 | 0.00 | 63 | 1018.0 |
| 20260504175645 | 24 | 42 | 14.5 | 19.3 | 0.00 | 0.53 | 0.00 | 57 | 1018.0 |
| 20260504175639 | 22 | 40 | 11.3 | 16.1 | 0.00 | 0.53 | 0.00 | 69 | 1018.0 |
| 20260504175634 | 25 | 35 | 14.5 | 19.3 | 0.00 | 0.53 | 0.00 | 59 | 1018.0 |
| 20260504175629 | 24 | 0.0 | 4.8 | 0.00 | 0.53 | 0.00 | 49 | 1017.9 | |
| 20260504175624 | 25 | 130 | 14.5 | 22.5 | 0.00 | 0.53 | 0.00 | 60 | 1017.2 |
| 20260504175619 | 24 | 149 | 16.1 | 22.5 | 0.00 | 0.53 | 0.00 | 56 | 1017.4 |
| 20260504175613 | 25 | 39 | 12.9 | 19.3 | 0.00 | 0.53 | 0.00 | 51 | 1018.1 |
| 20260504175608 | 25 | 54 | 9.7 | 17.7 | 0.00 | 0.53 | 0.00 | 53 | 1018.3 |
| 20260504175600 | 25 | 132 | 16.1 | 20.9 | 0.00 | 0.53 | 0.00 | 57 | 1017.1 |
| 20260504175555 | 25 | 31 | 14.5 | 17.7 | 0.00 | 0.53 | 0.00 | 49 | 1018.1 |
| 20260504175551 | 25 | 36 | 8.0 | 16.1 | 0.00 | 0.53 | 0.00 | 51 | 1018.2 |
| 20260504175545 | 25 | 0.0 | 0.0 | 0.00 | 0.53 | 0.00 | 51 | 1017.8 | |
| 20260504175540 | 24 | 0.0 | 0.0 | 0.00 | 0.53 | 0.00 | 49 | 1017.9 | |
| 20260504175534 | 24 | 0.0 | 0.0 | 0.00 | 0.53 | 0.00 | 49 | 1017.9 | |
| 20260504175529 | 26 | 0.0 | 0.0 | 0.00 | 0.53 | 0.00 | 56 | 1017.6 | |
| 20260504175518 | 25 | 144 | 14.5 | 19.3 | 0.00 | 0.53 | 0.00 | 59 | 1017.0 |
| 20260504175359 | 26 | 22 | 11.3 | 16.1 | 0.00 | 0.53 | 0.00 | 48 | 1018.0 |
| 20260504175354 | 25 | 28 | 9.7 | 17.7 | 0.00 | 0.53 | 0.00 | 46 | 1018.1 |
| 20260504175348 | 26 | 17 | 6.4 | 16.1 | 0.00 | 0.53 | 0.00 | 48 | 1018.0 |
| 20260504175343 | 26 | 59 | 4.8 | 9.7 | 0.00 | 0.53 | 0.00 | 50 | 1018.0 |
| 20260504175337 | 26 | 59 | 1.6 | 8.0 | 0.00 | 0.53 | 0.00 | 44 | 1018.0 |
| 20260504175332 | 26 | 13 | 11.3 | 16.1 | 0.00 | 0.53 | 0.00 | 48 | 1018.0 |
| 20260504175326 | 24 | 256 | 4.8 | 8.0 | 0.00 | 0.53 | 0.00 | 47 | 1018.0 |
| 20260504175321 | 25 | 256 | 4.8 | 8.0 | 0.00 | 0.53 | 0.00 | 51 | 1018.1 |
| 20260504175315 | 29 | 238 | 8.0 | 17.7 | 0.00 | 0.00 | 0.00 | 70 | 1010.2 |
| 20260504175311 | 24 | 0.0 | 0.0 | 0.00 | 0.53 | 0.00 | 50 | 1017.8 | |
| 20260504175304 | 25 | 0.0 | 0.0 | 0.00 | 0.53 | 0.00 | 57 | 1017.4 | |
| 20260504175258 | 25 | 0.0 | 0.0 | 0.00 | 0.53 | 0.00 | 54 | 1017.9 | |
| 20260504175253 | 28 | 234 | 6.4 | 14.5 | 0.00 | 0.00 | 0.00 | 71 | 1010.4 |
| 20260504175247 | 25 | 0.0 | 0.0 | 0.00 | 0.53 | 0.00 | 52 | 1017.5 | |
| 20260504175243 | 29 | 260 | 9.7 | 17.7 | 0.00 | 0.00 | 0.00 | 70 | 1010.6 |
| 20260504175237 | 29 | 281 | 9.7 | 19.3 | 0.00 | 0.00 | 0.00 | 74 | 1010.8 |
| 20260504175232 | 28 | 234 | 9.7 | 17.7 | 0.00 | 0.00 | 0.00 | 74 | 1010.7 |
| 20260504175226 | 28 | 260 | 6.4 | 19.3 | 0.00 | 0.00 | 0.00 | 72 | 1010.7 |
| 20260504175222 | 21 | 32 | 9.7 | 12.9 | 0.00 | 0.53 | 0.00 | 77 | 1017.9 |
| 20260504175216 | 19 | 36 | 9.7 | 12.9 | 0.00 | 0.69 | 0.00 | 82 | 1018.0 |
| 20260504175211 | 18 | 0 | 6.4 | 12.9 | 0.00 | 0.69 | 0.00 | 87 | 1018.0 |
| 20260504175207 | 17 | 343 | 3.2 | 6.4 | 0.00 | 0.69 | 0.00 | 90 | 1017.8 |
| 20260504175159 | 16 | 340 | 1.6 | 6.4 | 0.00 | 0.69 | 0.00 | 91 | 1017.7 |
| 20260504175154 | 16 | 311 | 3.2 | 8.0 | 0.00 | 0.69 | 0.00 | 92 | 1017.8 |
| 20260504175149 | 23 | 51 | 12.9 | 17.7 | 0.00 | 0.53 | 0.00 | 63 | 1018.0 |
| 20260504175143 | 22 | 40 | 11.3 | 16.1 | 0.00 | 0.53 | 0.00 | 69 | 1018.0 |
| 20260504175138 | 24 | 42 | 14.5 | 19.3 | 0.00 | 0.53 | 0.00 | 57 | 1018.0 |
| 20260504175132 | 25 | 35 | 14.5 | 19.3 | 0.00 | 0.53 | 0.00 | 59 | 1018.0 |
| 20260504175126 | 24 | 149 | 16.1 | 22.5 | 0.00 | 0.53 | 0.00 | 56 | 1017.4 |
| 20260504175121 | 25 | 39 | 12.9 | 19.3 | 0.00 | 0.53 | 0.00 | 51 | 1018.1 |
| 20260504175117 | 25 | 130 | 14.5 | 22.5 | 0.00 | 0.53 | 0.00 | 60 | 1017.2 |
| 20260504175112 | 25 | 54 | 9.7 | 17.7 | 0.00 | 0.53 | 0.00 | 53 | 1018.3 |
| 20260504175107 | 25 | 31 | 14.5 | 17.7 | 0.00 | 0.53 | 0.00 | 49 | 1018.1 |
| 20260504175100 | 24 | 0.0 | 4.8 | 0.00 | 0.53 | 0.00 | 49 | 1017.9 | |
| 20260504175054 | 25 | 0.0 | 0.0 | 0.00 | 0.53 | 0.00 | 51 | 1017.8 | |
| 20260504175049 | 25 | 132 | 16.1 | 20.9 | 0.00 | 0.53 | 0.00 | 57 | 1017.1 |
| 20260504174922 | 24 | 0.0 | 0.0 | 0.00 | 0.53 | 0.00 | 49 | 1017.9 | |
| 20260504174918 | 25 | 36 | 8.0 | 16.1 | 0.00 | 0.53 | 0.00 | 51 | 1018.2 |
| 20260504174913 | 26 | 0.0 | 0.0 | 0.00 | 0.53 | 0.00 | 56 | 1017.6 | |
| 20260504174907 | 26 | 22 | 8.0 | 16.1 | 0.00 | 0.53 | 0.00 | 50 | 1018.1 |
| 20260504174903 | 25 | 28 | 9.7 | 17.7 | 0.00 | 0.53 | 0.00 | 46 | 1018.1 |
| 20260504174854 | 26 | 22 | 11.3 | 16.1 | 0.00 | 0.53 | 0.00 | 48 | 1018.0 |
| 20260504174849 | 26 | 13 | 11.3 | 16.1 | 0.00 | 0.53 | 0.00 | 48 | 1018.0 |
| 20260504174845 | 26 | 17 | 6.4 | 16.1 | 0.00 | 0.53 | 0.00 | 48 | 1018.0 |
| 20260504174839 | 26 | 59 | 4.8 | 9.7 | 0.00 | 0.53 | 0.00 | 50 | 1018.0 |
| 20260504174834 | 25 | 256 | 4.8 | 8.0 | 0.00 | 0.53 | 0.00 | 51 | 1018.1 |
| 20260504174828 | 26 | 59 | 1.6 | 8.0 | 0.00 | 0.53 | 0.00 | 44 | 1018.0 |
| 20260504174823 | 24 | 256 | 4.8 | 8.0 | 0.00 | 0.53 | 0.00 | 47 | 1018.0 |
| 20260504174818 | 24 | 0.0 | 0.0 | 0.00 | 0.53 | 0.00 | 50 | 1017.8 | |
| 20260504174813 | 25 | 0.0 | 0.0 | 0.00 | 0.53 | 0.00 | 54 | 1017.9 | |
| 20260504174807 | 25 | 0.0 | 0.0 | 0.00 | 0.53 | 0.00 | 52 | 1017.5 | |
| 20260504174802 | 25 | 0.0 | 0.0 | 0.00 | 0.53 | 0.00 | 57 | 1017.4 | |
| 20260504174635 | 25 | 130 | 14.5 | 22.5 | 0.00 | 0.53 | 0.00 | 60 | 1017.2 |
| 20260504174511 | 23 | 51 | 12.9 | 17.7 | 0.00 | 0.53 | 0.00 | 63 | 1018.0 |
| 20260504174505 | 25 | 0.0 | 0.0 | 0.00 | 0.53 | 0.00 | 51 | 1017.8 | |
| 20260504174500 | 25 | 132 | 16.1 | 20.9 | 0.00 | 0.53 | 0.00 | 57 | 1017.1 |
| 20260504174454 | 22 | 40 | 11.3 | 16.1 | 0.00 | 0.53 | 0.00 | 69 | 1018.0 |
| 20260504174447 | 24 | 42 | 14.5 | 19.3 | 0.00 | 0.53 | 0.00 | 57 | 1018.0 |
| 20260504174442 | 24 | 0.0 | 4.8 | 0.00 | 0.53 | 0.00 | 49 | 1017.9 | |
| 20260504174437 | 24 | 0.0 | 0.0 | 0.00 | 0.53 | 0.00 | 49 | 1017.9 | |
| 20260504174432 | 24 | 0.0 | 0.0 | 0.00 | 0.53 | 0.00 | 49 | 1017.9 | |
| 20260504174427 | 26 | 0.0 | 0.0 | 0.00 | 0.53 | 0.00 | 56 | 1017.6 | |
| 20260504174301 | 25 | 39 | 12.9 | 19.3 | 0.00 | 0.53 | 0.00 | 51 | 1018.1 |
| 20260504174256 | 25 | 54 | 9.7 | 17.7 | 0.00 | 0.53 | 0.00 | 53 | 1018.3 |
| 20260504174249 | 25 | 31 | 14.5 | 17.7 | 0.00 | 0.53 | 0.00 | 49 | 1018.1 |
| 20260504174245 | 25 | 36 | 8.0 | 16.1 | 0.00 | 0.53 | 0.00 | 51 | 1018.2 |
| 20260504174239 | 26 | 22 | 8.0 | 16.1 | 0.00 | 0.53 | 0.00 | 50 | 1018.1 |
| 20260504174234 | 25 | 28 | 9.7 | 17.7 | 0.00 | 0.53 | 0.00 | 46 | 1018.1 |
| 20260504174229 | 26 | 22 | 11.3 | 16.1 | 0.00 | 0.53 | 0.00 | 48 | 1018.0 |
| 20260504174224 | 26 | 13 | 11.3 | 16.1 | 0.00 | 0.53 | 0.00 | 48 | 1018.0 |
| 20260504174218 | 26 | 17 | 6.4 | 16.1 | 0.00 | 0.53 | 0.00 | 48 | 1018.0 |
| 20260504174213 | 25 | 0.0 | 0.0 | 0.00 | 0.53 | 0.00 | 54 | 1017.9 | |
| 20260504174207 | 26 | 59 | 4.8 | 9.7 | 0.00 | 0.53 | 0.00 | 50 | 1018.0 |
| 20260504174202 | 25 | 256 | 4.8 | 8.0 | 0.00 | 0.53 | 0.00 | 51 | 1018.1 |
| 20260504174158 | 26 | 59 | 1.6 | 8.0 | 0.00 | 0.53 | 0.00 | 44 | 1018.0 |
| 20260504174152 | 25 | 0.0 | 0.0 | 0.00 | 0.53 | 0.00 | 57 | 1017.4 | |
| 20260504174145 | 25 | 0.0 | 0.0 | 0.00 | 0.53 | 0.00 | 52 | 1017.5 | |
| 20260504174139 | 24 | 256 | 4.8 | 8.0 | 0.00 | 0.53 | 0.00 | 47 | 1018.0 |
| 20260504174134 | 24 | 0.0 | 0.0 | 0.00 | 0.53 | 0.00 | 50 | 1017.8 | |
| 20260504174130 | 24 | 149 | 16.1 | 22.5 | 0.00 | 0.53 | 0.00 | 56 | 1017.4 |
| 20260504174124 | 25 | 130 | 14.5 | 22.5 | 0.00 | 0.53 | 0.00 | 60 | 1017.2 |
| 20260504173837 | 24 | 0.0 | 0.0 | 0.00 | 0.53 | 0.00 | 49 | 1017.9 | |
| 20260504173832 | 24 | 0.0 | 0.0 | 0.00 | 0.53 | 0.00 | 49 | 1017.9 | |
| 20260504173826 | 26 | 0.0 | 0.0 | 0.00 | 0.53 | 0.00 | 56 | 1017.6 | |
| 20260504173702 | 25 | 0.0 | 0.0 | 0.00 | 0.53 | 0.00 | 52 | 1017.5 | |
| 20260504173656 | 25 | 0.0 | 0.0 | 0.00 | 0.53 | 0.00 | 57 | 1017.4 | |
| 20260504173529 | 24 | 149 | 16.1 | 22.5 | 0.00 | 0.53 | 0.00 | 56 | 1017.4 |
| 20260504173523 | 24 | 256 | 4.8 | 8.0 | 0.00 | 0.53 | 0.00 | 47 | 1018.0 |
| 20260504173515 | 25 | 130 | 14.5 | 22.5 | 0.00 | 0.53 | 0.00 | 60 | 1017.2 |
| 20260504173353 | 24 | 0.0 | 0.0 | 0.00 | 0.53 | 0.00 | 50 | 1017.8 | |
| 20260504173347 | 25 | 0.0 | 0.0 | 0.00 | 0.53 | 0.00 | 51 | 1017.8 | |
| 20260504173340 | 23 | 51 | 12.9 | 17.7 | 0.00 | 0.53 | 0.00 | 63 | 1018.0 |
| 20260504173336 | 22 | 40 | 11.3 | 16.1 | 0.00 | 0.53 | 0.00 | 69 | 1018.0 |
| 20260504173330 | 24 | 42 | 14.5 | 19.3 | 0.00 | 0.53 | 0.00 | 57 | 1018.0 |
| 20260504173325 | 25 | 35 | 14.5 | 19.3 | 0.00 | 0.53 | 0.00 | 59 | 1018.0 |
| 20260504173321 | 25 | 39 | 12.9 | 19.3 | 0.00 | 0.53 | 0.00 | 51 | 1018.1 |
| 20260504173315 | 25 | 54 | 9.7 | 17.7 | 0.00 | 0.53 | 0.00 | 53 | 1018.3 |
| 20260504173310 | 25 | 31 | 14.5 | 17.7 | 0.00 | 0.53 | 0.00 | 49 | 1018.1 |
| 20260504173304 | 25 | 36 | 8.0 | 16.1 | 0.00 | 0.53 | 0.00 | 51 | 1018.2 |
| 20260504173259 | 26 | 22 | 8.0 | 16.1 | 0.00 | 0.53 | 0.00 | 50 | 1018.1 |
| 20260504173253 | 25 | 28 | 9.7 | 17.7 | 0.00 | 0.53 | 0.00 | 46 | 1018.1 |
| 20260504173249 | 26 | 0.0 | 0.0 | 0.00 | 0.53 | 0.00 | 56 | 1017.6 | |
| 20260504173124 | 26 | 13 | 11.3 | 16.1 | 0.00 | 0.53 | 0.00 | 48 | 1018.0 |
| 20260504173118 | 24 | 0.0 | 4.8 | 0.00 | 0.53 | 0.00 | 49 | 1017.9 | |
| 20260504173113 | 24 | 0.0 | 0.0 | 0.00 | 0.53 | 0.00 | 49 | 1017.9 | |
| 20260504173107 | 26 | 17 | 6.4 | 16.1 | 0.00 | 0.53 | 0.00 | 48 | 1018.0 |
| 20260504173103 | 24 | 0.0 | 0.0 | 0.00 | 0.53 | 0.00 | 49 | 1017.9 | |
| 20260504173057 | 25 | 0.0 | 0.0 | 0.00 | 0.53 | 0.00 | 57 | 1017.4 | |
| 20260504173052 | 25 | 0.0 | 0.0 | 0.00 | 0.53 | 0.00 | 52 | 1017.5 | |
| 20260504173048 | 25 | 0.0 | 0.0 | 0.00 | 0.53 | 0.00 | 54 | 1017.9 | |
| 20260504173043 | 24 | 149 | 16.1 | 22.5 | 0.00 | 0.53 | 0.00 | 56 | 1017.4 |
| 20260504172914 | 26 | 59 | 1.6 | 8.0 | 0.00 | 0.53 | 0.00 | 44 | 1018.0 |
| 20260504172909 | 25 | 256 | 4.8 | 8.0 | 0.00 | 0.53 | 0.00 | 51 | 1018.1 |
| 20260504172905 | 24 | 256 | 4.8 | 8.0 | 0.00 | 0.53 | 0.00 | 47 | 1018.0 |
| 20260504172859 | 24 | 0.0 | 0.0 | 0.00 | 0.53 | 0.00 | 50 | 1017.8 | |
| 20260504172854 | 25 | 0.0 | 0.0 | 0.00 | 0.53 | 0.00 | 51 | 1017.8 | |
| 20260504172607 | 25 | 0.0 | 0.0 | 0.00 | 0.53 | 0.00 | 52 | 1017.5 | |
| 20260504172601 | 25 | 0.0 | 0.0 | 0.00 | 0.53 | 0.00 | 57 | 1017.4 | |
| 20260504172556 | 28 | 15 | 6.4 | 19.3 | 0.00 | 0.00 | 0.00 | 74 | 1010.8 |
| 20260504172550 | 24 | 0.0 | 0.0 | 0.00 | 0.53 | 0.00 | 49 | 1017.9 | |
| 20260504172546 | 24 | 0.0 | 0.0 | 0.00 | 0.53 | 0.00 | 49 | 1017.9 | |
| 20260504172540 | 28 | 304 | 6.4 | 19.3 | 0.00 | 0.00 | 0.00 | 75 | 1011.1 |
| 20260504172535 | 27 | 244 | 8.0 | 19.3 | 0.00 | 0.00 | 0.00 | 77 | 1011.3 |
| 20260504172530 | 27 | 331 | 8.0 | 16.1 | 0.00 | 0.00 | 0.00 | 76 | 1011.1 |
| 20260504172523 | 27 | 327 | 4.8 | 17.7 | 0.00 | 0.00 | 0.00 | 79 | 1010.9 |
| 20260504172518 | 27 | 274 | 8.0 | 17.7 | 0.00 | 0.00 | 0.00 | 81 | 1010.9 |
| 20260504172513 | 26 | 221 | 6.4 | 16.1 | 0.00 | 0.00 | 0.00 | 83 | 1011.0 |
| 20260504172507 | 26 | 67 | 4.8 | 16.1 | 0.00 | 0.00 | 0.00 | 83 | 1011.2 |
| 20260504172501 | 26 | 344 | 4.8 | 12.9 | 0.00 | 0.00 | 0.00 | 83 | 1011.0 |
| 20260504172457 | 24 | 149 | 16.1 | 22.5 | 0.00 | 0.53 | 0.00 | 56 | 1017.4 |
| 20260504172452 | 26 | 254 | 6.4 | 17.7 | 0.00 | 0.00 | 0.00 | 84 | 1010.9 |
| 20260504172446 | 26 | 252 | 8.0 | 17.7 | 0.00 | 0.00 | 0.00 | 86 | 1010.4 |
| 20260504172441 | 25 | 276 | 6.4 | 14.5 | 0.00 | 0.00 | 0.00 | 85 | 1010.8 |
| 20260504172435 | 25 | 302 | 8.0 | 16.1 | 0.00 | 0.00 | 0.00 | 87 | 1010.8 |
| 20260504172429 | 25 | 229 | 6.4 | 16.1 | 0.00 | 0.00 | 0.00 | 87 | 1010.6 |
| 20260504172422 | 25 | 252 | 3.2 | 12.9 | 0.00 | 0.00 | 0.00 | 88 | 1010.6 |
| 20260504172418 | 25 | 0.0 | 0.0 | 0.00 | 0.53 | 0.00 | 54 | 1017.9 | |
| 20260504172412 | 24 | 248 | 6.4 | 14.5 | 0.00 | 0.00 | 0.00 | 88 | 1010.6 |
| 20260504172407 | 24 | 252 | 6.4 | 14.5 | 0.00 | 0.00 | 0.00 | 89 | 1010.6 |
| 20260504172403 | 23 | 244 | 6.4 | 12.9 | 0.00 | 0.00 | 0.00 | 89 | 1010.9 |
| 20260504172357 | 23 | 223 | 4.8 | 11.3 | 0.00 | 0.00 | 0.00 | 90 | 1010.8 |
| 20260504172353 | 15 | 18 | 3.2 | 8.0 | 0.00 | 0.69 | 0.00 | 92 | 1017.5 |
| 20260504172347 | 15 | 0 | 1.6 | 8.0 | 0.00 | 0.69 | 0.00 | 93 | 1017.6 |
| 20260504172342 | 15 | 49 | 1.6 | 6.4 | 0.00 | 0.69 | 0.00 | 94 | 1017.5 |
| 20260504172337 | 14 | 48 | 0.0 | 4.8 | 0.00 | 0.69 | 0.00 | 94 | 1017.4 |
| 20260504172331 | 19 | 36 | 9.7 | 12.9 | 0.00 | 0.69 | 0.00 | 82 | 1018.0 |
| 20260504172324 | 18 | 0 | 6.4 | 12.9 | 0.00 | 0.69 | 0.00 | 87 | 1018.0 |
| 20260504172320 | 17 | 343 | 3.2 | 6.4 | 0.00 | 0.69 | 0.00 | 90 | 1017.8 |
| 20260504172314 | 16 | 340 | 1.6 | 6.4 | 0.00 | 0.69 | 0.00 | 91 | 1017.7 |
| 20260504172309 | 25 | 0.0 | 0.0 | 0.00 | 0.53 | 0.00 | 51 | 1017.8 | |
| 20260504172304 | 16 | 311 | 3.2 | 8.0 | 0.00 | 0.69 | 0.00 | 92 | 1017.8 |
| 20260504172258 | 21 | 32 | 9.7 | 12.9 | 0.00 | 0.53 | 0.00 | 77 | 1017.9 |
| 20260504172252 | 23 | 51 | 12.9 | 17.7 | 0.00 | 0.53 | 0.00 | 63 | 1018.0 |
| 20260504172248 | 22 | 40 | 11.3 | 16.1 | 0.00 | 0.53 | 0.00 | 69 | 1018.0 |
| 20260504172242 | 24 | 42 | 14.5 | 19.3 | 0.00 | 0.53 | 0.00 | 57 | 1018.0 |
| 20260504172237 | 25 | 35 | 14.5 | 19.3 | 0.00 | 0.53 | 0.00 | 59 | 1018.0 |
| 20260504172233 | 25 | 39 | 12.9 | 19.3 | 0.00 | 0.53 | 0.00 | 51 | 1018.1 |
| 20260504172227 | 25 | 54 | 9.7 | 17.7 | 0.00 | 0.53 | 0.00 | 53 | 1018.3 |
| 20260504172219 | 25 | 31 | 14.5 | 17.7 | 0.00 | 0.53 | 0.00 | 49 | 1018.1 |
| 20260504172215 | 25 | 36 | 8.0 | 16.1 | 0.00 | 0.53 | 0.00 | 51 | 1018.2 |
| 20260504172210 | 26 | 22 | 8.0 | 16.1 | 0.00 | 0.53 | 0.00 | 50 | 1018.1 |
| 20260504172205 | 25 | 28 | 9.7 | 17.7 | 0.00 | 0.53 | 0.00 | 46 | 1018.1 |
| 20260504172200 | 26 | 22 | 11.3 | 16.1 | 0.00 | 0.53 | 0.00 | 48 | 1018.0 |
| 20260504172153 | 26 | 13 | 11.3 | 16.1 | 0.00 | 0.53 | 0.00 | 48 | 1018.0 |
| 20260504172149 | 26 | 17 | 6.4 | 16.1 | 0.00 | 0.53 | 0.00 | 48 | 1018.0 |
| 20260504172144 | 26 | 0.0 | 0.0 | 0.00 | 0.53 | 0.00 | 56 | 1017.6 | |
| 20260504172138 | 26 | 59 | 4.8 | 9.7 | 0.00 | 0.53 | 0.00 | 50 | 1018.0 |
| 20260504172132 | 24 | 256 | 4.8 | 8.0 | 0.00 | 0.53 | 0.00 | 47 | 1018.0 |
| 20260504172127 | 26 | 59 | 1.6 | 8.0 | 0.00 | 0.53 | 0.00 | 44 | 1018.0 |
| 20260504172121 | 25 | 256 | 4.8 | 8.0 | 0.00 | 0.53 | 0.00 | 51 | 1018.1 |
| 20260504172115 | 24 | 0.0 | 4.8 | 0.00 | 0.53 | 0.00 | 49 | 1017.9 | |
| 20260504172110 | 24 | 0.0 | 0.0 | 0.00 | 0.53 | 0.00 | 49 | 1017.9 | |
| 20260504172104 | 24 | 0.0 | 0.0 | 0.00 | 0.53 | 0.00 | 50 | 1017.8 | |
| 20260504172059 | 24 | 0.0 | 0.0 | 0.00 | 0.53 | 0.00 | 49 | 1017.9 | |
| 20260504172054 | 25 | 0.0 | 0.0 | 0.00 | 0.53 | 0.00 | 52 | 1017.5 | |
| 20260504172049 | 25 | 0.0 | 0.0 | 0.00 | 0.53 | 0.00 | 57 | 1017.4 | |
| 20260504171647 | 26 | 13 | 11.3 | 16.1 | 0.00 | 0.53 | 0.00 | 48 | 1018.0 |
| 20260504171643 | 24 | 256 | 4.8 | 8.0 | 0.00 | 0.53 | 0.00 | 47 | 1018.0 |
| 20260504171638 | 26 | 0.0 | 0.0 | 0.00 | 0.53 | 0.00 | 56 | 1017.6 | |
| 20260504171514 | 25 | 0.0 | 0.0 | 0.00 | 0.53 | 0.00 | 52 | 1017.5 | |
| 20260504171508 | 24 | 0.0 | 0.0 | 0.00 | 0.53 | 0.00 | 50 | 1017.8 | |
| 20260504171504 | 26 | 17 | 6.4 | 16.1 | 0.00 | 0.53 | 0.00 | 48 | 1018.0 |
| 20260504171458 | 25 | 0.0 | 0.0 | 0.00 | 0.53 | 0.00 | 57 | 1017.4 | |
| 20260504171342 | 26 | 59 | 1.6 | 8.0 | 0.00 | 0.53 | 0.00 | 44 | 1018.0 |
| 20260504171338 | 14 | 48 | 1.6 | 9.7 | 0.00 | 0.69 | 0.00 | 95 | 1017.2 |
| 20260504171333 | 15 | 18 | 3.2 | 8.0 | 0.00 | 0.69 | 0.00 | 92 | 1017.5 |
| 20260504171329 | 26 | 59 | 4.8 | 9.7 | 0.00 | 0.53 | 0.00 | 50 | 1018.0 |
| 20260504171324 | 25 | 256 | 4.8 | 8.0 | 0.00 | 0.53 | 0.00 | 51 | 1018.1 |
| 20260504171319 | 24 | 0.0 | 4.8 | 0.00 | 0.53 | 0.00 | 49 | 1017.9 | |
| 20260504171315 | 24 | 0.0 | 0.0 | 0.00 | 0.53 | 0.00 | 49 | 1017.9 | |
| 20260504171156 | 15 | 0 | 1.6 | 8.0 | 0.00 | 0.69 | 0.00 | 93 | 1017.6 |
| 20260504171152 | 15 | 49 | 1.6 | 6.4 | 0.00 | 0.69 | 0.00 | 94 | 1017.5 |
| 20260504171148 | 25 | 0.0 | 0.0 | 0.00 | 0.53 | 0.00 | 51 | 1017.8 | |
| 20260504171143 | 14 | 48 | 0.0 | 4.8 | 0.00 | 0.69 | 0.00 | 94 | 1017.4 |
| 20260504171139 | 19 | 36 | 9.7 | 12.9 | 0.00 | 0.69 | 0.00 | 82 | 1018.0 |
| 20260504171135 | 18 | 0 | 6.4 | 12.9 | 0.00 | 0.69 | 0.00 | 87 | 1018.0 |
| 20260504171129 | 17 | 343 | 3.2 | 6.4 | 0.00 | 0.69 | 0.00 | 90 | 1017.8 |
| 20260504171125 | 16 | 340 | 1.6 | 6.4 | 0.00 | 0.69 | 0.00 | 91 | 1017.7 |
| 20260504171121 | 16 | 311 | 3.2 | 8.0 | 0.00 | 0.69 | 0.00 | 92 | 1017.8 |
| 20260504171115 | 21 | 32 | 9.7 | 12.9 | 0.00 | 0.53 | 0.00 | 77 | 1017.9 |
| 20260504171111 | 23 | 51 | 12.9 | 17.7 | 0.00 | 0.53 | 0.00 | 63 | 1018.0 |
| 20260504171107 | 22 | 40 | 11.3 | 16.1 | 0.00 | 0.53 | 0.00 | 69 | 1018.0 |
| 20260504171102 | 24 | 42 | 14.5 | 19.3 | 0.00 | 0.53 | 0.00 | 57 | 1018.0 |
| 20260504171057 | 25 | 35 | 14.5 | 19.3 | 0.00 | 0.53 | 0.00 | 59 | 1018.0 |
| 20260504171053 | 25 | 39 | 12.9 | 19.3 | 0.00 | 0.53 | 0.00 | 51 | 1018.1 |
| 20260504171048 | 25 | 54 | 9.7 | 17.7 | 0.00 | 0.53 | 0.00 | 53 | 1018.3 |
| 20260504171044 | 25 | 31 | 14.5 | 17.7 | 0.00 | 0.53 | 0.00 | 49 | 1018.1 |
| 20260504171040 | 26 | 0.0 | 0.0 | 0.00 | 0.53 | 0.00 | 56 | 1017.6 | |
| 20260504171033 | 24 | 256 | 4.8 | 8.0 | 0.00 | 0.53 | 0.00 | 47 | 1018.0 |
| 20260504171029 | 25 | 0.0 | 0.0 | 0.00 | 0.53 | 0.00 | 52 | 1017.5 | |
| 20260504171024 | 25 | 36 | 8.0 | 16.1 | 0.00 | 0.53 | 0.00 | 51 | 1018.2 |
| 20260504171019 | 26 | 22 | 8.0 | 16.1 | 0.00 | 0.53 | 0.00 | 50 | 1018.1 |
| 20260504171014 | 25 | 28 | 9.7 | 17.7 | 0.00 | 0.53 | 0.00 | 46 | 1018.1 |
| 20260504171009 | 26 | 22 | 11.3 | 16.1 | 0.00 | 0.53 | 0.00 | 48 | 1018.0 |
| 20260504171005 | 26 | 13 | 11.3 | 16.1 | 0.00 | 0.53 | 0.00 | 48 | 1018.0 |
| 20260504170959 | 26 | 17 | 6.4 | 16.1 | 0.00 | 0.53 | 0.00 | 48 | 1018.0 |
| 20260504170955 | 24 | 0.0 | 0.0 | 0.00 | 0.53 | 0.00 | 49 | 1017.9 | |
| 20260504170951 | 24 | 0.0 | 0.0 | 0.00 | 0.53 | 0.00 | 50 | 1017.8 | |
| 20260504170834 | 26 | 59 | 1.6 | 8.0 | 0.00 | 0.53 | 0.00 | 44 | 1018.0 |
| 20260504170830 | 24 | 0.0 | 0.0 | 0.00 | 0.53 | 0.00 | 49 | 1017.9 | |
| 20260504170715 | 24 | 0.0 | 4.8 | 0.00 | 0.53 | 0.00 | 49 | 1017.9 | |
| 20260504170709 | 25 | 0.0 | 0.0 | 0.00 | 0.53 | 0.00 | 54 | 1017.9 | |
| 20260504170704 | 25 | 0.0 | 0.0 | 0.00 | 0.53 | 0.00 | 51 | 1017.8 | |
| 20260504170548 | 26 | 0.0 | 0.0 | 0.00 | 0.53 | 0.00 | 56 | 1017.6 | |
| 20260504170540 | 25 | 0.0 | 0.0 | 0.00 | 0.53 | 0.00 | 52 | 1017.5 | |
| 20260504170430 | 24 | 0.0 | 0.0 | 0.00 | 0.53 | 0.00 | 50 | 1017.8 | |
| 20260504170314 | 25 | 28 | 9.7 | 17.7 | 0.00 | 0.53 | 0.00 | 46 | 1018.1 |
| 20260504170309 | 26 | 22 | 11.3 | 16.1 | 0.00 | 0.53 | 0.00 | 48 | 1018.0 |
| 20260504170304 | 26 | 59 | 4.8 | 9.7 | 0.00 | 0.53 | 0.00 | 50 | 1018.0 |
| 20260504170300 | 26 | 59 | 1.6 | 8.0 | 0.00 | 0.53 | 0.00 | 44 | 1018.0 |
| 20260504170254 | 24 | 0.0 | 0.0 | 0.00 | 0.53 | 0.00 | 49 | 1017.9 | |
| 20260504170137 | 24 | 0.0 | 4.8 | 0.00 | 0.53 | 0.00 | 49 | 1017.9 | |
| 20260504170133 | 25 | 0.0 | 0.0 | 0.00 | 0.53 | 0.00 | 54 | 1017.9 | |
| 20260504170129 | 25 | 0.0 | 0.0 | 0.00 | 0.53 | 0.00 | 51 | 1017.8 | |
| 20260504160438 | 14 | 48 | 1.6 | 9.7 | 0.00 | 0.69 | 0.00 | 95 | 1017.2 |
| 20260504160434 | 14 | 48 | 0.0 | 4.8 | 0.00 | 0.69 | 0.00 | 94 | 1017.4 |
| 20260504160429 | 16 | 311 | 3.2 | 8.0 | 0.00 | 0.69 | 0.00 | 92 | 1017.8 |
| 20260504160425 | 15 | 18 | 3.2 | 8.0 | 0.00 | 0.69 | 0.00 | 92 | 1017.5 |
| 20260504160421 | 15 | 0 | 1.6 | 8.0 | 0.00 | 0.69 | 0.00 | 93 | 1017.6 |
| 20260504160417 | 15 | 49 | 1.6 | 6.4 | 0.00 | 0.69 | 0.00 | 94 | 1017.5 |
| 20260504160411 | 17 | 343 | 3.2 | 6.4 | 0.00 | 0.69 | 0.00 | 90 | 1017.8 |
| 20260504160407 | 24 | 0.0 | 0.0 | 0.00 | 0.53 | 0.00 | 49 | 1017.9 | |
| 20260504160400 | 16 | 340 | 1.6 | 6.4 | 0.00 | 0.69 | 0.00 | 91 | 1017.7 |
| 20260504160355 | 18 | 0 | 6.4 | 12.9 | 0.00 | 0.69 | 0.00 | 87 | 1018.0 |
| 20260504160351 | 19 | 36 | 9.7 | 12.9 | 0.00 | 0.69 | 0.00 | 82 | 1018.0 |
| 20260504160347 | 26 | 22 | 11.3 | 16.1 | 0.00 | 0.53 | 0.00 | 48 | 1018.0 |
| 20260504160341 | 21 | 32 | 9.7 | 12.9 | 0.00 | 0.53 | 0.00 | 77 | 1017.9 |
| 20260504160337 | 26 | 17 | 6.4 | 16.1 | 0.00 | 0.53 | 0.00 | 48 | 1018.0 |
| 20260504160333 | 23 | 51 | 12.9 | 17.7 | 0.00 | 0.53 | 0.00 | 63 | 1018.0 |
| 20260504160327 | 22 | 40 | 11.3 | 16.1 | 0.00 | 0.53 | 0.00 | 69 | 1018.0 |
| 20260504160323 | 25 | 35 | 14.5 | 19.3 | 0.00 | 0.53 | 0.00 | 59 | 1018.0 |
| 20260504160319 | 25 | 39 | 12.9 | 19.3 | 0.00 | 0.53 | 0.00 | 51 | 1018.1 |
| 20260504160314 | 26 | 59 | 1.6 | 8.0 | 0.00 | 0.53 | 0.00 | 44 | 1018.0 |
| 20260504160158 | 24 | 42 | 14.5 | 19.3 | 0.00 | 0.53 | 0.00 | 57 | 1018.0 |
| 20260504160151 | 25 | 28 | 9.7 | 17.7 | 0.00 | 0.53 | 0.00 | 46 | 1018.1 |
| 20260504160147 | 25 | 36 | 8.0 | 16.1 | 0.00 | 0.53 | 0.00 | 51 | 1018.2 |
| 20260504160143 | 26 | 22 | 8.0 | 16.1 | 0.00 | 0.53 | 0.00 | 50 | 1018.1 |
| 20260504160138 | 25 | 256 | 4.8 | 8.0 | 0.00 | 0.53 | 0.00 | 51 | 1018.1 |
| 20260504160134 | 25 | 54 | 9.7 | 17.7 | 0.00 | 0.53 | 0.00 | 53 | 1018.3 |
| 20260504151148 | 25 | 31 | 14.5 | 17.7 | 0.00 | 0.53 | 0.00 | 49 | 1018.1 |
| 20260504151142 | 25 | 28 | 9.7 | 17.7 | 0.00 | 0.53 | 0.00 | 46 | 1018.1 |
| 20260504151138 | 13 | 54 | 4.8 | 9.7 | 0.00 | 0.69 | 0.00 | 94 | 1017.1 |
| 20260504151133 | 13 | 28 | 4.8 | 14.5 | 0.00 | 0.69 | 0.00 | 94 | 1017.0 |
| 20260504151127 | 26 | 22 | 8.0 | 16.1 | 0.00 | 0.53 | 0.00 | 50 | 1018.1 |
| 20260504151122 | 23 | 51 | 12.9 | 17.7 | 0.00 | 0.53 | 0.00 | 63 | 1018.0 |
| 20260504151118 | 24 | 42 | 14.5 | 19.3 | 0.00 | 0.53 | 0.00 | 57 | 1018.0 |
| 20260504151109 | 25 | 35 | 14.5 | 19.3 | 0.00 | 0.53 | 0.00 | 59 | 1018.0 |
| 20260504151105 | 25 | 54 | 9.7 | 17.7 | 0.00 | 0.53 | 0.00 | 53 | 1018.3 |
| 20260504151059 | 26 | 13 | 11.3 | 16.1 | 0.00 | 0.53 | 0.00 | 48 | 1018.0 |
| 20260504150935 | 26 | 17 | 6.4 | 16.1 | 0.00 | 0.53 | 0.00 | 48 | 1018.0 |
| 20260504150808 | 14 | 48 | 1.6 | 9.7 | 0.00 | 0.69 | 0.00 | 95 | 1017.2 |
| 20260504150803 | 14 | 48 | 0.0 | 4.8 | 0.00 | 0.69 | 0.00 | 94 | 1017.4 |
| 20260504150757 | 15 | 49 | 1.6 | 6.4 | 0.00 | 0.69 | 0.00 | 94 | 1017.5 |
| 20260504150753 | 16 | 311 | 3.2 | 8.0 | 0.00 | 0.69 | 0.00 | 92 | 1017.8 |
| 20260504150747 | 15 | 18 | 3.2 | 8.0 | 0.00 | 0.69 | 0.00 | 92 | 1017.5 |
| 20260504150742 | 15 | 0 | 1.6 | 8.0 | 0.00 | 0.69 | 0.00 | 93 | 1017.6 |
| 20260504150738 | 16 | 340 | 1.6 | 6.4 | 0.00 | 0.69 | 0.00 | 91 | 1017.7 |
| 20260504150732 | 17 | 343 | 3.2 | 6.4 | 0.00 | 0.69 | 0.00 | 90 | 1017.8 |
| 20260504150727 | 18 | 0 | 6.4 | 12.9 | 0.00 | 0.69 | 0.00 | 87 | 1018.0 |
| 20260504150721 | 19 | 36 | 9.7 | 12.9 | 0.00 | 0.69 | 0.00 | 82 | 1018.0 |
| 20260504150717 | 25 | 39 | 12.9 | 19.3 | 0.00 | 0.53 | 0.00 | 51 | 1018.1 |
| 20260504150709 | 25 | 31 | 14.5 | 17.7 | 0.00 | 0.53 | 0.00 | 49 | 1018.1 |
| 20260504150704 | 21 | 32 | 9.7 | 12.9 | 0.00 | 0.53 | 0.00 | 77 | 1017.9 |
| 20260504150659 | 22 | 40 | 11.3 | 16.1 | 0.00 | 0.53 | 0.00 | 69 | 1018.0 |
| 20260504150653 | 25 | 36 | 8.0 | 16.1 | 0.00 | 0.53 | 0.00 | 51 | 1018.2 |
| 20260504150649 | 25 | 28 | 9.7 | 17.7 | 0.00 | 0.53 | 0.00 | 46 | 1018.1 |
| 20260504150644 | 26 | 22 | 8.0 | 16.1 | 0.00 | 0.53 | 0.00 | 50 | 1018.1 |
| 20260504150517 | 24 | 42 | 14.5 | 19.3 | 0.00 | 0.53 | 0.00 | 57 | 1018.0 |
| 20260504150511 | 26 | 13 | 11.3 | 16.1 | 0.00 | 0.53 | 0.00 | 48 | 1018.0 |
| 20260504150503 | 25 | 35 | 14.5 | 19.3 | 0.00 | 0.53 | 0.00 | 59 | 1018.0 |
| 20260504150459 | 25 | 54 | 9.7 | 17.7 | 0.00 | 0.53 | 0.00 | 53 | 1018.3 |
| 20260504150332 | 26 | 17 | 6.4 | 16.1 | 0.00 | 0.53 | 0.00 | 48 | 1018.0 |
| 20260504150208 | 13 | 54 | 4.8 | 9.7 | 0.00 | 0.69 | 0.00 | 94 | 1017.1 |
| 20260504150201 | 14 | 61 | 3.2 | 9.7 | 0.00 | 0.69 | 0.00 | 95 | 1017.2 |
| 20260504150157 | 25 | 31 | 14.5 | 17.7 | 0.00 | 0.53 | 0.00 | 49 | 1018.1 |
| 20260504150152 | 14 | 48 | 1.6 | 9.7 | 0.00 | 0.69 | 0.00 | 95 | 1017.2 |
| 20260504150146 | 14 | 48 | 0.0 | 4.8 | 0.00 | 0.69 | 0.00 | 94 | 1017.4 |
| 20260504150142 | 25 | 36 | 8.0 | 16.1 | 0.00 | 0.53 | 0.00 | 51 | 1018.2 |
| 20260504150136 | 25 | 28 | 9.7 | 17.7 | 0.00 | 0.53 | 0.00 | 46 | 1018.1 |
| 20260504150131 | 26 | 22 | 8.0 | 16.1 | 0.00 | 0.53 | 0.00 | 50 | 1018.1 |
| 20260504141239 | 16 | 311 | 3.2 | 8.0 | 0.00 | 0.69 | 0.00 | 92 | 1017.8 |
| 20260504141235 | 15 | 18 | 3.2 | 8.0 | 0.00 | 0.69 | 0.00 | 92 | 1017.5 |
| 20260504141229 | 15 | 26 | 11.3 | 16.1 | 0.00 | 0.69 | 0.00 | 92 | 1017.1 |
| 20260504141224 | 15 | 57 | 12.9 | 19.3 | 0.00 | 0.69 | 0.00 | 92 | 1016.9 |
| 20260504141219 | 16 | 340 | 1.6 | 6.4 | 0.00 | 0.69 | 0.00 | 91 | 1017.7 |
| 20260504141213 | 17 | 343 | 3.2 | 6.4 | 0.00 | 0.69 | 0.00 | 90 | 1017.8 |
| 20260504141207 | 24 | 42 | 14.5 | 19.3 | 0.00 | 0.53 | 0.00 | 57 | 1018.0 |
| 20260504141200 | 18 | 0 | 6.4 | 12.9 | 0.00 | 0.69 | 0.00 | 87 | 1018.0 |
| 20260504141154 | 16 | 65 | 14.5 | 19.3 | 0.00 | 0.69 | 0.00 | 92 | 1016.9 |
| 20260504141149 | 14 | 36 | 1.6 | 4.8 | 0.00 | 0.69 | 0.00 | 94 | 1016.9 |
| 20260504141144 | 14 | 0 | 9.7 | 16.1 | 0.00 | 0.69 | 0.00 | 94 | 1016.8 |
| 20260504141139 | 13 | 56 | 9.7 | 16.1 | 0.00 | 0.69 | 0.00 | 94 | 1017.0 |
| 20260504141134 | 13 | 28 | 4.8 | 14.5 | 0.00 | 0.69 | 0.00 | 94 | 1017.0 |
| 20260504141128 | 13 | 54 | 4.8 | 9.7 | 0.00 | 0.69 | 0.00 | 94 | 1017.1 |
| 20260504141124 | 14 | 61 | 3.2 | 9.7 | 0.00 | 0.69 | 0.00 | 95 | 1017.2 |
| 20260504141118 | 19 | 36 | 9.7 | 12.9 | 0.00 | 0.69 | 0.00 | 82 | 1018.0 |
| 20260504141113 | 21 | 32 | 9.7 | 12.9 | 0.00 | 0.53 | 0.00 | 77 | 1017.9 |
| 20260504141107 | 22 | 40 | 11.3 | 16.1 | 0.00 | 0.53 | 0.00 | 69 | 1018.0 |
| 20260504141100 | 25 | 35 | 14.5 | 19.3 | 0.00 | 0.53 | 0.00 | 59 | 1018.0 |
| 20260504141056 | 25 | 39 | 12.9 | 19.3 | 0.00 | 0.53 | 0.00 | 51 | 1018.1 |
| 20260504140928 | 25 | 54 | 9.7 | 17.7 | 0.00 | 0.53 | 0.00 | 53 | 1018.3 |
| 20260504140923 | 25 | 36 | 8.0 | 16.1 | 0.00 | 0.53 | 0.00 | 51 | 1018.2 |
| 20260504140754 | 14 | 48 | 0.0 | 4.8 | 0.00 | 0.69 | 0.00 | 94 | 1017.4 |
| 20260504140749 | 15 | 49 | 1.6 | 6.4 | 0.00 | 0.69 | 0.00 | 94 | 1017.5 |
| 20260504140744 | 15 | 0 | 1.6 | 8.0 | 0.00 | 0.69 | 0.00 | 93 | 1017.6 |
| 20260504140738 | 16 | 311 | 3.2 | 8.0 | 0.00 | 0.69 | 0.00 | 92 | 1017.8 |
| 20260504140734 | 15 | 18 | 3.2 | 8.0 | 0.00 | 0.69 | 0.00 | 92 | 1017.5 |
| 20260504140728 | 16 | 340 | 1.6 | 6.4 | 0.00 | 0.69 | 0.00 | 91 | 1017.7 |
| 20260504140723 | 17 | 343 | 3.2 | 6.4 | 0.00 | 0.69 | 0.00 | 90 | 1017.8 |
| 20260504140717 | 24 | 42 | 14.5 | 19.3 | 0.00 | 0.53 | 0.00 | 57 | 1018.0 |
| 20260504140712 | 18 | 0 | 6.4 | 12.9 | 0.00 | 0.69 | 0.00 | 87 | 1018.0 |
| 20260504140544 | 21 | 32 | 9.7 | 12.9 | 0.00 | 0.53 | 0.00 | 77 | 1017.9 |
| 20260504140539 | 22 | 40 | 11.3 | 16.1 | 0.00 | 0.53 | 0.00 | 69 | 1018.0 |
| 20260504140533 | 16 | 69 | 14.5 | 19.3 | 0.00 | 0.69 | 0.00 | 92 | 1016.9 |
| 20260504140528 | 16 | 55 | 14.5 | 17.7 | 0.00 | 0.69 | 0.00 | 92 | 1016.8 |
| 20260504140523 | 25 | 35 | 14.5 | 19.3 | 0.00 | 0.53 | 0.00 | 59 | 1018.0 |
| 20260504140518 | 16 | 63 | 14.5 | 19.3 | 0.00 | 0.69 | 0.00 | 92 | 1017.0 |
| 20260504140512 | 25 | 39 | 12.9 | 19.3 | 0.00 | 0.53 | 0.00 | 51 | 1018.1 |
| 20260504140507 | 16 | 0 | 14.5 | 20.9 | 0.00 | 0.69 | 0.00 | 92 | 1017.1 |
| 20260504140501 | 14 | 37 | 3.2 | 12.9 | 0.00 | 0.69 | 0.00 | 93 | 1016.9 |
| 20260504140456 | 14 | 36 | 1.6 | 4.8 | 0.00 | 0.69 | 0.00 | 94 | 1016.9 |
| 20260504140449 | 14 | 0 | 9.7 | 16.1 | 0.00 | 0.69 | 0.00 | 94 | 1016.8 |
| 20260504140444 | 13 | 56 | 9.7 | 16.1 | 0.00 | 0.69 | 0.00 | 94 | 1017.0 |
| 20260504140439 | 13 | 28 | 4.8 | 14.5 | 0.00 | 0.69 | 0.00 | 94 | 1017.0 |
| 20260504140433 | 13 | 54 | 4.8 | 9.7 | 0.00 | 0.69 | 0.00 | 94 | 1017.1 |
| 20260504140428 | 14 | 61 | 3.2 | 9.7 | 0.00 | 0.69 | 0.00 | 95 | 1017.2 |
| 20260504140424 | 25 | 54 | 9.7 | 17.7 | 0.00 | 0.53 | 0.00 | 53 | 1018.3 |
| 20260504140418 | 23 | 51 | 12.9 | 17.7 | 0.00 | 0.53 | 0.00 | 63 | 1018.0 |
| 20260504140401 | 25 | 36 | 8.0 | 16.1 | 0.00 | 0.53 | 0.00 | 51 | 1018.2 |
| 20260504140244 | 16 | 0 | 12.9 | 19.3 | 0.00 | 0.69 | 0.00 | 90 | 1017.0 |
| 20260504140238 | 17 | 44 | 14.5 | 19.3 | 0.00 | 0.69 | 0.00 | 88 | 1017.0 |
| 20260504140233 | 17 | 63 | 12.9 | 19.3 | 0.00 | 0.69 | 0.00 | 87 | 1016.9 |
| 20260504140228 | 18 | 78 | 14.5 | 19.3 | 0.00 | 0.69 | 0.00 | 87 | 1016.9 |
| 20260504140223 | 18 | 59 | 14.5 | 20.9 | 0.00 | 0.69 | 0.00 | 88 | 1017.0 |
| 20260504140218 | 17 | 67 | 16.1 | 20.9 | 0.00 | 0.69 | 0.00 | 89 | 1017.2 |
| 20260504140213 | 17 | 61 | 12.9 | 19.3 | 0.00 | 0.69 | 0.00 | 87 | 1017.2 |
| 20260504140208 | 14 | 52 | 3.2 | 12.9 | 0.00 | 0.69 | 0.00 | 93 | 1017.0 |
| 20260504140202 | 14 | 48 | 1.6 | 9.7 | 0.00 | 0.69 | 0.00 | 95 | 1017.2 |
| 20260504140157 | 24 | 42 | 14.5 | 19.3 | 0.00 | 0.53 | 0.00 | 57 | 1018.0 |
| 20260504140150 | 14 | 236 | 1.6 | 8.0 | 0.00 | 0.69 | 0.00 | 93 | 1016.9 |
| 20260504140144 | 14 | 90 | 1.6 | 9.7 | 0.00 | 0.69 | 0.00 | 93 | 1016.9 |
| 20260504140140 | 15 | 61 | 1.6 | 9.7 | 0.00 | 0.69 | 0.00 | 92 | 1016.9 |
| 20260504140134 | 14 | 48 | 0.0 | 4.8 | 0.00 | 0.69 | 0.00 | 94 | 1017.4 |
| 20260504140129 | 15 | 49 | 1.6 | 6.4 | 0.00 | 0.69 | 0.00 | 94 | 1017.5 |
| 20260504140123 | 15 | 0 | 1.6 | 8.0 | 0.00 | 0.69 | 0.00 | 93 | 1017.6 |
| 20260504140118 | 16 | 311 | 3.2 | 8.0 | 0.00 | 0.69 | 0.00 | 92 | 1017.8 |
| 20260504140113 | 15 | 18 | 3.2 | 8.0 | 0.00 | 0.69 | 0.00 | 92 | 1017.5 |
| 20260504140108 | 16 | 340 | 1.6 | 6.4 | 0.00 | 0.69 | 0.00 | 91 | 1017.7 |
| 20260504130759 | 16 | 311 | 3.2 | 8.0 | 0.00 | 0.69 | 0.00 | 92 | 1017.8 |
| 20260504130754 | 16 | 340 | 1.6 | 6.4 | 0.00 | 0.69 | 0.00 | 91 | 1017.7 |
| 20260504130747 | 17 | 343 | 3.2 | 6.4 | 0.00 | 0.69 | 0.00 | 90 | 1017.8 |
| 20260504130619 | 14 | 90 | 1.6 | 9.7 | 0.00 | 0.69 | 0.00 | 93 | 1016.9 |
| 20260504130614 | 14 | 52 | 3.2 | 12.9 | 0.00 | 0.69 | 0.00 | 93 | 1017.0 |
| 20260504130609 | 15 | 18 | 3.2 | 8.0 | 0.00 | 0.69 | 0.00 | 92 | 1017.5 |
| 20260504130603 | 18 | 0 | 6.4 | 12.9 | 0.00 | 0.69 | 0.00 | 87 | 1018.0 |
| 20260504130434 | 14 | 36 | 1.6 | 4.8 | 0.00 | 0.69 | 0.00 | 94 | 1016.9 |
| 20260504130429 | 14 | 0 | 9.7 | 16.1 | 0.00 | 0.69 | 0.00 | 94 | 1016.8 |
| 20260504130424 | 13 | 56 | 9.7 | 16.1 | 0.00 | 0.69 | 0.00 | 94 | 1017.0 |
| 20260504130419 | 19 | 36 | 9.7 | 12.9 | 0.00 | 0.69 | 0.00 | 82 | 1018.0 |
| 20260504130414 | 13 | 28 | 4.8 | 14.5 | 0.00 | 0.69 | 0.00 | 94 | 1017.0 |
| 20260504130408 | 13 | 54 | 4.8 | 9.7 | 0.00 | 0.69 | 0.00 | 94 | 1017.1 |
| 20260504130403 | 21 | 32 | 9.7 | 12.9 | 0.00 | 0.53 | 0.00 | 77 | 1017.9 |
| 20260504130357 | 14 | 61 | 3.2 | 9.7 | 0.00 | 0.69 | 0.00 | 95 | 1017.2 |
| 20260504130344 | 22 | 40 | 11.3 | 16.1 | 0.00 | 0.53 | 0.00 | 69 | 1018.0 |
| 20260504130224 | 14 | 48 | 0.0 | 4.8 | 0.00 | 0.69 | 0.00 | 94 | 1017.4 |
| 20260504130219 | 15 | 49 | 1.6 | 6.4 | 0.00 | 0.69 | 0.00 | 94 | 1017.5 |
| 20260504130213 | 15 | 0 | 1.6 | 8.0 | 0.00 | 0.69 | 0.00 | 93 | 1017.6 |
| 20260504130208 | 16 | 340 | 1.6 | 6.4 | 0.00 | 0.69 | 0.00 | 91 | 1017.7 |
| 20260504130202 | 16 | 311 | 3.2 | 8.0 | 0.00 | 0.69 | 0.00 | 92 | 1017.8 |
| 20260504130157 | 17 | 343 | 3.2 | 6.4 | 0.00 | 0.69 | 0.00 | 90 | 1017.8 |
| 20260504120314 | 16 | 311 | 3.2 | 8.0 | 0.00 | 0.69 | 0.00 | 92 | 1017.8 |
| 20260504120309 | 13 | 28 | 4.8 | 14.5 | 0.00 | 0.69 | 0.00 | 94 | 1017.0 |
| 20260504120303 | 17 | 61 | 11.3 | 16.1 | 0.00 | 0.69 | 0.00 | 88 | 1018.0 |
| 20260504120259 | 13 | 54 | 4.8 | 9.7 | 0.00 | 0.69 | 0.00 | 94 | 1017.1 |
| 20260504120253 | 14 | 48 | 1.6 | 9.7 | 0.00 | 0.69 | 0.00 | 95 | 1017.2 |
| 20260504120248 | 14 | 61 | 3.2 | 9.7 | 0.00 | 0.69 | 0.00 | 95 | 1017.2 |
| 20260504120242 | 14 | 48 | 0.0 | 4.8 | 0.00 | 0.69 | 0.00 | 94 | 1017.4 |
| 20260504120113 | 16 | 0 | 16.1 | 20.9 | 0.00 | 0.69 | 0.00 | 91 | 1017.0 |
| 20260504120108 | 16 | 63 | 14.5 | 19.3 | 0.00 | 0.69 | 0.00 | 92 | 1017.0 |
| 20260504120104 | 16 | 55 | 14.5 | 17.7 | 0.00 | 0.69 | 0.00 | 92 | 1016.8 |
| 20260504110639 | 17 | 44 | 14.5 | 19.3 | 0.00 | 0.69 | 0.00 | 88 | 1017.0 |
| 20260504110634 | 15 | 61 | 1.6 | 9.7 | 0.00 | 0.69 | 0.00 | 92 | 1016.9 |
| 20260504110628 | 14 | 236 | 1.6 | 8.0 | 0.00 | 0.69 | 0.00 | 93 | 1016.9 |
| 20260504110624 | 14 | 36 | 1.6 | 4.8 | 0.00 | 0.69 | 0.00 | 94 | 1016.9 |
| 20260504110618 | 14 | 0 | 9.7 | 16.1 | 0.00 | 0.69 | 0.00 | 94 | 1016.8 |
| 20260504110613 | 13 | 56 | 9.7 | 16.1 | 0.00 | 0.69 | 0.00 | 94 | 1017.0 |
| 20260504110445 | 16 | 0 | 12.9 | 19.3 | 0.00 | 0.69 | 0.00 | 90 | 1017.0 |
| 20260504110440 | 16 | 0 | 14.5 | 20.9 | 0.00 | 0.69 | 0.00 | 92 | 1017.1 |
| 20260504110435 | 16 | 0 | 16.1 | 20.9 | 0.00 | 0.69 | 0.00 | 91 | 1017.0 |
| 20260504110429 | 13 | 28 | 4.8 | 14.5 | 0.00 | 0.69 | 0.00 | 94 | 1017.0 |
| 20260504110424 | 13 | 54 | 4.8 | 9.7 | 0.00 | 0.69 | 0.00 | 94 | 1017.1 |
| 20260504110404 | 14 | 61 | 3.2 | 9.7 | 0.00 | 0.69 | 0.00 | 95 | 1017.2 |
| 20260504110251 | 16 | 55 | 14.5 | 17.7 | 0.00 | 0.69 | 0.00 | 92 | 1016.8 |
| 20260504110246 | 16 | 69 | 14.5 | 19.3 | 0.00 | 0.69 | 0.00 | 92 | 1016.9 |
| 20260504110240 | 15 | 57 | 12.9 | 19.3 | 0.00 | 0.69 | 0.00 | 92 | 1016.9 |
| 20260504110235 | 16 | 65 | 14.5 | 19.3 | 0.00 | 0.69 | 0.00 | 92 | 1016.9 |
| 20260504110231 | 15 | 50 | 3.2 | 16.1 | 0.00 | 0.69 | 0.00 | 92 | 1017.0 |
| 20260504110225 | 15 | 26 | 11.3 | 16.1 | 0.00 | 0.69 | 0.00 | 92 | 1017.1 |
| 20260504110219 | 14 | 90 | 1.6 | 9.7 | 0.00 | 0.69 | 0.00 | 93 | 1016.9 |
| 20260504110214 | 14 | 52 | 3.2 | 12.9 | 0.00 | 0.69 | 0.00 | 93 | 1017.0 |
| 20260504110209 | 14 | 37 | 3.2 | 12.9 | 0.00 | 0.69 | 0.00 | 93 | 1016.9 |
| 20260504100506 | 16 | 66 | 11.3 | 17.7 | 0.00 | 0.69 | 0.00 | 89 | 1017.9 |
| 20260504100502 | 17 | 71 | 14.5 | 19.3 | 0.00 | 0.69 | 0.00 | 88 | 1017.6 |
| 20260504100456 | 17 | 0 | 12.9 | 19.3 | 0.00 | 0.69 | 0.00 | 87 | 1017.4 |
| 20260504100450 | 17 | 67 | 16.1 | 20.9 | 0.00 | 0.69 | 0.00 | 89 | 1017.2 |
| 20260504100446 | 17 | 61 | 12.9 | 19.3 | 0.00 | 0.69 | 0.00 | 87 | 1017.2 |
| 20260504100442 | 18 | 59 | 14.5 | 20.9 | 0.00 | 0.69 | 0.00 | 88 | 1017.0 |
| 20260504100437 | 18 | 78 | 14.5 | 19.3 | 0.00 | 0.69 | 0.00 | 87 | 1016.9 |
| 20260504100433 | 17 | 63 | 12.9 | 19.3 | 0.00 | 0.69 | 0.00 | 87 | 1016.9 |
| 20260504100426 | 17 | 44 | 14.5 | 19.3 | 0.00 | 0.69 | 0.00 | 88 | 1017.0 |
| 20260504100421 | 16 | 0 | 12.9 | 19.3 | 0.00 | 0.69 | 0.00 | 90 | 1017.0 |
| 20260504100416 | 16 | 0 | 16.1 | 20.9 | 0.00 | 0.69 | 0.00 | 91 | 1017.0 |
| 20260504100411 | 16 | 0 | 14.5 | 20.9 | 0.00 | 0.69 | 0.00 | 92 | 1017.1 |
| 20260504100405 | 16 | 63 | 14.5 | 19.3 | 0.00 | 0.69 | 0.00 | 92 | 1017.0 |
| 20260504100400 | 16 | 55 | 14.5 | 17.7 | 0.00 | 0.69 | 0.00 | 92 | 1016.8 |
| 20260504100355 | 16 | 69 | 14.5 | 19.3 | 0.00 | 0.69 | 0.00 | 92 | 1016.9 |
| 20260504100350 | 16 | 65 | 14.5 | 19.3 | 0.00 | 0.69 | 0.00 | 92 | 1016.9 |
| 20260504100345 | 15 | 57 | 12.9 | 19.3 | 0.00 | 0.69 | 0.00 | 92 | 1016.9 |
| 20260504100340 | 15 | 50 | 3.2 | 16.1 | 0.00 | 0.69 | 0.00 | 92 | 1017.0 |
| 20260504100335 | 15 | 61 | 1.6 | 9.7 | 0.00 | 0.69 | 0.00 | 92 | 1016.9 |
| 20260504100328 | 14 | 52 | 3.2 | 12.9 | 0.00 | 0.69 | 0.00 | 93 | 1017.0 |
| 20260504100320 | 14 | 37 | 3.2 | 12.9 | 0.00 | 0.69 | 0.00 | 93 | 1016.9 |
| 20260504100159 | 20 | 78 | 12.9 | 20.9 | 0.00 | 0.69 | 0.69 | 74 | 1017.7 |
| 20260504100153 | 19 | 59 | 12.9 | 16.1 | 0.00 | 0.69 | 0.00 | 81 | 1018.2 |
| 20260504100149 | 19 | 67 | 11.3 | 17.7 | 0.00 | 0.69 | 0.00 | 82 | 1018.3 |
| 20260504100143 | 19 | 72 | 12.9 | 17.7 | 0.00 | 0.69 | 0.00 | 81 | 1018.3 |
| 20260504100138 | 19 | 80 | 9.7 | 12.9 | 0.00 | 0.69 | 0.00 | 81 | 1018.2 |
| 20260504100133 | 19 | 73 | 11.3 | 17.7 | 0.00 | 0.69 | 0.00 | 80 | 1018.1 |
| 20260504100126 | 19 | 70 | 11.3 | 17.7 | 0.00 | 0.69 | 0.00 | 81 | 1018.2 |
| 20260504100121 | 19 | 69 | 12.9 | 17.7 | 0.00 | 0.69 | 0.69 | 79 | 1018.3 |
| 20260504100117 | 19 | 71 | 14.5 | 20.9 | 0.00 | 0.69 | 0.69 | 81 | 1018.1 |
| 20260504100111 | 19 | 74 | 14.5 | 20.9 | 0.00 | 0.69 | 0.69 | 79 | 1018.1 |
| 20260504100106 | 19 | 69 | 12.9 | 17.7 | 0.00 | 0.69 | 0.00 | 83 | 1018.1 |